<?xml version="1.0" encoding="UTF-8" standalone="no" ?>
<gpx xmlns="http://www.topografix.com/GPX/1/1" version="1.1" creator="Navime Gps Tracker">
<metadata>
<name>Navime Gps Tracker</name>
<time>2014-05-18T19:12:32Z</time>
</metadata>
<trk>
<trkseg>
<trkpt lat="53.02600853" lon="18.67898784">
<ele>127</ele>
<time>2014-05-18T13:11:46Z</time>
</trkpt>
<trkpt lat="53.02604013" lon="18.67891523">
<ele>128</ele>
<time>2014-05-18T13:11:52Z</time>
</trkpt>
<trkpt lat="53.02604013" lon="18.67891523">
<ele>128</ele>
<time>2014-05-18T13:11:58Z</time>
</trkpt>
<trkpt lat="53.02608973" lon="18.67905554">
<ele>121</ele>
<time>2014-05-18T13:12:04Z</time>
</trkpt>
<trkpt lat="53.02615163" lon="18.67926579">
<ele>118</ele>
<time>2014-05-18T13:12:10Z</time>
</trkpt>
<trkpt lat="53.02613872" lon="18.67943449">
<ele>123</ele>
<time>2014-05-18T13:12:16Z</time>
</trkpt>
<trkpt lat="53.02614704" lon="18.67970243">
<ele>126</ele>
<time>2014-05-18T13:12:22Z</time>
</trkpt>
<trkpt lat="53.0261579" lon="18.67978718">
<ele>125</ele>
<time>2014-05-18T13:12:28Z</time>
</trkpt>
<trkpt lat="53.02620557" lon="18.67997154">
<ele>127</ele>
<time>2014-05-18T13:12:34Z</time>
</trkpt>
<trkpt lat="53.0261493" lon="18.68044631">
<ele>128</ele>
<time>2014-05-18T13:12:40Z</time>
</trkpt>
<trkpt lat="53.02616518" lon="18.68055704">
<ele>130</ele>
<time>2014-05-18T13:12:46Z</time>
</trkpt>
<trkpt lat="53.02618811" lon="18.68113124">
<ele>119</ele>
<time>2014-05-18T13:12:52Z</time>
</trkpt>
<trkpt lat="53.02621108" lon="18.68138033">
<ele>117</ele>
<time>2014-05-18T13:12:58Z</time>
</trkpt>
<trkpt lat="53.02625266" lon="18.68165325">
<ele>112</ele>
<time>2014-05-18T13:13:04Z</time>
</trkpt>
<trkpt lat="53.0263005" lon="18.68189507">
<ele>113</ele>
<time>2014-05-18T13:13:10Z</time>
</trkpt>
<trkpt lat="53.02631801" lon="18.68197394">
<ele>111</ele>
<time>2014-05-18T13:13:16Z</time>
</trkpt>
<trkpt lat="53.02631801" lon="18.68197394">
<ele>111</ele>
<time>2014-05-18T13:13:23Z</time>
</trkpt>
<trkpt lat="53.02632316" lon="18.68207373">
<ele>109</ele>
<time>2014-05-18T13:13:46Z</time>
</trkpt>
<trkpt lat="53.02632316" lon="18.68207373">
<ele>109</ele>
<time>2014-05-18T13:13:59Z</time>
</trkpt>
<trkpt lat="53.02631656" lon="18.68208433">
<ele>114</ele>
<time>2014-05-18T13:14:06Z</time>
</trkpt>
<trkpt lat="53.02631783" lon="18.68208638">
<ele>115</ele>
<time>2014-05-18T13:14:13Z</time>
</trkpt>
<trkpt lat="53.02631915" lon="18.68209032">
<ele>115</ele>
<time>2014-05-18T13:14:22Z</time>
</trkpt>
<trkpt lat="53.02631854" lon="18.68209001">
<ele>115</ele>
<time>2014-05-18T13:14:32Z</time>
</trkpt>
<trkpt lat="53.02631818" lon="18.68208938">
<ele>115</ele>
<time>2014-05-18T13:14:41Z</time>
</trkpt>
<trkpt lat="53.02631391" lon="18.68207447">
<ele>114</ele>
<time>2014-05-18T13:14:49Z</time>
</trkpt>
<trkpt lat="53.02629398" lon="18.68201118">
<ele>111</ele>
<time>2014-05-18T13:14:57Z</time>
</trkpt>
<trkpt lat="53.02628233" lon="18.68207679">
<ele>108</ele>
<time>2014-05-18T13:15:06Z</time>
</trkpt>
<trkpt lat="53.02627875" lon="18.68207759">
<ele>108</ele>
<time>2014-05-18T13:15:14Z</time>
</trkpt>
<trkpt lat="53.02626387" lon="18.68214769">
<ele>107</ele>
<time>2014-05-18T13:15:22Z</time>
</trkpt>
<trkpt lat="53.02633585" lon="18.68226392">
<ele>107</ele>
<time>2014-05-18T13:15:29Z</time>
</trkpt>
<trkpt lat="53.0264632" lon="18.68282291">
<ele>110</ele>
<time>2014-05-18T13:15:41Z</time>
</trkpt>
<trkpt lat="53.02648727" lon="18.68300162">
<ele>111</ele>
<time>2014-05-18T13:15:49Z</time>
</trkpt>
<trkpt lat="53.02671309" lon="18.68387887">
<ele>117</ele>
<time>2014-05-18T13:15:56Z</time>
</trkpt>
<trkpt lat="53.02674528" lon="18.68401115">
<ele>116</ele>
<time>2014-05-18T13:16:04Z</time>
</trkpt>
<trkpt lat="53.02689425" lon="18.68474956">
<ele>115</ele>
<time>2014-05-18T13:16:10Z</time>
</trkpt>
<trkpt lat="53.02694295" lon="18.68506949">
<ele>112</ele>
<time>2014-05-18T13:16:18Z</time>
</trkpt>
<trkpt lat="53.0270046" lon="18.68567271">
<ele>119</ele>
<time>2014-05-18T13:16:26Z</time>
</trkpt>
<trkpt lat="53.02689765" lon="18.68611104">
<ele>120</ele>
<time>2014-05-18T13:16:32Z</time>
</trkpt>
<trkpt lat="53.02681013" lon="18.68622753">
<ele>112</ele>
<time>2014-05-18T13:16:38Z</time>
</trkpt>
<trkpt lat="53.02650822" lon="18.68648504">
<ele>104</ele>
<time>2014-05-18T13:16:44Z</time>
</trkpt>
<trkpt lat="53.02625106" lon="18.68679864">
<ele>99</ele>
<time>2014-05-18T13:16:50Z</time>
</trkpt>
<trkpt lat="53.026093" lon="18.68694034">
<ele>99</ele>
<time>2014-05-18T13:16:56Z</time>
</trkpt>
<trkpt lat="53.02585611" lon="18.68733367">
<ele>101</ele>
<time>2014-05-18T13:17:02Z</time>
</trkpt>
<trkpt lat="53.02561315" lon="18.68750918">
<ele>101</ele>
<time>2014-05-18T13:17:08Z</time>
</trkpt>
<trkpt lat="53.02553267" lon="18.68754636">
<ele>100</ele>
<time>2014-05-18T13:17:14Z</time>
</trkpt>
<trkpt lat="53.0252201" lon="18.68779311">
<ele>98</ele>
<time>2014-05-18T13:17:20Z</time>
</trkpt>
<trkpt lat="53.02493966" lon="18.68799839">
<ele>98</ele>
<time>2014-05-18T13:17:26Z</time>
</trkpt>
<trkpt lat="53.02472611" lon="18.68812267">
<ele>98</ele>
<time>2014-05-18T13:17:32Z</time>
</trkpt>
<trkpt lat="53.02450344" lon="18.68821398">
<ele>97</ele>
<time>2014-05-18T13:17:38Z</time>
</trkpt>
<trkpt lat="53.02427446" lon="18.68828181">
<ele>97</ele>
<time>2014-05-18T13:17:44Z</time>
</trkpt>
<trkpt lat="53.02403468" lon="18.68835733">
<ele>96</ele>
<time>2014-05-18T13:17:50Z</time>
</trkpt>
<trkpt lat="53.02379139" lon="18.68843501">
<ele>95</ele>
<time>2014-05-18T13:17:56Z</time>
</trkpt>
<trkpt lat="53.02356878" lon="18.68854358">
<ele>95</ele>
<time>2014-05-18T13:18:02Z</time>
</trkpt>
<trkpt lat="53.02332017" lon="18.68865397">
<ele>95</ele>
<time>2014-05-18T13:18:08Z</time>
</trkpt>
<trkpt lat="53.02302961" lon="18.68875364">
<ele>95</ele>
<time>2014-05-18T13:18:14Z</time>
</trkpt>
<trkpt lat="53.02278112" lon="18.6888451">
<ele>96</ele>
<time>2014-05-18T13:18:20Z</time>
</trkpt>
<trkpt lat="53.02255887" lon="18.6889181">
<ele>95</ele>
<time>2014-05-18T13:18:26Z</time>
</trkpt>
<trkpt lat="53.02233312" lon="18.68904678">
<ele>94</ele>
<time>2014-05-18T13:18:32Z</time>
</trkpt>
<trkpt lat="53.02211366" lon="18.68919389">
<ele>95</ele>
<time>2014-05-18T13:18:38Z</time>
</trkpt>
<trkpt lat="53.02190507" lon="18.68933329">
<ele>96</ele>
<time>2014-05-18T13:18:44Z</time>
</trkpt>
<trkpt lat="53.02167118" lon="18.6894412">
<ele>97</ele>
<time>2014-05-18T13:18:50Z</time>
</trkpt>
<trkpt lat="53.021465" lon="18.6895637">
<ele>96</ele>
<time>2014-05-18T13:18:56Z</time>
</trkpt>
<trkpt lat="53.02125816" lon="18.68965505">
<ele>94</ele>
<time>2014-05-18T13:19:02Z</time>
</trkpt>
<trkpt lat="53.02118486" lon="18.68968312">
<ele>93</ele>
<time>2014-05-18T13:19:08Z</time>
</trkpt>
<trkpt lat="53.02082888" lon="18.68984571">
<ele>93</ele>
<time>2014-05-18T13:19:14Z</time>
</trkpt>
<trkpt lat="53.02061651" lon="18.6899643">
<ele>95</ele>
<time>2014-05-18T13:19:20Z</time>
</trkpt>
<trkpt lat="53.02054789" lon="18.68998049">
<ele>93</ele>
<time>2014-05-18T13:19:26Z</time>
</trkpt>
<trkpt lat="53.02024956" lon="18.69007916">
<ele>94</ele>
<time>2014-05-18T13:19:32Z</time>
</trkpt>
<trkpt lat="53.02020123" lon="18.6901205">
<ele>95</ele>
<time>2014-05-18T13:19:38Z</time>
</trkpt>
<trkpt lat="53.01989237" lon="18.69037225">
<ele>99</ele>
<time>2014-05-18T13:19:44Z</time>
</trkpt>
<trkpt lat="53.01952598" lon="18.69050648">
<ele>99</ele>
<time>2014-05-18T13:19:50Z</time>
</trkpt>
<trkpt lat="53.01929396" lon="18.69062749">
<ele>93</ele>
<time>2014-05-18T13:19:56Z</time>
</trkpt>
<trkpt lat="53.01904509" lon="18.69076615">
<ele>96</ele>
<time>2014-05-18T13:20:02Z</time>
</trkpt>
<trkpt lat="53.01897303" lon="18.69079133">
<ele>95</ele>
<time>2014-05-18T13:20:08Z</time>
</trkpt>
<trkpt lat="53.01852738" lon="18.6908825">
<ele>97</ele>
<time>2014-05-18T13:20:14Z</time>
</trkpt>
<trkpt lat="53.01821488" lon="18.69083271">
<ele>101</ele>
<time>2014-05-18T13:20:20Z</time>
</trkpt>
<trkpt lat="53.0178759" lon="18.69074744">
<ele>100</ele>
<time>2014-05-18T13:20:26Z</time>
</trkpt>
<trkpt lat="53.01752776" lon="18.69066006">
<ele>99</ele>
<time>2014-05-18T13:20:32Z</time>
</trkpt>
<trkpt lat="53.01715753" lon="18.6905113">
<ele>94</ele>
<time>2014-05-18T13:20:38Z</time>
</trkpt>
<trkpt lat="53.01675572" lon="18.69038087">
<ele>92</ele>
<time>2014-05-18T13:20:44Z</time>
</trkpt>
<trkpt lat="53.01631723" lon="18.69025711">
<ele>89</ele>
<time>2014-05-18T13:20:50Z</time>
</trkpt>
<trkpt lat="53.01585848" lon="18.69010963">
<ele>91</ele>
<time>2014-05-18T13:20:56Z</time>
</trkpt>
<trkpt lat="53.01571565" lon="18.69007027">
<ele>93</ele>
<time>2014-05-18T13:21:02Z</time>
</trkpt>
<trkpt lat="53.0153698" lon="18.68991848">
<ele>92</ele>
<time>2014-05-18T13:21:08Z</time>
</trkpt>
<trkpt lat="53.01479718" lon="18.68967718">
<ele>87</ele>
<time>2014-05-18T13:21:14Z</time>
</trkpt>
<trkpt lat="53.01462842" lon="18.68957963">
<ele>86</ele>
<time>2014-05-18T13:21:20Z</time>
</trkpt>
<trkpt lat="53.01442672" lon="18.6896002">
<ele>80</ele>
<time>2014-05-18T13:21:26Z</time>
</trkpt>
<trkpt lat="53.01398535" lon="18.68938513">
<ele>77</ele>
<time>2014-05-18T13:21:32Z</time>
</trkpt>
<trkpt lat="53.01369251" lon="18.68925679">
<ele>77</ele>
<time>2014-05-18T13:21:38Z</time>
</trkpt>
<trkpt lat="53.0136029" lon="18.68921374">
<ele>80</ele>
<time>2014-05-18T13:21:44Z</time>
</trkpt>
<trkpt lat="53.01343026" lon="18.68917531">
<ele>79</ele>
<time>2014-05-18T13:21:50Z</time>
</trkpt>
<trkpt lat="53.01298667" lon="18.68903895">
<ele>74</ele>
<time>2014-05-18T13:21:56Z</time>
</trkpt>
<trkpt lat="53.01290789" lon="18.68898798">
<ele>74</ele>
<time>2014-05-18T13:22:02Z</time>
</trkpt>
<trkpt lat="53.01245733" lon="18.68880288">
<ele>73</ele>
<time>2014-05-18T13:22:08Z</time>
</trkpt>
<trkpt lat="53.01221967" lon="18.68880457">
<ele>75</ele>
<time>2014-05-18T13:22:14Z</time>
</trkpt>
<trkpt lat="53.01215917" lon="18.68882424">
<ele>74</ele>
<time>2014-05-18T13:22:20Z</time>
</trkpt>
<trkpt lat="53.01173979" lon="18.68878217">
<ele>78</ele>
<time>2014-05-18T13:22:26Z</time>
</trkpt>
<trkpt lat="53.01149866" lon="18.68884256">
<ele>81</ele>
<time>2014-05-18T13:22:32Z</time>
</trkpt>
<trkpt lat="53.01141437" lon="18.68888588">
<ele>80</ele>
<time>2014-05-18T13:22:38Z</time>
</trkpt>
<trkpt lat="53.01104159" lon="18.6892385">
<ele>78</ele>
<time>2014-05-18T13:22:44Z</time>
</trkpt>
<trkpt lat="53.01083579" lon="18.68949459">
<ele>75</ele>
<time>2014-05-18T13:22:50Z</time>
</trkpt>
<trkpt lat="53.01064656" lon="18.68976708">
<ele>74</ele>
<time>2014-05-18T13:22:56Z</time>
</trkpt>
<trkpt lat="53.01044999" lon="18.69007523">
<ele>65</ele>
<time>2014-05-18T13:23:02Z</time>
</trkpt>
<trkpt lat="53.01023183" lon="18.69034163">
<ele>63</ele>
<time>2014-05-18T13:23:08Z</time>
</trkpt>
<trkpt lat="53.01007167" lon="18.69067075">
<ele>66</ele>
<time>2014-05-18T13:23:14Z</time>
</trkpt>
<trkpt lat="53.00987872" lon="18.69095962">
<ele>69</ele>
<time>2014-05-18T13:23:20Z</time>
</trkpt>
<trkpt lat="53.00967286" lon="18.69126355">
<ele>73</ele>
<time>2014-05-18T13:23:26Z</time>
</trkpt>
<trkpt lat="53.00947993" lon="18.69154785">
<ele>77</ele>
<time>2014-05-18T13:23:32Z</time>
</trkpt>
<trkpt lat="53.00933384" lon="18.69184053">
<ele>75</ele>
<time>2014-05-18T13:23:38Z</time>
</trkpt>
<trkpt lat="53.00926781" lon="18.69193833">
<ele>76</ele>
<time>2014-05-18T13:23:44Z</time>
</trkpt>
<trkpt lat="53.00890382" lon="18.69240984">
<ele>75</ele>
<time>2014-05-18T13:23:50Z</time>
</trkpt>
<trkpt lat="53.00876222" lon="18.69257215">
<ele>76</ele>
<time>2014-05-18T13:23:56Z</time>
</trkpt>
<trkpt lat="53.0085218" lon="18.69288718">
<ele>75</ele>
<time>2014-05-18T13:24:02Z</time>
</trkpt>
<trkpt lat="53.00842054" lon="18.69314646">
<ele>71</ele>
<time>2014-05-18T13:24:08Z</time>
</trkpt>
<trkpt lat="53.00818602" lon="18.69351577">
<ele>73</ele>
<time>2014-05-18T13:24:14Z</time>
</trkpt>
<trkpt lat="53.00800708" lon="18.69378566">
<ele>72</ele>
<time>2014-05-18T13:24:20Z</time>
</trkpt>
<trkpt lat="53.00794737" lon="18.69387017">
<ele>74</ele>
<time>2014-05-18T13:24:26Z</time>
</trkpt>
<trkpt lat="53.00761589" lon="18.69423598">
<ele>68</ele>
<time>2014-05-18T13:24:32Z</time>
</trkpt>
<trkpt lat="53.00737205" lon="18.69461376">
<ele>71</ele>
<time>2014-05-18T13:24:38Z</time>
</trkpt>
<trkpt lat="53.00730993" lon="18.69471626">
<ele>72</ele>
<time>2014-05-18T13:24:44Z</time>
</trkpt>
<trkpt lat="53.00696118" lon="18.69516709">
<ele>74</ele>
<time>2014-05-18T13:24:50Z</time>
</trkpt>
<trkpt lat="53.00689436" lon="18.69525047">
<ele>73</ele>
<time>2014-05-18T13:24:56Z</time>
</trkpt>
<trkpt lat="53.00653347" lon="18.69557394">
<ele>73</ele>
<time>2014-05-18T13:25:02Z</time>
</trkpt>
<trkpt lat="53.00642653" lon="18.69566555">
<ele>71</ele>
<time>2014-05-18T13:25:08Z</time>
</trkpt>
<trkpt lat="53.00609026" lon="18.69603776">
<ele>69</ele>
<time>2014-05-18T13:25:14Z</time>
</trkpt>
<trkpt lat="53.00600937" lon="18.69618875">
<ele>68</ele>
<time>2014-05-18T13:25:20Z</time>
</trkpt>
<trkpt lat="53.00562966" lon="18.69652541">
<ele>61</ele>
<time>2014-05-18T13:25:26Z</time>
</trkpt>
<trkpt lat="53.00540992" lon="18.69671992">
<ele>63</ele>
<time>2014-05-18T13:25:32Z</time>
</trkpt>
<trkpt lat="53.00526752" lon="18.69686143">
<ele>63</ele>
<time>2014-05-18T13:25:38Z</time>
</trkpt>
<trkpt lat="53.00514791" lon="18.69698892">
<ele>64</ele>
<time>2014-05-18T13:25:44Z</time>
</trkpt>
<trkpt lat="53.00486976" lon="18.69727753">
<ele>68</ele>
<time>2014-05-18T13:25:50Z</time>
</trkpt>
<trkpt lat="53.00459285" lon="18.69747389">
<ele>72</ele>
<time>2014-05-18T13:25:56Z</time>
</trkpt>
<trkpt lat="53.00440275" lon="18.69766697">
<ele>72</ele>
<time>2014-05-18T13:26:02Z</time>
</trkpt>
<trkpt lat="53.00421256" lon="18.69784126">
<ele>73</ele>
<time>2014-05-18T13:26:08Z</time>
</trkpt>
<trkpt lat="53.00402054" lon="18.69802341">
<ele>69</ele>
<time>2014-05-18T13:26:14Z</time>
</trkpt>
<trkpt lat="53.00395778" lon="18.69808278">
<ele>68</ele>
<time>2014-05-18T13:26:20Z</time>
</trkpt>
<trkpt lat="53.00376855" lon="18.69828394">
<ele>69</ele>
<time>2014-05-18T13:26:26Z</time>
</trkpt>
<trkpt lat="53.00344812" lon="18.69863365">
<ele>73</ele>
<time>2014-05-18T13:26:32Z</time>
</trkpt>
<trkpt lat="53.00337934" lon="18.69868891">
<ele>70</ele>
<time>2014-05-18T13:26:38Z</time>
</trkpt>
<trkpt lat="53.00315716" lon="18.69892257">
<ele>70</ele>
<time>2014-05-18T13:26:44Z</time>
</trkpt>
<trkpt lat="53.00311925" lon="18.69920672">
<ele>77</ele>
<time>2014-05-18T13:26:50Z</time>
</trkpt>
<trkpt lat="53.00318614" lon="18.69924999">
<ele>81</ele>
<time>2014-05-18T13:26:56Z</time>
</trkpt>
<trkpt lat="53.00310355" lon="18.69941241">
<ele>81</ele>
<time>2014-05-18T13:27:02Z</time>
</trkpt>
<trkpt lat="53.00308892" lon="18.69933753">
<ele>81</ele>
<time>2014-05-18T13:27:08Z</time>
</trkpt>
<trkpt lat="53.00308892" lon="18.69933753">
<ele>81</ele>
<time>2014-05-18T13:27:14Z</time>
</trkpt>
<trkpt lat="53.00308741" lon="18.69931391">
<ele>81</ele>
<time>2014-05-18T13:27:20Z</time>
</trkpt>
<trkpt lat="53.00294567" lon="18.69939155">
<ele>77</ele>
<time>2014-05-18T13:27:26Z</time>
</trkpt>
<trkpt lat="53.00241272" lon="18.69960053">
<ele>79</ele>
<time>2014-05-18T13:27:32Z</time>
</trkpt>
<trkpt lat="53.00212331" lon="18.69985535">
<ele>80</ele>
<time>2014-05-18T13:27:38Z</time>
</trkpt>
<trkpt lat="53.00188656" lon="18.70007826">
<ele>78</ele>
<time>2014-05-18T13:27:44Z</time>
</trkpt>
<trkpt lat="53.00160661" lon="18.70022759">
<ele>77</ele>
<time>2014-05-18T13:27:50Z</time>
</trkpt>
<trkpt lat="53.00151368" lon="18.70023642">
<ele>75</ele>
<time>2014-05-18T13:27:56Z</time>
</trkpt>
<trkpt lat="53.00106421" lon="18.70029685">
<ele>76</ele>
<time>2014-05-18T13:28:02Z</time>
</trkpt>
<trkpt lat="53.0009927" lon="18.70030731">
<ele>76</ele>
<time>2014-05-18T13:28:08Z</time>
</trkpt>
<trkpt lat="53.00060256" lon="18.70032868">
<ele>72</ele>
<time>2014-05-18T13:28:14Z</time>
</trkpt>
<trkpt lat="53.00037269" lon="18.70034181">
<ele>72</ele>
<time>2014-05-18T13:28:20Z</time>
</trkpt>
<trkpt lat="53.00021473" lon="18.70031073">
<ele>67</ele>
<time>2014-05-18T13:28:26Z</time>
</trkpt>
<trkpt lat="52.99999203" lon="18.70030355">
<ele>70</ele>
<time>2014-05-18T13:28:32Z</time>
</trkpt>
<trkpt lat="52.99999203" lon="18.70030355">
<ele>70</ele>
<time>2014-05-18T13:28:38Z</time>
</trkpt>
<trkpt lat="52.99999178" lon="18.70027971">
<ele>68</ele>
<time>2014-05-18T13:28:44Z</time>
</trkpt>
<trkpt lat="52.99986743" lon="18.70027027">
<ele>71</ele>
<time>2014-05-18T13:28:50Z</time>
</trkpt>
<trkpt lat="52.99977997" lon="18.70027886">
<ele>72</ele>
<time>2014-05-18T13:28:56Z</time>
</trkpt>
<trkpt lat="52.99926739" lon="18.70030516">
<ele>80</ele>
<time>2014-05-18T13:29:02Z</time>
</trkpt>
<trkpt lat="52.99916569" lon="18.70034392">
<ele>81</ele>
<time>2014-05-18T13:29:08Z</time>
</trkpt>
<trkpt lat="52.99876875" lon="18.70050592">
<ele>83</ele>
<time>2014-05-18T13:29:14Z</time>
</trkpt>
<trkpt lat="52.99858778" lon="18.70063035">
<ele>84</ele>
<time>2014-05-18T13:29:20Z</time>
</trkpt>
<trkpt lat="52.99838854" lon="18.70087207">
<ele>79</ele>
<time>2014-05-18T13:29:26Z</time>
</trkpt>
<trkpt lat="52.99833199" lon="18.70097442">
<ele>78</ele>
<time>2014-05-18T13:29:32Z</time>
</trkpt>
<trkpt lat="52.99797076" lon="18.70143141">
<ele>78</ele>
<time>2014-05-18T13:29:38Z</time>
</trkpt>
<trkpt lat="52.99780532" lon="18.70167208">
<ele>80</ele>
<time>2014-05-18T13:29:44Z</time>
</trkpt>
<trkpt lat="52.99765198" lon="18.70193476">
<ele>79</ele>
<time>2014-05-18T13:29:50Z</time>
</trkpt>
<trkpt lat="52.99759056" lon="18.70203135">
<ele>83</ele>
<time>2014-05-18T13:29:56Z</time>
</trkpt>
<trkpt lat="52.99729059" lon="18.70251347">
<ele>80</ele>
<time>2014-05-18T13:30:02Z</time>
</trkpt>
<trkpt lat="52.99716723" lon="18.70289616">
<ele>76</ele>
<time>2014-05-18T13:30:08Z</time>
</trkpt>
<trkpt lat="52.9971286" lon="18.70301684">
<ele>76</ele>
<time>2014-05-18T13:30:14Z</time>
</trkpt>
<trkpt lat="52.99695017" lon="18.70352862">
<ele>78</ele>
<time>2014-05-18T13:30:20Z</time>
</trkpt>
<trkpt lat="52.99694505" lon="18.70377849">
<ele>81</ele>
<time>2014-05-18T13:30:26Z</time>
</trkpt>
<trkpt lat="52.99677646" lon="18.70468446">
<ele>85</ele>
<time>2014-05-18T13:30:34Z</time>
</trkpt>
<trkpt lat="52.99677947" lon="18.70520862">
<ele>90</ele>
<time>2014-05-18T13:30:40Z</time>
</trkpt>
<trkpt lat="52.99671677" lon="18.70562982">
<ele>92</ele>
<time>2014-05-18T13:30:46Z</time>
</trkpt>
<trkpt lat="52.9966031" lon="18.70622479">
<ele>89</ele>
<time>2014-05-18T13:30:52Z</time>
</trkpt>
<trkpt lat="52.99650311" lon="18.70649762">
<ele>96</ele>
<time>2014-05-18T13:30:58Z</time>
</trkpt>
<trkpt lat="52.99626117" lon="18.70697308">
<ele>89</ele>
<time>2014-05-18T13:31:04Z</time>
</trkpt>
<trkpt lat="52.99614418" lon="18.70718377">
<ele>87</ele>
<time>2014-05-18T13:31:10Z</time>
</trkpt>
<trkpt lat="52.99592222" lon="18.70756805">
<ele>89</ele>
<time>2014-05-18T13:31:16Z</time>
</trkpt>
<trkpt lat="52.99572694" lon="18.70785689">
<ele>87</ele>
<time>2014-05-18T13:31:22Z</time>
</trkpt>
<trkpt lat="52.99552344" lon="18.70814178">
<ele>88</ele>
<time>2014-05-18T13:31:28Z</time>
</trkpt>
<trkpt lat="52.99546529" lon="18.70827348">
<ele>88</ele>
<time>2014-05-18T13:31:34Z</time>
</trkpt>
<trkpt lat="52.99524571" lon="18.70854288">
<ele>83</ele>
<time>2014-05-18T13:31:40Z</time>
</trkpt>
<trkpt lat="52.99492638" lon="18.70902633">
<ele>83</ele>
<time>2014-05-18T13:31:46Z</time>
</trkpt>
<trkpt lat="52.99485838" lon="18.70910929">
<ele>83</ele>
<time>2014-05-18T13:31:52Z</time>
</trkpt>
<trkpt lat="52.99459835" lon="18.70952947">
<ele>82</ele>
<time>2014-05-18T13:31:58Z</time>
</trkpt>
<trkpt lat="52.99439696" lon="18.70963063">
<ele>83</ele>
<time>2014-05-18T13:32:04Z</time>
</trkpt>
<trkpt lat="52.99435137" lon="18.70965211">
<ele>84</ele>
<time>2014-05-18T13:32:10Z</time>
</trkpt>
<trkpt lat="52.99435137" lon="18.70965211">
<ele>84</ele>
<time>2014-05-18T13:32:16Z</time>
</trkpt>
<trkpt lat="52.99432702" lon="18.7095923">
<ele>79</ele>
<time>2014-05-18T13:32:22Z</time>
</trkpt>
<trkpt lat="52.99430999" lon="18.70958941">
<ele>79</ele>
<time>2014-05-18T13:32:28Z</time>
</trkpt>
<trkpt lat="52.99431795" lon="18.70957575">
<ele>77</ele>
<time>2014-05-18T13:32:34Z</time>
</trkpt>
<trkpt lat="52.99430449" lon="18.70954924">
<ele>80</ele>
<time>2014-05-18T13:32:40Z</time>
</trkpt>
<trkpt lat="52.99429504" lon="18.7095555">
<ele>80</ele>
<time>2014-05-18T13:32:46Z</time>
</trkpt>
<trkpt lat="52.99427309" lon="18.70959415">
<ele>82</ele>
<time>2014-05-18T13:32:52Z</time>
</trkpt>
<trkpt lat="52.99428633" lon="18.70960654">
<ele>81</ele>
<time>2014-05-18T13:32:58Z</time>
</trkpt>
<trkpt lat="52.99428633" lon="18.70960654">
<ele>81</ele>
<time>2014-05-18T13:33:04Z</time>
</trkpt>
<trkpt lat="52.99436428" lon="18.70959303">
<ele>85</ele>
<time>2014-05-18T13:33:10Z</time>
</trkpt>
<trkpt lat="52.99436428" lon="18.70959303">
<ele>85</ele>
<time>2014-05-18T13:33:16Z</time>
</trkpt>
<trkpt lat="52.99436347" lon="18.70957833">
<ele>85</ele>
<time>2014-05-18T13:33:22Z</time>
</trkpt>
<trkpt lat="52.99436304" lon="18.70957381">
<ele>83</ele>
<time>2014-05-18T13:33:28Z</time>
</trkpt>
<trkpt lat="52.99436547" lon="18.70956394">
<ele>83</ele>
<time>2014-05-18T13:33:34Z</time>
</trkpt>
<trkpt lat="52.99436664" lon="18.70957567">
<ele>83</ele>
<time>2014-05-18T13:33:40Z</time>
</trkpt>
<trkpt lat="52.99436393" lon="18.70957597">
<ele>83</ele>
<time>2014-05-18T13:33:46Z</time>
</trkpt>
<trkpt lat="52.99435881" lon="18.70956931">
<ele>83</ele>
<time>2014-05-18T13:33:52Z</time>
</trkpt>
<trkpt lat="52.99435614" lon="18.70955917">
<ele>83</ele>
<time>2014-05-18T13:33:58Z</time>
</trkpt>
<trkpt lat="52.99434025" lon="18.70959647">
<ele>84</ele>
<time>2014-05-18T13:34:04Z</time>
</trkpt>
<trkpt lat="52.9943343" lon="18.70961319">
<ele>86</ele>
<time>2014-05-18T13:34:10Z</time>
</trkpt>
<trkpt lat="52.99433371" lon="18.7096127">
<ele>85</ele>
<time>2014-05-18T13:34:16Z</time>
</trkpt>
<trkpt lat="52.99433374" lon="18.70961269">
<ele>85</ele>
<time>2014-05-18T13:34:22Z</time>
</trkpt>
<trkpt lat="52.99433415" lon="18.70961336">
<ele>86</ele>
<time>2014-05-18T13:34:28Z</time>
</trkpt>
<trkpt lat="52.9943341" lon="18.70961347">
<ele>86</ele>
<time>2014-05-18T13:34:34Z</time>
</trkpt>
<trkpt lat="52.99427892" lon="18.70963671">
<ele>89</ele>
<time>2014-05-18T13:34:40Z</time>
</trkpt>
<trkpt lat="52.99427892" lon="18.70963671">
<ele>89</ele>
<time>2014-05-18T13:34:46Z</time>
</trkpt>
<trkpt lat="52.99427477" lon="18.70962863">
<ele>87</ele>
<time>2014-05-18T13:34:53Z</time>
</trkpt>
<trkpt lat="52.9942771" lon="18.70960688">
<ele>85</ele>
<time>2014-05-18T13:34:58Z</time>
</trkpt>
<trkpt lat="52.99428294" lon="18.70959873">
<ele>84</ele>
<time>2014-05-18T13:35:04Z</time>
</trkpt>
<trkpt lat="52.99426229" lon="18.70962254">
<ele>87</ele>
<time>2014-05-18T13:35:10Z</time>
</trkpt>
<trkpt lat="52.99426124" lon="18.70962663">
<ele>87</ele>
<time>2014-05-18T13:35:16Z</time>
</trkpt>
<trkpt lat="52.99426024" lon="18.70963287">
<ele>89</ele>
<time>2014-05-18T13:35:22Z</time>
</trkpt>
<trkpt lat="52.99426248" lon="18.70963041">
<ele>89</ele>
<time>2014-05-18T13:35:28Z</time>
</trkpt>
<trkpt lat="52.99426278" lon="18.709629">
<ele>88</ele>
<time>2014-05-18T13:35:36Z</time>
</trkpt>
<trkpt lat="52.99426285" lon="18.70962891">
<ele>88</ele>
<time>2014-05-18T13:35:42Z</time>
</trkpt>
<trkpt lat="52.99426247" lon="18.70962896">
<ele>88</ele>
<time>2014-05-18T13:35:48Z</time>
</trkpt>
<trkpt lat="52.99426254" lon="18.70962815">
<ele>88</ele>
<time>2014-05-18T13:35:56Z</time>
</trkpt>
<trkpt lat="52.99426257" lon="18.70962843">
<ele>88</ele>
<time>2014-05-18T13:36:02Z</time>
</trkpt>
<trkpt lat="52.99426193" lon="18.70963038">
<ele>88</ele>
<time>2014-05-18T13:36:08Z</time>
</trkpt>
<trkpt lat="52.99426187" lon="18.70963012">
<ele>88</ele>
<time>2014-05-18T13:36:14Z</time>
</trkpt>
<trkpt lat="52.99426171" lon="18.70963074">
<ele>89</ele>
<time>2014-05-18T13:36:20Z</time>
</trkpt>
<trkpt lat="52.99426196" lon="18.70963076">
<ele>89</ele>
<time>2014-05-18T13:36:26Z</time>
</trkpt>
<trkpt lat="52.9942621" lon="18.70963106">
<ele>89</ele>
<time>2014-05-18T13:36:32Z</time>
</trkpt>
<trkpt lat="52.9942622" lon="18.7096311">
<ele>89</ele>
<time>2014-05-18T13:36:38Z</time>
</trkpt>
<trkpt lat="52.99426265" lon="18.70963125">
<ele>89</ele>
<time>2014-05-18T13:36:45Z</time>
</trkpt>
<trkpt lat="52.99426266" lon="18.70963232">
<ele>89</ele>
<time>2014-05-18T13:36:50Z</time>
</trkpt>
<trkpt lat="52.99428507" lon="18.70969512">
<ele>88</ele>
<time>2014-05-18T13:36:56Z</time>
</trkpt>
<trkpt lat="52.9942864" lon="18.70969272">
<ele>88</ele>
<time>2014-05-18T13:37:02Z</time>
</trkpt>
<trkpt lat="52.99429362" lon="18.70971787">
<ele>90</ele>
<time>2014-05-18T13:37:08Z</time>
</trkpt>
<trkpt lat="52.99429395" lon="18.70972853">
<ele>91</ele>
<time>2014-05-18T13:37:14Z</time>
</trkpt>
<trkpt lat="52.99429318" lon="18.70972739">
<ele>91</ele>
<time>2014-05-18T13:37:20Z</time>
</trkpt>
<trkpt lat="52.99429272" lon="18.7097295">
<ele>91</ele>
<time>2014-05-18T13:37:26Z</time>
</trkpt>
<trkpt lat="52.99432245" lon="18.7097567">
<ele>89</ele>
<time>2014-05-18T13:37:34Z</time>
</trkpt>
<trkpt lat="52.99434738" lon="18.70975372">
<ele>88</ele>
<time>2014-05-18T13:37:40Z</time>
</trkpt>
<trkpt lat="52.99435029" lon="18.70975485">
<ele>88</ele>
<time>2014-05-18T13:37:46Z</time>
</trkpt>
<trkpt lat="52.99437089" lon="18.70969329">
<ele>82</ele>
<time>2014-05-18T13:37:52Z</time>
</trkpt>
<trkpt lat="52.99437145" lon="18.70969431">
<ele>82</ele>
<time>2014-05-18T13:37:58Z</time>
</trkpt>
<trkpt lat="52.99437132" lon="18.7096938">
<ele>82</ele>
<time>2014-05-18T13:38:04Z</time>
</trkpt>
<trkpt lat="52.99437127" lon="18.70969367">
<ele>82</ele>
<time>2014-05-18T13:38:10Z</time>
</trkpt>
<trkpt lat="52.99437089" lon="18.70969477">
<ele>82</ele>
<time>2014-05-18T13:38:16Z</time>
</trkpt>
<trkpt lat="52.99437398" lon="18.70969568">
<ele>83</ele>
<time>2014-05-18T13:38:22Z</time>
</trkpt>
<trkpt lat="52.99437311" lon="18.70974202">
<ele>85</ele>
<time>2014-05-18T13:38:28Z</time>
</trkpt>
<trkpt lat="52.99438088" lon="18.70974203">
<ele>88</ele>
<time>2014-05-18T13:38:34Z</time>
</trkpt>
<trkpt lat="52.9943752" lon="18.70974559">
<ele>89</ele>
<time>2014-05-18T13:38:40Z</time>
</trkpt>
<trkpt lat="52.994375" lon="18.70974549">
<ele>89</ele>
<time>2014-05-18T13:38:46Z</time>
</trkpt>
<trkpt lat="52.99437504" lon="18.70974887">
<ele>89</ele>
<time>2014-05-18T13:38:52Z</time>
</trkpt>
<trkpt lat="52.99437533" lon="18.70974911">
<ele>89</ele>
<time>2014-05-18T13:38:58Z</time>
</trkpt>
<trkpt lat="52.99437551" lon="18.70974909">
<ele>89</ele>
<time>2014-05-18T13:39:04Z</time>
</trkpt>
<trkpt lat="52.99437437" lon="18.7097471">
<ele>88</ele>
<time>2014-05-18T13:39:13Z</time>
</trkpt>
<trkpt lat="52.99437439" lon="18.70974695">
<ele>88</ele>
<time>2014-05-18T13:39:18Z</time>
</trkpt>
<trkpt lat="52.99436722" lon="18.70963424">
<ele>87</ele>
<time>2014-05-18T13:39:24Z</time>
</trkpt>
<trkpt lat="52.99436722" lon="18.70963424">
<ele>87</ele>
<time>2014-05-18T13:39:30Z</time>
</trkpt>
<trkpt lat="52.99437248" lon="18.70963042">
<ele>87</ele>
<time>2014-05-18T13:39:36Z</time>
</trkpt>
<trkpt lat="52.99437373" lon="18.70960526">
<ele>85</ele>
<time>2014-05-18T13:39:43Z</time>
</trkpt>
<trkpt lat="52.99437687" lon="18.7096039">
<ele>85</ele>
<time>2014-05-18T13:39:50Z</time>
</trkpt>
<trkpt lat="52.99437217" lon="18.70957205">
<ele>81</ele>
<time>2014-05-18T13:39:56Z</time>
</trkpt>
<trkpt lat="52.99437278" lon="18.70958073">
<ele>80</ele>
<time>2014-05-18T13:40:02Z</time>
</trkpt>
<trkpt lat="52.99436728" lon="18.70958842">
<ele>80</ele>
<time>2014-05-18T13:40:08Z</time>
</trkpt>
<trkpt lat="52.99435846" lon="18.70958241">
<ele>80</ele>
<time>2014-05-18T13:40:14Z</time>
</trkpt>
<trkpt lat="52.99435624" lon="18.70957723">
<ele>79</ele>
<time>2014-05-18T13:40:20Z</time>
</trkpt>
<trkpt lat="52.9943558" lon="18.70957312">
<ele>79</ele>
<time>2014-05-18T13:40:26Z</time>
</trkpt>
<trkpt lat="52.99435443" lon="18.70957319">
<ele>80</ele>
<time>2014-05-18T13:40:34Z</time>
</trkpt>
<trkpt lat="52.99435193" lon="18.70958258">
<ele>80</ele>
<time>2014-05-18T13:40:40Z</time>
</trkpt>
<trkpt lat="52.99435235" lon="18.70958606">
<ele>80</ele>
<time>2014-05-18T13:40:46Z</time>
</trkpt>
<trkpt lat="52.9943515" lon="18.70959184">
<ele>80</ele>
<time>2014-05-18T13:40:52Z</time>
</trkpt>
<trkpt lat="52.99435073" lon="18.70959024">
<ele>80</ele>
<time>2014-05-18T13:40:58Z</time>
</trkpt>
<trkpt lat="52.99434929" lon="18.70959287">
<ele>79</ele>
<time>2014-05-18T13:41:04Z</time>
</trkpt>
<trkpt lat="52.99434962" lon="18.70959321">
<ele>79</ele>
<time>2014-05-18T13:41:12Z</time>
</trkpt>
<trkpt lat="52.99434974" lon="18.70959393">
<ele>79</ele>
<time>2014-05-18T13:41:18Z</time>
</trkpt>
<trkpt lat="52.99434783" lon="18.70959274">
<ele>80</ele>
<time>2014-05-18T13:41:24Z</time>
</trkpt>
<trkpt lat="52.9943557" lon="18.70959251">
<ele>81</ele>
<time>2014-05-18T13:41:30Z</time>
</trkpt>
<trkpt lat="52.99435793" lon="18.7095863">
<ele>81</ele>
<time>2014-05-18T13:41:36Z</time>
</trkpt>
<trkpt lat="52.99436447" lon="18.70959087">
<ele>82</ele>
<time>2014-05-18T13:41:42Z</time>
</trkpt>
<trkpt lat="52.99436541" lon="18.70959215">
<ele>82</ele>
<time>2014-05-18T13:41:50Z</time>
</trkpt>
<trkpt lat="52.99436545" lon="18.70959258">
<ele>82</ele>
<time>2014-05-18T13:41:57Z</time>
</trkpt>
<trkpt lat="52.99437537" lon="18.709604">
<ele>84</ele>
<time>2014-05-18T13:42:04Z</time>
</trkpt>
<trkpt lat="52.99437955" lon="18.70961398">
<ele>84</ele>
<time>2014-05-18T13:42:10Z</time>
</trkpt>
<trkpt lat="52.994379" lon="18.70962547">
<ele>84</ele>
<time>2014-05-18T13:42:16Z</time>
</trkpt>
<trkpt lat="52.99437395" lon="18.70962833">
<ele>83</ele>
<time>2014-05-18T13:42:22Z</time>
</trkpt>
<trkpt lat="52.99436288" lon="18.70963481">
<ele>83</ele>
<time>2014-05-18T13:42:28Z</time>
</trkpt>
<trkpt lat="52.99435588" lon="18.70966564">
<ele>81</ele>
<time>2014-05-18T13:42:34Z</time>
</trkpt>
<trkpt lat="52.99433558" lon="18.70968704">
<ele>82</ele>
<time>2014-05-18T13:42:40Z</time>
</trkpt>
<trkpt lat="52.99430843" lon="18.70974126">
<ele>84</ele>
<time>2014-05-18T13:42:46Z</time>
</trkpt>
<trkpt lat="52.99430715" lon="18.70974778">
<ele>84</ele>
<time>2014-05-18T13:42:52Z</time>
</trkpt>
<trkpt lat="52.99430677" lon="18.70974572">
<ele>84</ele>
<time>2014-05-18T13:42:58Z</time>
</trkpt>
<trkpt lat="52.99430519" lon="18.7097399">
<ele>85</ele>
<time>2014-05-18T13:43:04Z</time>
</trkpt>
<trkpt lat="52.9943023" lon="18.70973494">
<ele>86</ele>
<time>2014-05-18T13:43:10Z</time>
</trkpt>
<trkpt lat="52.99428945" lon="18.70958622">
<ele>80</ele>
<time>2014-05-18T13:43:16Z</time>
</trkpt>
<trkpt lat="52.99428945" lon="18.70958622">
<ele>80</ele>
<time>2014-05-18T13:43:22Z</time>
</trkpt>
<trkpt lat="52.99429113" lon="18.70959657">
<ele>79</ele>
<time>2014-05-18T13:43:28Z</time>
</trkpt>
<trkpt lat="52.99429319" lon="18.70961307">
<ele>78</ele>
<time>2014-05-18T13:43:34Z</time>
</trkpt>
<trkpt lat="52.99429699" lon="18.70959942">
<ele>80</ele>
<time>2014-05-18T13:43:40Z</time>
</trkpt>
<trkpt lat="52.99430036" lon="18.70960377">
<ele>82</ele>
<time>2014-05-18T13:43:46Z</time>
</trkpt>
<trkpt lat="52.9943074" lon="18.70962647">
<ele>84</ele>
<time>2014-05-18T13:43:53Z</time>
</trkpt>
<trkpt lat="52.9943184" lon="18.70960622">
<ele>82</ele>
<time>2014-05-18T13:43:58Z</time>
</trkpt>
<trkpt lat="52.99431997" lon="18.7096126">
<ele>83</ele>
<time>2014-05-18T13:44:04Z</time>
</trkpt>
<trkpt lat="52.99431989" lon="18.70961278">
<ele>82</ele>
<time>2014-05-18T13:44:10Z</time>
</trkpt>
<trkpt lat="52.9943277" lon="18.70959925">
<ele>81</ele>
<time>2014-05-18T13:44:16Z</time>
</trkpt>
<trkpt lat="52.99433488" lon="18.70959079">
<ele>80</ele>
<time>2014-05-18T13:44:22Z</time>
</trkpt>
<trkpt lat="52.99433455" lon="18.70957153">
<ele>80</ele>
<time>2014-05-18T13:44:28Z</time>
</trkpt>
<trkpt lat="52.99433688" lon="18.70957901">
<ele>81</ele>
<time>2014-05-18T13:44:35Z</time>
</trkpt>
<trkpt lat="52.99433774" lon="18.70958255">
<ele>80</ele>
<time>2014-05-18T13:44:40Z</time>
</trkpt>
<trkpt lat="52.99433038" lon="18.70958391">
<ele>80</ele>
<time>2014-05-18T13:44:46Z</time>
</trkpt>
<trkpt lat="52.99432849" lon="18.70957939">
<ele>80</ele>
<time>2014-05-18T13:44:53Z</time>
</trkpt>
<trkpt lat="52.99432476" lon="18.70957557">
<ele>79</ele>
<time>2014-05-18T13:44:58Z</time>
</trkpt>
<trkpt lat="52.99432467" lon="18.70957564">
<ele>79</ele>
<time>2014-05-18T13:45:04Z</time>
</trkpt>
<trkpt lat="52.99432465" lon="18.70957562">
<ele>79</ele>
<time>2014-05-18T13:45:10Z</time>
</trkpt>
<trkpt lat="52.99432467" lon="18.70957564">
<ele>79</ele>
<time>2014-05-18T13:45:17Z</time>
</trkpt>
<trkpt lat="52.99432458" lon="18.70957571">
<ele>79</ele>
<time>2014-05-18T13:45:22Z</time>
</trkpt>
<trkpt lat="52.99430816" lon="18.70963601">
<ele>83</ele>
<time>2014-05-18T13:45:28Z</time>
</trkpt>
<trkpt lat="52.99431856" lon="18.70960951">
<ele>82</ele>
<time>2014-05-18T13:45:34Z</time>
</trkpt>
<trkpt lat="52.9943282" lon="18.70956429">
<ele>83</ele>
<time>2014-05-18T13:45:41Z</time>
</trkpt>
<trkpt lat="52.99429915" lon="18.70952842">
<ele>83</ele>
<time>2014-05-18T13:45:46Z</time>
</trkpt>
<trkpt lat="52.99432565" lon="18.7094712">
<ele>83</ele>
<time>2014-05-18T13:45:52Z</time>
</trkpt>
<trkpt lat="52.9943606" lon="18.7096414">
<ele>92</ele>
<time>2014-05-18T13:45:58Z</time>
</trkpt>
<trkpt lat="52.99429323" lon="18.70980229">
<ele>90</ele>
<time>2014-05-18T13:46:04Z</time>
</trkpt>
<trkpt lat="52.99429323" lon="18.70980229">
<ele>90</ele>
<time>2014-05-18T13:46:10Z</time>
</trkpt>
<trkpt lat="52.99426458" lon="18.70985728">
<ele>92</ele>
<time>2014-05-18T13:46:16Z</time>
</trkpt>
<trkpt lat="52.99426826" lon="18.70987095">
<ele>92</ele>
<time>2014-05-18T13:46:22Z</time>
</trkpt>
<trkpt lat="52.99427307" lon="18.70987708">
<ele>90</ele>
<time>2014-05-18T13:46:28Z</time>
</trkpt>
<trkpt lat="52.99427683" lon="18.70987153">
<ele>90</ele>
<time>2014-05-18T13:46:34Z</time>
</trkpt>
<trkpt lat="52.99428023" lon="18.70986626">
<ele>91</ele>
<time>2014-05-18T13:46:40Z</time>
</trkpt>
<trkpt lat="52.99428847" lon="18.70987252">
<ele>92</ele>
<time>2014-05-18T13:46:47Z</time>
</trkpt>
<trkpt lat="52.99431024" lon="18.70986279">
<ele>93</ele>
<time>2014-05-18T13:46:53Z</time>
</trkpt>
<trkpt lat="52.99431576" lon="18.70986694">
<ele>95</ele>
<time>2014-05-18T13:46:58Z</time>
</trkpt>
<trkpt lat="52.99432446" lon="18.7098705">
<ele>98</ele>
<time>2014-05-18T13:47:04Z</time>
</trkpt>
<trkpt lat="52.99432737" lon="18.7098745">
<ele>99</ele>
<time>2014-05-18T13:47:10Z</time>
</trkpt>
<trkpt lat="52.99432909" lon="18.7098769">
<ele>99</ele>
<time>2014-05-18T13:47:17Z</time>
</trkpt>
<trkpt lat="52.99432903" lon="18.70987719">
<ele>99</ele>
<time>2014-05-18T13:47:22Z</time>
</trkpt>
<trkpt lat="52.99432937" lon="18.70991357">
<ele>100</ele>
<time>2014-05-18T13:47:28Z</time>
</trkpt>
<trkpt lat="52.99412534" lon="18.71036781">
<ele>97</ele>
<time>2014-05-18T13:47:35Z</time>
</trkpt>
<trkpt lat="52.99396444" lon="18.71069831">
<ele>95</ele>
<time>2014-05-18T13:47:40Z</time>
</trkpt>
<trkpt lat="52.99380764" lon="18.71106706">
<ele>89</ele>
<time>2014-05-18T13:47:46Z</time>
</trkpt>
<trkpt lat="52.99376407" lon="18.71119627">
<ele>88</ele>
<time>2014-05-18T13:47:53Z</time>
</trkpt>
<trkpt lat="52.99364898" lon="18.71186136">
<ele>82</ele>
<time>2014-05-18T13:47:59Z</time>
</trkpt>
<trkpt lat="52.99362862" lon="18.71223897">
<ele>85</ele>
<time>2014-05-18T13:48:04Z</time>
</trkpt>
<trkpt lat="52.99355959" lon="18.71258689">
<ele>85</ele>
<time>2014-05-18T13:48:10Z</time>
</trkpt>
<trkpt lat="52.99342393" lon="18.71288251">
<ele>84</ele>
<time>2014-05-18T13:48:16Z</time>
</trkpt>
<trkpt lat="52.9933061" lon="18.71319046">
<ele>84</ele>
<time>2014-05-18T13:48:23Z</time>
</trkpt>
<trkpt lat="52.99318298" lon="18.71349254">
<ele>83</ele>
<time>2014-05-18T13:48:28Z</time>
</trkpt>
<trkpt lat="52.99305583" lon="18.71377095">
<ele>82</ele>
<time>2014-05-18T13:48:34Z</time>
</trkpt>
<trkpt lat="52.99293575" lon="18.71405226">
<ele>81</ele>
<time>2014-05-18T13:48:40Z</time>
</trkpt>
<trkpt lat="52.99283121" lon="18.71435296">
<ele>80</ele>
<time>2014-05-18T13:48:47Z</time>
</trkpt>
<trkpt lat="52.99279242" lon="18.71445408">
<ele>80</ele>
<time>2014-05-18T13:48:52Z</time>
</trkpt>
<trkpt lat="52.99262507" lon="18.71490827">
<ele>87</ele>
<time>2014-05-18T13:48:58Z</time>
</trkpt>
<trkpt lat="52.99251978" lon="18.7151836">
<ele>87</ele>
<time>2014-05-18T13:49:04Z</time>
</trkpt>
<trkpt lat="52.99248052" lon="18.71527836">
<ele>86</ele>
<time>2014-05-18T13:49:10Z</time>
</trkpt>
<trkpt lat="52.99222935" lon="18.71579297">
<ele>88</ele>
<time>2014-05-18T13:49:16Z</time>
</trkpt>
<trkpt lat="52.99218267" lon="18.71589161">
<ele>89</ele>
<time>2014-05-18T13:49:22Z</time>
</trkpt>
<trkpt lat="52.99195542" lon="18.71638617">
<ele>87</ele>
<time>2014-05-18T13:49:28Z</time>
</trkpt>
<trkpt lat="52.99180737" lon="18.71669515">
<ele>83</ele>
<time>2014-05-18T13:49:34Z</time>
</trkpt>
<trkpt lat="52.99175395" lon="18.7167959">
<ele>82</ele>
<time>2014-05-18T13:49:41Z</time>
</trkpt>
<trkpt lat="52.99159796" lon="18.71709609">
<ele>85</ele>
<time>2014-05-18T13:49:46Z</time>
</trkpt>
<trkpt lat="52.9913477" lon="18.71759774">
<ele>81</ele>
<time>2014-05-18T13:49:52Z</time>
</trkpt>
<trkpt lat="52.99130234" lon="18.71768953">
<ele>80</ele>
<time>2014-05-18T13:49:58Z</time>
</trkpt>
<trkpt lat="52.99116013" lon="18.71798864">
<ele>80</ele>
<time>2014-05-18T13:50:05Z</time>
</trkpt>
<trkpt lat="52.99092806" lon="18.71850877">
<ele>81</ele>
<time>2014-05-18T13:50:10Z</time>
</trkpt>
<trkpt lat="52.9907791" lon="18.71884886">
<ele>85</ele>
<time>2014-05-18T13:50:16Z</time>
</trkpt>
<trkpt lat="52.99064318" lon="18.71915861">
<ele>85</ele>
<time>2014-05-18T13:50:22Z</time>
</trkpt>
<trkpt lat="52.9906016" lon="18.71926325">
<ele>85</ele>
<time>2014-05-18T13:50:29Z</time>
</trkpt>
<trkpt lat="52.9904442" lon="18.71984321">
<ele>87</ele>
<time>2014-05-18T13:50:34Z</time>
</trkpt>
<trkpt lat="52.99039564" lon="18.72006507">
<ele>86</ele>
<time>2014-05-18T13:50:40Z</time>
</trkpt>
<trkpt lat="52.99027375" lon="18.72057451">
<ele>81</ele>
<time>2014-05-18T13:50:46Z</time>
</trkpt>
<trkpt lat="52.99023489" lon="18.72071107">
<ele>80</ele>
<time>2014-05-18T13:50:52Z</time>
</trkpt>
<trkpt lat="52.99002005" lon="18.72130891">
<ele>81</ele>
<time>2014-05-18T13:50:58Z</time>
</trkpt>
<trkpt lat="52.98998577" lon="18.72142003">
<ele>81</ele>
<time>2014-05-18T13:51:05Z</time>
</trkpt>
<trkpt lat="52.98988229" lon="18.72202482">
<ele>83</ele>
<time>2014-05-18T13:51:10Z</time>
</trkpt>
<trkpt lat="52.98982341" lon="18.72228272">
<ele>80</ele>
<time>2014-05-18T13:51:17Z</time>
</trkpt>
<trkpt lat="52.98976176" lon="18.72256544">
<ele>77</ele>
<time>2014-05-18T13:51:22Z</time>
</trkpt>
<trkpt lat="52.98954779" lon="18.72337366">
<ele>76</ele>
<time>2014-05-18T13:51:28Z</time>
</trkpt>
<trkpt lat="52.98954498" lon="18.72353734">
<ele>75</ele>
<time>2014-05-18T13:51:34Z</time>
</trkpt>
<trkpt lat="52.9895257" lon="18.7238375">
<ele>82</ele>
<time>2014-05-18T13:51:41Z</time>
</trkpt>
<trkpt lat="52.98976688" lon="18.72397942">
<ele>77</ele>
<time>2014-05-18T13:51:46Z</time>
</trkpt>
<trkpt lat="52.98993656" lon="18.72394137">
<ele>78</ele>
<time>2014-05-18T13:51:52Z</time>
</trkpt>
<trkpt lat="52.99034239" lon="18.72394373">
<ele>80</ele>
<time>2014-05-18T13:51:58Z</time>
</trkpt>
<trkpt lat="52.99066351" lon="18.72375763">
<ele>86</ele>
<time>2014-05-18T13:52:04Z</time>
</trkpt>
<trkpt lat="52.99091916" lon="18.7236986">
<ele>81</ele>
<time>2014-05-18T13:52:10Z</time>
</trkpt>
<trkpt lat="52.99119281" lon="18.72368163">
<ele>79</ele>
<time>2014-05-18T13:52:16Z</time>
</trkpt>
<trkpt lat="52.99146799" lon="18.7237853">
<ele>79</ele>
<time>2014-05-18T13:52:23Z</time>
</trkpt>
<trkpt lat="52.99153617" lon="18.72381795">
<ele>78</ele>
<time>2014-05-18T13:52:29Z</time>
</trkpt>
<trkpt lat="52.99183461" lon="18.72396313">
<ele>76</ele>
<time>2014-05-18T13:52:34Z</time>
</trkpt>
<trkpt lat="52.99211922" lon="18.72436462">
<ele>73</ele>
<time>2014-05-18T13:52:40Z</time>
</trkpt>
<trkpt lat="52.99235452" lon="18.72484416">
<ele>75</ele>
<time>2014-05-18T13:52:46Z</time>
</trkpt>
<trkpt lat="52.99240925" lon="18.72496575">
<ele>73</ele>
<time>2014-05-18T13:52:52Z</time>
</trkpt>
<trkpt lat="52.99258327" lon="18.72572148">
<ele>79</ele>
<time>2014-05-18T13:52:58Z</time>
</trkpt>
<trkpt lat="52.99266602" lon="18.72614172">
<ele>81</ele>
<time>2014-05-18T13:53:04Z</time>
</trkpt>
<trkpt lat="52.99270804" lon="18.72625506">
<ele>80</ele>
<time>2014-05-18T13:53:10Z</time>
</trkpt>
<trkpt lat="52.99276276" lon="18.72687589">
<ele>82</ele>
<time>2014-05-18T13:53:16Z</time>
</trkpt>
<trkpt lat="52.99277495" lon="18.72731889">
<ele>80</ele>
<time>2014-05-18T13:53:22Z</time>
</trkpt>
<trkpt lat="52.99284546" lon="18.72773224">
<ele>81</ele>
<time>2014-05-18T13:53:28Z</time>
</trkpt>
<trkpt lat="52.99290622" lon="18.7279769">
<ele>80</ele>
<time>2014-05-18T13:53:34Z</time>
</trkpt>
<trkpt lat="52.99336122" lon="18.72821486">
<ele>76</ele>
<time>2014-05-18T13:53:40Z</time>
</trkpt>
<trkpt lat="52.99346538" lon="18.72868195">
<ele>76</ele>
<time>2014-05-18T13:53:46Z</time>
</trkpt>
<trkpt lat="52.99342674" lon="18.72886542">
<ele>74</ele>
<time>2014-05-18T13:53:52Z</time>
</trkpt>
<trkpt lat="52.99345442" lon="18.72940975">
<ele>75</ele>
<time>2014-05-18T13:53:58Z</time>
</trkpt>
<trkpt lat="52.99374416" lon="18.73023155">
<ele>73</ele>
<time>2014-05-18T13:54:05Z</time>
</trkpt>
<trkpt lat="52.99380648" lon="18.73040564">
<ele>71</ele>
<time>2014-05-18T13:54:10Z</time>
</trkpt>
<trkpt lat="52.99418767" lon="18.73135479">
<ele>70</ele>
<time>2014-05-18T13:54:16Z</time>
</trkpt>
<trkpt lat="52.99435497" lon="18.73192218">
<ele>73</ele>
<time>2014-05-18T13:54:22Z</time>
</trkpt>
<trkpt lat="52.99452128" lon="18.73224013">
<ele>73</ele>
<time>2014-05-18T13:54:28Z</time>
</trkpt>
<trkpt lat="52.99474721" lon="18.73294236">
<ele>70</ele>
<time>2014-05-18T13:54:34Z</time>
</trkpt>
<trkpt lat="52.99476412" lon="18.73313913">
<ele>72</ele>
<time>2014-05-18T13:54:40Z</time>
</trkpt>
<trkpt lat="52.99491572" lon="18.73373803">
<ele>76</ele>
<time>2014-05-18T13:54:47Z</time>
</trkpt>
<trkpt lat="52.99498816" lon="18.73411025">
<ele>72</ele>
<time>2014-05-18T13:54:52Z</time>
</trkpt>
<trkpt lat="52.99503449" lon="18.73418901">
<ele>70</ele>
<time>2014-05-18T13:54:58Z</time>
</trkpt>
<trkpt lat="52.99519044" lon="18.73447677">
<ele>69</ele>
<time>2014-05-18T13:55:04Z</time>
</trkpt>
<trkpt lat="52.99543841" lon="18.73479251">
<ele>74</ele>
<time>2014-05-18T13:55:10Z</time>
</trkpt>
<trkpt lat="52.99567895" lon="18.73526629">
<ele>76</ele>
<time>2014-05-18T13:55:17Z</time>
</trkpt>
<trkpt lat="52.99596913" lon="18.73577033">
<ele>72</ele>
<time>2014-05-18T13:55:23Z</time>
</trkpt>
<trkpt lat="52.99596913" lon="18.73577033">
<ele>72</ele>
<time>2014-05-18T13:55:28Z</time>
</trkpt>
<trkpt lat="52.99599555" lon="18.73582735">
<ele>79</ele>
<time>2014-05-18T13:55:35Z</time>
</trkpt>
<trkpt lat="52.9960152" lon="18.73582499">
<ele>82</ele>
<time>2014-05-18T13:55:40Z</time>
</trkpt>
<trkpt lat="52.99601416" lon="18.73582281">
<ele>81</ele>
<time>2014-05-18T13:55:46Z</time>
</trkpt>
<trkpt lat="52.99602869" lon="18.73580674">
<ele>82</ele>
<time>2014-05-18T13:55:53Z</time>
</trkpt>
<trkpt lat="52.9960285" lon="18.73580779">
<ele>82</ele>
<time>2014-05-18T13:55:58Z</time>
</trkpt>
<trkpt lat="52.99582482" lon="18.73596418">
<ele>92</ele>
<time>2014-05-18T13:56:04Z</time>
</trkpt>
<trkpt lat="52.99577914" lon="18.73599884">
<ele>98</ele>
<time>2014-05-18T13:56:11Z</time>
</trkpt>
<trkpt lat="52.99559741" lon="18.73603178">
<ele>103</ele>
<time>2014-05-18T13:56:16Z</time>
</trkpt>
<trkpt lat="52.99550068" lon="18.73603782">
<ele>98</ele>
<time>2014-05-18T13:56:22Z</time>
</trkpt>
<trkpt lat="52.99550068" lon="18.73603782">
<ele>98</ele>
<time>2014-05-18T13:56:28Z</time>
</trkpt>
<trkpt lat="52.99539805" lon="18.73592929">
<ele>94</ele>
<time>2014-05-18T13:56:35Z</time>
</trkpt>
<trkpt lat="52.99532614" lon="18.73585517">
<ele>83</ele>
<time>2014-05-18T13:56:42Z</time>
</trkpt>
<trkpt lat="52.99532614" lon="18.73585517">
<ele>83</ele>
<time>2014-05-18T13:56:50Z</time>
</trkpt>
<trkpt lat="52.99532865" lon="18.73584252">
<ele>84</ele>
<time>2014-05-18T13:56:58Z</time>
</trkpt>
<trkpt lat="52.99530626" lon="18.73584537">
<ele>83</ele>
<time>2014-05-18T13:57:04Z</time>
</trkpt>
<trkpt lat="52.99534598" lon="18.73581747">
<ele>80</ele>
<time>2014-05-18T13:57:10Z</time>
</trkpt>
<trkpt lat="52.99536323" lon="18.73579201">
<ele>81</ele>
<time>2014-05-18T13:57:16Z</time>
</trkpt>
<trkpt lat="52.99537497" lon="18.73578168">
<ele>79</ele>
<time>2014-05-18T13:57:23Z</time>
</trkpt>
<trkpt lat="52.99535524" lon="18.7357816">
<ele>75</ele>
<time>2014-05-18T13:57:28Z</time>
</trkpt>
<trkpt lat="52.99535304" lon="18.73578766">
<ele>75</ele>
<time>2014-05-18T13:57:34Z</time>
</trkpt>
<trkpt lat="52.99535377" lon="18.7357963">
<ele>78</ele>
<time>2014-05-18T13:57:40Z</time>
</trkpt>
<trkpt lat="52.99538426" lon="18.73582417">
<ele>83</ele>
<time>2014-05-18T13:57:46Z</time>
</trkpt>
<trkpt lat="52.99537925" lon="18.73582092">
<ele>81</ele>
<time>2014-05-18T13:57:52Z</time>
</trkpt>
<trkpt lat="52.99543284" lon="18.7358262">
<ele>78</ele>
<time>2014-05-18T13:57:58Z</time>
</trkpt>
<trkpt lat="52.99543284" lon="18.7358262">
<ele>78</ele>
<time>2014-05-18T13:58:05Z</time>
</trkpt>
<trkpt lat="52.99544435" lon="18.73581551">
<ele>79</ele>
<time>2014-05-18T13:58:10Z</time>
</trkpt>
<trkpt lat="52.99544614" lon="18.73581648">
<ele>78</ele>
<time>2014-05-18T13:58:16Z</time>
</trkpt>
<trkpt lat="52.99544662" lon="18.73581516">
<ele>78</ele>
<time>2014-05-18T13:58:22Z</time>
</trkpt>
<trkpt lat="52.99544641" lon="18.73581505">
<ele>78</ele>
<time>2014-05-18T13:58:29Z</time>
</trkpt>
<trkpt lat="52.99544595" lon="18.73581541">
<ele>78</ele>
<time>2014-05-18T13:58:34Z</time>
</trkpt>
<trkpt lat="52.99544498" lon="18.73581666">
<ele>78</ele>
<time>2014-05-18T13:58:40Z</time>
</trkpt>
<trkpt lat="52.99544411" lon="18.7358173">
<ele>78</ele>
<time>2014-05-18T13:58:46Z</time>
</trkpt>
<trkpt lat="52.9954441" lon="18.73581705">
<ele>78</ele>
<time>2014-05-18T13:58:53Z</time>
</trkpt>
<trkpt lat="52.99544413" lon="18.73581693">
<ele>78</ele>
<time>2014-05-18T13:58:58Z</time>
</trkpt>
<trkpt lat="52.99544138" lon="18.73582036">
<ele>78</ele>
<time>2014-05-18T13:59:04Z</time>
</trkpt>
<trkpt lat="52.99544132" lon="18.7358203">
<ele>78</ele>
<time>2014-05-18T13:59:10Z</time>
</trkpt>
<trkpt lat="52.99536705" lon="18.73578831">
<ele>82</ele>
<time>2014-05-18T13:59:17Z</time>
</trkpt>
<trkpt lat="52.99530612" lon="18.73577223">
<ele>77</ele>
<time>2014-05-18T13:59:22Z</time>
</trkpt>
<trkpt lat="52.99530612" lon="18.73577223">
<ele>77</ele>
<time>2014-05-18T13:59:28Z</time>
</trkpt>
<trkpt lat="52.99526154" lon="18.73584674">
<ele>74</ele>
<time>2014-05-18T13:59:34Z</time>
</trkpt>
<trkpt lat="52.99526154" lon="18.73584674">
<ele>74</ele>
<time>2014-05-18T13:59:41Z</time>
</trkpt>
<trkpt lat="52.99524895" lon="18.73586563">
<ele>74</ele>
<time>2014-05-18T13:59:47Z</time>
</trkpt>
<trkpt lat="52.9952489" lon="18.73586575">
<ele>74</ele>
<time>2014-05-18T13:59:52Z</time>
</trkpt>
<trkpt lat="52.99526231" lon="18.73583527">
<ele>73</ele>
<time>2014-05-18T13:59:58Z</time>
</trkpt>
<trkpt lat="52.99527434" lon="18.73584664">
<ele>75</ele>
<time>2014-05-18T14:00:04Z</time>
</trkpt>
<trkpt lat="52.99525896" lon="18.73587953">
<ele>82</ele>
<time>2014-05-18T14:00:11Z</time>
</trkpt>
<trkpt lat="52.99527488" lon="18.73587434">
<ele>84</ele>
<time>2014-05-18T14:00:16Z</time>
</trkpt>
<trkpt lat="52.99528319" lon="18.73588417">
<ele>84</ele>
<time>2014-05-18T14:00:23Z</time>
</trkpt>
<trkpt lat="52.99528175" lon="18.73587764">
<ele>86</ele>
<time>2014-05-18T14:00:28Z</time>
</trkpt>
<trkpt lat="52.99522078" lon="18.7359023">
<ele>80</ele>
<time>2014-05-18T14:00:35Z</time>
</trkpt>
<trkpt lat="52.99522078" lon="18.7359023">
<ele>80</ele>
<time>2014-05-18T14:00:40Z</time>
</trkpt>
<trkpt lat="52.99523304" lon="18.73588056">
<ele>81</ele>
<time>2014-05-18T14:00:47Z</time>
</trkpt>
<trkpt lat="52.99523027" lon="18.73580797">
<ele>90</ele>
<time>2014-05-18T14:00:53Z</time>
</trkpt>
<trkpt lat="52.99523027" lon="18.73580797">
<ele>90</ele>
<time>2014-05-18T14:00:59Z</time>
</trkpt>
<trkpt lat="52.99522493" lon="18.73579475">
<ele>89</ele>
<time>2014-05-18T14:01:04Z</time>
</trkpt>
<trkpt lat="52.99521158" lon="18.73577843">
<ele>90</ele>
<time>2014-05-18T14:01:11Z</time>
</trkpt>
<trkpt lat="52.99520992" lon="18.73577565">
<ele>89</ele>
<time>2014-05-18T14:01:16Z</time>
</trkpt>
<trkpt lat="52.99524873" lon="18.73583807">
<ele>88</ele>
<time>2014-05-18T14:01:23Z</time>
</trkpt>
<trkpt lat="52.99524873" lon="18.73583807">
<ele>88</ele>
<time>2014-05-18T14:01:29Z</time>
</trkpt>
<trkpt lat="52.99526088" lon="18.73587334">
<ele>90</ele>
<time>2014-05-18T14:01:34Z</time>
</trkpt>
<trkpt lat="52.99526982" lon="18.73582999">
<ele>90</ele>
<time>2014-05-18T14:01:40Z</time>
</trkpt>
<trkpt lat="52.99524914" lon="18.73579393">
<ele>87</ele>
<time>2014-05-18T14:01:49Z</time>
</trkpt>
<trkpt lat="52.99524558" lon="18.73578628">
<ele>87</ele>
<time>2014-05-18T14:01:55Z</time>
</trkpt>
<trkpt lat="52.99524421" lon="18.73579246">
<ele>87</ele>
<time>2014-05-18T14:02:02Z</time>
</trkpt>
<trkpt lat="52.99524431" lon="18.73579255">
<ele>87</ele>
<time>2014-05-18T14:02:09Z</time>
</trkpt>
<trkpt lat="52.99524438" lon="18.73579244">
<ele>87</ele>
<time>2014-05-18T14:02:15Z</time>
</trkpt>
<trkpt lat="52.99524433" lon="18.7357923">
<ele>87</ele>
<time>2014-05-18T14:02:20Z</time>
</trkpt>
<trkpt lat="52.99524578" lon="18.73579254">
<ele>86</ele>
<time>2014-05-18T14:02:27Z</time>
</trkpt>
<trkpt lat="52.99524199" lon="18.73576427">
<ele>84</ele>
<time>2014-05-18T14:02:33Z</time>
</trkpt>
<trkpt lat="52.99523346" lon="18.73577729">
<ele>83</ele>
<time>2014-05-18T14:02:38Z</time>
</trkpt>
<trkpt lat="52.99523588" lon="18.73577499">
<ele>81</ele>
<time>2014-05-18T14:02:44Z</time>
</trkpt>
<trkpt lat="52.99525874" lon="18.7358113">
<ele>79</ele>
<time>2014-05-18T14:02:51Z</time>
</trkpt>
<trkpt lat="52.99527217" lon="18.73580123">
<ele>81</ele>
<time>2014-05-18T14:02:57Z</time>
</trkpt>
<trkpt lat="52.99528577" lon="18.73582012">
<ele>86</ele>
<time>2014-05-18T14:03:03Z</time>
</trkpt>
<trkpt lat="52.9953006" lon="18.73581971">
<ele>89</ele>
<time>2014-05-18T14:03:08Z</time>
</trkpt>
<trkpt lat="52.99530404" lon="18.73582691">
<ele>89</ele>
<time>2014-05-18T14:03:15Z</time>
</trkpt>
<trkpt lat="52.99530653" lon="18.73582935">
<ele>93</ele>
<time>2014-05-18T14:03:23Z</time>
</trkpt>
<trkpt lat="52.99526207" lon="18.73588674">
<ele>97</ele>
<time>2014-05-18T14:03:28Z</time>
</trkpt>
<trkpt lat="52.99526207" lon="18.73588674">
<ele>97</ele>
<time>2014-05-18T14:03:35Z</time>
</trkpt>
<trkpt lat="52.99527387" lon="18.73584701">
<ele>98</ele>
<time>2014-05-18T14:03:41Z</time>
</trkpt>
<trkpt lat="52.99524579" lon="18.73577597">
<ele>94</ele>
<time>2014-05-18T14:03:47Z</time>
</trkpt>
<trkpt lat="52.99524579" lon="18.73577597">
<ele>94</ele>
<time>2014-05-18T14:03:53Z</time>
</trkpt>
<trkpt lat="52.99524848" lon="18.73575391">
<ele>95</ele>
<time>2014-05-18T14:03:59Z</time>
</trkpt>
<trkpt lat="52.99523536" lon="18.73572022">
<ele>91</ele>
<time>2014-05-18T14:04:04Z</time>
</trkpt>
<trkpt lat="52.99523564" lon="18.73572011">
<ele>89</ele>
<time>2014-05-18T14:04:11Z</time>
</trkpt>
<trkpt lat="52.9952414" lon="18.73567896">
<ele>86</ele>
<time>2014-05-18T14:04:17Z</time>
</trkpt>
<trkpt lat="52.99524429" lon="18.735675">
<ele>86</ele>
<time>2014-05-18T14:04:22Z</time>
</trkpt>
<trkpt lat="52.99530193" lon="18.73561901">
<ele>74</ele>
<time>2014-05-18T14:04:31Z</time>
</trkpt>
<trkpt lat="52.99530193" lon="18.73561901">
<ele>74</ele>
<time>2014-05-18T14:04:37Z</time>
</trkpt>
<trkpt lat="52.99529974" lon="18.73565859">
<ele>75</ele>
<time>2014-05-18T14:04:43Z</time>
</trkpt>
<trkpt lat="52.99529697" lon="18.73565983">
<ele>76</ele>
<time>2014-05-18T14:04:49Z</time>
</trkpt>
<trkpt lat="52.99528824" lon="18.73567963">
<ele>76</ele>
<time>2014-05-18T14:04:54Z</time>
</trkpt>
<trkpt lat="52.99528355" lon="18.735674">
<ele>77</ele>
<time>2014-05-18T14:05:00Z</time>
</trkpt>
<trkpt lat="52.99528034" lon="18.73565322">
<ele>77</ele>
<time>2014-05-18T14:05:07Z</time>
</trkpt>
<trkpt lat="52.99527813" lon="18.73565571">
<ele>77</ele>
<time>2014-05-18T14:05:13Z</time>
</trkpt>
<trkpt lat="52.99526785" lon="18.7356527">
<ele>80</ele>
<time>2014-05-18T14:05:20Z</time>
</trkpt>
<trkpt lat="52.99526838" lon="18.73565124">
<ele>81</ele>
<time>2014-05-18T14:05:27Z</time>
</trkpt>
<trkpt lat="52.99525856" lon="18.7358067">
<ele>88</ele>
<time>2014-05-18T14:05:32Z</time>
</trkpt>
<trkpt lat="52.99525856" lon="18.7358067">
<ele>88</ele>
<time>2014-05-18T14:05:39Z</time>
</trkpt>
<trkpt lat="52.9952478" lon="18.73582302">
<ele>90</ele>
<time>2014-05-18T14:05:45Z</time>
</trkpt>
<trkpt lat="52.99525765" lon="18.73580357">
<ele>92</ele>
<time>2014-05-18T14:05:50Z</time>
</trkpt>
<trkpt lat="52.99528445" lon="18.73576503">
<ele>90</ele>
<time>2014-05-18T14:05:58Z</time>
</trkpt>
<trkpt lat="52.9952601" lon="18.73579054">
<ele>89</ele>
<time>2014-05-18T14:06:04Z</time>
</trkpt>
<trkpt lat="52.99533745" lon="18.73582809">
<ele>85</ele>
<time>2014-05-18T14:06:13Z</time>
</trkpt>
<trkpt lat="52.99533745" lon="18.73582809">
<ele>85</ele>
<time>2014-05-18T14:06:19Z</time>
</trkpt>
<trkpt lat="52.99532954" lon="18.73584897">
<ele>84</ele>
<time>2014-05-18T14:06:25Z</time>
</trkpt>
<trkpt lat="52.99531809" lon="18.7358462">
<ele>86</ele>
<time>2014-05-18T14:06:31Z</time>
</trkpt>
<trkpt lat="52.99529967" lon="18.73587001">
<ele>89</ele>
<time>2014-05-18T14:06:39Z</time>
</trkpt>
<trkpt lat="52.99528615" lon="18.73584383">
<ele>84</ele>
<time>2014-05-18T14:06:44Z</time>
</trkpt>
<trkpt lat="52.99527302" lon="18.73589157">
<ele>85</ele>
<time>2014-05-18T14:06:52Z</time>
</trkpt>
<trkpt lat="52.99528145" lon="18.73586911">
<ele>86</ele>
<time>2014-05-18T14:06:59Z</time>
</trkpt>
<trkpt lat="52.99527745" lon="18.73585797">
<ele>88</ele>
<time>2014-05-18T14:07:05Z</time>
</trkpt>
<trkpt lat="52.99527383" lon="18.73585331">
<ele>89</ele>
<time>2014-05-18T14:07:10Z</time>
</trkpt>
<trkpt lat="52.99527377" lon="18.73584877">
<ele>90</ele>
<time>2014-05-18T14:07:17Z</time>
</trkpt>
<trkpt lat="52.99527311" lon="18.73584658">
<ele>90</ele>
<time>2014-05-18T14:07:23Z</time>
</trkpt>
<trkpt lat="52.99527313" lon="18.7358465">
<ele>90</ele>
<time>2014-05-18T14:07:29Z</time>
</trkpt>
<trkpt lat="52.99522174" lon="18.73580292">
<ele>90</ele>
<time>2014-05-18T14:07:35Z</time>
</trkpt>
<trkpt lat="52.99522174" lon="18.73580292">
<ele>90</ele>
<time>2014-05-18T14:07:40Z</time>
</trkpt>
<trkpt lat="52.99523327" lon="18.7358008">
<ele>89</ele>
<time>2014-05-18T14:07:47Z</time>
</trkpt>
<trkpt lat="52.99523372" lon="18.73577623">
<ele>88</ele>
<time>2014-05-18T14:07:53Z</time>
</trkpt>
<trkpt lat="52.99522718" lon="18.73577536">
<ele>89</ele>
<time>2014-05-18T14:07:59Z</time>
</trkpt>
<trkpt lat="52.99524129" lon="18.73580758">
<ele>94</ele>
<time>2014-05-18T14:08:05Z</time>
</trkpt>
<trkpt lat="52.99524891" lon="18.73579462">
<ele>97</ele>
<time>2014-05-18T14:08:13Z</time>
</trkpt>
<trkpt lat="52.99524682" lon="18.73579967">
<ele>97</ele>
<time>2014-05-18T14:08:19Z</time>
</trkpt>
<trkpt lat="52.99524698" lon="18.7358012">
<ele>97</ele>
<time>2014-05-18T14:08:25Z</time>
</trkpt>
<trkpt lat="52.99524703" lon="18.73580117">
<ele>97</ele>
<time>2014-05-18T14:08:31Z</time>
</trkpt>
<trkpt lat="52.99524707" lon="18.73580103">
<ele>97</ele>
<time>2014-05-18T14:08:39Z</time>
</trkpt>
<trkpt lat="52.99524714" lon="18.73580096">
<ele>97</ele>
<time>2014-05-18T14:08:44Z</time>
</trkpt>
<trkpt lat="52.99524347" lon="18.73578411">
<ele>98</ele>
<time>2014-05-18T14:08:51Z</time>
</trkpt>
<trkpt lat="52.99524055" lon="18.73579489">
<ele>97</ele>
<time>2014-05-18T14:08:57Z</time>
</trkpt>
<trkpt lat="52.99523649" lon="18.73577804">
<ele>96</ele>
<time>2014-05-18T14:09:03Z</time>
</trkpt>
<trkpt lat="52.99524306" lon="18.73579928">
<ele>97</ele>
<time>2014-05-18T14:09:11Z</time>
</trkpt>
<trkpt lat="52.99524084" lon="18.73580983">
<ele>96</ele>
<time>2014-05-18T14:09:17Z</time>
</trkpt>
<trkpt lat="52.99522833" lon="18.73575963">
<ele>95</ele>
<time>2014-05-18T14:09:23Z</time>
</trkpt>
<trkpt lat="52.99519841" lon="18.73574498">
<ele>94</ele>
<time>2014-05-18T14:09:29Z</time>
</trkpt>
<trkpt lat="52.99517852" lon="18.7357204">
<ele>97</ele>
<time>2014-05-18T14:09:35Z</time>
</trkpt>
<trkpt lat="52.99517517" lon="18.73572226">
<ele>97</ele>
<time>2014-05-18T14:09:41Z</time>
</trkpt>
<trkpt lat="52.99517594" lon="18.73571685">
<ele>97</ele>
<time>2014-05-18T14:09:47Z</time>
</trkpt>
<trkpt lat="52.99517594" lon="18.73571658">
<ele>97</ele>
<time>2014-05-18T14:09:52Z</time>
</trkpt>
<trkpt lat="52.99517595" lon="18.73571655">
<ele>97</ele>
<time>2014-05-18T14:09:59Z</time>
</trkpt>
<trkpt lat="52.99517604" lon="18.73572057">
<ele>97</ele>
<time>2014-05-18T14:10:05Z</time>
</trkpt>
<trkpt lat="52.99522546" lon="18.73570877">
<ele>97</ele>
<time>2014-05-18T14:10:11Z</time>
</trkpt>
<trkpt lat="52.99522546" lon="18.73570877">
<ele>97</ele>
<time>2014-05-18T14:10:17Z</time>
</trkpt>
<trkpt lat="52.99526431" lon="18.73570505">
<ele>100</ele>
<time>2014-05-18T14:10:22Z</time>
</trkpt>
<trkpt lat="52.99527327" lon="18.73576375">
<ele>96</ele>
<time>2014-05-18T14:10:29Z</time>
</trkpt>
<trkpt lat="52.99526647" lon="18.7358353">
<ele>92</ele>
<time>2014-05-18T14:10:35Z</time>
</trkpt>
<trkpt lat="52.99526062" lon="18.73582034">
<ele>92</ele>
<time>2014-05-18T14:10:41Z</time>
</trkpt>
<trkpt lat="52.99519304" lon="18.73584614">
<ele>96</ele>
<time>2014-05-18T14:10:47Z</time>
</trkpt>
<trkpt lat="52.99505501" lon="18.73582142">
<ele>94</ele>
<time>2014-05-18T14:10:53Z</time>
</trkpt>
<trkpt lat="52.99505501" lon="18.73582142">
<ele>94</ele>
<time>2014-05-18T14:10:59Z</time>
</trkpt>
<trkpt lat="52.9948406" lon="18.73588926">
<ele>93</ele>
<time>2014-05-18T14:11:05Z</time>
</trkpt>
<trkpt lat="52.9948406" lon="18.73588926">
<ele>93</ele>
<time>2014-05-18T14:11:11Z</time>
</trkpt>
<trkpt lat="52.99468977" lon="18.73591792">
<ele>90</ele>
<time>2014-05-18T14:11:17Z</time>
</trkpt>
<trkpt lat="52.99428745" lon="18.73572165">
<ele>93</ele>
<time>2014-05-18T14:11:23Z</time>
</trkpt>
<trkpt lat="52.99411104" lon="18.7355712">
<ele>90</ele>
<time>2014-05-18T14:11:29Z</time>
</trkpt>
<trkpt lat="52.99403461" lon="18.73557531">
<ele>94</ele>
<time>2014-05-18T14:11:35Z</time>
</trkpt>
<trkpt lat="52.99385367" lon="18.73582598">
<ele>93</ele>
<time>2014-05-18T14:11:41Z</time>
</trkpt>
<trkpt lat="52.99394792" lon="18.73606568">
<ele>99</ele>
<time>2014-05-18T14:11:47Z</time>
</trkpt>
<trkpt lat="52.99398665" lon="18.73645125">
<ele>94</ele>
<time>2014-05-18T14:11:53Z</time>
</trkpt>
<trkpt lat="52.99398644" lon="18.73661568">
<ele>96</ele>
<time>2014-05-18T14:11:59Z</time>
</trkpt>
<trkpt lat="52.99401556" lon="18.73737361">
<ele>91</ele>
<time>2014-05-18T14:12:05Z</time>
</trkpt>
<trkpt lat="52.99405492" lon="18.73762608">
<ele>90</ele>
<time>2014-05-18T14:12:11Z</time>
</trkpt>
<trkpt lat="52.99409927" lon="18.73778604">
<ele>87</ele>
<time>2014-05-18T14:12:17Z</time>
</trkpt>
<trkpt lat="52.99416964" lon="18.73831817">
<ele>91</ele>
<time>2014-05-18T14:12:23Z</time>
</trkpt>
<trkpt lat="52.99403592" lon="18.73847566">
<ele>95</ele>
<time>2014-05-18T14:12:29Z</time>
</trkpt>
<trkpt lat="52.99401284" lon="18.7386768">
<ele>98</ele>
<time>2014-05-18T14:12:35Z</time>
</trkpt>
<trkpt lat="52.99399644" lon="18.73880145">
<ele>94</ele>
<time>2014-05-18T14:12:41Z</time>
</trkpt>
<trkpt lat="52.99399972" lon="18.73915547">
<ele>94</ele>
<time>2014-05-18T14:12:47Z</time>
</trkpt>
<trkpt lat="52.99392451" lon="18.73946906">
<ele>88</ele>
<time>2014-05-18T14:12:53Z</time>
</trkpt>
<trkpt lat="52.99392448" lon="18.73960081">
<ele>92</ele>
<time>2014-05-18T14:12:59Z</time>
</trkpt>
<trkpt lat="52.99392229" lon="18.74026256">
<ele>95</ele>
<time>2014-05-18T14:13:05Z</time>
</trkpt>
<trkpt lat="52.99392303" lon="18.74039169">
<ele>98</ele>
<time>2014-05-18T14:13:10Z</time>
</trkpt>
<trkpt lat="52.99390656" lon="18.74103927">
<ele>103</ele>
<time>2014-05-18T14:13:19Z</time>
</trkpt>
<trkpt lat="52.99387656" lon="18.74127567">
<ele>101</ele>
<time>2014-05-18T14:13:25Z</time>
</trkpt>
<trkpt lat="52.99387656" lon="18.74127567">
<ele>101</ele>
<time>2014-05-18T14:13:31Z</time>
</trkpt>
<trkpt lat="52.99389469" lon="18.74189964">
<ele>102</ele>
<time>2014-05-18T14:13:37Z</time>
</trkpt>
<trkpt lat="52.99385917" lon="18.74199642">
<ele>103</ele>
<time>2014-05-18T14:13:43Z</time>
</trkpt>
<trkpt lat="52.99383016" lon="18.74222902">
<ele>102</ele>
<time>2014-05-18T14:13:49Z</time>
</trkpt>
<trkpt lat="52.99389118" lon="18.74260026">
<ele>97</ele>
<time>2014-05-18T14:13:55Z</time>
</trkpt>
<trkpt lat="52.99399121" lon="18.74313376">
<ele>95</ele>
<time>2014-05-18T14:14:01Z</time>
</trkpt>
<trkpt lat="52.99397548" lon="18.7432214">
<ele>98</ele>
<time>2014-05-18T14:14:07Z</time>
</trkpt>
<trkpt lat="52.9939005" lon="18.74379399">
<ele>95</ele>
<time>2014-05-18T14:14:13Z</time>
</trkpt>
<trkpt lat="52.99390658" lon="18.74420369">
<ele>92</ele>
<time>2014-05-18T14:14:19Z</time>
</trkpt>
<trkpt lat="52.99387272" lon="18.74455847">
<ele>94</ele>
<time>2014-05-18T14:14:25Z</time>
</trkpt>
<trkpt lat="52.99383184" lon="18.74492462">
<ele>95</ele>
<time>2014-05-18T14:14:31Z</time>
</trkpt>
<trkpt lat="52.99380094" lon="18.74513178">
<ele>96</ele>
<time>2014-05-18T14:14:37Z</time>
</trkpt>
<trkpt lat="52.99384576" lon="18.74545904">
<ele>96</ele>
<time>2014-05-18T14:14:43Z</time>
</trkpt>
<trkpt lat="52.9939143" lon="18.74587321">
<ele>97</ele>
<time>2014-05-18T14:14:49Z</time>
</trkpt>
<trkpt lat="52.99389393" lon="18.74600302">
<ele>97</ele>
<time>2014-05-18T14:14:55Z</time>
</trkpt>
<trkpt lat="52.9938861" lon="18.74640295">
<ele>100</ele>
<time>2014-05-18T14:15:01Z</time>
</trkpt>
<trkpt lat="52.99392329" lon="18.74657357">
<ele>95</ele>
<time>2014-05-18T14:15:07Z</time>
</trkpt>
<trkpt lat="52.99391566" lon="18.74703327">
<ele>90</ele>
<time>2014-05-18T14:15:13Z</time>
</trkpt>
<trkpt lat="52.99392524" lon="18.74769447">
<ele>98</ele>
<time>2014-05-18T14:15:19Z</time>
</trkpt>
<trkpt lat="52.99390147" lon="18.74779097">
<ele>99</ele>
<time>2014-05-18T14:15:25Z</time>
</trkpt>
<trkpt lat="52.99383971" lon="18.74820073">
<ele>104</ele>
<time>2014-05-18T14:15:31Z</time>
</trkpt>
<trkpt lat="52.99378289" lon="18.74834819">
<ele>103</ele>
<time>2014-05-18T14:15:36Z</time>
</trkpt>
<trkpt lat="52.99372415" lon="18.74861355">
<ele>101</ele>
<time>2014-05-18T14:15:43Z</time>
</trkpt>
<trkpt lat="52.99378795" lon="18.74909098">
<ele>102</ele>
<time>2014-05-18T14:15:49Z</time>
</trkpt>
<trkpt lat="52.99384465" lon="18.74937545">
<ele>89</ele>
<time>2014-05-18T14:15:55Z</time>
</trkpt>
<trkpt lat="52.99394414" lon="18.74974114">
<ele>85</ele>
<time>2014-05-18T14:16:01Z</time>
</trkpt>
<trkpt lat="52.99400914" lon="18.74997752">
<ele>83</ele>
<time>2014-05-18T14:16:07Z</time>
</trkpt>
<trkpt lat="52.99412961" lon="18.75044046">
<ele>80</ele>
<time>2014-05-18T14:16:13Z</time>
</trkpt>
<trkpt lat="52.99416693" lon="18.75050668">
<ele>77</ele>
<time>2014-05-18T14:16:19Z</time>
</trkpt>
<trkpt lat="52.99421676" lon="18.75095645">
<ele>79</ele>
<time>2014-05-18T14:16:25Z</time>
</trkpt>
<trkpt lat="52.99419652" lon="18.75104831">
<ele>79</ele>
<time>2014-05-18T14:16:31Z</time>
</trkpt>
<trkpt lat="52.99431823" lon="18.75152149">
<ele>80</ele>
<time>2014-05-18T14:16:36Z</time>
</trkpt>
<trkpt lat="52.99439679" lon="18.75167666">
<ele>80</ele>
<time>2014-05-18T14:16:43Z</time>
</trkpt>
<trkpt lat="52.99450695" lon="18.75209652">
<ele>83</ele>
<time>2014-05-18T14:16:49Z</time>
</trkpt>
<trkpt lat="52.99464103" lon="18.75266158">
<ele>83</ele>
<time>2014-05-18T14:16:55Z</time>
</trkpt>
<trkpt lat="52.99473349" lon="18.75289463">
<ele>76</ele>
<time>2014-05-18T14:17:01Z</time>
</trkpt>
<trkpt lat="52.99473349" lon="18.75289463">
<ele>76</ele>
<time>2014-05-18T14:17:07Z</time>
</trkpt>
<trkpt lat="52.9948089" lon="18.75343446">
<ele>84</ele>
<time>2014-05-18T14:17:13Z</time>
</trkpt>
<trkpt lat="52.9948089" lon="18.75343446">
<ele>84</ele>
<time>2014-05-18T14:17:19Z</time>
</trkpt>
<trkpt lat="52.99481167" lon="18.75364752">
<ele>83</ele>
<time>2014-05-18T14:17:25Z</time>
</trkpt>
<trkpt lat="52.9948366" lon="18.75394739">
<ele>86</ele>
<time>2014-05-18T14:17:31Z</time>
</trkpt>
<trkpt lat="52.9948366" lon="18.75394739">
<ele>86</ele>
<time>2014-05-18T14:17:37Z</time>
</trkpt>
<trkpt lat="52.99490495" lon="18.75415201">
<ele>89</ele>
<time>2014-05-18T14:17:43Z</time>
</trkpt>
<trkpt lat="52.99506381" lon="18.75447518">
<ele>88</ele>
<time>2014-05-18T14:17:49Z</time>
</trkpt>
<trkpt lat="52.99513261" lon="18.75471692">
<ele>90</ele>
<time>2014-05-18T14:17:54Z</time>
</trkpt>
<trkpt lat="52.99527447" lon="18.7550438">
<ele>88</ele>
<time>2014-05-18T14:18:01Z</time>
</trkpt>
<trkpt lat="52.99542095" lon="18.75558526">
<ele>93</ele>
<time>2014-05-18T14:18:07Z</time>
</trkpt>
<trkpt lat="52.99543392" lon="18.75590428">
<ele>99</ele>
<time>2014-05-18T14:18:13Z</time>
</trkpt>
<trkpt lat="52.99544277" lon="18.75613784">
<ele>99</ele>
<time>2014-05-18T14:18:19Z</time>
</trkpt>
<trkpt lat="52.99560097" lon="18.75673714">
<ele>96</ele>
<time>2014-05-18T14:18:25Z</time>
</trkpt>
<trkpt lat="52.99564119" lon="18.75688347">
<ele>95</ele>
<time>2014-05-18T14:18:31Z</time>
</trkpt>
<trkpt lat="52.99574355" lon="18.75732324">
<ele>98</ele>
<time>2014-05-18T14:18:37Z</time>
</trkpt>
<trkpt lat="52.99584685" lon="18.75790158">
<ele>97</ele>
<time>2014-05-18T14:18:43Z</time>
</trkpt>
<trkpt lat="52.99592413" lon="18.75816149">
<ele>87</ele>
<time>2014-05-18T14:18:49Z</time>
</trkpt>
<trkpt lat="52.99595107" lon="18.75824">
<ele>83</ele>
<time>2014-05-18T14:18:55Z</time>
</trkpt>
<trkpt lat="52.99608153" lon="18.75845658">
<ele>83</ele>
<time>2014-05-18T14:19:01Z</time>
</trkpt>
<trkpt lat="52.99616158" lon="18.7587581">
<ele>82</ele>
<time>2014-05-18T14:19:09Z</time>
</trkpt>
<trkpt lat="52.99622017" lon="18.75928515">
<ele>83</ele>
<time>2014-05-18T14:19:15Z</time>
</trkpt>
<trkpt lat="52.99628619" lon="18.75968946">
<ele>82</ele>
<time>2014-05-18T14:19:21Z</time>
</trkpt>
<trkpt lat="52.99635524" lon="18.75992658">
<ele>89</ele>
<time>2014-05-18T14:19:27Z</time>
</trkpt>
<trkpt lat="52.99635524" lon="18.75992658">
<ele>89</ele>
<time>2014-05-18T14:19:33Z</time>
</trkpt>
<trkpt lat="52.99639302" lon="18.76016787">
<ele>91</ele>
<time>2014-05-18T14:19:39Z</time>
</trkpt>
<trkpt lat="52.996468" lon="18.7605193">
<ele>98</ele>
<time>2014-05-18T14:19:45Z</time>
</trkpt>
<trkpt lat="52.99655399" lon="18.76078479">
<ele>91</ele>
<time>2014-05-18T14:19:51Z</time>
</trkpt>
<trkpt lat="52.99658571" lon="18.76086671">
<ele>90</ele>
<time>2014-05-18T14:19:57Z</time>
</trkpt>
<trkpt lat="52.99671408" lon="18.76145943">
<ele>93</ele>
<time>2014-05-18T14:20:03Z</time>
</trkpt>
<trkpt lat="52.99677833" lon="18.76176834">
<ele>85</ele>
<time>2014-05-18T14:20:09Z</time>
</trkpt>
<trkpt lat="52.99689155" lon="18.76211154">
<ele>85</ele>
<time>2014-05-18T14:20:17Z</time>
</trkpt>
<trkpt lat="52.99697648" lon="18.76237592">
<ele>83</ele>
<time>2014-05-18T14:20:23Z</time>
</trkpt>
<trkpt lat="52.9969831" lon="18.76260476">
<ele>92</ele>
<time>2014-05-18T14:20:29Z</time>
</trkpt>
<trkpt lat="52.9969831" lon="18.76260476">
<ele>92</ele>
<time>2014-05-18T14:20:34Z</time>
</trkpt>
<trkpt lat="52.99695062" lon="18.76255765">
<ele>91</ele>
<time>2014-05-18T14:20:41Z</time>
</trkpt>
<trkpt lat="52.99694771" lon="18.76255465">
<ele>92</ele>
<time>2014-05-18T14:20:47Z</time>
</trkpt>
<trkpt lat="52.99694776" lon="18.76255946">
<ele>92</ele>
<time>2014-05-18T14:20:53Z</time>
</trkpt>
<trkpt lat="52.99694738" lon="18.76257119">
<ele>93</ele>
<time>2014-05-18T14:20:59Z</time>
</trkpt>
<trkpt lat="52.99704219" lon="18.76283651">
<ele>90</ele>
<time>2014-05-18T14:21:05Z</time>
</trkpt>
<trkpt lat="52.99722109" lon="18.76358977">
<ele>74</ele>
<time>2014-05-18T14:21:10Z</time>
</trkpt>
<trkpt lat="52.99725887" lon="18.76368529">
<ele>70</ele>
<time>2014-05-18T14:21:17Z</time>
</trkpt>
<trkpt lat="52.99747787" lon="18.76421565">
<ele>74</ele>
<time>2014-05-18T14:21:23Z</time>
</trkpt>
<trkpt lat="52.99745342" lon="18.76453884">
<ele>81</ele>
<time>2014-05-18T14:21:29Z</time>
</trkpt>
<trkpt lat="52.99752415" lon="18.76509076">
<ele>82</ele>
<time>2014-05-18T14:21:35Z</time>
</trkpt>
<trkpt lat="52.99761062" lon="18.76544172">
<ele>88</ele>
<time>2014-05-18T14:21:41Z</time>
</trkpt>
<trkpt lat="52.99764324" lon="18.76555755">
<ele>83</ele>
<time>2014-05-18T14:21:46Z</time>
</trkpt>
<trkpt lat="52.99774784" lon="18.76592768">
<ele>81</ele>
<time>2014-05-18T14:21:53Z</time>
</trkpt>
<trkpt lat="52.99784321" lon="18.76641037">
<ele>78</ele>
<time>2014-05-18T14:21:59Z</time>
</trkpt>
<trkpt lat="52.99800362" lon="18.76708796">
<ele>80</ele>
<time>2014-05-18T14:22:05Z</time>
</trkpt>
<trkpt lat="52.99810484" lon="18.76745399">
<ele>84</ele>
<time>2014-05-18T14:22:11Z</time>
</trkpt>
<trkpt lat="52.99809461" lon="18.7675588">
<ele>85</ele>
<time>2014-05-18T14:22:17Z</time>
</trkpt>
<trkpt lat="52.99791054" lon="18.76767634">
<ele>84</ele>
<time>2014-05-18T14:22:23Z</time>
</trkpt>
<trkpt lat="52.99744629" lon="18.76764138">
<ele>83</ele>
<time>2014-05-18T14:22:29Z</time>
</trkpt>
<trkpt lat="52.99738981" lon="18.76762665">
<ele>86</ele>
<time>2014-05-18T14:22:35Z</time>
</trkpt>
<trkpt lat="52.99693952" lon="18.76758114">
<ele>82</ele>
<time>2014-05-18T14:22:41Z</time>
</trkpt>
<trkpt lat="52.99663803" lon="18.76757652">
<ele>81</ele>
<time>2014-05-18T14:22:47Z</time>
</trkpt>
<trkpt lat="52.99654088" lon="18.76760934">
<ele>81</ele>
<time>2014-05-18T14:22:53Z</time>
</trkpt>
<trkpt lat="52.99633284" lon="18.76761105">
<ele>88</ele>
<time>2014-05-18T14:22:59Z</time>
</trkpt>
<trkpt lat="52.99595886" lon="18.7675213">
<ele>94</ele>
<time>2014-05-18T14:23:05Z</time>
</trkpt>
<trkpt lat="52.99563781" lon="18.76764615">
<ele>85</ele>
<time>2014-05-18T14:23:11Z</time>
</trkpt>
<trkpt lat="52.99551929" lon="18.76768493">
<ele>86</ele>
<time>2014-05-18T14:23:17Z</time>
</trkpt>
<trkpt lat="52.99534853" lon="18.76776222">
<ele>83</ele>
<time>2014-05-18T14:23:23Z</time>
</trkpt>
<trkpt lat="52.99502156" lon="18.76800359">
<ele>88</ele>
<time>2014-05-18T14:23:29Z</time>
</trkpt>
<trkpt lat="52.9949202" lon="18.76805219">
<ele>95</ele>
<time>2014-05-18T14:23:35Z</time>
</trkpt>
<trkpt lat="52.99482358" lon="18.76808245">
<ele>97</ele>
<time>2014-05-18T14:23:41Z</time>
</trkpt>
<trkpt lat="52.99482358" lon="18.76808245">
<ele>97</ele>
<time>2014-05-18T14:23:47Z</time>
</trkpt>
<trkpt lat="52.99483916" lon="18.7680604">
<ele>99</ele>
<time>2014-05-18T14:23:53Z</time>
</trkpt>
<trkpt lat="52.99485363" lon="18.76806231">
<ele>102</ele>
<time>2014-05-18T14:23:59Z</time>
</trkpt>
<trkpt lat="52.99484573" lon="18.76808125">
<ele>103</ele>
<time>2014-05-18T14:24:05Z</time>
</trkpt>
<trkpt lat="52.99483847" lon="18.76806871">
<ele>103</ele>
<time>2014-05-18T14:24:11Z</time>
</trkpt>
<trkpt lat="52.99483422" lon="18.76806868">
<ele>103</ele>
<time>2014-05-18T14:24:17Z</time>
</trkpt>
<trkpt lat="52.99483571" lon="18.76806461">
<ele>103</ele>
<time>2014-05-18T14:24:23Z</time>
</trkpt>
<trkpt lat="52.99483479" lon="18.76806598">
<ele>103</ele>
<time>2014-05-18T14:24:29Z</time>
</trkpt>
<trkpt lat="52.99483474" lon="18.76806597">
<ele>103</ele>
<time>2014-05-18T14:24:35Z</time>
</trkpt>
<trkpt lat="52.99483424" lon="18.7680308">
<ele>106</ele>
<time>2014-05-18T14:24:41Z</time>
</trkpt>
<trkpt lat="52.99481135" lon="18.76801385">
<ele>102</ele>
<time>2014-05-18T14:24:47Z</time>
</trkpt>
<trkpt lat="52.994808" lon="18.76800605">
<ele>99</ele>
<time>2014-05-18T14:24:53Z</time>
</trkpt>
<trkpt lat="52.99481078" lon="18.76800119">
<ele>101</ele>
<time>2014-05-18T14:24:59Z</time>
</trkpt>
<trkpt lat="52.99481281" lon="18.76800753">
<ele>102</ele>
<time>2014-05-18T14:25:05Z</time>
</trkpt>
<trkpt lat="52.99479011" lon="18.76801586">
<ele>103</ele>
<time>2014-05-18T14:25:11Z</time>
</trkpt>
<trkpt lat="52.99451909" lon="18.76792306">
<ele>97</ele>
<time>2014-05-18T14:25:17Z</time>
</trkpt>
<trkpt lat="52.99430984" lon="18.76804901">
<ele>92</ele>
<time>2014-05-18T14:25:23Z</time>
</trkpt>
<trkpt lat="52.99419633" lon="18.76814337">
<ele>89</ele>
<time>2014-05-18T14:25:29Z</time>
</trkpt>
<trkpt lat="52.99406175" lon="18.76807302">
<ele>87</ele>
<time>2014-05-18T14:25:35Z</time>
</trkpt>
<trkpt lat="52.9939929" lon="18.76813184">
<ele>85</ele>
<time>2014-05-18T14:25:41Z</time>
</trkpt>
<trkpt lat="52.9937458" lon="18.76812232">
<ele>87</ele>
<time>2014-05-18T14:25:47Z</time>
</trkpt>
<trkpt lat="52.99364288" lon="18.76813366">
<ele>86</ele>
<time>2014-05-18T14:25:53Z</time>
</trkpt>
<trkpt lat="52.99344807" lon="18.76818628">
<ele>88</ele>
<time>2014-05-18T14:25:59Z</time>
</trkpt>
<trkpt lat="52.99309188" lon="18.76825848">
<ele>95</ele>
<time>2014-05-18T14:26:05Z</time>
</trkpt>
<trkpt lat="52.99303536" lon="18.7682693">
<ele>96</ele>
<time>2014-05-18T14:26:11Z</time>
</trkpt>
<trkpt lat="52.99287659" lon="18.76826854">
<ele>96</ele>
<time>2014-05-18T14:26:17Z</time>
</trkpt>
<trkpt lat="52.99265468" lon="18.7681904">
<ele>93</ele>
<time>2014-05-18T14:26:23Z</time>
</trkpt>
<trkpt lat="52.99265468" lon="18.7681904">
<ele>93</ele>
<time>2014-05-18T14:26:29Z</time>
</trkpt>
<trkpt lat="52.99262372" lon="18.76815782">
<ele>91</ele>
<time>2014-05-18T14:26:35Z</time>
</trkpt>
<trkpt lat="52.99261061" lon="18.76815677">
<ele>91</ele>
<time>2014-05-18T14:26:41Z</time>
</trkpt>
<trkpt lat="52.99261564" lon="18.76814832">
<ele>90</ele>
<time>2014-05-18T14:26:47Z</time>
</trkpt>
<trkpt lat="52.99259435" lon="18.76815458">
<ele>89</ele>
<time>2014-05-18T14:26:53Z</time>
</trkpt>
<trkpt lat="52.99256862" lon="18.76817994">
<ele>87</ele>
<time>2014-05-18T14:26:59Z</time>
</trkpt>
<trkpt lat="52.99249796" lon="18.76825782">
<ele>86</ele>
<time>2014-05-18T14:27:05Z</time>
</trkpt>
<trkpt lat="52.9921956" lon="18.76856477">
<ele>88</ele>
<time>2014-05-18T14:27:11Z</time>
</trkpt>
<trkpt lat="52.99196696" lon="18.76872714">
<ele>88</ele>
<time>2014-05-18T14:27:17Z</time>
</trkpt>
<trkpt lat="52.99188648" lon="18.76878605">
<ele>88</ele>
<time>2014-05-18T14:27:23Z</time>
</trkpt>
<trkpt lat="52.99148491" lon="18.76886977">
<ele>81</ele>
<time>2014-05-18T14:27:29Z</time>
</trkpt>
<trkpt lat="52.99140238" lon="18.76885728">
<ele>83</ele>
<time>2014-05-18T14:27:35Z</time>
</trkpt>
<trkpt lat="52.99114387" lon="18.76882183">
<ele>80</ele>
<time>2014-05-18T14:27:41Z</time>
</trkpt>
<trkpt lat="52.99078045" lon="18.76878154">
<ele>86</ele>
<time>2014-05-18T14:27:47Z</time>
</trkpt>
<trkpt lat="52.99063235" lon="18.7686959">
<ele>88</ele>
<time>2014-05-18T14:27:53Z</time>
</trkpt>
<trkpt lat="52.99058648" lon="18.76866507">
<ele>88</ele>
<time>2014-05-18T14:27:59Z</time>
</trkpt>
<trkpt lat="52.99033352" lon="18.76857688">
<ele>94</ele>
<time>2014-05-18T14:28:05Z</time>
</trkpt>
<trkpt lat="52.99028356" lon="18.76855777">
<ele>96</ele>
<time>2014-05-18T14:28:11Z</time>
</trkpt>
<trkpt lat="52.9899537" lon="18.76853821">
<ele>97</ele>
<time>2014-05-18T14:28:17Z</time>
</trkpt>
<trkpt lat="52.98986102" lon="18.76856992">
<ele>97</ele>
<time>2014-05-18T14:28:23Z</time>
</trkpt>
<trkpt lat="52.98964004" lon="18.76867538">
<ele>90</ele>
<time>2014-05-18T14:28:29Z</time>
</trkpt>
<trkpt lat="52.98945385" lon="18.76880369">
<ele>90</ele>
<time>2014-05-18T14:28:35Z</time>
</trkpt>
<trkpt lat="52.98925476" lon="18.76892195">
<ele>91</ele>
<time>2014-05-18T14:28:41Z</time>
</trkpt>
<trkpt lat="52.98903589" lon="18.76910059">
<ele>94</ele>
<time>2014-05-18T14:28:47Z</time>
</trkpt>
<trkpt lat="52.98898287" lon="18.76915762">
<ele>96</ele>
<time>2014-05-18T14:28:53Z</time>
</trkpt>
<trkpt lat="52.98863443" lon="18.76944428">
<ele>97</ele>
<time>2014-05-18T14:28:59Z</time>
</trkpt>
<trkpt lat="52.98840027" lon="18.76956591">
<ele>99</ele>
<time>2014-05-18T14:29:05Z</time>
</trkpt>
<trkpt lat="52.98833509" lon="18.76959157">
<ele>99</ele>
<time>2014-05-18T14:29:11Z</time>
</trkpt>
<trkpt lat="52.98814131" lon="18.76969862">
<ele>105</ele>
<time>2014-05-18T14:29:17Z</time>
</trkpt>
<trkpt lat="52.98782979" lon="18.76983371">
<ele>102</ele>
<time>2014-05-18T14:29:23Z</time>
</trkpt>
<trkpt lat="52.98777675" lon="18.76984959">
<ele>98</ele>
<time>2014-05-18T14:29:29Z</time>
</trkpt>
<trkpt lat="52.98745007" lon="18.77007757">
<ele>95</ele>
<time>2014-05-18T14:29:35Z</time>
</trkpt>
<trkpt lat="52.98726623" lon="18.77027469">
<ele>98</ele>
<time>2014-05-18T14:29:41Z</time>
</trkpt>
<trkpt lat="52.98722843" lon="18.77040655">
<ele>91</ele>
<time>2014-05-18T14:29:47Z</time>
</trkpt>
<trkpt lat="52.98722671" lon="18.77052981">
<ele>86</ele>
<time>2014-05-18T14:29:53Z</time>
</trkpt>
<trkpt lat="52.98728043" lon="18.77076615">
<ele>83</ele>
<time>2014-05-18T14:29:59Z</time>
</trkpt>
<trkpt lat="52.98738039" lon="18.77101986">
<ele>85</ele>
<time>2014-05-18T14:30:05Z</time>
</trkpt>
<trkpt lat="52.9874266" lon="18.77113179">
<ele>87</ele>
<time>2014-05-18T14:30:11Z</time>
</trkpt>
<trkpt lat="52.98750825" lon="18.7713949">
<ele>87</ele>
<time>2014-05-18T14:30:17Z</time>
</trkpt>
<trkpt lat="52.98750825" lon="18.7713949">
<ele>87</ele>
<time>2014-05-18T14:30:23Z</time>
</trkpt>
<trkpt lat="52.98753987" lon="18.77169229">
<ele>90</ele>
<time>2014-05-18T14:30:29Z</time>
</trkpt>
<trkpt lat="52.98757742" lon="18.77201847">
<ele>92</ele>
<time>2014-05-18T14:30:35Z</time>
</trkpt>
<trkpt lat="52.98761528" lon="18.77216895">
<ele>92</ele>
<time>2014-05-18T14:30:41Z</time>
</trkpt>
<trkpt lat="52.98768096" lon="18.77247146">
<ele>92</ele>
<time>2014-05-18T14:30:47Z</time>
</trkpt>
<trkpt lat="52.98768096" lon="18.77247146">
<ele>92</ele>
<time>2014-05-18T14:30:53Z</time>
</trkpt>
<trkpt lat="52.98778671" lon="18.77283156">
<ele>92</ele>
<time>2014-05-18T14:30:59Z</time>
</trkpt>
<trkpt lat="52.98780955" lon="18.77289665">
<ele>95</ele>
<time>2014-05-18T14:31:05Z</time>
</trkpt>
<trkpt lat="52.98787607" lon="18.77318236">
<ele>95</ele>
<time>2014-05-18T14:31:11Z</time>
</trkpt>
<trkpt lat="52.98787607" lon="18.77318236">
<ele>95</ele>
<time>2014-05-18T14:31:17Z</time>
</trkpt>
<trkpt lat="52.98798298" lon="18.77355856">
<ele>92</ele>
<time>2014-05-18T14:31:23Z</time>
</trkpt>
<trkpt lat="52.98798298" lon="18.77355856">
<ele>92</ele>
<time>2014-05-18T14:31:29Z</time>
</trkpt>
<trkpt lat="52.98800349" lon="18.77386524">
<ele>91</ele>
<time>2014-05-18T14:31:35Z</time>
</trkpt>
<trkpt lat="52.98806598" lon="18.77406932">
<ele>94</ele>
<time>2014-05-18T14:31:41Z</time>
</trkpt>
<trkpt lat="52.9882245" lon="18.77443777">
<ele>98</ele>
<time>2014-05-18T14:31:47Z</time>
</trkpt>
<trkpt lat="52.98824968" lon="18.77456401">
<ele>96</ele>
<time>2014-05-18T14:31:53Z</time>
</trkpt>
<trkpt lat="52.9882462" lon="18.77488389">
<ele>95</ele>
<time>2014-05-18T14:31:59Z</time>
</trkpt>
<trkpt lat="52.98822386" lon="18.7749823">
<ele>93</ele>
<time>2014-05-18T14:32:05Z</time>
</trkpt>
<trkpt lat="52.98810677" lon="18.77539579">
<ele>91</ele>
<time>2014-05-18T14:32:11Z</time>
</trkpt>
<trkpt lat="52.98806039" lon="18.77556265">
<ele>89</ele>
<time>2014-05-18T14:32:17Z</time>
</trkpt>
<trkpt lat="52.98797413" lon="18.77589379">
<ele>96</ele>
<time>2014-05-18T14:32:23Z</time>
</trkpt>
<trkpt lat="52.98794849" lon="18.77598303">
<ele>98</ele>
<time>2014-05-18T14:32:29Z</time>
</trkpt>
<trkpt lat="52.98789365" lon="18.77625607">
<ele>99</ele>
<time>2014-05-18T14:32:35Z</time>
</trkpt>
<trkpt lat="52.98788173" lon="18.77635587">
<ele>99</ele>
<time>2014-05-18T14:32:41Z</time>
</trkpt>
<trkpt lat="52.98774292" lon="18.77655521">
<ele>104</ele>
<time>2014-05-18T14:32:47Z</time>
</trkpt>
<trkpt lat="52.98768933" lon="18.77671128">
<ele>104</ele>
<time>2014-05-18T14:32:53Z</time>
</trkpt>
<trkpt lat="52.98761757" lon="18.77694908">
<ele>99</ele>
<time>2014-05-18T14:32:59Z</time>
</trkpt>
<trkpt lat="52.98761757" lon="18.77694908">
<ele>99</ele>
<time>2014-05-18T14:33:05Z</time>
</trkpt>
<trkpt lat="52.98752201" lon="18.77732617">
<ele>109</ele>
<time>2014-05-18T14:33:13Z</time>
</trkpt>
<trkpt lat="52.98743124" lon="18.77749598">
<ele>110</ele>
<time>2014-05-18T14:33:19Z</time>
</trkpt>
<trkpt lat="52.98743124" lon="18.77749598">
<ele>110</ele>
<time>2014-05-18T14:33:25Z</time>
</trkpt>
<trkpt lat="52.98732542" lon="18.77781162">
<ele>108</ele>
<time>2014-05-18T14:33:31Z</time>
</trkpt>
<trkpt lat="52.98732542" lon="18.77781162">
<ele>108</ele>
<time>2014-05-18T14:33:37Z</time>
</trkpt>
<trkpt lat="52.98726426" lon="18.77826569">
<ele>104</ele>
<time>2014-05-18T14:33:43Z</time>
</trkpt>
<trkpt lat="52.98723869" lon="18.77850931">
<ele>105</ele>
<time>2014-05-18T14:33:49Z</time>
</trkpt>
<trkpt lat="52.98722522" lon="18.77859547">
<ele>104</ele>
<time>2014-05-18T14:33:55Z</time>
</trkpt>
<trkpt lat="52.98715581" lon="18.77888743">
<ele>103</ele>
<time>2014-05-18T14:34:03Z</time>
</trkpt>
<trkpt lat="52.98713147" lon="18.7789639">
<ele>104</ele>
<time>2014-05-18T14:34:09Z</time>
</trkpt>
<trkpt lat="52.98713147" lon="18.7789639">
<ele>104</ele>
<time>2014-05-18T14:34:15Z</time>
</trkpt>
<trkpt lat="52.98713291" lon="18.77896691">
<ele>104</ele>
<time>2014-05-18T14:34:21Z</time>
</trkpt>
<trkpt lat="52.9871474" lon="18.77896891">
<ele>99</ele>
<time>2014-05-18T14:34:27Z</time>
</trkpt>
<trkpt lat="52.98713901" lon="18.77896771">
<ele>99</ele>
<time>2014-05-18T14:34:33Z</time>
</trkpt>
<trkpt lat="52.98713884" lon="18.77896788">
<ele>99</ele>
<time>2014-05-18T14:34:39Z</time>
</trkpt>
<trkpt lat="52.98709787" lon="18.77915128">
<ele>99</ele>
<time>2014-05-18T14:34:45Z</time>
</trkpt>
<trkpt lat="52.98705831" lon="18.77945101">
<ele>102</ele>
<time>2014-05-18T14:34:51Z</time>
</trkpt>
<trkpt lat="52.98699213" lon="18.77962464">
<ele>100</ele>
<time>2014-05-18T14:34:57Z</time>
</trkpt>
<trkpt lat="52.98696949" lon="18.77970086">
<ele>98</ele>
<time>2014-05-18T14:35:03Z</time>
</trkpt>
<trkpt lat="52.9868962" lon="18.77992613">
<ele>95</ele>
<time>2014-05-18T14:35:09Z</time>
</trkpt>
<trkpt lat="52.98683146" lon="18.78029576">
<ele>99</ele>
<time>2014-05-18T14:35:15Z</time>
</trkpt>
<trkpt lat="52.98681142" lon="18.78038571">
<ele>101</ele>
<time>2014-05-18T14:35:21Z</time>
</trkpt>
<trkpt lat="52.9867793" lon="18.78053068">
<ele>103</ele>
<time>2014-05-18T14:35:27Z</time>
</trkpt>
<trkpt lat="52.98678342" lon="18.78079819">
<ele>103</ele>
<time>2014-05-18T14:35:33Z</time>
</trkpt>
<trkpt lat="52.9868019" lon="18.78089761">
<ele>105</ele>
<time>2014-05-18T14:35:39Z</time>
</trkpt>
<trkpt lat="52.98682716" lon="18.78101189">
<ele>107</ele>
<time>2014-05-18T14:35:45Z</time>
</trkpt>
<trkpt lat="52.98694976" lon="18.7813367">
<ele>103</ele>
<time>2014-05-18T14:35:51Z</time>
</trkpt>
<trkpt lat="52.98704757" lon="18.78146375">
<ele>106</ele>
<time>2014-05-18T14:35:57Z</time>
</trkpt>
<trkpt lat="52.98717971" lon="18.78167424">
<ele>110</ele>
<time>2014-05-18T14:36:03Z</time>
</trkpt>
<trkpt lat="52.98717971" lon="18.78167424">
<ele>110</ele>
<time>2014-05-18T14:36:11Z</time>
</trkpt>
<trkpt lat="52.9872979" lon="18.78174726">
<ele>104</ele>
<time>2014-05-18T14:36:17Z</time>
</trkpt>
<trkpt lat="52.9872979" lon="18.78174726">
<ele>104</ele>
<time>2014-05-18T14:36:23Z</time>
</trkpt>
<trkpt lat="52.98731731" lon="18.78172779">
<ele>106</ele>
<time>2014-05-18T14:36:29Z</time>
</trkpt>
<trkpt lat="52.98731382" lon="18.78173109">
<ele>107</ele>
<time>2014-05-18T14:36:35Z</time>
</trkpt>
<trkpt lat="52.98733258" lon="18.78182876">
<ele>108</ele>
<time>2014-05-18T14:36:41Z</time>
</trkpt>
<trkpt lat="52.98736132" lon="18.78189251">
<ele>103</ele>
<time>2014-05-18T14:36:47Z</time>
</trkpt>
<trkpt lat="52.98736132" lon="18.78189251">
<ele>103</ele>
<time>2014-05-18T14:36:53Z</time>
</trkpt>
<trkpt lat="52.98737048" lon="18.78189025">
<ele>103</ele>
<time>2014-05-18T14:36:59Z</time>
</trkpt>
<trkpt lat="52.98736703" lon="18.78189229">
<ele>102</ele>
<time>2014-05-18T14:37:05Z</time>
</trkpt>
<trkpt lat="52.98736465" lon="18.78189693">
<ele>103</ele>
<time>2014-05-18T14:37:13Z</time>
</trkpt>
<trkpt lat="52.98736248" lon="18.78190036">
<ele>103</ele>
<time>2014-05-18T14:37:19Z</time>
</trkpt>
<trkpt lat="52.98736201" lon="18.78190104">
<ele>103</ele>
<time>2014-05-18T14:37:25Z</time>
</trkpt>
<trkpt lat="52.98736198" lon="18.78190077">
<ele>103</ele>
<time>2014-05-18T14:37:31Z</time>
</trkpt>
<trkpt lat="52.98754597" lon="18.78217145">
<ele>98</ele>
<time>2014-05-18T14:37:37Z</time>
</trkpt>
<trkpt lat="52.9876953" lon="18.78233146">
<ele>104</ele>
<time>2014-05-18T14:37:43Z</time>
</trkpt>
<trkpt lat="52.98779553" lon="18.78245004">
<ele>103</ele>
<time>2014-05-18T14:37:49Z</time>
</trkpt>
<trkpt lat="52.98781181" lon="18.78259913">
<ele>96</ele>
<time>2014-05-18T14:37:55Z</time>
</trkpt>
<trkpt lat="52.98781181" lon="18.78259913">
<ele>96</ele>
<time>2014-05-18T14:38:01Z</time>
</trkpt>
<trkpt lat="52.98756355" lon="18.78291285">
<ele>103</ele>
<time>2014-05-18T14:38:07Z</time>
</trkpt>
<trkpt lat="52.98752914" lon="18.78296922">
<ele>103</ele>
<time>2014-05-18T14:38:13Z</time>
</trkpt>
<trkpt lat="52.98730997" lon="18.78336118">
<ele>101</ele>
<time>2014-05-18T14:38:19Z</time>
</trkpt>
<trkpt lat="52.98721352" lon="18.78354095">
<ele>101</ele>
<time>2014-05-18T14:38:25Z</time>
</trkpt>
<trkpt lat="52.98718232" lon="18.78384224">
<ele>99</ele>
<time>2014-05-18T14:38:31Z</time>
</trkpt>
<trkpt lat="52.98717198" lon="18.7840697">
<ele>99</ele>
<time>2014-05-18T14:38:37Z</time>
</trkpt>
<trkpt lat="52.98717198" lon="18.7840697">
<ele>99</ele>
<time>2014-05-18T14:38:43Z</time>
</trkpt>
<trkpt lat="52.98720997" lon="18.78429565">
<ele>100</ele>
<time>2014-05-18T14:38:49Z</time>
</trkpt>
<trkpt lat="52.98726722" lon="18.78469731">
<ele>98</ele>
<time>2014-05-18T14:38:55Z</time>
</trkpt>
<trkpt lat="52.98725703" lon="18.78494485">
<ele>100</ele>
<time>2014-05-18T14:39:01Z</time>
</trkpt>
<trkpt lat="52.98720538" lon="18.78529197">
<ele>99</ele>
<time>2014-05-18T14:39:07Z</time>
</trkpt>
<trkpt lat="52.98716484" lon="18.78544805">
<ele>99</ele>
<time>2014-05-18T14:39:13Z</time>
</trkpt>
<trkpt lat="52.9871282" lon="18.78561376">
<ele>100</ele>
<time>2014-05-18T14:39:19Z</time>
</trkpt>
<trkpt lat="52.98708379" lon="18.78597523">
<ele>100</ele>
<time>2014-05-18T14:39:25Z</time>
</trkpt>
<trkpt lat="52.98702491" lon="18.78657128">
<ele>101</ele>
<time>2014-05-18T14:39:33Z</time>
</trkpt>
<trkpt lat="52.9869897" lon="18.78666831">
<ele>100</ele>
<time>2014-05-18T14:39:39Z</time>
</trkpt>
<trkpt lat="52.98690491" lon="18.78687235">
<ele>100</ele>
<time>2014-05-18T14:39:45Z</time>
</trkpt>
<trkpt lat="52.98690491" lon="18.78687235">
<ele>100</ele>
<time>2014-05-18T14:39:51Z</time>
</trkpt>
<trkpt lat="52.98683539" lon="18.78689613">
<ele>107</ele>
<time>2014-05-18T14:39:57Z</time>
</trkpt>
<trkpt lat="52.98683539" lon="18.78689613">
<ele>107</ele>
<time>2014-05-18T14:40:09Z</time>
</trkpt>
<trkpt lat="52.98687955" lon="18.78688843">
<ele>110</ele>
<time>2014-05-18T14:40:15Z</time>
</trkpt>
<trkpt lat="52.98688661" lon="18.78688568">
<ele>109</ele>
<time>2014-05-18T14:40:21Z</time>
</trkpt>
<trkpt lat="52.98689082" lon="18.78687758">
<ele>109</ele>
<time>2014-05-18T14:40:27Z</time>
</trkpt>
<trkpt lat="52.9868892" lon="18.78687818">
<ele>109</ele>
<time>2014-05-18T14:40:33Z</time>
</trkpt>
<trkpt lat="52.98688882" lon="18.7868787">
<ele>109</ele>
<time>2014-05-18T14:40:39Z</time>
</trkpt>
<trkpt lat="52.98688861" lon="18.78687937">
<ele>109</ele>
<time>2014-05-18T14:40:47Z</time>
</trkpt>
<trkpt lat="52.98688847" lon="18.7868797">
<ele>109</ele>
<time>2014-05-18T14:40:53Z</time>
</trkpt>
<trkpt lat="52.98688833" lon="18.78687994">
<ele>109</ele>
<time>2014-05-18T14:40:59Z</time>
</trkpt>
<trkpt lat="52.98688833" lon="18.78688043">
<ele>109</ele>
<time>2014-05-18T14:41:07Z</time>
</trkpt>
<trkpt lat="52.98688828" lon="18.78688042">
<ele>109</ele>
<time>2014-05-18T14:41:13Z</time>
</trkpt>
<trkpt lat="52.98688804" lon="18.78688067">
<ele>109</ele>
<time>2014-05-18T14:41:19Z</time>
</trkpt>
<trkpt lat="52.98688464" lon="18.786884">
<ele>109</ele>
<time>2014-05-18T14:41:25Z</time>
</trkpt>
<trkpt lat="52.98688398" lon="18.78688497">
<ele>109</ele>
<time>2014-05-18T14:41:31Z</time>
</trkpt>
<trkpt lat="52.98688587" lon="18.78696829">
<ele>111</ele>
<time>2014-05-18T14:41:37Z</time>
</trkpt>
<trkpt lat="52.98688587" lon="18.78696829">
<ele>111</ele>
<time>2014-05-18T14:41:43Z</time>
</trkpt>
<trkpt lat="52.98688405" lon="18.78700787">
<ele>109</ele>
<time>2014-05-18T14:41:49Z</time>
</trkpt>
<trkpt lat="52.98689531" lon="18.78704701">
<ele>108</ele>
<time>2014-05-18T14:41:57Z</time>
</trkpt>
<trkpt lat="52.98690508" lon="18.78703262">
<ele>105</ele>
<time>2014-05-18T14:42:03Z</time>
</trkpt>
<trkpt lat="52.98690637" lon="18.78703029">
<ele>105</ele>
<time>2014-05-18T14:42:09Z</time>
</trkpt>
<trkpt lat="52.98690685" lon="18.78702971">
<ele>105</ele>
<time>2014-05-18T14:42:15Z</time>
</trkpt>
<trkpt lat="52.98690688" lon="18.78702834">
<ele>105</ele>
<time>2014-05-18T14:42:21Z</time>
</trkpt>
<trkpt lat="52.98690684" lon="18.78702827">
<ele>105</ele>
<time>2014-05-18T14:42:27Z</time>
</trkpt>
<trkpt lat="52.98690684" lon="18.7870279">
<ele>105</ele>
<time>2014-05-18T14:42:33Z</time>
</trkpt>
<trkpt lat="52.98690656" lon="18.78702762">
<ele>105</ele>
<time>2014-05-18T14:42:39Z</time>
</trkpt>
<trkpt lat="52.98690647" lon="18.78702754">
<ele>105</ele>
<time>2014-05-18T14:42:45Z</time>
</trkpt>
<trkpt lat="52.98690612" lon="18.7870272">
<ele>106</ele>
<time>2014-05-18T14:42:51Z</time>
</trkpt>
<trkpt lat="52.98690582" lon="18.78702696">
<ele>106</ele>
<time>2014-05-18T14:42:57Z</time>
</trkpt>
<trkpt lat="52.98690579" lon="18.78702694">
<ele>106</ele>
<time>2014-05-18T14:43:03Z</time>
</trkpt>
<trkpt lat="52.98692741" lon="18.78703875">
<ele>102</ele>
<time>2014-05-18T14:43:09Z</time>
</trkpt>
<trkpt lat="52.98693012" lon="18.78700726">
<ele>97</ele>
<time>2014-05-18T14:43:15Z</time>
</trkpt>
<trkpt lat="52.98692863" lon="18.78699582">
<ele>96</ele>
<time>2014-05-18T14:43:21Z</time>
</trkpt>
<trkpt lat="52.98682711" lon="18.78724556">
<ele>96</ele>
<time>2014-05-18T14:43:27Z</time>
</trkpt>
<trkpt lat="52.98682711" lon="18.78724556">
<ele>96</ele>
<time>2014-05-18T14:43:33Z</time>
</trkpt>
<trkpt lat="52.98683814" lon="18.7875286">
<ele>100</ele>
<time>2014-05-18T14:43:39Z</time>
</trkpt>
<trkpt lat="52.98685412" lon="18.78761477">
<ele>100</ele>
<time>2014-05-18T14:43:45Z</time>
</trkpt>
<trkpt lat="52.98685412" lon="18.78761477">
<ele>100</ele>
<time>2014-05-18T14:43:51Z</time>
</trkpt>
<trkpt lat="52.98685442" lon="18.78758303">
<ele>102</ele>
<time>2014-05-18T14:43:57Z</time>
</trkpt>
<trkpt lat="52.98684164" lon="18.78757621">
<ele>101</ele>
<time>2014-05-18T14:44:03Z</time>
</trkpt>
<trkpt lat="52.98683837" lon="18.7875782">
<ele>101</ele>
<time>2014-05-18T14:44:09Z</time>
</trkpt>
<trkpt lat="52.9868281" lon="18.78777903">
<ele>106</ele>
<time>2014-05-18T14:44:15Z</time>
</trkpt>
<trkpt lat="52.98688119" lon="18.78800374">
<ele>98</ele>
<time>2014-05-18T14:44:23Z</time>
</trkpt>
<trkpt lat="52.98694498" lon="18.78823526">
<ele>98</ele>
<time>2014-05-18T14:44:29Z</time>
</trkpt>
<trkpt lat="52.98697783" lon="18.78838239">
<ele>99</ele>
<time>2014-05-18T14:44:35Z</time>
</trkpt>
<trkpt lat="52.98701372" lon="18.78856593">
<ele>97</ele>
<time>2014-05-18T14:44:41Z</time>
</trkpt>
<trkpt lat="52.98702383" lon="18.7887365">
<ele>98</ele>
<time>2014-05-18T14:44:47Z</time>
</trkpt>
<trkpt lat="52.98702383" lon="18.7887365">
<ele>98</ele>
<time>2014-05-18T14:44:53Z</time>
</trkpt>
<trkpt lat="52.98701434" lon="18.788938">
<ele>104</ele>
<time>2014-05-18T14:44:59Z</time>
</trkpt>
<trkpt lat="52.9870336" lon="18.78921543">
<ele>102</ele>
<time>2014-05-18T14:45:05Z</time>
</trkpt>
<trkpt lat="52.98701905" lon="18.78933621">
<ele>102</ele>
<time>2014-05-18T14:45:11Z</time>
</trkpt>
<trkpt lat="52.98701905" lon="18.78933621">
<ele>102</ele>
<time>2014-05-18T14:45:17Z</time>
</trkpt>
<trkpt lat="52.98704781" lon="18.78947148">
<ele>102</ele>
<time>2014-05-18T14:45:23Z</time>
</trkpt>
<trkpt lat="52.98704781" lon="18.78947148">
<ele>102</ele>
<time>2014-05-18T14:45:29Z</time>
</trkpt>
<trkpt lat="52.98705344" lon="18.78953573">
<ele>103</ele>
<time>2014-05-18T14:45:35Z</time>
</trkpt>
<trkpt lat="52.98700365" lon="18.78968802">
<ele>101</ele>
<time>2014-05-18T14:45:41Z</time>
</trkpt>
<trkpt lat="52.98702852" lon="18.78981605">
<ele>102</ele>
<time>2014-05-18T14:45:47Z</time>
</trkpt>
<trkpt lat="52.98702852" lon="18.78981605">
<ele>102</ele>
<time>2014-05-18T14:45:53Z</time>
</trkpt>
<trkpt lat="52.98710165" lon="18.79015651">
<ele>103</ele>
<time>2014-05-18T14:46:01Z</time>
</trkpt>
<trkpt lat="52.98710165" lon="18.79015651">
<ele>103</ele>
<time>2014-05-18T14:46:07Z</time>
</trkpt>
<trkpt lat="52.9871531" lon="18.79035917">
<ele>102</ele>
<time>2014-05-18T14:46:15Z</time>
</trkpt>
<trkpt lat="52.98716156" lon="18.79050056">
<ele>100</ele>
<time>2014-05-18T14:46:21Z</time>
</trkpt>
<trkpt lat="52.98719361" lon="18.79072321">
<ele>99</ele>
<time>2014-05-18T14:46:27Z</time>
</trkpt>
<trkpt lat="52.98719623" lon="18.7908004">
<ele>97</ele>
<time>2014-05-18T14:46:33Z</time>
</trkpt>
<trkpt lat="52.98719623" lon="18.7908004">
<ele>97</ele>
<time>2014-05-18T14:46:39Z</time>
</trkpt>
<trkpt lat="52.98721266" lon="18.79095737">
<ele>94</ele>
<time>2014-05-18T14:46:45Z</time>
</trkpt>
<trkpt lat="52.9872236" lon="18.7911174">
<ele>98</ele>
<time>2014-05-18T14:46:51Z</time>
</trkpt>
<trkpt lat="52.98727403" lon="18.79126624">
<ele>102</ele>
<time>2014-05-18T14:46:59Z</time>
</trkpt>
<trkpt lat="52.98727403" lon="18.79126624">
<ele>102</ele>
<time>2014-05-18T14:47:05Z</time>
</trkpt>
<trkpt lat="52.98726584" lon="18.79174507">
<ele>103</ele>
<time>2014-05-18T14:47:13Z</time>
</trkpt>
<trkpt lat="52.98724464" lon="18.79193531">
<ele>106</ele>
<time>2014-05-18T14:47:19Z</time>
</trkpt>
<trkpt lat="52.98724464" lon="18.79193531">
<ele>106</ele>
<time>2014-05-18T14:47:25Z</time>
</trkpt>
<trkpt lat="52.98728283" lon="18.7923712">
<ele>108</ele>
<time>2014-05-18T14:47:31Z</time>
</trkpt>
<trkpt lat="52.98727875" lon="18.79244725">
<ele>109</ele>
<time>2014-05-18T14:47:37Z</time>
</trkpt>
<trkpt lat="52.98728597" lon="18.79271696">
<ele>109</ele>
<time>2014-05-18T14:47:43Z</time>
</trkpt>
<trkpt lat="52.98734233" lon="18.79311356">
<ele>112</ele>
<time>2014-05-18T14:47:49Z</time>
</trkpt>
<trkpt lat="52.98735254" lon="18.7932076">
<ele>111</ele>
<time>2014-05-18T14:47:55Z</time>
</trkpt>
<trkpt lat="52.98739822" lon="18.79348177">
<ele>112</ele>
<time>2014-05-18T14:48:01Z</time>
</trkpt>
<trkpt lat="52.98739862" lon="18.79403515">
<ele>118</ele>
<time>2014-05-18T14:48:07Z</time>
</trkpt>
<trkpt lat="52.98736255" lon="18.79424254">
<ele>119</ele>
<time>2014-05-18T14:48:13Z</time>
</trkpt>
<trkpt lat="52.98736255" lon="18.79424254">
<ele>119</ele>
<time>2014-05-18T14:48:19Z</time>
</trkpt>
<trkpt lat="52.98735162" lon="18.79456147">
<ele>116</ele>
<time>2014-05-18T14:48:25Z</time>
</trkpt>
<trkpt lat="52.98735254" lon="18.79478727">
<ele>116</ele>
<time>2014-05-18T14:48:31Z</time>
</trkpt>
<trkpt lat="52.98734564" lon="18.79496609">
<ele>116</ele>
<time>2014-05-18T14:48:39Z</time>
</trkpt>
<trkpt lat="52.9874085" lon="18.79543971">
<ele>112</ele>
<time>2014-05-18T14:48:45Z</time>
</trkpt>
<trkpt lat="52.98745849" lon="18.79572644">
<ele>111</ele>
<time>2014-05-18T14:48:53Z</time>
</trkpt>
<trkpt lat="52.9875727" lon="18.79611032">
<ele>114</ele>
<time>2014-05-18T14:48:59Z</time>
</trkpt>
<trkpt lat="52.98761243" lon="18.79629308">
<ele>109</ele>
<time>2014-05-18T14:49:05Z</time>
</trkpt>
<trkpt lat="52.98768721" lon="18.79664258">
<ele>108</ele>
<time>2014-05-18T14:49:13Z</time>
</trkpt>
<trkpt lat="52.9877183" lon="18.7967953">
<ele>110</ele>
<time>2014-05-18T14:49:19Z</time>
</trkpt>
<trkpt lat="52.987738" lon="18.79693764">
<ele>105</ele>
<time>2014-05-18T14:49:25Z</time>
</trkpt>
<trkpt lat="52.98777341" lon="18.79723413">
<ele>115</ele>
<time>2014-05-18T14:49:31Z</time>
</trkpt>
<trkpt lat="52.98777341" lon="18.79723413">
<ele>115</ele>
<time>2014-05-18T14:49:39Z</time>
</trkpt>
<trkpt lat="52.98776244" lon="18.79725553">
<ele>116</ele>
<time>2014-05-18T14:49:45Z</time>
</trkpt>
<trkpt lat="52.98776244" lon="18.79725553">
<ele>116</ele>
<time>2014-05-18T14:49:51Z</time>
</trkpt>
<trkpt lat="52.98776519" lon="18.79724645">
<ele>116</ele>
<time>2014-05-18T14:49:57Z</time>
</trkpt>
<trkpt lat="52.98776629" lon="18.79724837">
<ele>116</ele>
<time>2014-05-18T14:50:03Z</time>
</trkpt>
<trkpt lat="52.98776651" lon="18.79724909">
<ele>116</ele>
<time>2014-05-18T14:50:09Z</time>
</trkpt>
<trkpt lat="52.98776654" lon="18.79724918">
<ele>116</ele>
<time>2014-05-18T14:50:15Z</time>
</trkpt>
<trkpt lat="52.9877665" lon="18.79724954">
<ele>116</ele>
<time>2014-05-18T14:50:21Z</time>
</trkpt>
<trkpt lat="52.98776628" lon="18.7972495">
<ele>116</ele>
<time>2014-05-18T14:50:27Z</time>
</trkpt>
<trkpt lat="52.98776625" lon="18.79724938">
<ele>116</ele>
<time>2014-05-18T14:50:35Z</time>
</trkpt>
<trkpt lat="52.98776603" lon="18.79724914">
<ele>116</ele>
<time>2014-05-18T14:50:41Z</time>
</trkpt>
<trkpt lat="52.98776609" lon="18.7972483">
<ele>116</ele>
<time>2014-05-18T14:50:47Z</time>
</trkpt>
<trkpt lat="52.98776613" lon="18.79724832">
<ele>116</ele>
<time>2014-05-18T14:50:53Z</time>
</trkpt>
<trkpt lat="52.98776658" lon="18.79724914">
<ele>116</ele>
<time>2014-05-18T14:50:59Z</time>
</trkpt>
<trkpt lat="52.98776673" lon="18.7972495">
<ele>116</ele>
<time>2014-05-18T14:51:07Z</time>
</trkpt>
<trkpt lat="52.98776653" lon="18.79725045">
<ele>116</ele>
<time>2014-05-18T14:51:13Z</time>
</trkpt>
<trkpt lat="52.98776651" lon="18.79725068">
<ele>116</ele>
<time>2014-05-18T14:51:19Z</time>
</trkpt>
<trkpt lat="52.98776704" lon="18.79725127">
<ele>116</ele>
<time>2014-05-18T14:51:27Z</time>
</trkpt>
<trkpt lat="52.98777019" lon="18.79724864">
<ele>116</ele>
<time>2014-05-18T14:51:33Z</time>
</trkpt>
<trkpt lat="52.9877742" lon="18.79726198">
<ele>114</ele>
<time>2014-05-18T14:51:39Z</time>
</trkpt>
<trkpt lat="52.98779755" lon="18.79731222">
<ele>115</ele>
<time>2014-05-18T14:51:45Z</time>
</trkpt>
<trkpt lat="52.98790717" lon="18.79759576">
<ele>116</ele>
<time>2014-05-18T14:51:51Z</time>
</trkpt>
<trkpt lat="52.98790717" lon="18.79759576">
<ele>116</ele>
<time>2014-05-18T14:51:57Z</time>
</trkpt>
<trkpt lat="52.98794757" lon="18.79786794">
<ele>109</ele>
<time>2014-05-18T14:52:03Z</time>
</trkpt>
<trkpt lat="52.98807114" lon="18.79822008">
<ele>117</ele>
<time>2014-05-18T14:52:11Z</time>
</trkpt>
<trkpt lat="52.98807114" lon="18.79822008">
<ele>117</ele>
<time>2014-05-18T14:52:17Z</time>
</trkpt>
<trkpt lat="52.98807891" lon="18.79838594">
<ele>123</ele>
<time>2014-05-18T14:52:23Z</time>
</trkpt>
<trkpt lat="52.98808451" lon="18.79868152">
<ele>126</ele>
<time>2014-05-18T14:52:29Z</time>
</trkpt>
<trkpt lat="52.98813868" lon="18.79886915">
<ele>125</ele>
<time>2014-05-18T14:52:35Z</time>
</trkpt>
<trkpt lat="52.98826795" lon="18.79923654">
<ele>123</ele>
<time>2014-05-18T14:52:41Z</time>
</trkpt>
<trkpt lat="52.98834652" lon="18.79941501">
<ele>124</ele>
<time>2014-05-18T14:52:47Z</time>
</trkpt>
<trkpt lat="52.98834652" lon="18.79941501">
<ele>124</ele>
<time>2014-05-18T14:52:53Z</time>
</trkpt>
<trkpt lat="52.98842787" lon="18.79968374">
<ele>120</ele>
<time>2014-05-18T14:52:59Z</time>
</trkpt>
<trkpt lat="52.98856122" lon="18.80014967">
<ele>117</ele>
<time>2014-05-18T14:53:05Z</time>
</trkpt>
<trkpt lat="52.98858879" lon="18.80031864">
<ele>118</ele>
<time>2014-05-18T14:53:11Z</time>
</trkpt>
<trkpt lat="52.98858879" lon="18.80031864">
<ele>118</ele>
<time>2014-05-18T14:53:17Z</time>
</trkpt>
<trkpt lat="52.98861331" lon="18.80089261">
<ele>120</ele>
<time>2014-05-18T14:53:25Z</time>
</trkpt>
<trkpt lat="52.98863033" lon="18.80107109">
<ele>123</ele>
<time>2014-05-18T14:53:31Z</time>
</trkpt>
<trkpt lat="52.98863033" lon="18.80107109">
<ele>123</ele>
<time>2014-05-18T14:53:37Z</time>
</trkpt>
<trkpt lat="52.98865895" lon="18.80125555">
<ele>125</ele>
<time>2014-05-18T14:53:43Z</time>
</trkpt>
<trkpt lat="52.98874408" lon="18.80147331">
<ele>122</ele>
<time>2014-05-18T14:53:49Z</time>
</trkpt>
<trkpt lat="52.98884589" lon="18.80163567">
<ele>128</ele>
<time>2014-05-18T14:53:55Z</time>
</trkpt>
<trkpt lat="52.98884589" lon="18.80163567">
<ele>128</ele>
<time>2014-05-18T14:54:03Z</time>
</trkpt>
<trkpt lat="52.98890734" lon="18.80191237">
<ele>123</ele>
<time>2014-05-18T14:54:09Z</time>
</trkpt>
<trkpt lat="52.98894273" lon="18.8023078">
<ele>123</ele>
<time>2014-05-18T14:54:15Z</time>
</trkpt>
<trkpt lat="52.98898524" lon="18.80241113">
<ele>122</ele>
<time>2014-05-18T14:54:23Z</time>
</trkpt>
<trkpt lat="52.98911892" lon="18.80265645">
<ele>117</ele>
<time>2014-05-18T14:54:29Z</time>
</trkpt>
<trkpt lat="52.98915656" lon="18.80292551">
<ele>119</ele>
<time>2014-05-18T14:54:37Z</time>
</trkpt>
<trkpt lat="52.989188" lon="18.80320852">
<ele>118</ele>
<time>2014-05-18T14:54:43Z</time>
</trkpt>
<trkpt lat="52.98924851" lon="18.80347994">
<ele>116</ele>
<time>2014-05-18T14:54:49Z</time>
</trkpt>
<trkpt lat="52.98926167" lon="18.80363811">
<ele>119</ele>
<time>2014-05-18T14:54:57Z</time>
</trkpt>
<trkpt lat="52.9893637" lon="18.803928">
<ele>121</ele>
<time>2014-05-18T14:55:03Z</time>
</trkpt>
<trkpt lat="52.98939404" lon="18.80403595">
<ele>120</ele>
<time>2014-05-18T14:55:09Z</time>
</trkpt>
<trkpt lat="52.98943438" lon="18.8041612">
<ele>121</ele>
<time>2014-05-18T14:55:15Z</time>
</trkpt>
<trkpt lat="52.9895085" lon="18.80460479">
<ele>119</ele>
<time>2014-05-18T14:55:23Z</time>
</trkpt>
<trkpt lat="52.9895448" lon="18.80475216">
<ele>117</ele>
<time>2014-05-18T14:55:29Z</time>
</trkpt>
<trkpt lat="52.98957326" lon="18.80491653">
<ele>115</ele>
<time>2014-05-18T14:55:35Z</time>
</trkpt>
<trkpt lat="52.98966353" lon="18.80535688">
<ele>117</ele>
<time>2014-05-18T14:55:41Z</time>
</trkpt>
<trkpt lat="52.98968574" lon="18.80543721">
<ele>117</ele>
<time>2014-05-18T14:55:47Z</time>
</trkpt>
<trkpt lat="52.98974799" lon="18.80565176">
<ele>113</ele>
<time>2014-05-18T14:55:53Z</time>
</trkpt>
<trkpt lat="52.98977897" lon="18.80587484">
<ele>112</ele>
<time>2014-05-18T14:55:59Z</time>
</trkpt>
<trkpt lat="52.98993462" lon="18.80639912">
<ele>109</ele>
<time>2014-05-18T14:56:05Z</time>
</trkpt>
<trkpt lat="52.98996383" lon="18.80646701">
<ele>108</ele>
<time>2014-05-18T14:56:11Z</time>
</trkpt>
<trkpt lat="52.99004733" lon="18.8069084">
<ele>115</ele>
<time>2014-05-18T14:56:17Z</time>
</trkpt>
<trkpt lat="52.99007904" lon="18.80708302">
<ele>112</ele>
<time>2014-05-18T14:56:25Z</time>
</trkpt>
<trkpt lat="52.99020204" lon="18.80756076">
<ele>110</ele>
<time>2014-05-18T14:56:33Z</time>
</trkpt>
<trkpt lat="52.99021234" lon="18.80763622">
<ele>108</ele>
<time>2014-05-18T14:56:39Z</time>
</trkpt>
<trkpt lat="52.99026748" lon="18.80810609">
<ele>114</ele>
<time>2014-05-18T14:56:45Z</time>
</trkpt>
<trkpt lat="52.99031517" lon="18.80836032">
<ele>112</ele>
<time>2014-05-18T14:56:51Z</time>
</trkpt>
<trkpt lat="52.9903486" lon="18.808445">
<ele>111</ele>
<time>2014-05-18T14:56:57Z</time>
</trkpt>
<trkpt lat="52.9904571" lon="18.80866148">
<ele>106</ele>
<time>2014-05-18T14:57:03Z</time>
</trkpt>
<trkpt lat="52.9905245" lon="18.80903881">
<ele>102</ele>
<time>2014-05-18T14:57:09Z</time>
</trkpt>
<trkpt lat="52.9905245" lon="18.80903881">
<ele>102</ele>
<time>2014-05-18T14:57:15Z</time>
</trkpt>
<trkpt lat="52.99067178" lon="18.80928252">
<ele>109</ele>
<time>2014-05-18T14:57:23Z</time>
</trkpt>
<trkpt lat="52.9906441" lon="18.80945905">
<ele>108</ele>
<time>2014-05-18T14:57:29Z</time>
</trkpt>
<trkpt lat="52.9906441" lon="18.80945905">
<ele>108</ele>
<time>2014-05-18T14:57:35Z</time>
</trkpt>
<trkpt lat="52.9906343" lon="18.80946661">
<ele>109</ele>
<time>2014-05-18T14:57:41Z</time>
</trkpt>
<trkpt lat="52.990629" lon="18.80947795">
<ele>108</ele>
<time>2014-05-18T14:57:47Z</time>
</trkpt>
<trkpt lat="52.99062056" lon="18.80949925">
<ele>106</ele>
<time>2014-05-18T14:57:53Z</time>
</trkpt>
<trkpt lat="52.99062017" lon="18.80950064">
<ele>106</ele>
<time>2014-05-18T14:57:59Z</time>
</trkpt>
<trkpt lat="52.99061703" lon="18.80948496">
<ele>106</ele>
<time>2014-05-18T14:58:05Z</time>
</trkpt>
<trkpt lat="52.99060492" lon="18.80953374">
<ele>107</ele>
<time>2014-05-18T14:58:11Z</time>
</trkpt>
<trkpt lat="52.99061665" lon="18.80950571">
<ele>110</ele>
<time>2014-05-18T14:58:19Z</time>
</trkpt>
<trkpt lat="52.99060943" lon="18.80948373">
<ele>112</ele>
<time>2014-05-18T14:58:25Z</time>
</trkpt>
<trkpt lat="52.99057632" lon="18.80946896">
<ele>116</ele>
<time>2014-05-18T14:58:31Z</time>
</trkpt>
<trkpt lat="52.99058937" lon="18.80946559">
<ele>118</ele>
<time>2014-05-18T14:58:37Z</time>
</trkpt>
<trkpt lat="52.99060951" lon="18.80943914">
<ele>119</ele>
<time>2014-05-18T14:58:43Z</time>
</trkpt>
<trkpt lat="52.99061309" lon="18.80944921">
<ele>115</ele>
<time>2014-05-18T14:58:49Z</time>
</trkpt>
<trkpt lat="52.99060887" lon="18.80946056">
<ele>115</ele>
<time>2014-05-18T14:58:55Z</time>
</trkpt>
<trkpt lat="52.99061488" lon="18.8094368">
<ele>109</ele>
<time>2014-05-18T14:59:03Z</time>
</trkpt>
<trkpt lat="52.99062184" lon="18.80954765">
<ele>107</ele>
<time>2014-05-18T14:59:09Z</time>
</trkpt>
<trkpt lat="52.99062184" lon="18.80954765">
<ele>107</ele>
<time>2014-05-18T14:59:15Z</time>
</trkpt>
<trkpt lat="52.99062131" lon="18.80954984">
<ele>107</ele>
<time>2014-05-18T14:59:21Z</time>
</trkpt>
<trkpt lat="52.9906215" lon="18.80955069">
<ele>107</ele>
<time>2014-05-18T14:59:27Z</time>
</trkpt>
<trkpt lat="52.99062292" lon="18.80954922">
<ele>107</ele>
<time>2014-05-18T14:59:35Z</time>
</trkpt>
<trkpt lat="52.99062366" lon="18.80954842">
<ele>107</ele>
<time>2014-05-18T14:59:41Z</time>
</trkpt>
<trkpt lat="52.99058297" lon="18.80964069">
<ele>103</ele>
<time>2014-05-18T14:59:47Z</time>
</trkpt>
<trkpt lat="52.99058297" lon="18.80964069">
<ele>103</ele>
<time>2014-05-18T14:59:53Z</time>
</trkpt>
<trkpt lat="52.99055721" lon="18.80961352">
<ele>104</ele>
<time>2014-05-18T14:59:59Z</time>
</trkpt>
<trkpt lat="52.99055205" lon="18.80957049">
<ele>110</ele>
<time>2014-05-18T15:00:05Z</time>
</trkpt>
<trkpt lat="52.99055728" lon="18.80956546">
<ele>110</ele>
<time>2014-05-18T15:00:13Z</time>
</trkpt>
<trkpt lat="52.99056678" lon="18.80959482">
<ele>108</ele>
<time>2014-05-18T15:00:19Z</time>
</trkpt>
<trkpt lat="52.99057043" lon="18.80961194">
<ele>105</ele>
<time>2014-05-18T15:00:25Z</time>
</trkpt>
<trkpt lat="52.99054928" lon="18.80955896">
<ele>105</ele>
<time>2014-05-18T15:00:31Z</time>
</trkpt>
<trkpt lat="52.99055251" lon="18.80954154">
<ele>106</ele>
<time>2014-05-18T15:00:37Z</time>
</trkpt>
<trkpt lat="52.99055491" lon="18.80954366">
<ele>108</ele>
<time>2014-05-18T15:00:43Z</time>
</trkpt>
<trkpt lat="52.99054704" lon="18.80956564">
<ele>106</ele>
<time>2014-05-18T15:00:49Z</time>
</trkpt>
<trkpt lat="52.99056094" lon="18.8094985">
<ele>106</ele>
<time>2014-05-18T15:00:55Z</time>
</trkpt>
<trkpt lat="52.99056094" lon="18.8094985">
<ele>106</ele>
<time>2014-05-18T15:01:01Z</time>
</trkpt>
<trkpt lat="52.99055272" lon="18.80951015">
<ele>98</ele>
<time>2014-05-18T15:01:07Z</time>
</trkpt>
<trkpt lat="52.99051534" lon="18.8095191">
<ele>98</ele>
<time>2014-05-18T15:01:13Z</time>
</trkpt>
<trkpt lat="52.99051388" lon="18.80951543">
<ele>99</ele>
<time>2014-05-18T15:01:19Z</time>
</trkpt>
<trkpt lat="52.99057132" lon="18.80948321">
<ele>102</ele>
<time>2014-05-18T15:01:25Z</time>
</trkpt>
<trkpt lat="52.99057132" lon="18.80948321">
<ele>102</ele>
<time>2014-05-18T15:01:33Z</time>
</trkpt>
<trkpt lat="52.9905826" lon="18.80947627">
<ele>102</ele>
<time>2014-05-18T15:01:39Z</time>
</trkpt>
<trkpt lat="52.99054043" lon="18.80956538">
<ele>103</ele>
<time>2014-05-18T15:01:47Z</time>
</trkpt>
<trkpt lat="52.99054043" lon="18.80956538">
<ele>103</ele>
<time>2014-05-18T15:01:53Z</time>
</trkpt>
<trkpt lat="52.99053913" lon="18.80956412">
<ele>103</ele>
<time>2014-05-18T15:01:59Z</time>
</trkpt>
<trkpt lat="52.9905377" lon="18.80956402">
<ele>103</ele>
<time>2014-05-18T15:02:07Z</time>
</trkpt>
<trkpt lat="52.99053967" lon="18.80956228">
<ele>104</ele>
<time>2014-05-18T15:02:13Z</time>
</trkpt>
<trkpt lat="52.99053998" lon="18.80956192">
<ele>104</ele>
<time>2014-05-18T15:02:19Z</time>
</trkpt>
<trkpt lat="52.99053999" lon="18.80956191">
<ele>104</ele>
<time>2014-05-18T15:02:25Z</time>
</trkpt>
<trkpt lat="52.99053993" lon="18.80956195">
<ele>104</ele>
<time>2014-05-18T15:02:31Z</time>
</trkpt>
<trkpt lat="52.99054018" lon="18.8095581">
<ele>103</ele>
<time>2014-05-18T15:02:37Z</time>
</trkpt>
<trkpt lat="52.99050805" lon="18.80955773">
<ele>102</ele>
<time>2014-05-18T15:02:43Z</time>
</trkpt>
<trkpt lat="52.99049761" lon="18.8095587">
<ele>101</ele>
<time>2014-05-18T15:02:49Z</time>
</trkpt>
<trkpt lat="52.99052294" lon="18.80954007">
<ele>102</ele>
<time>2014-05-18T15:02:57Z</time>
</trkpt>
<trkpt lat="52.9905517" lon="18.80952019">
<ele>104</ele>
<time>2014-05-18T15:03:05Z</time>
</trkpt>
<trkpt lat="52.99055258" lon="18.80951409">
<ele>104</ele>
<time>2014-05-18T15:03:11Z</time>
</trkpt>
<trkpt lat="52.99055212" lon="18.80951439">
<ele>104</ele>
<time>2014-05-18T15:03:17Z</time>
</trkpt>
<trkpt lat="52.99054822" lon="18.80951755">
<ele>104</ele>
<time>2014-05-18T15:03:25Z</time>
</trkpt>
<trkpt lat="52.99054688" lon="18.80951962">
<ele>104</ele>
<time>2014-05-18T15:03:31Z</time>
</trkpt>
<trkpt lat="52.99054646" lon="18.8095193">
<ele>104</ele>
<time>2014-05-18T15:03:37Z</time>
</trkpt>
<trkpt lat="52.99057163" lon="18.80953583">
<ele>103</ele>
<time>2014-05-18T15:03:43Z</time>
</trkpt>
<trkpt lat="52.99057566" lon="18.80952764">
<ele>104</ele>
<time>2014-05-18T15:03:49Z</time>
</trkpt>
<trkpt lat="52.99057519" lon="18.80952708">
<ele>104</ele>
<time>2014-05-18T15:03:55Z</time>
</trkpt>
<trkpt lat="52.99057414" lon="18.80952674">
<ele>104</ele>
<time>2014-05-18T15:04:01Z</time>
</trkpt>
<trkpt lat="52.99057589" lon="18.80952024">
<ele>105</ele>
<time>2014-05-18T15:04:07Z</time>
</trkpt>
<trkpt lat="52.99056453" lon="18.80947552">
<ele>104</ele>
<time>2014-05-18T15:04:13Z</time>
</trkpt>
<trkpt lat="52.99055517" lon="18.80946205">
<ele>102</ele>
<time>2014-05-18T15:04:19Z</time>
</trkpt>
<trkpt lat="52.99056485" lon="18.80944453">
<ele>103</ele>
<time>2014-05-18T15:04:27Z</time>
</trkpt>
<trkpt lat="52.99055606" lon="18.80941962">
<ele>104</ele>
<time>2014-05-18T15:04:33Z</time>
</trkpt>
<trkpt lat="52.99055984" lon="18.80940532">
<ele>105</ele>
<time>2014-05-18T15:04:39Z</time>
</trkpt>
<trkpt lat="52.99056539" lon="18.80938262">
<ele>106</ele>
<time>2014-05-18T15:04:45Z</time>
</trkpt>
<trkpt lat="52.99058917" lon="18.80933636">
<ele>109</ele>
<time>2014-05-18T15:04:51Z</time>
</trkpt>
<trkpt lat="52.99061092" lon="18.80930054">
<ele>106</ele>
<time>2014-05-18T15:04:57Z</time>
</trkpt>
<trkpt lat="52.9906256" lon="18.80930658">
<ele>105</ele>
<time>2014-05-18T15:05:03Z</time>
</trkpt>
<trkpt lat="52.99063873" lon="18.80940291">
<ele>104</ele>
<time>2014-05-18T15:05:09Z</time>
</trkpt>
<trkpt lat="52.99063873" lon="18.80940291">
<ele>104</ele>
<time>2014-05-18T15:05:15Z</time>
</trkpt>
<trkpt lat="52.99063766" lon="18.80940654">
<ele>105</ele>
<time>2014-05-18T15:05:21Z</time>
</trkpt>
<trkpt lat="52.99063688" lon="18.80940664">
<ele>105</ele>
<time>2014-05-18T15:05:27Z</time>
</trkpt>
<trkpt lat="52.99063567" lon="18.80940719">
<ele>105</ele>
<time>2014-05-18T15:05:33Z</time>
</trkpt>
<trkpt lat="52.99063266" lon="18.8094114">
<ele>105</ele>
<time>2014-05-18T15:05:39Z</time>
</trkpt>
<trkpt lat="52.99062836" lon="18.80941434">
<ele>106</ele>
<time>2014-05-18T15:05:45Z</time>
</trkpt>
<trkpt lat="52.99061871" lon="18.80943781">
<ele>107</ele>
<time>2014-05-18T15:05:51Z</time>
</trkpt>
<trkpt lat="52.99059139" lon="18.80946699">
<ele>108</ele>
<time>2014-05-18T15:05:57Z</time>
</trkpt>
<trkpt lat="52.99058579" lon="18.80948079">
<ele>107</ele>
<time>2014-05-18T15:06:03Z</time>
</trkpt>
<trkpt lat="52.99056608" lon="18.80950593">
<ele>108</ele>
<time>2014-05-18T15:06:09Z</time>
</trkpt>
<trkpt lat="52.99055883" lon="18.80950855">
<ele>108</ele>
<time>2014-05-18T15:06:15Z</time>
</trkpt>
<trkpt lat="52.99048609" lon="18.80954755">
<ele>105</ele>
<time>2014-05-18T15:06:21Z</time>
</trkpt>
<trkpt lat="52.99048609" lon="18.80954755">
<ele>105</ele>
<time>2014-05-18T15:06:27Z</time>
</trkpt>
<trkpt lat="52.99049287" lon="18.809535">
<ele>106</ele>
<time>2014-05-18T15:06:33Z</time>
</trkpt>
<trkpt lat="52.99051107" lon="18.80966717">
<ele>104</ele>
<time>2014-05-18T15:06:39Z</time>
</trkpt>
<trkpt lat="52.99051107" lon="18.80966717">
<ele>104</ele>
<time>2014-05-18T15:06:45Z</time>
</trkpt>
<trkpt lat="52.99034769" lon="18.80988733">
<ele>114</ele>
<time>2014-05-18T15:06:51Z</time>
</trkpt>
<trkpt lat="52.99027167" lon="18.81000782">
<ele>124</ele>
<time>2014-05-18T15:06:57Z</time>
</trkpt>
<trkpt lat="52.99014873" lon="18.810189">
<ele>129</ele>
<time>2014-05-18T15:07:03Z</time>
</trkpt>
<trkpt lat="52.99002866" lon="18.81038125">
<ele>140</ele>
<time>2014-05-18T15:07:09Z</time>
</trkpt>
<trkpt lat="52.98998744" lon="18.81044759">
<ele>139</ele>
<time>2014-05-18T15:07:15Z</time>
</trkpt>
<trkpt lat="52.98965082" lon="18.81069909">
<ele>129</ele>
<time>2014-05-18T15:07:21Z</time>
</trkpt>
<trkpt lat="52.98938088" lon="18.81096183">
<ele>130</ele>
<time>2014-05-18T15:07:27Z</time>
</trkpt>
<trkpt lat="52.98928619" lon="18.81111306">
<ele>140</ele>
<time>2014-05-18T15:07:33Z</time>
</trkpt>
<trkpt lat="52.98924853" lon="18.81116189">
<ele>139</ele>
<time>2014-05-18T15:07:39Z</time>
</trkpt>
<trkpt lat="52.98908363" lon="18.81134014">
<ele>145</ele>
<time>2014-05-18T15:07:45Z</time>
</trkpt>
<trkpt lat="52.98879602" lon="18.81159302">
<ele>146</ele>
<time>2014-05-18T15:07:51Z</time>
</trkpt>
<trkpt lat="52.98863568" lon="18.81171797">
<ele>144</ele>
<time>2014-05-18T15:07:57Z</time>
</trkpt>
<trkpt lat="52.98787876" lon="18.81232413">
<ele>136</ele>
<time>2014-05-18T15:08:05Z</time>
</trkpt>
<trkpt lat="52.98765058" lon="18.81252747">
<ele>136</ele>
<time>2014-05-18T15:08:11Z</time>
</trkpt>
<trkpt lat="52.98758482" lon="18.81260219">
<ele>138</ele>
<time>2014-05-18T15:08:17Z</time>
</trkpt>
<trkpt lat="52.98745619" lon="18.81268612">
<ele>147</ele>
<time>2014-05-18T15:08:23Z</time>
</trkpt>
<trkpt lat="52.98690478" lon="18.81288094">
<ele>136</ele>
<time>2014-05-18T15:08:29Z</time>
</trkpt>
<trkpt lat="52.98672003" lon="18.81293935">
<ele>140</ele>
<time>2014-05-18T15:08:35Z</time>
</trkpt>
<trkpt lat="52.98672003" lon="18.81293935">
<ele>140</ele>
<time>2014-05-18T15:08:41Z</time>
</trkpt>
<trkpt lat="52.98644898" lon="18.81304199">
<ele>131</ele>
<time>2014-05-18T15:08:47Z</time>
</trkpt>
<trkpt lat="52.98624424" lon="18.81307656">
<ele>129</ele>
<time>2014-05-18T15:08:53Z</time>
</trkpt>
<trkpt lat="52.98561133" lon="18.81312314">
<ele>121</ele>
<time>2014-05-18T15:08:59Z</time>
</trkpt>
<trkpt lat="52.98550522" lon="18.81309799">
<ele>121</ele>
<time>2014-05-18T15:09:05Z</time>
</trkpt>
<trkpt lat="52.98521638" lon="18.81301578">
<ele>111</ele>
<time>2014-05-18T15:09:11Z</time>
</trkpt>
<trkpt lat="52.98507741" lon="18.81296107">
<ele>104</ele>
<time>2014-05-18T15:09:17Z</time>
</trkpt>
<trkpt lat="52.98491231" lon="18.81288357">
<ele>102</ele>
<time>2014-05-18T15:09:23Z</time>
</trkpt>
<trkpt lat="52.98468855" lon="18.81281575">
<ele>99</ele>
<time>2014-05-18T15:09:29Z</time>
</trkpt>
<trkpt lat="52.9842193" lon="18.81272492">
<ele>100</ele>
<time>2014-05-18T15:09:35Z</time>
</trkpt>
<trkpt lat="52.98423814" lon="18.81265608">
<ele>98</ele>
<time>2014-05-18T15:09:41Z</time>
</trkpt>
<trkpt lat="52.98394015" lon="18.81276054">
<ele>108</ele>
<time>2014-05-18T15:09:47Z</time>
</trkpt>
<trkpt lat="52.98376476" lon="18.81274728">
<ele>111</ele>
<time>2014-05-18T15:09:53Z</time>
</trkpt>
<trkpt lat="52.98352407" lon="18.81278251">
<ele>106</ele>
<time>2014-05-18T15:09:59Z</time>
</trkpt>
<trkpt lat="52.98316878" lon="18.81266001">
<ele>103</ele>
<time>2014-05-18T15:10:05Z</time>
</trkpt>
<trkpt lat="52.98295005" lon="18.8126289">
<ele>103</ele>
<time>2014-05-18T15:10:11Z</time>
</trkpt>
<trkpt lat="52.98289338" lon="18.81262114">
<ele>104</ele>
<time>2014-05-18T15:10:17Z</time>
</trkpt>
<trkpt lat="52.98262998" lon="18.81263724">
<ele>105</ele>
<time>2014-05-18T15:10:23Z</time>
</trkpt>
<trkpt lat="52.98241758" lon="18.8126516">
<ele>110</ele>
<time>2014-05-18T15:10:29Z</time>
</trkpt>
<trkpt lat="52.98209778" lon="18.81265635">
<ele>110</ele>
<time>2014-05-18T15:10:35Z</time>
</trkpt>
<trkpt lat="52.98196996" lon="18.81260371">
<ele>120</ele>
<time>2014-05-18T15:10:41Z</time>
</trkpt>
<trkpt lat="52.98174946" lon="18.8126229">
<ele>120</ele>
<time>2014-05-18T15:10:47Z</time>
</trkpt>
<trkpt lat="52.98168487" lon="18.8126166">
<ele>121</ele>
<time>2014-05-18T15:10:53Z</time>
</trkpt>
<trkpt lat="52.9813283" lon="18.8126535">
<ele>110</ele>
<time>2014-05-18T15:10:59Z</time>
</trkpt>
<trkpt lat="52.98114725" lon="18.8126165">
<ele>109</ele>
<time>2014-05-18T15:11:05Z</time>
</trkpt>
<trkpt lat="52.98107731" lon="18.81263763">
<ele>107</ele>
<time>2014-05-18T15:11:11Z</time>
</trkpt>
<trkpt lat="52.98072794" lon="18.81268964">
<ele>101</ele>
<time>2014-05-18T15:11:17Z</time>
</trkpt>
<trkpt lat="52.98065708" lon="18.81271012">
<ele>98</ele>
<time>2014-05-18T15:11:23Z</time>
</trkpt>
<trkpt lat="52.9803239" lon="18.81282058">
<ele>96</ele>
<time>2014-05-18T15:11:29Z</time>
</trkpt>
<trkpt lat="52.98014644" lon="18.81296071">
<ele>94</ele>
<time>2014-05-18T15:11:35Z</time>
</trkpt>
<trkpt lat="52.97995568" lon="18.81308582">
<ele>90</ele>
<time>2014-05-18T15:11:41Z</time>
</trkpt>
<trkpt lat="52.9798302" lon="18.81314027">
<ele>91</ele>
<time>2014-05-18T15:11:47Z</time>
</trkpt>
<trkpt lat="52.97966791" lon="18.81323025">
<ele>93</ele>
<time>2014-05-18T15:11:53Z</time>
</trkpt>
<trkpt lat="52.97942105" lon="18.81335353">
<ele>96</ele>
<time>2014-05-18T15:11:59Z</time>
</trkpt>
<trkpt lat="52.97936398" lon="18.81339593">
<ele>97</ele>
<time>2014-05-18T15:12:05Z</time>
</trkpt>
<trkpt lat="52.97921353" lon="18.81345609">
<ele>100</ele>
<time>2014-05-18T15:12:11Z</time>
</trkpt>
<trkpt lat="52.97904801" lon="18.81351385">
<ele>104</ele>
<time>2014-05-18T15:12:17Z</time>
</trkpt>
<trkpt lat="52.97896962" lon="18.81355933">
<ele>122</ele>
<time>2014-05-18T15:12:23Z</time>
</trkpt>
<trkpt lat="52.97883096" lon="18.81377983">
<ele>141</ele>
<time>2014-05-18T15:12:29Z</time>
</trkpt>
<trkpt lat="52.97865597" lon="18.81380451">
<ele>147</ele>
<time>2014-05-18T15:12:35Z</time>
</trkpt>
<trkpt lat="52.97852933" lon="18.81387676">
<ele>141</ele>
<time>2014-05-18T15:12:41Z</time>
</trkpt>
<trkpt lat="52.97842035" lon="18.81399687">
<ele>139</ele>
<time>2014-05-18T15:12:47Z</time>
</trkpt>
<trkpt lat="52.97772083" lon="18.81407294">
<ele>119</ele>
<time>2014-05-18T15:12:53Z</time>
</trkpt>
<trkpt lat="52.97740671" lon="18.81416313">
<ele>118</ele>
<time>2014-05-18T15:12:59Z</time>
</trkpt>
<trkpt lat="52.97733232" lon="18.81404685">
<ele>117</ele>
<time>2014-05-18T15:13:05Z</time>
</trkpt>
<trkpt lat="52.97703301" lon="18.81386246">
<ele>119</ele>
<time>2014-05-18T15:13:11Z</time>
</trkpt>
<trkpt lat="52.97675082" lon="18.813794">
<ele>118</ele>
<time>2014-05-18T15:13:17Z</time>
</trkpt>
<trkpt lat="52.97675082" lon="18.813794">
<ele>118</ele>
<time>2014-05-18T15:13:23Z</time>
</trkpt>
<trkpt lat="52.97651086" lon="18.81365223">
<ele>128</ele>
<time>2014-05-18T15:13:29Z</time>
</trkpt>
<trkpt lat="52.9762899" lon="18.81352281">
<ele>133</ele>
<time>2014-05-18T15:13:35Z</time>
</trkpt>
<trkpt lat="52.97620035" lon="18.81343218">
<ele>130</ele>
<time>2014-05-18T15:13:41Z</time>
</trkpt>
<trkpt lat="52.97600712" lon="18.81312242">
<ele>126</ele>
<time>2014-05-18T15:13:47Z</time>
</trkpt>
<trkpt lat="52.97590769" lon="18.81296974">
<ele>127</ele>
<time>2014-05-18T15:13:53Z</time>
</trkpt>
<trkpt lat="52.97568095" lon="18.81245195">
<ele>123</ele>
<time>2014-05-18T15:13:59Z</time>
</trkpt>
<trkpt lat="52.97558092" lon="18.8122921">
<ele>119</ele>
<time>2014-05-18T15:14:05Z</time>
</trkpt>
<trkpt lat="52.97550856" lon="18.81211244">
<ele>115</ele>
<time>2014-05-18T15:14:11Z</time>
</trkpt>
<trkpt lat="52.97547021" lon="18.81182522">
<ele>122</ele>
<time>2014-05-18T15:14:17Z</time>
</trkpt>
<trkpt lat="52.97513876" lon="18.81147261">
<ele>114</ele>
<time>2014-05-18T15:14:23Z</time>
</trkpt>
<trkpt lat="52.97507472" lon="18.81141221">
<ele>116</ele>
<time>2014-05-18T15:14:29Z</time>
</trkpt>
<trkpt lat="52.97501734" lon="18.81125514">
<ele>112</ele>
<time>2014-05-18T15:14:35Z</time>
</trkpt>
<trkpt lat="52.97478119" lon="18.81081167">
<ele>118</ele>
<time>2014-05-18T15:14:41Z</time>
</trkpt>
<trkpt lat="52.97426729" lon="18.81068983">
<ele>117</ele>
<time>2014-05-18T15:14:47Z</time>
</trkpt>
<trkpt lat="52.97420249" lon="18.81066969">
<ele>125</ele>
<time>2014-05-18T15:14:53Z</time>
</trkpt>
<trkpt lat="52.97390229" lon="18.81035568">
<ele>134</ele>
<time>2014-05-18T15:14:59Z</time>
</trkpt>
<trkpt lat="52.97371184" lon="18.81028071">
<ele>134</ele>
<time>2014-05-18T15:15:05Z</time>
</trkpt>
<trkpt lat="52.97365671" lon="18.81019796">
<ele>133</ele>
<time>2014-05-18T15:15:11Z</time>
</trkpt>
<trkpt lat="52.9732736" lon="18.80979251">
<ele>128</ele>
<time>2014-05-18T15:15:17Z</time>
</trkpt>
<trkpt lat="52.97301236" lon="18.8096432">
<ele>124</ele>
<time>2014-05-18T15:15:23Z</time>
</trkpt>
<trkpt lat="52.97292248" lon="18.80956397">
<ele>124</ele>
<time>2014-05-18T15:15:29Z</time>
</trkpt>
<trkpt lat="52.97264113" lon="18.80897992">
<ele>121</ele>
<time>2014-05-18T15:15:35Z</time>
</trkpt>
<trkpt lat="52.97258139" lon="18.80891788">
<ele>119</ele>
<time>2014-05-18T15:15:41Z</time>
</trkpt>
<trkpt lat="52.97228581" lon="18.80863007">
<ele>122</ele>
<time>2014-05-18T15:15:47Z</time>
</trkpt>
<trkpt lat="52.97209765" lon="18.80845588">
<ele>122</ele>
<time>2014-05-18T15:15:53Z</time>
</trkpt>
<trkpt lat="52.97185707" lon="18.80833724">
<ele>117</ele>
<time>2014-05-18T15:15:59Z</time>
</trkpt>
<trkpt lat="52.97166154" lon="18.80810656">
<ele>124</ele>
<time>2014-05-18T15:16:05Z</time>
</trkpt>
<trkpt lat="52.97159327" lon="18.80807882">
<ele>125</ele>
<time>2014-05-18T15:16:11Z</time>
</trkpt>
<trkpt lat="52.97134334" lon="18.80792577">
<ele>124</ele>
<time>2014-05-18T15:16:17Z</time>
</trkpt>
<trkpt lat="52.97113102" lon="18.80772929">
<ele>123</ele>
<time>2014-05-18T15:16:23Z</time>
</trkpt>
<trkpt lat="52.97078985" lon="18.80723245">
<ele>107</ele>
<time>2014-05-18T15:16:29Z</time>
</trkpt>
<trkpt lat="52.97052823" lon="18.80683793">
<ele>106</ele>
<time>2014-05-18T15:16:35Z</time>
</trkpt>
<trkpt lat="52.97037123" lon="18.80672627">
<ele>104</ele>
<time>2014-05-18T15:16:41Z</time>
</trkpt>
<trkpt lat="52.97025928" lon="18.80644525">
<ele>103</ele>
<time>2014-05-18T15:16:47Z</time>
</trkpt>
<trkpt lat="52.97000617" lon="18.80617749">
<ele>104</ele>
<time>2014-05-18T15:16:53Z</time>
</trkpt>
<trkpt lat="52.96993989" lon="18.8061071">
<ele>103</ele>
<time>2014-05-18T15:16:59Z</time>
</trkpt>
<trkpt lat="52.9697742" lon="18.80584392">
<ele>104</ele>
<time>2014-05-18T15:17:05Z</time>
</trkpt>
<trkpt lat="52.96967238" lon="18.80522812">
<ele>109</ele>
<time>2014-05-18T15:17:11Z</time>
</trkpt>
<trkpt lat="52.96965533" lon="18.80511012">
<ele>110</ele>
<time>2014-05-18T15:17:17Z</time>
</trkpt>
<trkpt lat="52.96945212" lon="18.80455836">
<ele>113</ele>
<time>2014-05-18T15:17:23Z</time>
</trkpt>
<trkpt lat="52.96924921" lon="18.80445874">
<ele>109</ele>
<time>2014-05-18T15:17:29Z</time>
</trkpt>
<trkpt lat="52.96912138" lon="18.80426431">
<ele>111</ele>
<time>2014-05-18T15:17:35Z</time>
</trkpt>
<trkpt lat="52.96902191" lon="18.8038754">
<ele>124</ele>
<time>2014-05-18T15:17:41Z</time>
</trkpt>
<trkpt lat="52.96878109" lon="18.80362444">
<ele>125</ele>
<time>2014-05-18T15:17:47Z</time>
</trkpt>
<trkpt lat="52.96849731" lon="18.80344242">
<ele>126</ele>
<time>2014-05-18T15:17:53Z</time>
</trkpt>
<trkpt lat="52.96838086" lon="18.80331292">
<ele>124</ele>
<time>2014-05-18T15:17:59Z</time>
</trkpt>
<trkpt lat="52.96820508" lon="18.8031261">
<ele>128</ele>
<time>2014-05-18T15:18:05Z</time>
</trkpt>
<trkpt lat="52.96801052" lon="18.80289013">
<ele>129</ele>
<time>2014-05-18T15:18:11Z</time>
</trkpt>
<trkpt lat="52.96768427" lon="18.80269825">
<ele>117</ele>
<time>2014-05-18T15:18:17Z</time>
</trkpt>
<trkpt lat="52.96758226" lon="18.80270468">
<ele>116</ele>
<time>2014-05-18T15:18:23Z</time>
</trkpt>
<trkpt lat="52.96736287" lon="18.80264864">
<ele>118</ele>
<time>2014-05-18T15:18:29Z</time>
</trkpt>
<trkpt lat="52.96702694" lon="18.80247904">
<ele>121</ele>
<time>2014-05-18T15:18:35Z</time>
</trkpt>
<trkpt lat="52.96673088" lon="18.80216872">
<ele>120</ele>
<time>2014-05-18T15:18:41Z</time>
</trkpt>
<trkpt lat="52.9664067" lon="18.80187168">
<ele>115</ele>
<time>2014-05-18T15:18:47Z</time>
</trkpt>
<trkpt lat="52.96626104" lon="18.80173895">
<ele>110</ele>
<time>2014-05-18T15:18:53Z</time>
</trkpt>
<trkpt lat="52.96611044" lon="18.80165322">
<ele>111</ele>
<time>2014-05-18T15:18:59Z</time>
</trkpt>
<trkpt lat="52.96588223" lon="18.80158221">
<ele>115</ele>
<time>2014-05-18T15:19:05Z</time>
</trkpt>
<trkpt lat="52.96588223" lon="18.80158221">
<ele>115</ele>
<time>2014-05-18T15:19:11Z</time>
</trkpt>
<trkpt lat="52.96570748" lon="18.80151928">
<ele>121</ele>
<time>2014-05-18T15:19:17Z</time>
</trkpt>
<trkpt lat="52.9653951" lon="18.80117988">
<ele>122</ele>
<time>2014-05-18T15:19:23Z</time>
</trkpt>
<trkpt lat="52.96529598" lon="18.80107674">
<ele>131</ele>
<time>2014-05-18T15:19:29Z</time>
</trkpt>
<trkpt lat="52.96522002" lon="18.80090173">
<ele>136</ele>
<time>2014-05-18T15:19:35Z</time>
</trkpt>
<trkpt lat="52.96482392" lon="18.80071935">
<ele>134</ele>
<time>2014-05-18T15:19:41Z</time>
</trkpt>
<trkpt lat="52.96441774" lon="18.80065003">
<ele>131</ele>
<time>2014-05-18T15:19:47Z</time>
</trkpt>
<trkpt lat="52.96422801" lon="18.80042913">
<ele>124</ele>
<time>2014-05-18T15:19:53Z</time>
</trkpt>
<trkpt lat="52.96402427" lon="18.80006515">
<ele>112</ele>
<time>2014-05-18T15:20:01Z</time>
</trkpt>
<trkpt lat="52.96394897" lon="18.7998662">
<ele>113</ele>
<time>2014-05-18T15:20:07Z</time>
</trkpt>
<trkpt lat="52.96378478" lon="18.79932504">
<ele>110</ele>
<time>2014-05-18T15:20:13Z</time>
</trkpt>
<trkpt lat="52.96357985" lon="18.79903119">
<ele>99</ele>
<time>2014-05-18T15:20:19Z</time>
</trkpt>
<trkpt lat="52.96339442" lon="18.79882523">
<ele>101</ele>
<time>2014-05-18T15:20:25Z</time>
</trkpt>
<trkpt lat="52.96320229" lon="18.79860082">
<ele>102</ele>
<time>2014-05-18T15:20:31Z</time>
</trkpt>
<trkpt lat="52.96313568" lon="18.79853054">
<ele>101</ele>
<time>2014-05-18T15:20:37Z</time>
</trkpt>
<trkpt lat="52.96291067" lon="18.79818837">
<ele>100</ele>
<time>2014-05-18T15:20:43Z</time>
</trkpt>
<trkpt lat="52.96281815" lon="18.79795536">
<ele>100</ele>
<time>2014-05-18T15:20:49Z</time>
</trkpt>
<trkpt lat="52.96281815" lon="18.79795536">
<ele>100</ele>
<time>2014-05-18T15:20:55Z</time>
</trkpt>
<trkpt lat="52.96282033" lon="18.79793005">
<ele>104</ele>
<time>2014-05-18T15:21:01Z</time>
</trkpt>
<trkpt lat="52.96285693" lon="18.79796222">
<ele>105</ele>
<time>2014-05-18T15:21:07Z</time>
</trkpt>
<trkpt lat="52.96286059" lon="18.79796395">
<ele>106</ele>
<time>2014-05-18T15:21:13Z</time>
</trkpt>
<trkpt lat="52.96284347" lon="18.79798438">
<ele>110</ele>
<time>2014-05-18T15:21:19Z</time>
</trkpt>
<trkpt lat="52.9627671" lon="18.79819301">
<ele>106</ele>
<time>2014-05-18T15:21:25Z</time>
</trkpt>
<trkpt lat="52.9627671" lon="18.79819301">
<ele>106</ele>
<time>2014-05-18T15:21:31Z</time>
</trkpt>
<trkpt lat="52.96279514" lon="18.79817634">
<ele>108</ele>
<time>2014-05-18T15:21:37Z</time>
</trkpt>
<trkpt lat="52.96280933" lon="18.79815814">
<ele>107</ele>
<time>2014-05-18T15:21:43Z</time>
</trkpt>
<trkpt lat="52.96281198" lon="18.79815359">
<ele>107</ele>
<time>2014-05-18T15:21:49Z</time>
</trkpt>
<trkpt lat="52.96281441" lon="18.79814856">
<ele>107</ele>
<time>2014-05-18T15:21:55Z</time>
</trkpt>
<trkpt lat="52.96281392" lon="18.79814959">
<ele>107</ele>
<time>2014-05-18T15:22:01Z</time>
</trkpt>
<trkpt lat="52.96281382" lon="18.79814922">
<ele>107</ele>
<time>2014-05-18T15:22:07Z</time>
</trkpt>
<trkpt lat="52.96281385" lon="18.79814926">
<ele>107</ele>
<time>2014-05-18T15:22:13Z</time>
</trkpt>
<trkpt lat="52.96281399" lon="18.79814939">
<ele>107</ele>
<time>2014-05-18T15:22:19Z</time>
</trkpt>
<trkpt lat="52.96281405" lon="18.79814945">
<ele>107</ele>
<time>2014-05-18T15:22:25Z</time>
</trkpt>
<trkpt lat="52.96281548" lon="18.79814723">
<ele>107</ele>
<time>2014-05-18T15:22:31Z</time>
</trkpt>
<trkpt lat="52.96293051" lon="18.79810706">
<ele>108</ele>
<time>2014-05-18T15:22:37Z</time>
</trkpt>
<trkpt lat="52.96293051" lon="18.79810706">
<ele>108</ele>
<time>2014-05-18T15:22:43Z</time>
</trkpt>
<trkpt lat="52.96292803" lon="18.79811424">
<ele>109</ele>
<time>2014-05-18T15:22:49Z</time>
</trkpt>
<trkpt lat="52.96292607" lon="18.79809827">
<ele>111</ele>
<time>2014-05-18T15:22:55Z</time>
</trkpt>
<trkpt lat="52.96292472" lon="18.79809532">
<ele>111</ele>
<time>2014-05-18T15:23:01Z</time>
</trkpt>
<trkpt lat="52.9628938" lon="18.7981617">
<ele>117</ele>
<time>2014-05-18T15:23:07Z</time>
</trkpt>
<trkpt lat="52.9628938" lon="18.7981617">
<ele>117</ele>
<time>2014-05-18T15:23:13Z</time>
</trkpt>
<trkpt lat="52.96289899" lon="18.79820821">
<ele>118</ele>
<time>2014-05-18T15:23:19Z</time>
</trkpt>
<trkpt lat="52.96291105" lon="18.79819594">
<ele>119</ele>
<time>2014-05-18T15:23:25Z</time>
</trkpt>
<trkpt lat="52.96291382" lon="18.79819264">
<ele>118</ele>
<time>2014-05-18T15:23:31Z</time>
</trkpt>
<trkpt lat="52.96290786" lon="18.79818086">
<ele>122</ele>
<time>2014-05-18T15:23:37Z</time>
</trkpt>
<trkpt lat="52.96290575" lon="18.79817666">
<ele>122</ele>
<time>2014-05-18T15:23:43Z</time>
</trkpt>
<trkpt lat="52.96290186" lon="18.79816265">
<ele>122</ele>
<time>2014-05-18T15:23:49Z</time>
</trkpt>
<trkpt lat="52.96292039" lon="18.79811547">
<ele>119</ele>
<time>2014-05-18T15:23:55Z</time>
</trkpt>
<trkpt lat="52.96292335" lon="18.7981087">
<ele>119</ele>
<time>2014-05-18T15:24:01Z</time>
</trkpt>
<trkpt lat="52.96292345" lon="18.79810844">
<ele>119</ele>
<time>2014-05-18T15:24:07Z</time>
</trkpt>
<trkpt lat="52.96289593" lon="18.79797199">
<ele>119</ele>
<time>2014-05-18T15:24:13Z</time>
</trkpt>
<trkpt lat="52.96287984" lon="18.79786115">
<ele>119</ele>
<time>2014-05-18T15:24:19Z</time>
</trkpt>
<trkpt lat="52.96274293" lon="18.79750011">
<ele>117</ele>
<time>2014-05-18T15:24:25Z</time>
</trkpt>
<trkpt lat="52.96270282" lon="18.7973674">
<ele>112</ele>
<time>2014-05-18T15:24:31Z</time>
</trkpt>
<trkpt lat="52.96257332" lon="18.79682607">
<ele>103</ele>
<time>2014-05-18T15:24:37Z</time>
</trkpt>
<trkpt lat="52.96242925" lon="18.79634861">
<ele>101</ele>
<time>2014-05-18T15:24:43Z</time>
</trkpt>
<trkpt lat="52.96245109" lon="18.79598423">
<ele>96</ele>
<time>2014-05-18T15:24:49Z</time>
</trkpt>
<trkpt lat="52.96248353" lon="18.79568649">
<ele>95</ele>
<time>2014-05-18T15:24:55Z</time>
</trkpt>
<trkpt lat="52.96233952" lon="18.79537087">
<ele>101</ele>
<time>2014-05-18T15:25:01Z</time>
</trkpt>
<trkpt lat="52.96216204" lon="18.79509052">
<ele>108</ele>
<time>2014-05-18T15:25:07Z</time>
</trkpt>
<trkpt lat="52.96208502" lon="18.79458949">
<ele>109</ele>
<time>2014-05-18T15:25:13Z</time>
</trkpt>
<trkpt lat="52.96187762" lon="18.79365605">
<ele>114</ele>
<time>2014-05-18T15:25:19Z</time>
</trkpt>
<trkpt lat="52.96183788" lon="18.79352192">
<ele>113</ele>
<time>2014-05-18T15:25:25Z</time>
</trkpt>
<trkpt lat="52.96159752" lon="18.79285952">
<ele>115</ele>
<time>2014-05-18T15:25:31Z</time>
</trkpt>
<trkpt lat="52.96152427" lon="18.79282113">
<ele>115</ele>
<time>2014-05-18T15:25:37Z</time>
</trkpt>
<trkpt lat="52.96137236" lon="18.7922354">
<ele>111</ele>
<time>2014-05-18T15:25:43Z</time>
</trkpt>
<trkpt lat="52.96123663" lon="18.79146293">
<ele>108</ele>
<time>2014-05-18T15:25:49Z</time>
</trkpt>
<trkpt lat="52.96117537" lon="18.79096792">
<ele>100</ele>
<time>2014-05-18T15:25:55Z</time>
</trkpt>
<trkpt lat="52.96118213" lon="18.79038641">
<ele>108</ele>
<time>2014-05-18T15:26:01Z</time>
</trkpt>
<trkpt lat="52.96118213" lon="18.79038641">
<ele>108</ele>
<time>2014-05-18T15:26:07Z</time>
</trkpt>
<trkpt lat="52.9612177" lon="18.79038033">
<ele>106</ele>
<time>2014-05-18T15:26:13Z</time>
</trkpt>
<trkpt lat="52.9612177" lon="18.79038033">
<ele>106</ele>
<time>2014-05-18T15:26:19Z</time>
</trkpt>
<trkpt lat="52.96120453" lon="18.7904506">
<ele>106</ele>
<time>2014-05-18T15:26:25Z</time>
</trkpt>
<trkpt lat="52.96118549" lon="18.79038507">
<ele>107</ele>
<time>2014-05-18T15:26:31Z</time>
</trkpt>
<trkpt lat="52.96118295" lon="18.79039289">
<ele>109</ele>
<time>2014-05-18T15:26:37Z</time>
</trkpt>
<trkpt lat="52.96119062" lon="18.79039452">
<ele>109</ele>
<time>2014-05-18T15:26:43Z</time>
</trkpt>
<trkpt lat="52.96119119" lon="18.79039376">
<ele>109</ele>
<time>2014-05-18T15:26:49Z</time>
</trkpt>
<trkpt lat="52.96119317" lon="18.79039591">
<ele>110</ele>
<time>2014-05-18T15:26:57Z</time>
</trkpt>
<trkpt lat="52.96119454" lon="18.79039694">
<ele>110</ele>
<time>2014-05-18T15:27:03Z</time>
</trkpt>
<trkpt lat="52.96119486" lon="18.79039665">
<ele>110</ele>
<time>2014-05-18T15:27:09Z</time>
</trkpt>
<trkpt lat="52.96119808" lon="18.79040018">
<ele>110</ele>
<time>2014-05-18T15:27:15Z</time>
</trkpt>
<trkpt lat="52.96119794" lon="18.79040094">
<ele>110</ele>
<time>2014-05-18T15:27:21Z</time>
</trkpt>
<trkpt lat="52.96117601" lon="18.7903491">
<ele>108</ele>
<time>2014-05-18T15:27:27Z</time>
</trkpt>
<trkpt lat="52.96113174" lon="18.79042965">
<ele>119</ele>
<time>2014-05-18T15:27:33Z</time>
</trkpt>
<trkpt lat="52.96113174" lon="18.79042965">
<ele>119</ele>
<time>2014-05-18T15:27:39Z</time>
</trkpt>
<trkpt lat="52.96115193" lon="18.79042737">
<ele>117</ele>
<time>2014-05-18T15:27:45Z</time>
</trkpt>
<trkpt lat="52.96115652" lon="18.79041559">
<ele>117</ele>
<time>2014-05-18T15:27:51Z</time>
</trkpt>
<trkpt lat="52.96115622" lon="18.79041466">
<ele>117</ele>
<time>2014-05-18T15:27:57Z</time>
</trkpt>
<trkpt lat="52.961157" lon="18.79041671">
<ele>117</ele>
<time>2014-05-18T15:28:03Z</time>
</trkpt>
<trkpt lat="52.96115804" lon="18.79041994">
<ele>117</ele>
<time>2014-05-18T15:28:09Z</time>
</trkpt>
<trkpt lat="52.96115071" lon="18.79044751">
<ele>118</ele>
<time>2014-05-18T15:28:15Z</time>
</trkpt>
<trkpt lat="52.96112701" lon="18.79043831">
<ele>118</ele>
<time>2014-05-18T15:28:21Z</time>
</trkpt>
<trkpt lat="52.96115383" lon="18.79039492">
<ele>120</ele>
<time>2014-05-18T15:28:27Z</time>
</trkpt>
<trkpt lat="52.96115814" lon="18.79039331">
<ele>120</ele>
<time>2014-05-18T15:28:33Z</time>
</trkpt>
<trkpt lat="52.96116167" lon="18.7903917">
<ele>120</ele>
<time>2014-05-18T15:28:39Z</time>
</trkpt>
<trkpt lat="52.96116179" lon="18.79039122">
<ele>119</ele>
<time>2014-05-18T15:28:45Z</time>
</trkpt>
<trkpt lat="52.96116244" lon="18.79038966">
<ele>119</ele>
<time>2014-05-18T15:28:51Z</time>
</trkpt>
<trkpt lat="52.96115657" lon="18.79038829">
<ele>120</ele>
<time>2014-05-18T15:28:57Z</time>
</trkpt>
<trkpt lat="52.96118419" lon="18.79042799">
<ele>121</ele>
<time>2014-05-18T15:29:03Z</time>
</trkpt>
<trkpt lat="52.96118985" lon="18.79042004">
<ele>121</ele>
<time>2014-05-18T15:29:09Z</time>
</trkpt>
<trkpt lat="52.9611902" lon="18.79041998">
<ele>121</ele>
<time>2014-05-18T15:29:15Z</time>
</trkpt>
<trkpt lat="52.96119032" lon="18.79041966">
<ele>121</ele>
<time>2014-05-18T15:29:21Z</time>
</trkpt>
<trkpt lat="52.96119025" lon="18.79041957">
<ele>121</ele>
<time>2014-05-18T15:29:27Z</time>
</trkpt>
<trkpt lat="52.96118529" lon="18.79031175">
<ele>117</ele>
<time>2014-05-18T15:29:33Z</time>
</trkpt>
<trkpt lat="52.96118529" lon="18.79031175">
<ele>117</ele>
<time>2014-05-18T15:29:39Z</time>
</trkpt>
<trkpt lat="52.96118225" lon="18.79029927">
<ele>116</ele>
<time>2014-05-18T15:29:45Z</time>
</trkpt>
<trkpt lat="52.96117533" lon="18.79029389">
<ele>116</ele>
<time>2014-05-18T15:29:51Z</time>
</trkpt>
<trkpt lat="52.96117705" lon="18.79029711">
<ele>116</ele>
<time>2014-05-18T15:29:57Z</time>
</trkpt>
<trkpt lat="52.96117749" lon="18.79029902">
<ele>116</ele>
<time>2014-05-18T15:30:03Z</time>
</trkpt>
<trkpt lat="52.96117678" lon="18.79030068">
<ele>116</ele>
<time>2014-05-18T15:30:09Z</time>
</trkpt>
<trkpt lat="52.96117677" lon="18.79030062">
<ele>116</ele>
<time>2014-05-18T15:30:15Z</time>
</trkpt>
<trkpt lat="52.96117589" lon="18.79030162">
<ele>116</ele>
<time>2014-05-18T15:30:21Z</time>
</trkpt>
<trkpt lat="52.96117533" lon="18.79030123">
<ele>116</ele>
<time>2014-05-18T15:30:27Z</time>
</trkpt>
<trkpt lat="52.96117517" lon="18.79030109">
<ele>116</ele>
<time>2014-05-18T15:30:33Z</time>
</trkpt>
<trkpt lat="52.96117506" lon="18.79030118">
<ele>116</ele>
<time>2014-05-18T15:30:39Z</time>
</trkpt>
<trkpt lat="52.96117482" lon="18.79030123">
<ele>116</ele>
<time>2014-05-18T15:30:45Z</time>
</trkpt>
<trkpt lat="52.96118307" lon="18.79034124">
<ele>119</ele>
<time>2014-05-18T15:30:51Z</time>
</trkpt>
<trkpt lat="52.9611975" lon="18.79034739">
<ele>120</ele>
<time>2014-05-18T15:30:57Z</time>
</trkpt>
<trkpt lat="52.9611861" lon="18.7903612">
<ele>118</ele>
<time>2014-05-18T15:31:03Z</time>
</trkpt>
<trkpt lat="52.961184" lon="18.79036248">
<ele>118</ele>
<time>2014-05-18T15:31:09Z</time>
</trkpt>
<trkpt lat="52.96118768" lon="18.79036018">
<ele>118</ele>
<time>2014-05-18T15:31:15Z</time>
</trkpt>
<trkpt lat="52.96118761" lon="18.79036026">
<ele>118</ele>
<time>2014-05-18T15:31:21Z</time>
</trkpt>
<trkpt lat="52.96118697" lon="18.7903613">
<ele>118</ele>
<time>2014-05-18T15:31:27Z</time>
</trkpt>
<trkpt lat="52.96118634" lon="18.7903615">
<ele>118</ele>
<time>2014-05-18T15:31:33Z</time>
</trkpt>
<trkpt lat="52.961186" lon="18.79036191">
<ele>118</ele>
<time>2014-05-18T15:31:39Z</time>
</trkpt>
<trkpt lat="52.96118298" lon="18.79036333">
<ele>118</ele>
<time>2014-05-18T15:31:45Z</time>
</trkpt>
<trkpt lat="52.96118294" lon="18.79036333">
<ele>118</ele>
<time>2014-05-18T15:31:51Z</time>
</trkpt>
<trkpt lat="52.9611829" lon="18.79036346">
<ele>118</ele>
<time>2014-05-18T15:31:57Z</time>
</trkpt>
<trkpt lat="52.96115667" lon="18.7899881">
<ele>108</ele>
<time>2014-05-18T15:32:03Z</time>
</trkpt>
<trkpt lat="52.96123875" lon="18.78930959">
<ele>97</ele>
<time>2014-05-18T15:32:09Z</time>
</trkpt>
<trkpt lat="52.96132353" lon="18.78867706">
<ele>93</ele>
<time>2014-05-18T15:32:15Z</time>
</trkpt>
<trkpt lat="52.96133088" lon="18.7885219">
<ele>95</ele>
<time>2014-05-18T15:32:21Z</time>
</trkpt>
<trkpt lat="52.96124358" lon="18.78785886">
<ele>92</ele>
<time>2014-05-18T15:32:27Z</time>
</trkpt>
<trkpt lat="52.96123204" lon="18.78725431">
<ele>93</ele>
<time>2014-05-18T15:32:35Z</time>
</trkpt>
<trkpt lat="52.96111529" lon="18.78658813">
<ele>94</ele>
<time>2014-05-18T15:32:41Z</time>
</trkpt>
<trkpt lat="52.96097457" lon="18.78623633">
<ele>94</ele>
<time>2014-05-18T15:32:47Z</time>
</trkpt>
<trkpt lat="52.96080528" lon="18.78557873">
<ele>92</ele>
<time>2014-05-18T15:32:53Z</time>
</trkpt>
<trkpt lat="52.96062257" lon="18.78527365">
<ele>89</ele>
<time>2014-05-18T15:32:59Z</time>
</trkpt>
<trkpt lat="52.96040958" lon="18.78491556">
<ele>93</ele>
<time>2014-05-18T15:33:05Z</time>
</trkpt>
<trkpt lat="52.96031802" lon="18.78466509">
<ele>92</ele>
<time>2014-05-18T15:33:11Z</time>
</trkpt>
<trkpt lat="52.96023557" lon="18.78441404">
<ele>103</ele>
<time>2014-05-18T15:33:17Z</time>
</trkpt>
<trkpt lat="52.96012312" lon="18.78427967">
<ele>108</ele>
<time>2014-05-18T15:33:23Z</time>
</trkpt>
<trkpt lat="52.95994844" lon="18.78367831">
<ele>111</ele>
<time>2014-05-18T15:33:29Z</time>
</trkpt>
<trkpt lat="52.95987975" lon="18.78356243">
<ele>110</ele>
<time>2014-05-18T15:33:35Z</time>
</trkpt>
<trkpt lat="52.95966477" lon="18.78328738">
<ele>106</ele>
<time>2014-05-18T15:33:41Z</time>
</trkpt>
<trkpt lat="52.9595504" lon="18.78301604">
<ele>108</ele>
<time>2014-05-18T15:33:47Z</time>
</trkpt>
<trkpt lat="52.95926741" lon="18.7826672">
<ele>112</ele>
<time>2014-05-18T15:33:54Z</time>
</trkpt>
<trkpt lat="52.95909946" lon="18.78250741">
<ele>113</ele>
<time>2014-05-18T15:33:59Z</time>
</trkpt>
<trkpt lat="52.95881347" lon="18.78193318">
<ele>102</ele>
<time>2014-05-18T15:34:05Z</time>
</trkpt>
<trkpt lat="52.95858928" lon="18.78162224">
<ele>102</ele>
<time>2014-05-18T15:34:12Z</time>
</trkpt>
<trkpt lat="52.95858928" lon="18.78162224">
<ele>102</ele>
<time>2014-05-18T15:34:17Z</time>
</trkpt>
<trkpt lat="52.9583778" lon="18.78112142">
<ele>97</ele>
<time>2014-05-18T15:34:23Z</time>
</trkpt>
<trkpt lat="52.95818283" lon="18.78055745">
<ele>107</ele>
<time>2014-05-18T15:34:30Z</time>
</trkpt>
<trkpt lat="52.95795023" lon="18.78035321">
<ele>100</ele>
<time>2014-05-18T15:34:36Z</time>
</trkpt>
<trkpt lat="52.95788504" lon="18.78026738">
<ele>97</ele>
<time>2014-05-18T15:34:42Z</time>
</trkpt>
<trkpt lat="52.95749931" lon="18.77969436">
<ele>96</ele>
<time>2014-05-18T15:34:47Z</time>
</trkpt>
<trkpt lat="52.95722005" lon="18.77941865">
<ele>93</ele>
<time>2014-05-18T15:34:55Z</time>
</trkpt>
<trkpt lat="52.95686305" lon="18.77863188">
<ele>90</ele>
<time>2014-05-18T15:35:03Z</time>
</trkpt>
<trkpt lat="52.95656628" lon="18.7783005">
<ele>83</ele>
<time>2014-05-18T15:35:12Z</time>
</trkpt>
<trkpt lat="52.95633287" lon="18.77800224">
<ele>86</ele>
<time>2014-05-18T15:35:18Z</time>
</trkpt>
<trkpt lat="52.95623247" lon="18.77787288">
<ele>82</ele>
<time>2014-05-18T15:35:24Z</time>
</trkpt>
<trkpt lat="52.95585168" lon="18.77737916">
<ele>81</ele>
<time>2014-05-18T15:35:30Z</time>
</trkpt>
<trkpt lat="52.95559226" lon="18.77720503">
<ele>81</ele>
<time>2014-05-18T15:35:36Z</time>
</trkpt>
<trkpt lat="52.95530648" lon="18.77709363">
<ele>74</ele>
<time>2014-05-18T15:35:42Z</time>
</trkpt>
<trkpt lat="52.95511336" lon="18.77699251">
<ele>75</ele>
<time>2014-05-18T15:35:50Z</time>
</trkpt>
<trkpt lat="52.95478665" lon="18.77679886">
<ele>80</ele>
<time>2014-05-18T15:35:56Z</time>
</trkpt>
<trkpt lat="52.95456231" lon="18.7765418">
<ele>83</ele>
<time>2014-05-18T15:36:02Z</time>
</trkpt>
<trkpt lat="52.95436795" lon="18.77625181">
<ele>94</ele>
<time>2014-05-18T15:36:08Z</time>
</trkpt>
<trkpt lat="52.9542943" lon="18.77620155">
<ele>92</ele>
<time>2014-05-18T15:36:14Z</time>
</trkpt>
<trkpt lat="52.9540448" lon="18.77587116">
<ele>98</ele>
<time>2014-05-18T15:36:20Z</time>
</trkpt>
<trkpt lat="52.95400852" lon="18.77580706">
<ele>99</ele>
<time>2014-05-18T15:36:26Z</time>
</trkpt>
<trkpt lat="52.95369967" lon="18.77552045">
<ele>104</ele>
<time>2014-05-18T15:36:32Z</time>
</trkpt>
<trkpt lat="52.95361385" lon="18.77541348">
<ele>108</ele>
<time>2014-05-18T15:36:38Z</time>
</trkpt>
<trkpt lat="52.9534781" lon="18.77528794">
<ele>107</ele>
<time>2014-05-18T15:36:44Z</time>
</trkpt>
<trkpt lat="52.95324252" lon="18.77500995">
<ele>107</ele>
<time>2014-05-18T15:36:50Z</time>
</trkpt>
<trkpt lat="52.95307445" lon="18.7749426">
<ele>111</ele>
<time>2014-05-18T15:36:56Z</time>
</trkpt>
<trkpt lat="52.95290584" lon="18.77478082">
<ele>109</ele>
<time>2014-05-18T15:37:02Z</time>
</trkpt>
<trkpt lat="52.9528266" lon="18.77462363">
<ele>103</ele>
<time>2014-05-18T15:37:08Z</time>
</trkpt>
<trkpt lat="52.95254403" lon="18.77448452">
<ele>101</ele>
<time>2014-05-18T15:37:14Z</time>
</trkpt>
<trkpt lat="52.95221127" lon="18.77418959">
<ele>99</ele>
<time>2014-05-18T15:37:20Z</time>
</trkpt>
<trkpt lat="52.95202704" lon="18.77407812">
<ele>105</ele>
<time>2014-05-18T15:37:30Z</time>
</trkpt>
<trkpt lat="52.95202704" lon="18.77407812">
<ele>105</ele>
<time>2014-05-18T15:37:36Z</time>
</trkpt>
<trkpt lat="52.95201841" lon="18.7740724">
<ele>104</ele>
<time>2014-05-18T15:37:42Z</time>
</trkpt>
<trkpt lat="52.95205574" lon="18.77407578">
<ele>106</ele>
<time>2014-05-18T15:37:48Z</time>
</trkpt>
<trkpt lat="52.9520465" lon="18.77405945">
<ele>107</ele>
<time>2014-05-18T15:37:54Z</time>
</trkpt>
<trkpt lat="52.95203999" lon="18.7740663">
<ele>108</ele>
<time>2014-05-18T15:38:00Z</time>
</trkpt>
<trkpt lat="52.95203996" lon="18.7740663">
<ele>108</ele>
<time>2014-05-18T15:38:06Z</time>
</trkpt>
<trkpt lat="52.95203952" lon="18.77406758">
<ele>108</ele>
<time>2014-05-18T15:38:12Z</time>
</trkpt>
<trkpt lat="52.95203697" lon="18.77406878">
<ele>108</ele>
<time>2014-05-18T15:38:18Z</time>
</trkpt>
<trkpt lat="52.95203826" lon="18.77406857">
<ele>108</ele>
<time>2014-05-18T15:38:24Z</time>
</trkpt>
<trkpt lat="52.95203833" lon="18.7740688">
<ele>108</ele>
<time>2014-05-18T15:38:30Z</time>
</trkpt>
<trkpt lat="52.95197964" lon="18.7739744">
<ele>101</ele>
<time>2014-05-18T15:38:36Z</time>
</trkpt>
<trkpt lat="52.95197964" lon="18.7739744">
<ele>101</ele>
<time>2014-05-18T15:38:42Z</time>
</trkpt>
<trkpt lat="52.95156503" lon="18.77362222">
<ele>109</ele>
<time>2014-05-18T15:38:48Z</time>
</trkpt>
<trkpt lat="52.95140304" lon="18.77345872">
<ele>106</ele>
<time>2014-05-18T15:38:54Z</time>
</trkpt>
<trkpt lat="52.95117654" lon="18.77337009">
<ele>96</ele>
<time>2014-05-18T15:39:00Z</time>
</trkpt>
<trkpt lat="52.95083635" lon="18.77313491">
<ele>96</ele>
<time>2014-05-18T15:39:06Z</time>
</trkpt>
<trkpt lat="52.95043565" lon="18.77293245">
<ele>93</ele>
<time>2014-05-18T15:39:12Z</time>
</trkpt>
<trkpt lat="52.95028476" lon="18.77270716">
<ele>88</ele>
<time>2014-05-18T15:39:18Z</time>
</trkpt>
<trkpt lat="52.94996594" lon="18.77252751">
<ele>94</ele>
<time>2014-05-18T15:39:24Z</time>
</trkpt>
<trkpt lat="52.94980713" lon="18.77243706">
<ele>96</ele>
<time>2014-05-18T15:39:30Z</time>
</trkpt>
<trkpt lat="52.94941456" lon="18.77217774">
<ele>119</ele>
<time>2014-05-18T15:39:36Z</time>
</trkpt>
<trkpt lat="52.94936373" lon="18.77210285">
<ele>119</ele>
<time>2014-05-18T15:39:42Z</time>
</trkpt>
<trkpt lat="52.94889251" lon="18.77182906">
<ele>120</ele>
<time>2014-05-18T15:39:48Z</time>
</trkpt>
<trkpt lat="52.94865386" lon="18.77167304">
<ele>117</ele>
<time>2014-05-18T15:39:54Z</time>
</trkpt>
<trkpt lat="52.94824699" lon="18.77136586">
<ele>111</ele>
<time>2014-05-18T15:40:00Z</time>
</trkpt>
<trkpt lat="52.94804661" lon="18.77115594">
<ele>98</ele>
<time>2014-05-18T15:40:06Z</time>
</trkpt>
<trkpt lat="52.94755333" lon="18.77078724">
<ele>87</ele>
<time>2014-05-18T15:40:12Z</time>
</trkpt>
<trkpt lat="52.94747879" lon="18.77072773">
<ele>86</ele>
<time>2014-05-18T15:40:18Z</time>
</trkpt>
<trkpt lat="52.94717175" lon="18.77053893">
<ele>88</ele>
<time>2014-05-18T15:40:24Z</time>
</trkpt>
<trkpt lat="52.94677319" lon="18.77047328">
<ele>76</ele>
<time>2014-05-18T15:40:30Z</time>
</trkpt>
<trkpt lat="52.94669358" lon="18.7704647">
<ele>76</ele>
<time>2014-05-18T15:40:36Z</time>
</trkpt>
<trkpt lat="52.94646398" lon="18.77057846">
<ele>72</ele>
<time>2014-05-18T15:40:42Z</time>
</trkpt>
<trkpt lat="52.94606636" lon="18.77085711">
<ele>70</ele>
<time>2014-05-18T15:40:48Z</time>
</trkpt>
<trkpt lat="52.94596521" lon="18.77090709">
<ele>70</ele>
<time>2014-05-18T15:40:54Z</time>
</trkpt>
<trkpt lat="52.9456827" lon="18.7710341">
<ele>70</ele>
<time>2014-05-18T15:41:00Z</time>
</trkpt>
<trkpt lat="52.94536327" lon="18.77121515">
<ele>72</ele>
<time>2014-05-18T15:41:06Z</time>
</trkpt>
<trkpt lat="52.94522938" lon="18.77132359">
<ele>76</ele>
<time>2014-05-18T15:41:12Z</time>
</trkpt>
<trkpt lat="52.94514601" lon="18.77138829">
<ele>81</ele>
<time>2014-05-18T15:41:18Z</time>
</trkpt>
<trkpt lat="52.94495203" lon="18.7715016">
<ele>82</ele>
<time>2014-05-18T15:41:24Z</time>
</trkpt>
<trkpt lat="52.94492095" lon="18.77157174">
<ele>82</ele>
<time>2014-05-18T15:41:30Z</time>
</trkpt>
<trkpt lat="52.94480348" lon="18.77180556">
<ele>81</ele>
<time>2014-05-18T15:41:36Z</time>
</trkpt>
<trkpt lat="52.94468688" lon="18.77210953">
<ele>78</ele>
<time>2014-05-18T15:41:42Z</time>
</trkpt>
<trkpt lat="52.94445511" lon="18.77239554">
<ele>83</ele>
<time>2014-05-18T15:41:48Z</time>
</trkpt>
<trkpt lat="52.94412731" lon="18.77279933">
<ele>80</ele>
<time>2014-05-18T15:41:54Z</time>
</trkpt>
<trkpt lat="52.94409413" lon="18.77285175">
<ele>80</ele>
<time>2014-05-18T15:42:00Z</time>
</trkpt>
<trkpt lat="52.94394456" lon="18.7733064">
<ele>87</ele>
<time>2014-05-18T15:42:06Z</time>
</trkpt>
<trkpt lat="52.94385612" lon="18.7735234">
<ele>88</ele>
<time>2014-05-18T15:42:12Z</time>
</trkpt>
<trkpt lat="52.94371679" lon="18.77373616">
<ele>82</ele>
<time>2014-05-18T15:42:18Z</time>
</trkpt>
<trkpt lat="52.94346273" lon="18.77428275">
<ele>83</ele>
<time>2014-05-18T15:42:24Z</time>
</trkpt>
<trkpt lat="52.94342195" lon="18.77440065">
<ele>83</ele>
<time>2014-05-18T15:42:30Z</time>
</trkpt>
<trkpt lat="52.94324618" lon="18.77476611">
<ele>82</ele>
<time>2014-05-18T15:42:36Z</time>
</trkpt>
<trkpt lat="52.94314609" lon="18.77484695">
<ele>80</ele>
<time>2014-05-18T15:42:42Z</time>
</trkpt>
<trkpt lat="52.9429471" lon="18.77508705">
<ele>59</ele>
<time>2014-05-18T15:42:48Z</time>
</trkpt>
<trkpt lat="52.94241978" lon="18.7755329">
<ele>63</ele>
<time>2014-05-18T15:42:54Z</time>
</trkpt>
<trkpt lat="52.94217803" lon="18.77567305">
<ele>70</ele>
<time>2014-05-18T15:43:00Z</time>
</trkpt>
<trkpt lat="52.94208902" lon="18.77568598">
<ele>71</ele>
<time>2014-05-18T15:43:06Z</time>
</trkpt>
<trkpt lat="52.94156724" lon="18.77568836">
<ele>66</ele>
<time>2014-05-18T15:43:12Z</time>
</trkpt>
<trkpt lat="52.94148859" lon="18.77570309">
<ele>68</ele>
<time>2014-05-18T15:43:18Z</time>
</trkpt>
<trkpt lat="52.94132478" lon="18.77584339">
<ele>68</ele>
<time>2014-05-18T15:43:24Z</time>
</trkpt>
<trkpt lat="52.94106314" lon="18.77600715">
<ele>74</ele>
<time>2014-05-18T15:43:30Z</time>
</trkpt>
<trkpt lat="52.94093044" lon="18.77621536">
<ele>76</ele>
<time>2014-05-18T15:43:36Z</time>
</trkpt>
<trkpt lat="52.94082441" lon="18.77633436">
<ele>72</ele>
<time>2014-05-18T15:43:42Z</time>
</trkpt>
<trkpt lat="52.94034272" lon="18.7763562">
<ele>77</ele>
<time>2014-05-18T15:43:48Z</time>
</trkpt>
<trkpt lat="52.94005774" lon="18.77618247">
<ele>78</ele>
<time>2014-05-18T15:43:54Z</time>
</trkpt>
<trkpt lat="52.93982622" lon="18.77602236">
<ele>75</ele>
<time>2014-05-18T15:44:00Z</time>
</trkpt>
<trkpt lat="52.93957046" lon="18.77590282">
<ele>73</ele>
<time>2014-05-18T15:44:06Z</time>
</trkpt>
<trkpt lat="52.93951371" lon="18.77583733">
<ele>74</ele>
<time>2014-05-18T15:44:12Z</time>
</trkpt>
<trkpt lat="52.9391542" lon="18.77560884">
<ele>75</ele>
<time>2014-05-18T15:44:18Z</time>
</trkpt>
<trkpt lat="52.9390953" lon="18.7755429">
<ele>74</ele>
<time>2014-05-18T15:44:24Z</time>
</trkpt>
<trkpt lat="52.93895101" lon="18.7753516">
<ele>73</ele>
<time>2014-05-18T15:44:30Z</time>
</trkpt>
<trkpt lat="52.93877626" lon="18.77509699">
<ele>73</ele>
<time>2014-05-18T15:44:36Z</time>
</trkpt>
<trkpt lat="52.9385157" lon="18.77498192">
<ele>68</ele>
<time>2014-05-18T15:44:42Z</time>
</trkpt>
<trkpt lat="52.93847418" lon="18.77494403">
<ele>68</ele>
<time>2014-05-18T15:44:48Z</time>
</trkpt>
<trkpt lat="52.9382517" lon="18.77483029">
<ele>67</ele>
<time>2014-05-18T15:44:54Z</time>
</trkpt>
<trkpt lat="52.93795436" lon="18.77468477">
<ele>68</ele>
<time>2014-05-18T15:45:00Z</time>
</trkpt>
<trkpt lat="52.93767401" lon="18.77455078">
<ele>66</ele>
<time>2014-05-18T15:45:06Z</time>
</trkpt>
<trkpt lat="52.93750566" lon="18.77411068">
<ele>71</ele>
<time>2014-05-18T15:45:12Z</time>
</trkpt>
<trkpt lat="52.93744278" lon="18.77395555">
<ele>74</ele>
<time>2014-05-18T15:45:18Z</time>
</trkpt>
<trkpt lat="52.93738477" lon="18.77391349">
<ele>75</ele>
<time>2014-05-18T15:45:24Z</time>
</trkpt>
<trkpt lat="52.93717198" lon="18.77355937">
<ele>82</ele>
<time>2014-05-18T15:45:30Z</time>
</trkpt>
<trkpt lat="52.93701554" lon="18.77311134">
<ele>81</ele>
<time>2014-05-18T15:45:36Z</time>
</trkpt>
<trkpt lat="52.93697047" lon="18.77299043">
<ele>76</ele>
<time>2014-05-18T15:45:42Z</time>
</trkpt>
<trkpt lat="52.93676424" lon="18.77288959">
<ele>77</ele>
<time>2014-05-18T15:45:48Z</time>
</trkpt>
<trkpt lat="52.93670704" lon="18.77298741">
<ele>79</ele>
<time>2014-05-18T15:45:54Z</time>
</trkpt>
<trkpt lat="52.93657919" lon="18.77270304">
<ele>77</ele>
<time>2014-05-18T15:46:00Z</time>
</trkpt>
<trkpt lat="52.93641952" lon="18.77257702">
<ele>82</ele>
<time>2014-05-18T15:46:06Z</time>
</trkpt>
<trkpt lat="52.93623666" lon="18.77216238">
<ele>87</ele>
<time>2014-05-18T15:46:12Z</time>
</trkpt>
<trkpt lat="52.93618554" lon="18.77215224">
<ele>86</ele>
<time>2014-05-18T15:46:18Z</time>
</trkpt>
<trkpt lat="52.93607778" lon="18.77185013">
<ele>90</ele>
<time>2014-05-18T15:46:24Z</time>
</trkpt>
<trkpt lat="52.93594554" lon="18.77147717">
<ele>89</ele>
<time>2014-05-18T15:46:30Z</time>
</trkpt>
<trkpt lat="52.93568079" lon="18.77108473">
<ele>75</ele>
<time>2014-05-18T15:46:36Z</time>
</trkpt>
<trkpt lat="52.93562417" lon="18.77098857">
<ele>72</ele>
<time>2014-05-18T15:46:42Z</time>
</trkpt>
<trkpt lat="52.93550022" lon="18.77076212">
<ele>71</ele>
<time>2014-05-18T15:46:48Z</time>
</trkpt>
<trkpt lat="52.93528694" lon="18.77025802">
<ele>79</ele>
<time>2014-05-18T15:46:54Z</time>
</trkpt>
<trkpt lat="52.93512403" lon="18.76984093">
<ele>73</ele>
<time>2014-05-18T15:47:00Z</time>
</trkpt>
<trkpt lat="52.93485935" lon="18.76981496">
<ele>73</ele>
<time>2014-05-18T15:47:06Z</time>
</trkpt>
<trkpt lat="52.93478184" lon="18.7697889">
<ele>71</ele>
<time>2014-05-18T15:47:12Z</time>
</trkpt>
<trkpt lat="52.93453937" lon="18.76963714">
<ele>69</ele>
<time>2014-05-18T15:47:18Z</time>
</trkpt>
<trkpt lat="52.93434195" lon="18.76951502">
<ele>67</ele>
<time>2014-05-18T15:47:24Z</time>
</trkpt>
<trkpt lat="52.93420707" lon="18.76935013">
<ele>69</ele>
<time>2014-05-18T15:47:30Z</time>
</trkpt>
<trkpt lat="52.933941" lon="18.76910303">
<ele>72</ele>
<time>2014-05-18T15:47:36Z</time>
</trkpt>
<trkpt lat="52.93385691" lon="18.76905232">
<ele>74</ele>
<time>2014-05-18T15:47:42Z</time>
</trkpt>
<trkpt lat="52.9335811" lon="18.76901238">
<ele>80</ele>
<time>2014-05-18T15:47:48Z</time>
</trkpt>
<trkpt lat="52.93334244" lon="18.76894525">
<ele>80</ele>
<time>2014-05-18T15:47:54Z</time>
</trkpt>
<trkpt lat="52.93296072" lon="18.76890473">
<ele>78</ele>
<time>2014-05-18T15:48:00Z</time>
</trkpt>
<trkpt lat="52.93243137" lon="18.76852138">
<ele>73</ele>
<time>2014-05-18T15:48:06Z</time>
</trkpt>
<trkpt lat="52.9323019" lon="18.76848667">
<ele>71</ele>
<time>2014-05-18T15:48:12Z</time>
</trkpt>
<trkpt lat="52.93183625" lon="18.76824105">
<ele>80</ele>
<time>2014-05-18T15:48:18Z</time>
</trkpt>
<trkpt lat="52.93155722" lon="18.76808874">
<ele>74</ele>
<time>2014-05-18T15:48:24Z</time>
</trkpt>
<trkpt lat="52.93132157" lon="18.76798061">
<ele>76</ele>
<time>2014-05-18T15:48:30Z</time>
</trkpt>
<trkpt lat="52.9310356" lon="18.7677259">
<ele>77</ele>
<time>2014-05-18T15:48:36Z</time>
</trkpt>
<trkpt lat="52.9308953" lon="18.76759464">
<ele>80</ele>
<time>2014-05-18T15:48:42Z</time>
</trkpt>
<trkpt lat="52.93082386" lon="18.7673697">
<ele>79</ele>
<time>2014-05-18T15:48:48Z</time>
</trkpt>
<trkpt lat="52.93085436" lon="18.7671393">
<ele>82</ele>
<time>2014-05-18T15:48:54Z</time>
</trkpt>
<trkpt lat="52.9308788" lon="18.76657901">
<ele>77</ele>
<time>2014-05-18T15:49:00Z</time>
</trkpt>
<trkpt lat="52.93101274" lon="18.76579671">
<ele>65</ele>
<time>2014-05-18T15:49:06Z</time>
</trkpt>
<trkpt lat="52.93102122" lon="18.7656842">
<ele>66</ele>
<time>2014-05-18T15:49:12Z</time>
</trkpt>
<trkpt lat="52.93106647" lon="18.7653429">
<ele>67</ele>
<time>2014-05-18T15:49:18Z</time>
</trkpt>
<trkpt lat="52.93112823" lon="18.76477002">
<ele>63</ele>
<time>2014-05-18T15:49:24Z</time>
</trkpt>
<trkpt lat="52.93110729" lon="18.76451949">
<ele>62</ele>
<time>2014-05-18T15:49:30Z</time>
</trkpt>
<trkpt lat="52.93103306" lon="18.76434503">
<ele>61</ele>
<time>2014-05-18T15:49:36Z</time>
</trkpt>
<trkpt lat="52.9310401" lon="18.76404471">
<ele>61</ele>
<time>2014-05-18T15:49:42Z</time>
</trkpt>
<trkpt lat="52.93109783" lon="18.76359713">
<ele>63</ele>
<time>2014-05-18T15:49:48Z</time>
</trkpt>
<trkpt lat="52.93110605" lon="18.76348499">
<ele>64</ele>
<time>2014-05-18T15:49:54Z</time>
</trkpt>
<trkpt lat="52.93106772" lon="18.76292239">
<ele>67</ele>
<time>2014-05-18T15:50:00Z</time>
</trkpt>
<trkpt lat="52.93105404" lon="18.76271254">
<ele>66</ele>
<time>2014-05-18T15:50:06Z</time>
</trkpt>
<trkpt lat="52.93105697" lon="18.76250874">
<ele>68</ele>
<time>2014-05-18T15:50:12Z</time>
</trkpt>
<trkpt lat="52.93106491" lon="18.76213102">
<ele>66</ele>
<time>2014-05-18T15:50:18Z</time>
</trkpt>
<trkpt lat="52.93104011" lon="18.76178752">
<ele>67</ele>
<time>2014-05-18T15:50:24Z</time>
</trkpt>
<trkpt lat="52.9310225" lon="18.76147414">
<ele>66</ele>
<time>2014-05-18T15:50:30Z</time>
</trkpt>
<trkpt lat="52.93097392" lon="18.76107856">
<ele>70</ele>
<time>2014-05-18T15:50:36Z</time>
</trkpt>
<trkpt lat="52.93091858" lon="18.76089915">
<ele>67</ele>
<time>2014-05-18T15:50:42Z</time>
</trkpt>
<trkpt lat="52.93091242" lon="18.76022807">
<ele>67</ele>
<time>2014-05-18T15:50:48Z</time>
</trkpt>
<trkpt lat="52.9309196" lon="18.76007716">
<ele>66</ele>
<time>2014-05-18T15:50:54Z</time>
</trkpt>
<trkpt lat="52.93092251" lon="18.75958814">
<ele>64</ele>
<time>2014-05-18T15:51:00Z</time>
</trkpt>
<trkpt lat="52.93090875" lon="18.75932484">
<ele>70</ele>
<time>2014-05-18T15:51:06Z</time>
</trkpt>
<trkpt lat="52.93090765" lon="18.75890768">
<ele>74</ele>
<time>2014-05-18T15:51:12Z</time>
</trkpt>
<trkpt lat="52.93094607" lon="18.75827786">
<ele>71</ele>
<time>2014-05-18T15:51:18Z</time>
</trkpt>
<trkpt lat="52.93089398" lon="18.75778922">
<ele>69</ele>
<time>2014-05-18T15:51:24Z</time>
</trkpt>
<trkpt lat="52.93098604" lon="18.75711015">
<ele>71</ele>
<time>2014-05-18T15:51:30Z</time>
</trkpt>
<trkpt lat="52.93100415" lon="18.75695425">
<ele>73</ele>
<time>2014-05-18T15:51:36Z</time>
</trkpt>
<trkpt lat="52.93097" lon="18.7554544">
<ele>65</ele>
<time>2014-05-18T15:51:42Z</time>
</trkpt>
<trkpt lat="52.93103401" lon="18.75511716">
<ele>65</ele>
<time>2014-05-18T15:51:48Z</time>
</trkpt>
<trkpt lat="52.93115175" lon="18.75363538">
<ele>63</ele>
<time>2014-05-18T15:51:54Z</time>
</trkpt>
<trkpt lat="52.9311458" lon="18.75323855">
<ele>62</ele>
<time>2014-05-18T15:52:00Z</time>
</trkpt>
<trkpt lat="52.93117783" lon="18.75285088">
<ele>70</ele>
<time>2014-05-18T15:52:06Z</time>
</trkpt>
<trkpt lat="52.93124509" lon="18.75267966">
<ele>71</ele>
<time>2014-05-18T15:52:12Z</time>
</trkpt>
<trkpt lat="52.93130875" lon="18.75189922">
<ele>72</ele>
<time>2014-05-18T15:52:18Z</time>
</trkpt>
<trkpt lat="52.93133995" lon="18.7516299">
<ele>68</ele>
<time>2014-05-18T15:52:24Z</time>
</trkpt>
<trkpt lat="52.93142024" lon="18.75135346">
<ele>68</ele>
<time>2014-05-18T15:52:30Z</time>
</trkpt>
<trkpt lat="52.93156117" lon="18.75102504">
<ele>67</ele>
<time>2014-05-18T15:52:36Z</time>
</trkpt>
<trkpt lat="52.93174097" lon="18.75068094">
<ele>74</ele>
<time>2014-05-18T15:52:42Z</time>
</trkpt>
<trkpt lat="52.93183869" lon="18.75050994">
<ele>72</ele>
<time>2014-05-18T15:52:48Z</time>
</trkpt>
<trkpt lat="52.9321004" lon="18.75008441">
<ele>63</ele>
<time>2014-05-18T15:52:54Z</time>
</trkpt>
<trkpt lat="52.93217785" lon="18.74996485">
<ele>64</ele>
<time>2014-05-18T15:53:00Z</time>
</trkpt>
<trkpt lat="52.93241473" lon="18.74942949">
<ele>65</ele>
<time>2014-05-18T15:53:06Z</time>
</trkpt>
<trkpt lat="52.93246133" lon="18.7493194">
<ele>65</ele>
<time>2014-05-18T15:53:12Z</time>
</trkpt>
<trkpt lat="52.93260797" lon="18.74902383">
<ele>63</ele>
<time>2014-05-18T15:53:18Z</time>
</trkpt>
<trkpt lat="52.93283342" lon="18.74849349">
<ele>66</ele>
<time>2014-05-18T15:53:24Z</time>
</trkpt>
<trkpt lat="52.93301982" lon="18.74811861">
<ele>65</ele>
<time>2014-05-18T15:53:30Z</time>
</trkpt>
<trkpt lat="52.93303453" lon="18.74785304">
<ele>60</ele>
<time>2014-05-18T15:53:36Z</time>
</trkpt>
<trkpt lat="52.93303453" lon="18.74785304">
<ele>60</ele>
<time>2014-05-18T15:53:42Z</time>
</trkpt>
<trkpt lat="52.93301653" lon="18.74758247">
<ele>58</ele>
<time>2014-05-18T15:53:48Z</time>
</trkpt>
<trkpt lat="52.93292401" lon="18.74736564">
<ele>59</ele>
<time>2014-05-18T15:53:54Z</time>
</trkpt>
<trkpt lat="52.93276324" lon="18.74712945">
<ele>64</ele>
<time>2014-05-18T15:54:00Z</time>
</trkpt>
<trkpt lat="52.93248171" lon="18.74674516">
<ele>69</ele>
<time>2014-05-18T15:54:06Z</time>
</trkpt>
<trkpt lat="52.93235813" lon="18.74652946">
<ele>75</ele>
<time>2014-05-18T15:54:12Z</time>
</trkpt>
<trkpt lat="52.93235813" lon="18.74652946">
<ele>75</ele>
<time>2014-05-18T15:54:18Z</time>
</trkpt>
<trkpt lat="52.93251015" lon="18.74619073">
<ele>74</ele>
<time>2014-05-18T15:54:24Z</time>
</trkpt>
<trkpt lat="52.93251015" lon="18.74619073">
<ele>74</ele>
<time>2014-05-18T15:54:30Z</time>
</trkpt>
<trkpt lat="52.93264682" lon="18.74601314">
<ele>69</ele>
<time>2014-05-18T15:54:36Z</time>
</trkpt>
<trkpt lat="52.93264682" lon="18.74601314">
<ele>69</ele>
<time>2014-05-18T15:54:42Z</time>
</trkpt>
<trkpt lat="52.93264708" lon="18.7460204">
<ele>69</ele>
<time>2014-05-18T15:54:48Z</time>
</trkpt>
<trkpt lat="52.93263716" lon="18.74602947">
<ele>70</ele>
<time>2014-05-18T15:54:54Z</time>
</trkpt>
<trkpt lat="52.93264206" lon="18.74605707">
<ele>69</ele>
<time>2014-05-18T15:55:00Z</time>
</trkpt>
<trkpt lat="52.93264469" lon="18.7460584">
<ele>69</ele>
<time>2014-05-18T15:55:06Z</time>
</trkpt>
<trkpt lat="52.93264465" lon="18.74605838">
<ele>69</ele>
<time>2014-05-18T15:55:12Z</time>
</trkpt>
<trkpt lat="52.93264398" lon="18.74605845">
<ele>70</ele>
<time>2014-05-18T15:55:18Z</time>
</trkpt>
<trkpt lat="52.93264387" lon="18.74605838">
<ele>69</ele>
<time>2014-05-18T15:55:24Z</time>
</trkpt>
<trkpt lat="52.93262281" lon="18.74608643">
<ele>71</ele>
<time>2014-05-18T15:55:30Z</time>
</trkpt>
<trkpt lat="52.93256388" lon="18.74616928">
<ele>70</ele>
<time>2014-05-18T15:55:36Z</time>
</trkpt>
<trkpt lat="52.93232329" lon="18.74631215">
<ele>57</ele>
<time>2014-05-18T15:55:42Z</time>
</trkpt>
<trkpt lat="52.93223996" lon="18.74632593">
<ele>57</ele>
<time>2014-05-18T15:55:48Z</time>
</trkpt>
<trkpt lat="52.93185739" lon="18.74601277">
<ele>63</ele>
<time>2014-05-18T15:55:54Z</time>
</trkpt>
<trkpt lat="52.93160999" lon="18.74579727">
<ele>61</ele>
<time>2014-05-18T15:56:00Z</time>
</trkpt>
<trkpt lat="52.93157672" lon="18.74572964">
<ele>63</ele>
<time>2014-05-18T15:56:06Z</time>
</trkpt>
<trkpt lat="52.93157672" lon="18.74572964">
<ele>63</ele>
<time>2014-05-18T15:56:12Z</time>
</trkpt>
<trkpt lat="52.93154659" lon="18.7455957">
<ele>61</ele>
<time>2014-05-18T15:56:18Z</time>
</trkpt>
<trkpt lat="52.93155903" lon="18.74549062">
<ele>65</ele>
<time>2014-05-18T15:56:24Z</time>
</trkpt>
<trkpt lat="52.93155903" lon="18.74549062">
<ele>65</ele>
<time>2014-05-18T15:56:30Z</time>
</trkpt>
<trkpt lat="52.93161479" lon="18.74533547">
<ele>67</ele>
<time>2014-05-18T15:56:36Z</time>
</trkpt>
<trkpt lat="52.93161479" lon="18.74533547">
<ele>67</ele>
<time>2014-05-18T15:56:42Z</time>
</trkpt>
<trkpt lat="52.93160848" lon="18.74532667">
<ele>67</ele>
<time>2014-05-18T15:56:48Z</time>
</trkpt>
<trkpt lat="52.93160844" lon="18.74533749">
<ele>65</ele>
<time>2014-05-18T15:56:54Z</time>
</trkpt>
<trkpt lat="52.93160577" lon="18.74534077">
<ele>66</ele>
<time>2014-05-18T15:57:00Z</time>
</trkpt>
<trkpt lat="52.93160131" lon="18.74533312">
<ele>68</ele>
<time>2014-05-18T15:57:06Z</time>
</trkpt>
<trkpt lat="52.93154234" lon="18.74536001">
<ele>64</ele>
<time>2014-05-18T15:57:12Z</time>
</trkpt>
<trkpt lat="52.93154234" lon="18.74536001">
<ele>64</ele>
<time>2014-05-18T15:57:18Z</time>
</trkpt>
<trkpt lat="52.93152805" lon="18.74535242">
<ele>65</ele>
<time>2014-05-18T15:57:24Z</time>
</trkpt>
<trkpt lat="52.93152691" lon="18.74534872">
<ele>64</ele>
<time>2014-05-18T15:57:30Z</time>
</trkpt>
<trkpt lat="52.93152763" lon="18.74537516">
<ele>64</ele>
<time>2014-05-18T15:57:36Z</time>
</trkpt>
<trkpt lat="52.93153041" lon="18.74538032">
<ele>64</ele>
<time>2014-05-18T15:57:42Z</time>
</trkpt>
<trkpt lat="52.93155293" lon="18.74537202">
<ele>67</ele>
<time>2014-05-18T15:57:48Z</time>
</trkpt>
<trkpt lat="52.9315628" lon="18.74536593">
<ele>66</ele>
<time>2014-05-18T15:57:54Z</time>
</trkpt>
<trkpt lat="52.93156582" lon="18.74536">
<ele>66</ele>
<time>2014-05-18T15:58:00Z</time>
</trkpt>
<trkpt lat="52.93156004" lon="18.74535508">
<ele>64</ele>
<time>2014-05-18T15:58:06Z</time>
</trkpt>
<trkpt lat="52.93156335" lon="18.74535538">
<ele>64</ele>
<time>2014-05-18T15:58:12Z</time>
</trkpt>
<trkpt lat="52.93156736" lon="18.74535466">
<ele>59</ele>
<time>2014-05-18T15:58:18Z</time>
</trkpt>
<trkpt lat="52.93155313" lon="18.74537287">
<ele>58</ele>
<time>2014-05-18T15:58:24Z</time>
</trkpt>
<trkpt lat="52.93153335" lon="18.74540047">
<ele>60</ele>
<time>2014-05-18T15:58:30Z</time>
</trkpt>
<trkpt lat="52.93152785" lon="18.74539975">
<ele>59</ele>
<time>2014-05-18T15:58:36Z</time>
</trkpt>
<trkpt lat="52.93153597" lon="18.74539258">
<ele>59</ele>
<time>2014-05-18T15:58:42Z</time>
</trkpt>
<trkpt lat="52.93153044" lon="18.74539389">
<ele>58</ele>
<time>2014-05-18T15:58:48Z</time>
</trkpt>
<trkpt lat="52.93153722" lon="18.74538636">
<ele>57</ele>
<time>2014-05-18T15:58:54Z</time>
</trkpt>
<trkpt lat="52.93155535" lon="18.74538299">
<ele>54</ele>
<time>2014-05-18T15:59:00Z</time>
</trkpt>
<trkpt lat="52.93157161" lon="18.74537154">
<ele>52</ele>
<time>2014-05-18T15:59:06Z</time>
</trkpt>
<trkpt lat="52.93159056" lon="18.74535676">
<ele>49</ele>
<time>2014-05-18T15:59:12Z</time>
</trkpt>
<trkpt lat="52.93160299" lon="18.7453651">
<ele>50</ele>
<time>2014-05-18T15:59:18Z</time>
</trkpt>
<trkpt lat="52.93161194" lon="18.74537011">
<ele>50</ele>
<time>2014-05-18T15:59:24Z</time>
</trkpt>
<trkpt lat="52.93160983" lon="18.74536861">
<ele>51</ele>
<time>2014-05-18T15:59:30Z</time>
</trkpt>
<trkpt lat="52.93160758" lon="18.74539308">
<ele>52</ele>
<time>2014-05-18T15:59:36Z</time>
</trkpt>
<trkpt lat="52.93161884" lon="18.74539181">
<ele>52</ele>
<time>2014-05-18T15:59:42Z</time>
</trkpt>
<trkpt lat="52.93161923" lon="18.74539338">
<ele>52</ele>
<time>2014-05-18T15:59:48Z</time>
</trkpt>
<trkpt lat="52.93161881" lon="18.74539426">
<ele>52</ele>
<time>2014-05-18T15:59:54Z</time>
</trkpt>
<trkpt lat="52.93164216" lon="18.74542018">
<ele>56</ele>
<time>2014-05-18T16:00:00Z</time>
</trkpt>
<trkpt lat="52.93167799" lon="18.74542509">
<ele>64</ele>
<time>2014-05-18T16:00:06Z</time>
</trkpt>
<trkpt lat="52.9316762" lon="18.74542394">
<ele>66</ele>
<time>2014-05-18T16:00:12Z</time>
</trkpt>
<trkpt lat="52.93168852" lon="18.74542596">
<ele>63</ele>
<time>2014-05-18T16:00:18Z</time>
</trkpt>
<trkpt lat="52.93169518" lon="18.74541842">
<ele>59</ele>
<time>2014-05-18T16:00:24Z</time>
</trkpt>
<trkpt lat="52.93171423" lon="18.74540038">
<ele>57</ele>
<time>2014-05-18T16:00:30Z</time>
</trkpt>
<trkpt lat="52.93171479" lon="18.7453844">
<ele>58</ele>
<time>2014-05-18T16:00:36Z</time>
</trkpt>
<trkpt lat="52.93171711" lon="18.74538546">
<ele>57</ele>
<time>2014-05-18T16:00:42Z</time>
</trkpt>
<trkpt lat="52.93171731" lon="18.74538381">
<ele>57</ele>
<time>2014-05-18T16:00:48Z</time>
</trkpt>
<trkpt lat="52.9317154" lon="18.74537999">
<ele>57</ele>
<time>2014-05-18T16:00:54Z</time>
</trkpt>
<trkpt lat="52.93171482" lon="18.74537977">
<ele>57</ele>
<time>2014-05-18T16:01:00Z</time>
</trkpt>
<trkpt lat="52.93170111" lon="18.74537422">
<ele>55</ele>
<time>2014-05-18T16:01:06Z</time>
</trkpt>
<trkpt lat="52.93167887" lon="18.74535866">
<ele>54</ele>
<time>2014-05-18T16:01:12Z</time>
</trkpt>
<trkpt lat="52.9316759" lon="18.74535849">
<ele>54</ele>
<time>2014-05-18T16:01:18Z</time>
</trkpt>
<trkpt lat="52.93164832" lon="18.74535435">
<ele>53</ele>
<time>2014-05-18T16:01:24Z</time>
</trkpt>
<trkpt lat="52.93165151" lon="18.74535046">
<ele>54</ele>
<time>2014-05-18T16:01:30Z</time>
</trkpt>
<trkpt lat="52.93163655" lon="18.745357">
<ele>55</ele>
<time>2014-05-18T16:01:36Z</time>
</trkpt>
<trkpt lat="52.93162257" lon="18.74536374">
<ele>55</ele>
<time>2014-05-18T16:01:42Z</time>
</trkpt>
<trkpt lat="52.9316094" lon="18.74536893">
<ele>48</ele>
<time>2014-05-18T16:01:48Z</time>
</trkpt>
<trkpt lat="52.9316074" lon="18.74537323">
<ele>49</ele>
<time>2014-05-18T16:01:54Z</time>
</trkpt>
<trkpt lat="52.93160817" lon="18.74537836">
<ele>50</ele>
<time>2014-05-18T16:02:00Z</time>
</trkpt>
<trkpt lat="52.93160872" lon="18.74535306">
<ele>51</ele>
<time>2014-05-18T16:02:06Z</time>
</trkpt>
<trkpt lat="52.93160853" lon="18.74534993">
<ele>51</ele>
<time>2014-05-18T16:02:12Z</time>
</trkpt>
<trkpt lat="52.93160707" lon="18.74534635">
<ele>49</ele>
<time>2014-05-18T16:02:18Z</time>
</trkpt>
<trkpt lat="52.93159642" lon="18.74532837">
<ele>49</ele>
<time>2014-05-18T16:02:24Z</time>
</trkpt>
<trkpt lat="52.93159261" lon="18.74533646">
<ele>49</ele>
<time>2014-05-18T16:02:30Z</time>
</trkpt>
<trkpt lat="52.93159017" lon="18.74535107">
<ele>49</ele>
<time>2014-05-18T16:02:36Z</time>
</trkpt>
<trkpt lat="52.93156915" lon="18.74534102">
<ele>44</ele>
<time>2014-05-18T16:02:42Z</time>
</trkpt>
<trkpt lat="52.93157005" lon="18.74534579">
<ele>43</ele>
<time>2014-05-18T16:02:48Z</time>
</trkpt>
<trkpt lat="52.93160178" lon="18.7453849">
<ele>45</ele>
<time>2014-05-18T16:02:54Z</time>
</trkpt>
<trkpt lat="52.93159672" lon="18.74539135">
<ele>46</ele>
<time>2014-05-18T16:03:00Z</time>
</trkpt>
<trkpt lat="52.93159412" lon="18.74538779">
<ele>47</ele>
<time>2014-05-18T16:03:06Z</time>
</trkpt>
<trkpt lat="52.93158631" lon="18.74538218">
<ele>47</ele>
<time>2014-05-18T16:03:12Z</time>
</trkpt>
<trkpt lat="52.93158484" lon="18.74538093">
<ele>47</ele>
<time>2014-05-18T16:03:18Z</time>
</trkpt>
<trkpt lat="52.93160222" lon="18.74538514">
<ele>56</ele>
<time>2014-05-18T16:03:24Z</time>
</trkpt>
<trkpt lat="52.93157831" lon="18.74536919">
<ele>57</ele>
<time>2014-05-18T16:03:30Z</time>
</trkpt>
<trkpt lat="52.93157559" lon="18.7453717">
<ele>59</ele>
<time>2014-05-18T16:03:36Z</time>
</trkpt>
<trkpt lat="52.93157981" lon="18.74537971">
<ele>59</ele>
<time>2014-05-18T16:03:42Z</time>
</trkpt>
<trkpt lat="52.93158102" lon="18.74537952">
<ele>59</ele>
<time>2014-05-18T16:03:48Z</time>
</trkpt>
<trkpt lat="52.93158128" lon="18.74537956">
<ele>59</ele>
<time>2014-05-18T16:03:54Z</time>
</trkpt>
<trkpt lat="52.9315813" lon="18.74537955">
<ele>59</ele>
<time>2014-05-18T16:04:00Z</time>
</trkpt>
<trkpt lat="52.93158121" lon="18.74537947">
<ele>59</ele>
<time>2014-05-18T16:04:06Z</time>
</trkpt>
<trkpt lat="52.93157671" lon="18.74537585">
<ele>58</ele>
<time>2014-05-18T16:04:12Z</time>
</trkpt>
<trkpt lat="52.9315611" lon="18.74539438">
<ele>59</ele>
<time>2014-05-18T16:04:18Z</time>
</trkpt>
<trkpt lat="52.93155344" lon="18.74539396">
<ele>60</ele>
<time>2014-05-18T16:04:24Z</time>
</trkpt>
<trkpt lat="52.93155875" lon="18.74538841">
<ele>60</ele>
<time>2014-05-18T16:04:30Z</time>
</trkpt>
<trkpt lat="52.93156358" lon="18.74538907">
<ele>60</ele>
<time>2014-05-18T16:04:36Z</time>
</trkpt>
<trkpt lat="52.93156443" lon="18.74538899">
<ele>60</ele>
<time>2014-05-18T16:04:42Z</time>
</trkpt>
<trkpt lat="52.93156456" lon="18.74538898">
<ele>60</ele>
<time>2014-05-18T16:04:48Z</time>
</trkpt>
<trkpt lat="52.93155252" lon="18.74536069">
<ele>59</ele>
<time>2014-05-18T16:04:54Z</time>
</trkpt>
<trkpt lat="52.93155289" lon="18.74535771">
<ele>61</ele>
<time>2014-05-18T16:05:00Z</time>
</trkpt>
<trkpt lat="52.93153663" lon="18.74536904">
<ele>61</ele>
<time>2014-05-18T16:05:06Z</time>
</trkpt>
<trkpt lat="52.93151396" lon="18.74537076">
<ele>60</ele>
<time>2014-05-18T16:05:12Z</time>
</trkpt>
<trkpt lat="52.93150823" lon="18.74536899">
<ele>61</ele>
<time>2014-05-18T16:05:18Z</time>
</trkpt>
<trkpt lat="52.93150786" lon="18.74536871">
<ele>61</ele>
<time>2014-05-18T16:05:24Z</time>
</trkpt>
<trkpt lat="52.93150709" lon="18.74536819">
<ele>61</ele>
<time>2014-05-18T16:05:30Z</time>
</trkpt>
<trkpt lat="52.93150712" lon="18.74536829">
<ele>61</ele>
<time>2014-05-18T16:05:36Z</time>
</trkpt>
<trkpt lat="52.93150732" lon="18.74536865">
<ele>61</ele>
<time>2014-05-18T16:05:42Z</time>
</trkpt>
<trkpt lat="52.93150762" lon="18.74536872">
<ele>61</ele>
<time>2014-05-18T16:05:48Z</time>
</trkpt>
<trkpt lat="52.93150819" lon="18.74536912">
<ele>61</ele>
<time>2014-05-18T16:05:54Z</time>
</trkpt>
<trkpt lat="52.93150896" lon="18.74536611">
<ele>59</ele>
<time>2014-05-18T16:06:00Z</time>
</trkpt>
<trkpt lat="52.9315037" lon="18.74536682">
<ele>61</ele>
<time>2014-05-18T16:06:06Z</time>
</trkpt>
<trkpt lat="52.9314672" lon="18.74538536">
<ele>61</ele>
<time>2014-05-18T16:06:12Z</time>
</trkpt>
<trkpt lat="52.93145918" lon="18.7453821">
<ele>60</ele>
<time>2014-05-18T16:06:18Z</time>
</trkpt>
<trkpt lat="52.93145778" lon="18.74537563">
<ele>61</ele>
<time>2014-05-18T16:06:24Z</time>
</trkpt>
<trkpt lat="52.93146558" lon="18.74538405">
<ele>63</ele>
<time>2014-05-18T16:06:30Z</time>
</trkpt>
<trkpt lat="52.93146462" lon="18.7453869">
<ele>62</ele>
<time>2014-05-18T16:06:36Z</time>
</trkpt>
<trkpt lat="52.93146596" lon="18.7453883">
<ele>62</ele>
<time>2014-05-18T16:06:42Z</time>
</trkpt>
<trkpt lat="52.93147753" lon="18.74539904">
<ele>63</ele>
<time>2014-05-18T16:06:48Z</time>
</trkpt>
<trkpt lat="52.93147461" lon="18.74540417">
<ele>64</ele>
<time>2014-05-18T16:06:54Z</time>
</trkpt>
<trkpt lat="52.93147979" lon="18.74540071">
<ele>65</ele>
<time>2014-05-18T16:07:00Z</time>
</trkpt>
<trkpt lat="52.93147325" lon="18.74540294">
<ele>64</ele>
<time>2014-05-18T16:07:06Z</time>
</trkpt>
<trkpt lat="52.93149046" lon="18.74540287">
<ele>63</ele>
<time>2014-05-18T16:07:12Z</time>
</trkpt>
<trkpt lat="52.93145666" lon="18.7453965">
<ele>66</ele>
<time>2014-05-18T16:07:18Z</time>
</trkpt>
<trkpt lat="52.9314599" lon="18.74540288">
<ele>67</ele>
<time>2014-05-18T16:07:24Z</time>
</trkpt>
<trkpt lat="52.93144534" lon="18.74539359">
<ele>69</ele>
<time>2014-05-18T16:07:30Z</time>
</trkpt>
<trkpt lat="52.93144507" lon="18.7454123">
<ele>66</ele>
<time>2014-05-18T16:07:36Z</time>
</trkpt>
<trkpt lat="52.93144901" lon="18.74541632">
<ele>65</ele>
<time>2014-05-18T16:07:42Z</time>
</trkpt>
<trkpt lat="52.93145233" lon="18.74541404">
<ele>65</ele>
<time>2014-05-18T16:07:48Z</time>
</trkpt>
<trkpt lat="52.93145558" lon="18.74542159">
<ele>61</ele>
<time>2014-05-18T16:07:54Z</time>
</trkpt>
<trkpt lat="52.93142904" lon="18.74546056">
<ele>60</ele>
<time>2014-05-18T16:08:00Z</time>
</trkpt>
<trkpt lat="52.93142152" lon="18.74546909">
<ele>60</ele>
<time>2014-05-18T16:08:06Z</time>
</trkpt>
<trkpt lat="52.93142238" lon="18.74544254">
<ele>58</ele>
<time>2014-05-18T16:08:12Z</time>
</trkpt>
<trkpt lat="52.93142714" lon="18.74543131">
<ele>58</ele>
<time>2014-05-18T16:08:18Z</time>
</trkpt>
<trkpt lat="52.93142924" lon="18.74542959">
<ele>58</ele>
<time>2014-05-18T16:08:24Z</time>
</trkpt>
<trkpt lat="52.93142952" lon="18.74542928">
<ele>58</ele>
<time>2014-05-18T16:08:30Z</time>
</trkpt>
<trkpt lat="52.93142944" lon="18.74542924">
<ele>58</ele>
<time>2014-05-18T16:08:36Z</time>
</trkpt>
<trkpt lat="52.93141308" lon="18.74543293">
<ele>62</ele>
<time>2014-05-18T16:08:42Z</time>
</trkpt>
<trkpt lat="52.93140926" lon="18.74543333">
<ele>62</ele>
<time>2014-05-18T16:08:48Z</time>
</trkpt>
<trkpt lat="52.93140568" lon="18.74540542">
<ele>67</ele>
<time>2014-05-18T16:08:54Z</time>
</trkpt>
<trkpt lat="52.93141647" lon="18.74541206">
<ele>68</ele>
<time>2014-05-18T16:09:00Z</time>
</trkpt>
<trkpt lat="52.9314201" lon="18.74541345">
<ele>67</ele>
<time>2014-05-18T16:09:06Z</time>
</trkpt>
<trkpt lat="52.93142571" lon="18.74541453">
<ele>67</ele>
<time>2014-05-18T16:09:12Z</time>
</trkpt>
<trkpt lat="52.93142931" lon="18.74541508">
<ele>67</ele>
<time>2014-05-18T16:09:18Z</time>
</trkpt>
<trkpt lat="52.93142931" lon="18.74541509">
<ele>67</ele>
<time>2014-05-18T16:09:24Z</time>
</trkpt>
<trkpt lat="52.9314291" lon="18.7454151">
<ele>67</ele>
<time>2014-05-18T16:09:30Z</time>
</trkpt>
<trkpt lat="52.93142909" lon="18.74541509">
<ele>67</ele>
<time>2014-05-18T16:09:36Z</time>
</trkpt>
<trkpt lat="52.93142854" lon="18.7454143">
<ele>67</ele>
<time>2014-05-18T16:09:42Z</time>
</trkpt>
<trkpt lat="52.93142764" lon="18.74541485">
<ele>67</ele>
<time>2014-05-18T16:09:48Z</time>
</trkpt>
<trkpt lat="52.93142735" lon="18.74541527">
<ele>67</ele>
<time>2014-05-18T16:09:54Z</time>
</trkpt>
<trkpt lat="52.93142733" lon="18.74541535">
<ele>67</ele>
<time>2014-05-18T16:10:00Z</time>
</trkpt>
<trkpt lat="52.93142742" lon="18.74541548">
<ele>67</ele>
<time>2014-05-18T16:10:06Z</time>
</trkpt>
<trkpt lat="52.93141373" lon="18.74542103">
<ele>64</ele>
<time>2014-05-18T16:10:12Z</time>
</trkpt>
<trkpt lat="52.93143048" lon="18.74542847">
<ele>64</ele>
<time>2014-05-18T16:10:18Z</time>
</trkpt>
<trkpt lat="52.93144776" lon="18.74542976">
<ele>65</ele>
<time>2014-05-18T16:10:24Z</time>
</trkpt>
<trkpt lat="52.93145655" lon="18.74543639">
<ele>66</ele>
<time>2014-05-18T16:10:30Z</time>
</trkpt>
<trkpt lat="52.93145384" lon="18.74543851">
<ele>66</ele>
<time>2014-05-18T16:10:36Z</time>
</trkpt>
<trkpt lat="52.93145214" lon="18.74544115">
<ele>66</ele>
<time>2014-05-18T16:10:42Z</time>
</trkpt>
<trkpt lat="52.93145669" lon="18.7454421">
<ele>67</ele>
<time>2014-05-18T16:10:48Z</time>
</trkpt>
<trkpt lat="52.93145676" lon="18.74544217">
<ele>67</ele>
<time>2014-05-18T16:10:54Z</time>
</trkpt>
<trkpt lat="52.93145787" lon="18.74543977">
<ele>66</ele>
<time>2014-05-18T16:11:00Z</time>
</trkpt>
<trkpt lat="52.93145807" lon="18.74543955">
<ele>66</ele>
<time>2014-05-18T16:11:06Z</time>
</trkpt>
<trkpt lat="52.93145746" lon="18.7454368">
<ele>66</ele>
<time>2014-05-18T16:11:12Z</time>
</trkpt>
<trkpt lat="52.93145925" lon="18.74543781">
<ele>66</ele>
<time>2014-05-18T16:11:18Z</time>
</trkpt>
<trkpt lat="52.93145957" lon="18.74543808">
<ele>66</ele>
<time>2014-05-18T16:11:24Z</time>
</trkpt>
<trkpt lat="52.93145954" lon="18.74543805">
<ele>66</ele>
<time>2014-05-18T16:11:30Z</time>
</trkpt>
<trkpt lat="52.93145953" lon="18.74543804">
<ele>66</ele>
<time>2014-05-18T16:11:36Z</time>
</trkpt>
<trkpt lat="52.93145956" lon="18.74543798">
<ele>66</ele>
<time>2014-05-18T16:11:42Z</time>
</trkpt>
<trkpt lat="52.93145956" lon="18.74543795">
<ele>66</ele>
<time>2014-05-18T16:11:48Z</time>
</trkpt>
<trkpt lat="52.93145958" lon="18.74543793">
<ele>66</ele>
<time>2014-05-18T16:11:54Z</time>
</trkpt>
<trkpt lat="52.93146037" lon="18.74543824">
<ele>66</ele>
<time>2014-05-18T16:12:00Z</time>
</trkpt>
<trkpt lat="52.93146085" lon="18.74543818">
<ele>66</ele>
<time>2014-05-18T16:12:06Z</time>
</trkpt>
<trkpt lat="52.93146528" lon="18.74542779">
<ele>68</ele>
<time>2014-05-18T16:12:12Z</time>
</trkpt>
<trkpt lat="52.93146472" lon="18.7454227">
<ele>67</ele>
<time>2014-05-18T16:12:18Z</time>
</trkpt>
<trkpt lat="52.93146657" lon="18.7454374">
<ele>68</ele>
<time>2014-05-18T16:12:24Z</time>
</trkpt>
<trkpt lat="52.93146648" lon="18.74544198">
<ele>67</ele>
<time>2014-05-18T16:12:30Z</time>
</trkpt>
<trkpt lat="52.93148574" lon="18.74543232">
<ele>68</ele>
<time>2014-05-18T16:12:36Z</time>
</trkpt>
<trkpt lat="52.93148505" lon="18.74543147">
<ele>68</ele>
<time>2014-05-18T16:12:42Z</time>
</trkpt>
<trkpt lat="52.93148492" lon="18.74543107">
<ele>68</ele>
<time>2014-05-18T16:12:48Z</time>
</trkpt>
<trkpt lat="52.93148502" lon="18.74542905">
<ele>68</ele>
<time>2014-05-18T16:12:54Z</time>
</trkpt>
<trkpt lat="52.93148556" lon="18.74542902">
<ele>68</ele>
<time>2014-05-18T16:13:00Z</time>
</trkpt>
<trkpt lat="52.93148592" lon="18.74542909">
<ele>68</ele>
<time>2014-05-18T16:13:06Z</time>
</trkpt>
<trkpt lat="52.931486" lon="18.74542906">
<ele>68</ele>
<time>2014-05-18T16:13:12Z</time>
</trkpt>
<trkpt lat="52.93148596" lon="18.745429">
<ele>68</ele>
<time>2014-05-18T16:13:18Z</time>
</trkpt>
<trkpt lat="52.93148655" lon="18.74542878">
<ele>68</ele>
<time>2014-05-18T16:13:24Z</time>
</trkpt>
<trkpt lat="52.93149082" lon="18.74543176">
<ele>68</ele>
<time>2014-05-18T16:13:30Z</time>
</trkpt>
<trkpt lat="52.93150022" lon="18.74542442">
<ele>66</ele>
<time>2014-05-18T16:13:36Z</time>
</trkpt>
<trkpt lat="52.93150062" lon="18.74541449">
<ele>67</ele>
<time>2014-05-18T16:13:42Z</time>
</trkpt>
<trkpt lat="52.93148865" lon="18.74542238">
<ele>69</ele>
<time>2014-05-18T16:13:48Z</time>
</trkpt>
<trkpt lat="52.93148865" lon="18.74542272">
<ele>69</ele>
<time>2014-05-18T16:13:54Z</time>
</trkpt>
<trkpt lat="52.9314889" lon="18.74542218">
<ele>70</ele>
<time>2014-05-18T16:14:00Z</time>
</trkpt>
<trkpt lat="52.93152348" lon="18.74538087">
<ele>71</ele>
<time>2014-05-18T16:14:06Z</time>
</trkpt>
<trkpt lat="52.93153273" lon="18.74537018">
<ele>71</ele>
<time>2014-05-18T16:14:12Z</time>
</trkpt>
<trkpt lat="52.93153621" lon="18.74537243">
<ele>73</ele>
<time>2014-05-18T16:14:18Z</time>
</trkpt>
<trkpt lat="52.93154985" lon="18.74538212">
<ele>72</ele>
<time>2014-05-18T16:14:24Z</time>
</trkpt>
<trkpt lat="52.93155075" lon="18.74538237">
<ele>72</ele>
<time>2014-05-18T16:14:30Z</time>
</trkpt>
<trkpt lat="52.93153911" lon="18.74540475">
<ele>70</ele>
<time>2014-05-18T16:14:36Z</time>
</trkpt>
<trkpt lat="52.93154508" lon="18.74541138">
<ele>70</ele>
<time>2014-05-18T16:14:42Z</time>
</trkpt>
<trkpt lat="52.93156319" lon="18.74542208">
<ele>66</ele>
<time>2014-05-18T16:14:48Z</time>
</trkpt>
<trkpt lat="52.93156321" lon="18.74542356">
<ele>66</ele>
<time>2014-05-18T16:14:54Z</time>
</trkpt>
<trkpt lat="52.93156012" lon="18.74541997">
<ele>65</ele>
<time>2014-05-18T16:15:00Z</time>
</trkpt>
<trkpt lat="52.93156158" lon="18.74541959">
<ele>65</ele>
<time>2014-05-18T16:15:06Z</time>
</trkpt>
<trkpt lat="52.93156232" lon="18.74541896">
<ele>65</ele>
<time>2014-05-18T16:15:12Z</time>
</trkpt>
<trkpt lat="52.93156211" lon="18.74541892">
<ele>65</ele>
<time>2014-05-18T16:15:18Z</time>
</trkpt>
<trkpt lat="52.93156557" lon="18.74542491">
<ele>62</ele>
<time>2014-05-18T16:15:24Z</time>
</trkpt>
<trkpt lat="52.93155776" lon="18.74544673">
<ele>66</ele>
<time>2014-05-18T16:15:30Z</time>
</trkpt>
<trkpt lat="52.93156631" lon="18.74545746">
<ele>65</ele>
<time>2014-05-18T16:15:36Z</time>
</trkpt>
<trkpt lat="52.93156632" lon="18.74545702">
<ele>65</ele>
<time>2014-05-18T16:15:42Z</time>
</trkpt>
<trkpt lat="52.93156431" lon="18.74545604">
<ele>65</ele>
<time>2014-05-18T16:15:48Z</time>
</trkpt>
<trkpt lat="52.93156467" lon="18.74545576">
<ele>65</ele>
<time>2014-05-18T16:15:54Z</time>
</trkpt>
<trkpt lat="52.93156511" lon="18.74545567">
<ele>65</ele>
<time>2014-05-18T16:16:00Z</time>
</trkpt>
<trkpt lat="52.93156732" lon="18.74545578">
<ele>65</ele>
<time>2014-05-18T16:16:06Z</time>
</trkpt>
<trkpt lat="52.93156791" lon="18.7454557">
<ele>65</ele>
<time>2014-05-18T16:16:12Z</time>
</trkpt>
<trkpt lat="52.93156827" lon="18.74545578">
<ele>65</ele>
<time>2014-05-18T16:16:18Z</time>
</trkpt>
<trkpt lat="52.93156819" lon="18.74545571">
<ele>65</ele>
<time>2014-05-18T16:16:24Z</time>
</trkpt>
<trkpt lat="52.93156829" lon="18.74545565">
<ele>65</ele>
<time>2014-05-18T16:16:30Z</time>
</trkpt>
<trkpt lat="52.93156832" lon="18.74545564">
<ele>65</ele>
<time>2014-05-18T16:16:36Z</time>
</trkpt>
<trkpt lat="52.9315681" lon="18.7454556">
<ele>65</ele>
<time>2014-05-18T16:16:42Z</time>
</trkpt>
<trkpt lat="52.93156799" lon="18.74545562">
<ele>65</ele>
<time>2014-05-18T16:16:48Z</time>
</trkpt>
<trkpt lat="52.93156772" lon="18.74545551">
<ele>65</ele>
<time>2014-05-18T16:16:54Z</time>
</trkpt>
<trkpt lat="52.9315678" lon="18.74545558">
<ele>65</ele>
<time>2014-05-18T16:17:00Z</time>
</trkpt>
<trkpt lat="52.93156779" lon="18.74545558">
<ele>65</ele>
<time>2014-05-18T16:17:06Z</time>
</trkpt>
<trkpt lat="52.93156782" lon="18.7454556">
<ele>65</ele>
<time>2014-05-18T16:17:12Z</time>
</trkpt>
<trkpt lat="52.93156752" lon="18.74545519">
<ele>65</ele>
<time>2014-05-18T16:17:18Z</time>
</trkpt>
<trkpt lat="52.9315674" lon="18.74545508">
<ele>65</ele>
<time>2014-05-18T16:17:24Z</time>
</trkpt>
<trkpt lat="52.93156733" lon="18.74545478">
<ele>65</ele>
<time>2014-05-18T16:17:30Z</time>
</trkpt>
<trkpt lat="52.93156747" lon="18.74545469">
<ele>65</ele>
<time>2014-05-18T16:17:36Z</time>
</trkpt>
<trkpt lat="52.93156766" lon="18.74545461">
<ele>65</ele>
<time>2014-05-18T16:17:42Z</time>
</trkpt>
<trkpt lat="52.93156771" lon="18.74545457">
<ele>65</ele>
<time>2014-05-18T16:17:48Z</time>
</trkpt>
<trkpt lat="52.931568" lon="18.74545452">
<ele>65</ele>
<time>2014-05-18T16:17:54Z</time>
</trkpt>
<trkpt lat="52.93156802" lon="18.74545454">
<ele>65</ele>
<time>2014-05-18T16:18:00Z</time>
</trkpt>
<trkpt lat="52.93156819" lon="18.74545434">
<ele>65</ele>
<time>2014-05-18T16:18:06Z</time>
</trkpt>
<trkpt lat="52.93156819" lon="18.74545425">
<ele>65</ele>
<time>2014-05-18T16:18:12Z</time>
</trkpt>
<trkpt lat="52.93156823" lon="18.74545426">
<ele>65</ele>
<time>2014-05-18T16:18:18Z</time>
</trkpt>
<trkpt lat="52.93156838" lon="18.74545379">
<ele>65</ele>
<time>2014-05-18T16:18:24Z</time>
</trkpt>
<trkpt lat="52.9315684" lon="18.74545367">
<ele>65</ele>
<time>2014-05-18T16:18:30Z</time>
</trkpt>
<trkpt lat="52.93156834" lon="18.74545365">
<ele>65</ele>
<time>2014-05-18T16:18:36Z</time>
</trkpt>
<trkpt lat="52.93156798" lon="18.74545342">
<ele>65</ele>
<time>2014-05-18T16:18:42Z</time>
</trkpt>
<trkpt lat="52.93156764" lon="18.74545325">
<ele>65</ele>
<time>2014-05-18T16:18:48Z</time>
</trkpt>
<trkpt lat="52.93156755" lon="18.74545321">
<ele>65</ele>
<time>2014-05-18T16:18:54Z</time>
</trkpt>
<trkpt lat="52.93156746" lon="18.74545306">
<ele>65</ele>
<time>2014-05-18T16:19:00Z</time>
</trkpt>
<trkpt lat="52.93156721" lon="18.74545298">
<ele>65</ele>
<time>2014-05-18T16:19:06Z</time>
</trkpt>
<trkpt lat="52.93156712" lon="18.745453">
<ele>65</ele>
<time>2014-05-18T16:19:12Z</time>
</trkpt>
<trkpt lat="52.93156685" lon="18.74545299">
<ele>65</ele>
<time>2014-05-18T16:19:18Z</time>
</trkpt>
<trkpt lat="52.93156671" lon="18.74545301">
<ele>65</ele>
<time>2014-05-18T16:19:24Z</time>
</trkpt>
<trkpt lat="52.93156672" lon="18.74545303">
<ele>65</ele>
<time>2014-05-18T16:19:30Z</time>
</trkpt>
<trkpt lat="52.9315666" lon="18.74545304">
<ele>65</ele>
<time>2014-05-18T16:19:36Z</time>
</trkpt>
<trkpt lat="52.93156665" lon="18.74545301">
<ele>65</ele>
<time>2014-05-18T16:19:42Z</time>
</trkpt>
<trkpt lat="52.9315661" lon="18.74545299">
<ele>65</ele>
<time>2014-05-18T16:19:48Z</time>
</trkpt>
<trkpt lat="52.93156543" lon="18.74545303">
<ele>65</ele>
<time>2014-05-18T16:19:54Z</time>
</trkpt>
<trkpt lat="52.93156512" lon="18.74545299">
<ele>65</ele>
<time>2014-05-18T16:20:00Z</time>
</trkpt>
<trkpt lat="52.93154926" lon="18.74546215">
<ele>61</ele>
<time>2014-05-18T16:20:06Z</time>
</trkpt>
<trkpt lat="52.93154079" lon="18.74545274">
<ele>59</ele>
<time>2014-05-18T16:20:12Z</time>
</trkpt>
<trkpt lat="52.93154285" lon="18.74545128">
<ele>55</ele>
<time>2014-05-18T16:20:18Z</time>
</trkpt>
<trkpt lat="52.93154307" lon="18.7454426">
<ele>54</ele>
<time>2014-05-18T16:20:24Z</time>
</trkpt>
<trkpt lat="52.9315421" lon="18.74543823">
<ele>53</ele>
<time>2014-05-18T16:20:30Z</time>
</trkpt>
<trkpt lat="52.93154058" lon="18.74541527">
<ele>51</ele>
<time>2014-05-18T16:20:36Z</time>
</trkpt>
<trkpt lat="52.93154247" lon="18.74539951">
<ele>51</ele>
<time>2014-05-18T16:20:42Z</time>
</trkpt>
<trkpt lat="52.93155794" lon="18.74537203">
<ele>50</ele>
<time>2014-05-18T16:20:48Z</time>
</trkpt>
<trkpt lat="52.93155942" lon="18.74537157">
<ele>51</ele>
<time>2014-05-18T16:20:54Z</time>
</trkpt>
<trkpt lat="52.93155984" lon="18.74537103">
<ele>51</ele>
<time>2014-05-18T16:21:00Z</time>
</trkpt>
<trkpt lat="52.93155951" lon="18.74537068">
<ele>51</ele>
<time>2014-05-18T16:21:06Z</time>
</trkpt>
<trkpt lat="52.93155831" lon="18.74537128">
<ele>51</ele>
<time>2014-05-18T16:21:12Z</time>
</trkpt>
<trkpt lat="52.9315595" lon="18.74537131">
<ele>51</ele>
<time>2014-05-18T16:21:18Z</time>
</trkpt>
<trkpt lat="52.93157524" lon="18.74535936">
<ele>56</ele>
<time>2014-05-18T16:21:24Z</time>
</trkpt>
<trkpt lat="52.93156457" lon="18.7453429">
<ele>57</ele>
<time>2014-05-18T16:21:30Z</time>
</trkpt>
<trkpt lat="52.93155715" lon="18.74536912">
<ele>56</ele>
<time>2014-05-18T16:21:36Z</time>
</trkpt>
<trkpt lat="52.93153105" lon="18.74541054">
<ele>57</ele>
<time>2014-05-18T16:21:42Z</time>
</trkpt>
<trkpt lat="52.93153226" lon="18.74541043">
<ele>57</ele>
<time>2014-05-18T16:21:48Z</time>
</trkpt>
<trkpt lat="52.93153175" lon="18.74541094">
<ele>57</ele>
<time>2014-05-18T16:21:54Z</time>
</trkpt>
<trkpt lat="52.93153185" lon="18.74541088">
<ele>57</ele>
<time>2014-05-18T16:22:00Z</time>
</trkpt>
<trkpt lat="52.93153256" lon="18.74541064">
<ele>57</ele>
<time>2014-05-18T16:22:06Z</time>
</trkpt>
<trkpt lat="52.93153581" lon="18.74540676">
<ele>57</ele>
<time>2014-05-18T16:22:12Z</time>
</trkpt>
<trkpt lat="52.9315361" lon="18.74540618">
<ele>57</ele>
<time>2014-05-18T16:22:18Z</time>
</trkpt>
<trkpt lat="52.93153596" lon="18.74540627">
<ele>57</ele>
<time>2014-05-18T16:22:24Z</time>
</trkpt>
<trkpt lat="52.93153632" lon="18.74540607">
<ele>56</ele>
<time>2014-05-18T16:22:30Z</time>
</trkpt>
<trkpt lat="52.93154752" lon="18.74540051">
<ele>52</ele>
<time>2014-05-18T16:22:36Z</time>
</trkpt>
<trkpt lat="52.93154895" lon="18.74539431">
<ele>52</ele>
<time>2014-05-18T16:22:42Z</time>
</trkpt>
<trkpt lat="52.93155635" lon="18.74538424">
<ele>52</ele>
<time>2014-05-18T16:22:48Z</time>
</trkpt>
<trkpt lat="52.9315577" lon="18.74537444">
<ele>54</ele>
<time>2014-05-18T16:22:54Z</time>
</trkpt>
<trkpt lat="52.9315565" lon="18.74536962">
<ele>54</ele>
<time>2014-05-18T16:23:00Z</time>
</trkpt>
<trkpt lat="52.93155599" lon="18.74536823">
<ele>54</ele>
<time>2014-05-18T16:23:06Z</time>
</trkpt>
<trkpt lat="52.93155522" lon="18.74536625">
<ele>54</ele>
<time>2014-05-18T16:23:12Z</time>
</trkpt>
<trkpt lat="52.93156539" lon="18.74537841">
<ele>49</ele>
<time>2014-05-18T16:23:18Z</time>
</trkpt>
<trkpt lat="52.93156216" lon="18.74537989">
<ele>49</ele>
<time>2014-05-18T16:23:24Z</time>
</trkpt>
<trkpt lat="52.93155898" lon="18.74539694">
<ele>49</ele>
<time>2014-05-18T16:23:30Z</time>
</trkpt>
<trkpt lat="52.93155634" lon="18.74540184">
<ele>50</ele>
<time>2014-05-18T16:23:36Z</time>
</trkpt>
<trkpt lat="52.93155457" lon="18.74539356">
<ele>50</ele>
<time>2014-05-18T16:23:42Z</time>
</trkpt>
<trkpt lat="52.93155426" lon="18.74539278">
<ele>50</ele>
<time>2014-05-18T16:23:48Z</time>
</trkpt>
<trkpt lat="52.9315571" lon="18.74540729">
<ele>51</ele>
<time>2014-05-18T16:23:54Z</time>
</trkpt>
<trkpt lat="52.93157241" lon="18.74539604">
<ele>52</ele>
<time>2014-05-18T16:24:00Z</time>
</trkpt>
<trkpt lat="52.9315772" lon="18.74538713">
<ele>52</ele>
<time>2014-05-18T16:24:06Z</time>
</trkpt>
<trkpt lat="52.93154205" lon="18.74541811">
<ele>61</ele>
<time>2014-05-18T16:24:12Z</time>
</trkpt>
<trkpt lat="52.93154581" lon="18.74542532">
<ele>58</ele>
<time>2014-05-18T16:24:18Z</time>
</trkpt>
<trkpt lat="52.93154762" lon="18.74543043">
<ele>57</ele>
<time>2014-05-18T16:24:24Z</time>
</trkpt>
<trkpt lat="52.9315467" lon="18.74544793">
<ele>56</ele>
<time>2014-05-18T16:24:30Z</time>
</trkpt>
<trkpt lat="52.93158936" lon="18.74542762">
<ele>57</ele>
<time>2014-05-18T16:24:36Z</time>
</trkpt>
<trkpt lat="52.93158569" lon="18.74542477">
<ele>57</ele>
<time>2014-05-18T16:24:42Z</time>
</trkpt>
<trkpt lat="52.93158234" lon="18.74542195">
<ele>58</ele>
<time>2014-05-18T16:24:48Z</time>
</trkpt>
<trkpt lat="52.93158259" lon="18.7454223">
<ele>58</ele>
<time>2014-05-18T16:24:54Z</time>
</trkpt>
<trkpt lat="52.93158275" lon="18.74542266">
<ele>58</ele>
<time>2014-05-18T16:25:00Z</time>
</trkpt>
<trkpt lat="52.93158292" lon="18.74542245">
<ele>58</ele>
<time>2014-05-18T16:25:06Z</time>
</trkpt>
<trkpt lat="52.93158363" lon="18.7454225">
<ele>58</ele>
<time>2014-05-18T16:25:12Z</time>
</trkpt>
<trkpt lat="52.93158414" lon="18.74542236">
<ele>58</ele>
<time>2014-05-18T16:25:18Z</time>
</trkpt>
<trkpt lat="52.93158459" lon="18.74542215">
<ele>58</ele>
<time>2014-05-18T16:25:24Z</time>
</trkpt>
<trkpt lat="52.93158201" lon="18.74542226">
<ele>58</ele>
<time>2014-05-18T16:25:30Z</time>
</trkpt>
<trkpt lat="52.93158256" lon="18.74542214">
<ele>58</ele>
<time>2014-05-18T16:25:36Z</time>
</trkpt>
<trkpt lat="52.93158317" lon="18.74542198">
<ele>58</ele>
<time>2014-05-18T16:25:42Z</time>
</trkpt>
<trkpt lat="52.9315828" lon="18.74542184">
<ele>58</ele>
<time>2014-05-18T16:25:48Z</time>
</trkpt>
<trkpt lat="52.9315824" lon="18.74542178">
<ele>58</ele>
<time>2014-05-18T16:25:54Z</time>
</trkpt>
<trkpt lat="52.93158153" lon="18.74542166">
<ele>58</ele>
<time>2014-05-18T16:26:00Z</time>
</trkpt>
<trkpt lat="52.93158157" lon="18.74542149">
<ele>58</ele>
<time>2014-05-18T16:26:06Z</time>
</trkpt>
<trkpt lat="52.93158122" lon="18.74542128">
<ele>58</ele>
<time>2014-05-18T16:26:12Z</time>
</trkpt>
<trkpt lat="52.93158091" lon="18.74542117">
<ele>58</ele>
<time>2014-05-18T16:26:18Z</time>
</trkpt>
<trkpt lat="52.93158057" lon="18.74542087">
<ele>58</ele>
<time>2014-05-18T16:26:24Z</time>
</trkpt>
<trkpt lat="52.93158046" lon="18.74542084">
<ele>58</ele>
<time>2014-05-18T16:26:30Z</time>
</trkpt>
<trkpt lat="52.93157943" lon="18.7454206">
<ele>58</ele>
<time>2014-05-18T16:26:36Z</time>
</trkpt>
<trkpt lat="52.93157867" lon="18.74542044">
<ele>58</ele>
<time>2014-05-18T16:26:42Z</time>
</trkpt>
<trkpt lat="52.93157851" lon="18.74542036">
<ele>58</ele>
<time>2014-05-18T16:26:48Z</time>
</trkpt>
<trkpt lat="52.93157854" lon="18.74542031">
<ele>58</ele>
<time>2014-05-18T16:26:54Z</time>
</trkpt>
<trkpt lat="52.93157817" lon="18.74542017">
<ele>58</ele>
<time>2014-05-18T16:27:00Z</time>
</trkpt>
<trkpt lat="52.93157808" lon="18.74542021">
<ele>58</ele>
<time>2014-05-18T16:27:06Z</time>
</trkpt>
<trkpt lat="52.93158848" lon="18.74538441">
<ele>56</ele>
<time>2014-05-18T16:27:12Z</time>
</trkpt>
<trkpt lat="52.93158935" lon="18.74538077">
<ele>56</ele>
<time>2014-05-18T16:27:18Z</time>
</trkpt>
<trkpt lat="52.93158974" lon="18.74537736">
<ele>57</ele>
<time>2014-05-18T16:27:24Z</time>
</trkpt>
<trkpt lat="52.9315897" lon="18.74537672">
<ele>57</ele>
<time>2014-05-18T16:27:30Z</time>
</trkpt>
<trkpt lat="52.93158978" lon="18.74537644">
<ele>57</ele>
<time>2014-05-18T16:27:36Z</time>
</trkpt>
<trkpt lat="52.93158454" lon="18.74537122">
<ele>55</ele>
<time>2014-05-18T16:27:42Z</time>
</trkpt>
<trkpt lat="52.93158619" lon="18.74536159">
<ele>55</ele>
<time>2014-05-18T16:27:48Z</time>
</trkpt>
<trkpt lat="52.93159707" lon="18.74534535">
<ele>57</ele>
<time>2014-05-18T16:27:54Z</time>
</trkpt>
<trkpt lat="52.93160204" lon="18.74535856">
<ele>57</ele>
<time>2014-05-18T16:28:00Z</time>
</trkpt>
<trkpt lat="52.93159977" lon="18.74540492">
<ele>53</ele>
<time>2014-05-18T16:28:06Z</time>
</trkpt>
<trkpt lat="52.93159977" lon="18.74540492">
<ele>53</ele>
<time>2014-05-18T16:28:12Z</time>
</trkpt>
<trkpt lat="52.93159756" lon="18.74537804">
<ele>52</ele>
<time>2014-05-18T16:28:18Z</time>
</trkpt>
<trkpt lat="52.93159348" lon="18.74537929">
<ele>52</ele>
<time>2014-05-18T16:28:24Z</time>
</trkpt>
<trkpt lat="52.93158964" lon="18.74538166">
<ele>52</ele>
<time>2014-05-18T16:28:30Z</time>
</trkpt>
<trkpt lat="52.93158966" lon="18.74538177">
<ele>52</ele>
<time>2014-05-18T16:28:36Z</time>
</trkpt>
<trkpt lat="52.93158305" lon="18.745381">
<ele>52</ele>
<time>2014-05-18T16:28:42Z</time>
</trkpt>
<trkpt lat="52.93158297" lon="18.74538099">
<ele>52</ele>
<time>2014-05-18T16:28:48Z</time>
</trkpt>
<trkpt lat="52.93158292" lon="18.74538103">
<ele>52</ele>
<time>2014-05-18T16:28:54Z</time>
</trkpt>
<trkpt lat="52.93158594" lon="18.74538004">
<ele>52</ele>
<time>2014-05-18T16:29:00Z</time>
</trkpt>
<trkpt lat="52.93158619" lon="18.74537994">
<ele>52</ele>
<time>2014-05-18T16:29:06Z</time>
</trkpt>
<trkpt lat="52.93158612" lon="18.74538018">
<ele>52</ele>
<time>2014-05-18T16:29:12Z</time>
</trkpt>
<trkpt lat="52.93158902" lon="18.74538884">
<ele>53</ele>
<time>2014-05-18T16:29:18Z</time>
</trkpt>
<trkpt lat="52.93157842" lon="18.74539775">
<ele>52</ele>
<time>2014-05-18T16:29:24Z</time>
</trkpt>
<trkpt lat="52.9315705" lon="18.74541271">
<ele>53</ele>
<time>2014-05-18T16:29:30Z</time>
</trkpt>
<trkpt lat="52.93156978" lon="18.74542393">
<ele>52</ele>
<time>2014-05-18T16:29:36Z</time>
</trkpt>
<trkpt lat="52.93156714" lon="18.74542801">
<ele>53</ele>
<time>2014-05-18T16:29:42Z</time>
</trkpt>
<trkpt lat="52.93156702" lon="18.7454283">
<ele>53</ele>
<time>2014-05-18T16:29:48Z</time>
</trkpt>
<trkpt lat="52.93157851" lon="18.74539091">
<ele>50</ele>
<time>2014-05-18T16:29:54Z</time>
</trkpt>
<trkpt lat="52.93158967" lon="18.74538737">
<ele>50</ele>
<time>2014-05-18T16:30:00Z</time>
</trkpt>
<trkpt lat="52.93160042" lon="18.74538601">
<ele>50</ele>
<time>2014-05-18T16:30:06Z</time>
</trkpt>
<trkpt lat="52.93160583" lon="18.74539244">
<ele>50</ele>
<time>2014-05-18T16:30:12Z</time>
</trkpt>
<trkpt lat="52.93159536" lon="18.74538964">
<ele>46</ele>
<time>2014-05-18T16:30:18Z</time>
</trkpt>
<trkpt lat="52.93156044" lon="18.74539959">
<ele>45</ele>
<time>2014-05-18T16:30:24Z</time>
</trkpt>
<trkpt lat="52.93156608" lon="18.74539145">
<ele>46</ele>
<time>2014-05-18T16:30:30Z</time>
</trkpt>
<trkpt lat="52.93155229" lon="18.74536166">
<ele>52</ele>
<time>2014-05-18T16:30:36Z</time>
</trkpt>
<trkpt lat="52.93155141" lon="18.74535853">
<ele>52</ele>
<time>2014-05-18T16:30:42Z</time>
</trkpt>
<trkpt lat="52.93155111" lon="18.74535816">
<ele>52</ele>
<time>2014-05-18T16:30:48Z</time>
</trkpt>
<trkpt lat="52.93155094" lon="18.74535803">
<ele>52</ele>
<time>2014-05-18T16:30:54Z</time>
</trkpt>
<trkpt lat="52.93154446" lon="18.74536218">
<ele>53</ele>
<time>2014-05-18T16:31:00Z</time>
</trkpt>
<trkpt lat="52.93154437" lon="18.74536227">
<ele>53</ele>
<time>2014-05-18T16:31:06Z</time>
</trkpt>
<trkpt lat="52.93154351" lon="18.74536645">
<ele>54</ele>
<time>2014-05-18T16:31:12Z</time>
</trkpt>
<trkpt lat="52.93154446" lon="18.74536393">
<ele>53</ele>
<time>2014-05-18T16:31:18Z</time>
</trkpt>
<trkpt lat="52.93155843" lon="18.74534757">
<ele>53</ele>
<time>2014-05-18T16:31:24Z</time>
</trkpt>
<trkpt lat="52.93158056" lon="18.7453453">
<ele>50</ele>
<time>2014-05-18T16:31:30Z</time>
</trkpt>
<trkpt lat="52.93158517" lon="18.74532899">
<ele>50</ele>
<time>2014-05-18T16:31:36Z</time>
</trkpt>
<trkpt lat="52.93157828" lon="18.74532676">
<ele>50</ele>
<time>2014-05-18T16:31:42Z</time>
</trkpt>
<trkpt lat="52.93157641" lon="18.7453251">
<ele>50</ele>
<time>2014-05-18T16:31:48Z</time>
</trkpt>
<trkpt lat="52.93157571" lon="18.74532539">
<ele>50</ele>
<time>2014-05-18T16:31:54Z</time>
</trkpt>
<trkpt lat="52.93157552" lon="18.74532547">
<ele>50</ele>
<time>2014-05-18T16:32:00Z</time>
</trkpt>
<trkpt lat="52.93157551" lon="18.74532548">
<ele>50</ele>
<time>2014-05-18T16:32:06Z</time>
</trkpt>
<trkpt lat="52.93157297" lon="18.74532819">
<ele>51</ele>
<time>2014-05-18T16:32:12Z</time>
</trkpt>
<trkpt lat="52.93157003" lon="18.74532821">
<ele>51</ele>
<time>2014-05-18T16:32:18Z</time>
</trkpt>
<trkpt lat="52.93155691" lon="18.74531699">
<ele>52</ele>
<time>2014-05-18T16:32:24Z</time>
</trkpt>
<trkpt lat="52.93155986" lon="18.74532328">
<ele>53</ele>
<time>2014-05-18T16:32:30Z</time>
</trkpt>
<trkpt lat="52.9315577" lon="18.74532834">
<ele>53</ele>
<time>2014-05-18T16:32:36Z</time>
</trkpt>
<trkpt lat="52.93154841" lon="18.74537634">
<ele>55</ele>
<time>2014-05-18T16:32:42Z</time>
</trkpt>
<trkpt lat="52.93155711" lon="18.74537895">
<ele>55</ele>
<time>2014-05-18T16:32:48Z</time>
</trkpt>
<trkpt lat="52.93155818" lon="18.74537899">
<ele>55</ele>
<time>2014-05-18T16:32:54Z</time>
</trkpt>
<trkpt lat="52.93152582" lon="18.7453622">
<ele>56</ele>
<time>2014-05-18T16:33:00Z</time>
</trkpt>
<trkpt lat="52.93154078" lon="18.74537259">
<ele>55</ele>
<time>2014-05-18T16:33:06Z</time>
</trkpt>
<trkpt lat="52.9315556" lon="18.74538048">
<ele>54</ele>
<time>2014-05-18T16:33:12Z</time>
</trkpt>
<trkpt lat="52.93156751" lon="18.74539593">
<ele>56</ele>
<time>2014-05-18T16:33:18Z</time>
</trkpt>
<trkpt lat="52.93156322" lon="18.74540152">
<ele>56</ele>
<time>2014-05-18T16:33:24Z</time>
</trkpt>
<trkpt lat="52.93156295" lon="18.74540208">
<ele>56</ele>
<time>2014-05-18T16:33:30Z</time>
</trkpt>
<trkpt lat="52.93156288" lon="18.74540217">
<ele>56</ele>
<time>2014-05-18T16:33:36Z</time>
</trkpt>
<trkpt lat="52.93156233" lon="18.74540241">
<ele>56</ele>
<time>2014-05-18T16:33:42Z</time>
</trkpt>
<trkpt lat="52.93156568" lon="18.74540444">
<ele>57</ele>
<time>2014-05-18T16:33:48Z</time>
</trkpt>
<trkpt lat="52.93156751" lon="18.74540594">
<ele>57</ele>
<time>2014-05-18T16:33:54Z</time>
</trkpt>
<trkpt lat="52.93156744" lon="18.74540631">
<ele>57</ele>
<time>2014-05-18T16:34:00Z</time>
</trkpt>
<trkpt lat="52.93156732" lon="18.74540626">
<ele>57</ele>
<time>2014-05-18T16:34:06Z</time>
</trkpt>
<trkpt lat="52.93156719" lon="18.74540608">
<ele>57</ele>
<time>2014-05-18T16:34:12Z</time>
</trkpt>
<trkpt lat="52.93156718" lon="18.74540606">
<ele>57</ele>
<time>2014-05-18T16:34:18Z</time>
</trkpt>
<trkpt lat="52.93157458" lon="18.7454042">
<ele>57</ele>
<time>2014-05-18T16:34:24Z</time>
</trkpt>
<trkpt lat="52.93160187" lon="18.74542278">
<ele>56</ele>
<time>2014-05-18T16:34:30Z</time>
</trkpt>
<trkpt lat="52.93160969" lon="18.74543387">
<ele>58</ele>
<time>2014-05-18T16:34:36Z</time>
</trkpt>
<trkpt lat="52.93161793" lon="18.74545148">
<ele>57</ele>
<time>2014-05-18T16:34:42Z</time>
</trkpt>
<trkpt lat="52.93159923" lon="18.74545325">
<ele>59</ele>
<time>2014-05-18T16:34:48Z</time>
</trkpt>
<trkpt lat="52.93159562" lon="18.74545366">
<ele>60</ele>
<time>2014-05-18T16:34:54Z</time>
</trkpt>
<trkpt lat="52.93159537" lon="18.74545375">
<ele>60</ele>
<time>2014-05-18T16:35:00Z</time>
</trkpt>
<trkpt lat="52.93159519" lon="18.74545384">
<ele>60</ele>
<time>2014-05-18T16:35:06Z</time>
</trkpt>
<trkpt lat="52.93159795" lon="18.74545422">
<ele>59</ele>
<time>2014-05-18T16:35:12Z</time>
</trkpt>
<trkpt lat="52.93159808" lon="18.74545404">
<ele>59</ele>
<time>2014-05-18T16:35:18Z</time>
</trkpt>
<trkpt lat="52.93159801" lon="18.74545395">
<ele>59</ele>
<time>2014-05-18T16:35:24Z</time>
</trkpt>
<trkpt lat="52.93159799" lon="18.74545391">
<ele>59</ele>
<time>2014-05-18T16:35:30Z</time>
</trkpt>
<trkpt lat="52.93159782" lon="18.74545368">
<ele>59</ele>
<time>2014-05-18T16:35:36Z</time>
</trkpt>
<trkpt lat="52.93159928" lon="18.74544051">
<ele>57</ele>
<time>2014-05-18T16:35:42Z</time>
</trkpt>
<trkpt lat="52.93159529" lon="18.7454316">
<ele>57</ele>
<time>2014-05-18T16:35:48Z</time>
</trkpt>
<trkpt lat="52.93157971" lon="18.74542175">
<ele>55</ele>
<time>2014-05-18T16:35:54Z</time>
</trkpt>
<trkpt lat="52.93157351" lon="18.74541969">
<ele>55</ele>
<time>2014-05-18T16:36:00Z</time>
</trkpt>
<trkpt lat="52.93158671" lon="18.74541301">
<ele>52</ele>
<time>2014-05-18T16:36:06Z</time>
</trkpt>
<trkpt lat="52.93158674" lon="18.7454129">
<ele>52</ele>
<time>2014-05-18T16:36:12Z</time>
</trkpt>
<trkpt lat="52.93159016" lon="18.74540156">
<ele>49</ele>
<time>2014-05-18T16:36:18Z</time>
</trkpt>
<trkpt lat="52.93158942" lon="18.7453996">
<ele>48</ele>
<time>2014-05-18T16:36:24Z</time>
</trkpt>
<trkpt lat="52.9316088" lon="18.74537265">
<ele>48</ele>
<time>2014-05-18T16:36:30Z</time>
</trkpt>
<trkpt lat="52.93161724" lon="18.74535549">
<ele>48</ele>
<time>2014-05-18T16:36:36Z</time>
</trkpt>
<trkpt lat="52.93161917" lon="18.74535396">
<ele>48</ele>
<time>2014-05-18T16:36:42Z</time>
</trkpt>
<trkpt lat="52.93162088" lon="18.74535933">
<ele>50</ele>
<time>2014-05-18T16:36:48Z</time>
</trkpt>
<trkpt lat="52.93162079" lon="18.74536078">
<ele>50</ele>
<time>2014-05-18T16:36:54Z</time>
</trkpt>
<trkpt lat="52.93161989" lon="18.74536079">
<ele>50</ele>
<time>2014-05-18T16:37:00Z</time>
</trkpt>
<trkpt lat="52.93161996" lon="18.74536085">
<ele>50</ele>
<time>2014-05-18T16:37:06Z</time>
</trkpt>
<trkpt lat="52.93162638" lon="18.74533278">
<ele>50</ele>
<time>2014-05-18T16:37:12Z</time>
</trkpt>
<trkpt lat="52.93161982" lon="18.74532187">
<ele>51</ele>
<time>2014-05-18T16:37:18Z</time>
</trkpt>
<trkpt lat="52.93162062" lon="18.74532074">
<ele>50</ele>
<time>2014-05-18T16:37:24Z</time>
</trkpt>
<trkpt lat="52.93162538" lon="18.74531821">
<ele>50</ele>
<time>2014-05-18T16:37:30Z</time>
</trkpt>
<trkpt lat="52.93161964" lon="18.74532063">
<ele>51</ele>
<time>2014-05-18T16:37:36Z</time>
</trkpt>
<trkpt lat="52.9316193" lon="18.74532047">
<ele>51</ele>
<time>2014-05-18T16:37:42Z</time>
</trkpt>
<trkpt lat="52.93162818" lon="18.74533245">
<ele>50</ele>
<time>2014-05-18T16:37:48Z</time>
</trkpt>
<trkpt lat="52.93162601" lon="18.74534787">
<ele>48</ele>
<time>2014-05-18T16:37:54Z</time>
</trkpt>
<trkpt lat="52.93162109" lon="18.74535527">
<ele>48</ele>
<time>2014-05-18T16:38:00Z</time>
</trkpt>
<trkpt lat="52.93162091" lon="18.74535561">
<ele>48</ele>
<time>2014-05-18T16:38:06Z</time>
</trkpt>
<trkpt lat="52.93161977" lon="18.74535614">
<ele>48</ele>
<time>2014-05-18T16:38:12Z</time>
</trkpt>
<trkpt lat="52.9315588" lon="18.74536155">
<ele>50</ele>
<time>2014-05-18T16:38:18Z</time>
</trkpt>
<trkpt lat="52.9315588" lon="18.74536155">
<ele>50</ele>
<time>2014-05-18T16:38:24Z</time>
</trkpt>
<trkpt lat="52.93153107" lon="18.74534617">
<ele>52</ele>
<time>2014-05-18T16:38:30Z</time>
</trkpt>
<trkpt lat="52.93153815" lon="18.74533769">
<ele>51</ele>
<time>2014-05-18T16:38:36Z</time>
</trkpt>
<trkpt lat="52.93154585" lon="18.74533713">
<ele>51</ele>
<time>2014-05-18T16:38:42Z</time>
</trkpt>
<trkpt lat="52.93154684" lon="18.74536282">
<ele>48</ele>
<time>2014-05-18T16:38:48Z</time>
</trkpt>
<trkpt lat="52.93153849" lon="18.74537109">
<ele>48</ele>
<time>2014-05-18T16:38:54Z</time>
</trkpt>
<trkpt lat="52.93153758" lon="18.74537345">
<ele>48</ele>
<time>2014-05-18T16:39:00Z</time>
</trkpt>
<trkpt lat="52.93153658" lon="18.74537615">
<ele>48</ele>
<time>2014-05-18T16:39:06Z</time>
</trkpt>
<trkpt lat="52.9315366" lon="18.7453765">
<ele>48</ele>
<time>2014-05-18T16:39:12Z</time>
</trkpt>
<trkpt lat="52.93153548" lon="18.74537842">
<ele>48</ele>
<time>2014-05-18T16:39:18Z</time>
</trkpt>
<trkpt lat="52.93153552" lon="18.74537842">
<ele>48</ele>
<time>2014-05-18T16:39:24Z</time>
</trkpt>
<trkpt lat="52.93153496" lon="18.7453788">
<ele>48</ele>
<time>2014-05-18T16:39:30Z</time>
</trkpt>
<trkpt lat="52.93153481" lon="18.74537888">
<ele>48</ele>
<time>2014-05-18T16:39:36Z</time>
</trkpt>
<trkpt lat="52.9315347" lon="18.74537896">
<ele>48</ele>
<time>2014-05-18T16:39:42Z</time>
</trkpt>
<trkpt lat="52.93153777" lon="18.74536934">
<ele>46</ele>
<time>2014-05-18T16:39:48Z</time>
</trkpt>
<trkpt lat="52.93154871" lon="18.74534787">
<ele>49</ele>
<time>2014-05-18T16:39:54Z</time>
</trkpt>
<trkpt lat="52.93155151" lon="18.74534924">
<ele>48</ele>
<time>2014-05-18T16:40:00Z</time>
</trkpt>
<trkpt lat="52.93154119" lon="18.74533986">
<ele>53</ele>
<time>2014-05-18T16:40:06Z</time>
</trkpt>
<trkpt lat="52.93155182" lon="18.74535233">
<ele>50</ele>
<time>2014-05-18T16:40:12Z</time>
</trkpt>
<trkpt lat="52.9315458" lon="18.74539127">
<ele>51</ele>
<time>2014-05-18T16:40:18Z</time>
</trkpt>
<trkpt lat="52.93153902" lon="18.74540054">
<ele>50</ele>
<time>2014-05-18T16:40:24Z</time>
</trkpt>
<trkpt lat="52.93154222" lon="18.74534716">
<ele>50</ele>
<time>2014-05-18T16:40:30Z</time>
</trkpt>
<trkpt lat="52.93154306" lon="18.74534005">
<ele>43</ele>
<time>2014-05-18T16:40:36Z</time>
</trkpt>
<trkpt lat="52.93153514" lon="18.74538039">
<ele>43</ele>
<time>2014-05-18T16:40:42Z</time>
</trkpt>
<trkpt lat="52.93153723" lon="18.74537917">
<ele>43</ele>
<time>2014-05-18T16:40:48Z</time>
</trkpt>
<trkpt lat="52.9315529" lon="18.74536897">
<ele>46</ele>
<time>2014-05-18T16:40:54Z</time>
</trkpt>
<trkpt lat="52.93156591" lon="18.74537188">
<ele>45</ele>
<time>2014-05-18T16:41:00Z</time>
</trkpt>
<trkpt lat="52.93155386" lon="18.74538893">
<ele>45</ele>
<time>2014-05-18T16:41:06Z</time>
</trkpt>
<trkpt lat="52.93153734" lon="18.74541457">
<ele>50</ele>
<time>2014-05-18T16:41:12Z</time>
</trkpt>
<trkpt lat="52.93154508" lon="18.74541287">
<ele>50</ele>
<time>2014-05-18T16:41:18Z</time>
</trkpt>
<trkpt lat="52.93155396" lon="18.74540848">
<ele>50</ele>
<time>2014-05-18T16:41:24Z</time>
</trkpt>
<trkpt lat="52.93154356" lon="18.74540707">
<ele>51</ele>
<time>2014-05-18T16:41:30Z</time>
</trkpt>
<trkpt lat="52.931541" lon="18.74540858">
<ele>51</ele>
<time>2014-05-18T16:41:36Z</time>
</trkpt>
<trkpt lat="52.9315399" lon="18.74540874">
<ele>51</ele>
<time>2014-05-18T16:41:42Z</time>
</trkpt>
<trkpt lat="52.93153976" lon="18.74540876">
<ele>51</ele>
<time>2014-05-18T16:41:48Z</time>
</trkpt>
<trkpt lat="52.9315394" lon="18.74540821">
<ele>51</ele>
<time>2014-05-18T16:41:56Z</time>
</trkpt>
<trkpt lat="52.9315379" lon="18.74540744">
<ele>51</ele>
<time>2014-05-18T16:42:04Z</time>
</trkpt>
<trkpt lat="52.9315219" lon="18.74541247">
<ele>51</ele>
<time>2014-05-18T16:42:10Z</time>
</trkpt>
<trkpt lat="52.93151859" lon="18.7454373">
<ele>51</ele>
<time>2014-05-18T16:42:16Z</time>
</trkpt>
<trkpt lat="52.93151718" lon="18.74545836">
<ele>53</ele>
<time>2014-05-18T16:42:22Z</time>
</trkpt>
<trkpt lat="52.9315268" lon="18.74548029">
<ele>55</ele>
<time>2014-05-18T16:42:28Z</time>
</trkpt>
<trkpt lat="52.93153241" lon="18.74549683">
<ele>58</ele>
<time>2014-05-18T16:42:34Z</time>
</trkpt>
<trkpt lat="52.93153078" lon="18.74548081">
<ele>58</ele>
<time>2014-05-18T16:42:40Z</time>
</trkpt>
<trkpt lat="52.93152088" lon="18.74544764">
<ele>59</ele>
<time>2014-05-18T16:42:46Z</time>
</trkpt>
<trkpt lat="52.93150902" lon="18.74542801">
<ele>59</ele>
<time>2014-05-18T16:42:52Z</time>
</trkpt>
<trkpt lat="52.93150461" lon="18.745424">
<ele>59</ele>
<time>2014-05-18T16:42:58Z</time>
</trkpt>
<trkpt lat="52.93150429" lon="18.74542434">
<ele>59</ele>
<time>2014-05-18T16:43:04Z</time>
</trkpt>
<trkpt lat="52.93150396" lon="18.74542439">
<ele>59</ele>
<time>2014-05-18T16:43:10Z</time>
</trkpt>
<trkpt lat="52.93150386" lon="18.74542439">
<ele>59</ele>
<time>2014-05-18T16:43:16Z</time>
</trkpt>
<trkpt lat="52.93150384" lon="18.74542434">
<ele>59</ele>
<time>2014-05-18T16:43:22Z</time>
</trkpt>
<trkpt lat="52.93150381" lon="18.74542425">
<ele>59</ele>
<time>2014-05-18T16:43:28Z</time>
</trkpt>
<trkpt lat="52.93150379" lon="18.74542422">
<ele>59</ele>
<time>2014-05-18T16:43:34Z</time>
</trkpt>
<trkpt lat="52.93150379" lon="18.74542414">
<ele>59</ele>
<time>2014-05-18T16:43:40Z</time>
</trkpt>
<trkpt lat="52.9315045" lon="18.74541567">
<ele>61</ele>
<time>2014-05-18T16:43:46Z</time>
</trkpt>
<trkpt lat="52.93149903" lon="18.74539166">
<ele>60</ele>
<time>2014-05-18T16:43:52Z</time>
</trkpt>
<trkpt lat="52.93149726" lon="18.74538794">
<ele>60</ele>
<time>2014-05-18T16:43:58Z</time>
</trkpt>
<trkpt lat="52.9314974" lon="18.74538568">
<ele>60</ele>
<time>2014-05-18T16:44:04Z</time>
</trkpt>
<trkpt lat="52.9314976" lon="18.74538548">
<ele>60</ele>
<time>2014-05-18T16:44:10Z</time>
</trkpt>
<trkpt lat="52.93149762" lon="18.74538548">
<ele>60</ele>
<time>2014-05-18T16:44:16Z</time>
</trkpt>
<trkpt lat="52.93149755" lon="18.74538563">
<ele>60</ele>
<time>2014-05-18T16:44:22Z</time>
</trkpt>
<trkpt lat="52.93149749" lon="18.74538564">
<ele>60</ele>
<time>2014-05-18T16:44:28Z</time>
</trkpt>
<trkpt lat="52.93149749" lon="18.7453857">
<ele>60</ele>
<time>2014-05-18T16:44:34Z</time>
</trkpt>
<trkpt lat="52.93149635" lon="18.74538406">
<ele>59</ele>
<time>2014-05-18T16:44:40Z</time>
</trkpt>
<trkpt lat="52.93149897" lon="18.74536756">
<ele>60</ele>
<time>2014-05-18T16:44:46Z</time>
</trkpt>
<trkpt lat="52.93149781" lon="18.74536656">
<ele>61</ele>
<time>2014-05-18T16:44:54Z</time>
</trkpt>
<trkpt lat="52.9314875" lon="18.74537758">
<ele>64</ele>
<time>2014-05-18T16:45:00Z</time>
</trkpt>
<trkpt lat="52.93148654" lon="18.745379">
<ele>64</ele>
<time>2014-05-18T16:45:06Z</time>
</trkpt>
<trkpt lat="52.9314858" lon="18.7453813">
<ele>65</ele>
<time>2014-05-18T16:45:12Z</time>
</trkpt>
<trkpt lat="52.93148683" lon="18.74538353">
<ele>66</ele>
<time>2014-05-18T16:45:18Z</time>
</trkpt>
<trkpt lat="52.93148685" lon="18.74538342">
<ele>66</ele>
<time>2014-05-18T16:45:24Z</time>
</trkpt>
<trkpt lat="52.93148753" lon="18.74538297">
<ele>66</ele>
<time>2014-05-18T16:45:30Z</time>
</trkpt>
<trkpt lat="52.93148874" lon="18.74538206">
<ele>66</ele>
<time>2014-05-18T16:45:36Z</time>
</trkpt>
<trkpt lat="52.93148862" lon="18.7453822">
<ele>66</ele>
<time>2014-05-18T16:45:42Z</time>
</trkpt>
<trkpt lat="52.93148858" lon="18.74538218">
<ele>66</ele>
<time>2014-05-18T16:45:48Z</time>
</trkpt>
<trkpt lat="52.93148847" lon="18.74538212">
<ele>66</ele>
<time>2014-05-18T16:45:54Z</time>
</trkpt>
<trkpt lat="52.93148844" lon="18.74538215">
<ele>66</ele>
<time>2014-05-18T16:46:00Z</time>
</trkpt>
<trkpt lat="52.93148843" lon="18.74538215">
<ele>66</ele>
<time>2014-05-18T16:46:06Z</time>
</trkpt>
<trkpt lat="52.93148827" lon="18.74538212">
<ele>66</ele>
<time>2014-05-18T16:46:12Z</time>
</trkpt>
<trkpt lat="52.93149083" lon="18.74537048">
<ele>64</ele>
<time>2014-05-18T16:46:18Z</time>
</trkpt>
<trkpt lat="52.93148886" lon="18.74536414">
<ele>63</ele>
<time>2014-05-18T16:46:24Z</time>
</trkpt>
<trkpt lat="52.931488" lon="18.74536607">
<ele>63</ele>
<time>2014-05-18T16:46:30Z</time>
</trkpt>
<trkpt lat="52.93148371" lon="18.74537424">
<ele>65</ele>
<time>2014-05-18T16:46:36Z</time>
</trkpt>
<trkpt lat="52.93148393" lon="18.7453745">
<ele>65</ele>
<time>2014-05-18T16:46:42Z</time>
</trkpt>
<trkpt lat="52.93148452" lon="18.74537441">
<ele>65</ele>
<time>2014-05-18T16:46:48Z</time>
</trkpt>
<trkpt lat="52.93148515" lon="18.745374">
<ele>65</ele>
<time>2014-05-18T16:46:54Z</time>
</trkpt>
<trkpt lat="52.93148529" lon="18.74537416">
<ele>65</ele>
<time>2014-05-18T16:47:00Z</time>
</trkpt>
<trkpt lat="52.93148528" lon="18.74537425">
<ele>65</ele>
<time>2014-05-18T16:47:06Z</time>
</trkpt>
<trkpt lat="52.93148518" lon="18.74537434">
<ele>65</ele>
<time>2014-05-18T16:47:12Z</time>
</trkpt>
<trkpt lat="52.93148505" lon="18.74537421">
<ele>65</ele>
<time>2014-05-18T16:47:18Z</time>
</trkpt>
<trkpt lat="52.93148496" lon="18.74537397">
<ele>65</ele>
<time>2014-05-18T16:47:24Z</time>
</trkpt>
<trkpt lat="52.93147221" lon="18.74538026">
<ele>64</ele>
<time>2014-05-18T16:47:30Z</time>
</trkpt>
<trkpt lat="52.93146614" lon="18.74536971">
<ele>63</ele>
<time>2014-05-18T16:47:36Z</time>
</trkpt>
<trkpt lat="52.93147015" lon="18.74536567">
<ele>63</ele>
<time>2014-05-18T16:47:42Z</time>
</trkpt>
<trkpt lat="52.93147361" lon="18.74536629">
<ele>63</ele>
<time>2014-05-18T16:47:48Z</time>
</trkpt>
<trkpt lat="52.93147533" lon="18.74536277">
<ele>63</ele>
<time>2014-05-18T16:47:54Z</time>
</trkpt>
<trkpt lat="52.93147519" lon="18.74536251">
<ele>63</ele>
<time>2014-05-18T16:48:00Z</time>
</trkpt>
<trkpt lat="52.93147522" lon="18.74536251">
<ele>63</ele>
<time>2014-05-18T16:48:06Z</time>
</trkpt>
<trkpt lat="52.93147525" lon="18.74536253">
<ele>63</ele>
<time>2014-05-18T16:48:12Z</time>
</trkpt>
<trkpt lat="52.93147524" lon="18.74536256">
<ele>63</ele>
<time>2014-05-18T16:48:18Z</time>
</trkpt>
<trkpt lat="52.93146997" lon="18.74535584">
<ele>63</ele>
<time>2014-05-18T16:48:24Z</time>
</trkpt>
<trkpt lat="52.93146665" lon="18.74535409">
<ele>63</ele>
<time>2014-05-18T16:48:30Z</time>
</trkpt>
<trkpt lat="52.93146463" lon="18.74536059">
<ele>63</ele>
<time>2014-05-18T16:48:36Z</time>
</trkpt>
<trkpt lat="52.93146423" lon="18.74536892">
<ele>63</ele>
<time>2014-05-18T16:48:42Z</time>
</trkpt>
<trkpt lat="52.93146407" lon="18.7453694">
<ele>63</ele>
<time>2014-05-18T16:48:48Z</time>
</trkpt>
<trkpt lat="52.93146436" lon="18.74536899">
<ele>63</ele>
<time>2014-05-18T16:48:54Z</time>
</trkpt>
<trkpt lat="52.93146433" lon="18.74536895">
<ele>63</ele>
<time>2014-05-18T16:49:00Z</time>
</trkpt>
<trkpt lat="52.93146433" lon="18.74536928">
<ele>63</ele>
<time>2014-05-18T16:49:06Z</time>
</trkpt>
<trkpt lat="52.93146437" lon="18.74536934">
<ele>63</ele>
<time>2014-05-18T16:49:12Z</time>
</trkpt>
<trkpt lat="52.93146435" lon="18.74536939">
<ele>63</ele>
<time>2014-05-18T16:49:18Z</time>
</trkpt>
<trkpt lat="52.93146423" lon="18.74536934">
<ele>63</ele>
<time>2014-05-18T16:49:24Z</time>
</trkpt>
<trkpt lat="52.93146421" lon="18.74536937">
<ele>63</ele>
<time>2014-05-18T16:49:30Z</time>
</trkpt>
<trkpt lat="52.93146627" lon="18.74537021">
<ele>63</ele>
<time>2014-05-18T16:49:36Z</time>
</trkpt>
<trkpt lat="52.93146419" lon="18.74537224">
<ele>64</ele>
<time>2014-05-18T16:49:42Z</time>
</trkpt>
<trkpt lat="52.93146653" lon="18.74537428">
<ele>64</ele>
<time>2014-05-18T16:49:48Z</time>
</trkpt>
<trkpt lat="52.93146697" lon="18.74537551">
<ele>64</ele>
<time>2014-05-18T16:49:54Z</time>
</trkpt>
<trkpt lat="52.93146695" lon="18.74537544">
<ele>64</ele>
<time>2014-05-18T16:50:00Z</time>
</trkpt>
<trkpt lat="52.9314669" lon="18.74537533">
<ele>64</ele>
<time>2014-05-18T16:50:06Z</time>
</trkpt>
<trkpt lat="52.9314669" lon="18.74537534">
<ele>64</ele>
<time>2014-05-18T16:50:12Z</time>
</trkpt>
<trkpt lat="52.93146689" lon="18.74537531">
<ele>64</ele>
<time>2014-05-18T16:50:18Z</time>
</trkpt>
<trkpt lat="52.93146688" lon="18.74537531">
<ele>64</ele>
<time>2014-05-18T16:50:24Z</time>
</trkpt>
<trkpt lat="52.93146689" lon="18.74537537">
<ele>64</ele>
<time>2014-05-18T16:50:30Z</time>
</trkpt>
<trkpt lat="52.93146684" lon="18.74537534">
<ele>64</ele>
<time>2014-05-18T16:50:36Z</time>
</trkpt>
<trkpt lat="52.93146684" lon="18.74537531">
<ele>64</ele>
<time>2014-05-18T16:50:42Z</time>
</trkpt>
<trkpt lat="52.93146688" lon="18.74537534">
<ele>64</ele>
<time>2014-05-18T16:50:48Z</time>
</trkpt>
<trkpt lat="52.93146687" lon="18.7453754">
<ele>64</ele>
<time>2014-05-18T16:50:54Z</time>
</trkpt>
<trkpt lat="52.93146333" lon="18.74537619">
<ele>64</ele>
<time>2014-05-18T16:51:00Z</time>
</trkpt>
<trkpt lat="52.93145724" lon="18.7453706">
<ele>64</ele>
<time>2014-05-18T16:51:06Z</time>
</trkpt>
<trkpt lat="52.93142666" lon="18.74533239">
<ele>61</ele>
<time>2014-05-18T16:51:13Z</time>
</trkpt>
<trkpt lat="52.93142944" lon="18.74532978">
<ele>61</ele>
<time>2014-05-18T16:51:18Z</time>
</trkpt>
<trkpt lat="52.93144769" lon="18.74532819">
<ele>63</ele>
<time>2014-05-18T16:51:24Z</time>
</trkpt>
<trkpt lat="52.93145178" lon="18.74533192">
<ele>63</ele>
<time>2014-05-18T16:51:30Z</time>
</trkpt>
<trkpt lat="52.93146313" lon="18.74533914">
<ele>62</ele>
<time>2014-05-18T16:51:36Z</time>
</trkpt>
<trkpt lat="52.93146354" lon="18.74533958">
<ele>62</ele>
<time>2014-05-18T16:51:42Z</time>
</trkpt>
<trkpt lat="52.93146361" lon="18.74533958">
<ele>62</ele>
<time>2014-05-18T16:51:48Z</time>
</trkpt>
<trkpt lat="52.93146326" lon="18.74533992">
<ele>62</ele>
<time>2014-05-18T16:51:54Z</time>
</trkpt>
<trkpt lat="52.93146336" lon="18.74533978">
<ele>62</ele>
<time>2014-05-18T16:52:00Z</time>
</trkpt>
<trkpt lat="52.93146347" lon="18.74533961">
<ele>62</ele>
<time>2014-05-18T16:52:06Z</time>
</trkpt>
<trkpt lat="52.93146346" lon="18.74533951">
<ele>62</ele>
<time>2014-05-18T16:52:12Z</time>
</trkpt>
<trkpt lat="52.93146346" lon="18.74533949">
<ele>62</ele>
<time>2014-05-18T16:52:18Z</time>
</trkpt>
<trkpt lat="52.93146312" lon="18.74533953">
<ele>63</ele>
<time>2014-05-18T16:52:24Z</time>
</trkpt>
<trkpt lat="52.93146428" lon="18.74533886">
<ele>62</ele>
<time>2014-05-18T16:52:30Z</time>
</trkpt>
<trkpt lat="52.93145971" lon="18.74532309">
<ele>65</ele>
<time>2014-05-18T16:52:36Z</time>
</trkpt>
<trkpt lat="52.93146129" lon="18.74532563">
<ele>65</ele>
<time>2014-05-18T16:52:42Z</time>
</trkpt>
<trkpt lat="52.93148074" lon="18.74532813">
<ele>66</ele>
<time>2014-05-18T16:52:48Z</time>
</trkpt>
<trkpt lat="52.93148079" lon="18.74532207">
<ele>65</ele>
<time>2014-05-18T16:52:54Z</time>
</trkpt>
<trkpt lat="52.93146899" lon="18.74531672">
<ele>63</ele>
<time>2014-05-18T16:53:00Z</time>
</trkpt>
<trkpt lat="52.93146918" lon="18.74530625">
<ele>63</ele>
<time>2014-05-18T16:53:06Z</time>
</trkpt>
<trkpt lat="52.93146311" lon="18.74530936">
<ele>60</ele>
<time>2014-05-18T16:53:12Z</time>
</trkpt>
<trkpt lat="52.93146722" lon="18.74530065">
<ele>62</ele>
<time>2014-05-18T16:53:18Z</time>
</trkpt>
<trkpt lat="52.93147154" lon="18.74530622">
<ele>60</ele>
<time>2014-05-18T16:53:24Z</time>
</trkpt>
<trkpt lat="52.93146316" lon="18.74529199">
<ele>60</ele>
<time>2014-05-18T16:53:30Z</time>
</trkpt>
<trkpt lat="52.93145461" lon="18.74524835">
<ele>62</ele>
<time>2014-05-18T16:53:36Z</time>
</trkpt>
<trkpt lat="52.93146282" lon="18.74527209">
<ele>61</ele>
<time>2014-05-18T16:53:42Z</time>
</trkpt>
<trkpt lat="52.9314838" lon="18.74533567">
<ele>60</ele>
<time>2014-05-18T16:53:48Z</time>
</trkpt>
<trkpt lat="52.93147506" lon="18.74533118">
<ele>61</ele>
<time>2014-05-18T16:53:54Z</time>
</trkpt>
<trkpt lat="52.93144498" lon="18.74534289">
<ele>61</ele>
<time>2014-05-18T16:54:00Z</time>
</trkpt>
<trkpt lat="52.93143687" lon="18.74534725">
<ele>63</ele>
<time>2014-05-18T16:54:06Z</time>
</trkpt>
<trkpt lat="52.93146369" lon="18.74538711">
<ele>66</ele>
<time>2014-05-18T16:54:12Z</time>
</trkpt>
<trkpt lat="52.93146777" lon="18.7453727">
<ele>66</ele>
<time>2014-05-18T16:54:18Z</time>
</trkpt>
<trkpt lat="52.93146481" lon="18.74535939">
<ele>65</ele>
<time>2014-05-18T16:54:24Z</time>
</trkpt>
<trkpt lat="52.93145856" lon="18.74535107">
<ele>65</ele>
<time>2014-05-18T16:54:30Z</time>
</trkpt>
<trkpt lat="52.93145138" lon="18.74535309">
<ele>64</ele>
<time>2014-05-18T16:54:36Z</time>
</trkpt>
<trkpt lat="52.93145903" lon="18.74535458">
<ele>59</ele>
<time>2014-05-18T16:54:42Z</time>
</trkpt>
<trkpt lat="52.9314785" lon="18.74533204">
<ele>60</ele>
<time>2014-05-18T16:54:48Z</time>
</trkpt>
<trkpt lat="52.9314621" lon="18.7453221">
<ele>58</ele>
<time>2014-05-18T16:54:54Z</time>
</trkpt>
<trkpt lat="52.93145501" lon="18.74532235">
<ele>61</ele>
<time>2014-05-18T16:55:00Z</time>
</trkpt>
<trkpt lat="52.93145444" lon="18.74532144">
<ele>61</ele>
<time>2014-05-18T16:55:06Z</time>
</trkpt>
<trkpt lat="52.93145348" lon="18.74531999">
<ele>61</ele>
<time>2014-05-18T16:55:12Z</time>
</trkpt>
<trkpt lat="52.93145347" lon="18.74532001">
<ele>61</ele>
<time>2014-05-18T16:55:18Z</time>
</trkpt>
<trkpt lat="52.93144822" lon="18.74529814">
<ele>59</ele>
<time>2014-05-18T16:55:24Z</time>
</trkpt>
<trkpt lat="52.93144084" lon="18.74530128">
<ele>60</ele>
<time>2014-05-18T16:55:30Z</time>
</trkpt>
<trkpt lat="52.93142759" lon="18.74543953">
<ele>61</ele>
<time>2014-05-18T16:55:36Z</time>
</trkpt>
<trkpt lat="52.93145968" lon="18.74549588">
<ele>65</ele>
<time>2014-05-18T16:55:42Z</time>
</trkpt>
<trkpt lat="52.93145968" lon="18.74549588">
<ele>65</ele>
<time>2014-05-18T16:55:48Z</time>
</trkpt>
<trkpt lat="52.93152359" lon="18.7455252">
<ele>67</ele>
<time>2014-05-18T16:55:56Z</time>
</trkpt>
<trkpt lat="52.93152359" lon="18.7455252">
<ele>67</ele>
<time>2014-05-18T16:56:02Z</time>
</trkpt>
<trkpt lat="52.93153834" lon="18.74554296">
<ele>67</ele>
<time>2014-05-18T16:56:08Z</time>
</trkpt>
<trkpt lat="52.93153559" lon="18.74554361">
<ele>65</ele>
<time>2014-05-18T16:56:14Z</time>
</trkpt>
<trkpt lat="52.93154167" lon="18.74554492">
<ele>69</ele>
<time>2014-05-18T16:56:20Z</time>
</trkpt>
<trkpt lat="52.93154636" lon="18.74553839">
<ele>69</ele>
<time>2014-05-18T16:56:26Z</time>
</trkpt>
<trkpt lat="52.93154553" lon="18.74553759">
<ele>69</ele>
<time>2014-05-18T16:56:32Z</time>
</trkpt>
<trkpt lat="52.93153904" lon="18.745533">
<ele>70</ele>
<time>2014-05-18T16:56:38Z</time>
</trkpt>
<trkpt lat="52.93152649" lon="18.74554627">
<ele>70</ele>
<time>2014-05-18T16:56:44Z</time>
</trkpt>
<trkpt lat="52.93152208" lon="18.74553287">
<ele>71</ele>
<time>2014-05-18T16:56:50Z</time>
</trkpt>
<trkpt lat="52.931526" lon="18.7455328">
<ele>70</ele>
<time>2014-05-18T16:56:56Z</time>
</trkpt>
<trkpt lat="52.93159488" lon="18.745646">
<ele>70</ele>
<time>2014-05-18T16:57:02Z</time>
</trkpt>
<trkpt lat="52.9316666" lon="18.74578093">
<ele>68</ele>
<time>2014-05-18T16:57:08Z</time>
</trkpt>
<trkpt lat="52.93178379" lon="18.74591726">
<ele>58</ele>
<time>2014-05-18T16:57:14Z</time>
</trkpt>
<trkpt lat="52.93185349" lon="18.74599644">
<ele>61</ele>
<time>2014-05-18T16:57:20Z</time>
</trkpt>
<trkpt lat="52.93205163" lon="18.74628633">
<ele>64</ele>
<time>2014-05-18T16:57:26Z</time>
</trkpt>
<trkpt lat="52.93220322" lon="18.74628015">
<ele>66</ele>
<time>2014-05-18T16:57:32Z</time>
</trkpt>
<trkpt lat="52.93236435" lon="18.74616188">
<ele>63</ele>
<time>2014-05-18T16:57:38Z</time>
</trkpt>
<trkpt lat="52.93241926" lon="18.74613222">
<ele>61</ele>
<time>2014-05-18T16:57:44Z</time>
</trkpt>
<trkpt lat="52.93257483" lon="18.74595866">
<ele>65</ele>
<time>2014-05-18T16:57:50Z</time>
</trkpt>
<trkpt lat="52.9328002" lon="18.74588992">
<ele>67</ele>
<time>2014-05-18T16:57:56Z</time>
</trkpt>
<trkpt lat="52.93289364" lon="18.7458103">
<ele>68</ele>
<time>2014-05-18T16:58:02Z</time>
</trkpt>
<trkpt lat="52.93307872" lon="18.74572372">
<ele>69</ele>
<time>2014-05-18T16:58:08Z</time>
</trkpt>
<trkpt lat="52.93322136" lon="18.74552539">
<ele>75</ele>
<time>2014-05-18T16:58:14Z</time>
</trkpt>
<trkpt lat="52.93324442" lon="18.74544968">
<ele>74</ele>
<time>2014-05-18T16:58:20Z</time>
</trkpt>
<trkpt lat="52.93296524" lon="18.74493594">
<ele>83</ele>
<time>2014-05-18T16:58:26Z</time>
</trkpt>
<trkpt lat="52.93290438" lon="18.74482289">
<ele>83</ele>
<time>2014-05-18T16:58:32Z</time>
</trkpt>
<trkpt lat="52.93272462" lon="18.74437208">
<ele>80</ele>
<time>2014-05-18T16:58:38Z</time>
</trkpt>
<trkpt lat="52.93238532" lon="18.7437976">
<ele>73</ele>
<time>2014-05-18T16:58:44Z</time>
</trkpt>
<trkpt lat="52.93224999" lon="18.74343357">
<ele>69</ele>
<time>2014-05-18T16:58:50Z</time>
</trkpt>
<trkpt lat="52.93210028" lon="18.74316812">
<ele>69</ele>
<time>2014-05-18T16:58:56Z</time>
</trkpt>
<trkpt lat="52.93195459" lon="18.74283345">
<ele>65</ele>
<time>2014-05-18T16:59:02Z</time>
</trkpt>
<trkpt lat="52.93190095" lon="18.74276479">
<ele>64</ele>
<time>2014-05-18T16:59:08Z</time>
</trkpt>
<trkpt lat="52.93176321" lon="18.7425742">
<ele>69</ele>
<time>2014-05-18T16:59:14Z</time>
</trkpt>
<trkpt lat="52.93165308" lon="18.7423662">
<ele>71</ele>
<time>2014-05-18T16:59:20Z</time>
</trkpt>
<trkpt lat="52.93156953" lon="18.74204296">
<ele>72</ele>
<time>2014-05-18T16:59:26Z</time>
</trkpt>
<trkpt lat="52.93145647" lon="18.74181226">
<ele>72</ele>
<time>2014-05-18T16:59:32Z</time>
</trkpt>
<trkpt lat="52.93137201" lon="18.74159644">
<ele>72</ele>
<time>2014-05-18T16:59:38Z</time>
</trkpt>
<trkpt lat="52.93123795" lon="18.7413691">
<ele>74</ele>
<time>2014-05-18T16:59:44Z</time>
</trkpt>
<trkpt lat="52.93109888" lon="18.74111381">
<ele>76</ele>
<time>2014-05-18T16:59:50Z</time>
</trkpt>
<trkpt lat="52.93101865" lon="18.74081812">
<ele>83</ele>
<time>2014-05-18T16:59:56Z</time>
</trkpt>
<trkpt lat="52.93101568" lon="18.74037629">
<ele>79</ele>
<time>2014-05-18T17:00:02Z</time>
</trkpt>
<trkpt lat="52.93101963" lon="18.74004829">
<ele>79</ele>
<time>2014-05-18T17:00:08Z</time>
</trkpt>
<trkpt lat="52.93096994" lon="18.73978972">
<ele>79</ele>
<time>2014-05-18T17:00:14Z</time>
</trkpt>
<trkpt lat="52.93090091" lon="18.7395257">
<ele>79</ele>
<time>2014-05-18T17:00:20Z</time>
</trkpt>
<trkpt lat="52.93088885" lon="18.73926093">
<ele>80</ele>
<time>2014-05-18T17:00:26Z</time>
</trkpt>
<trkpt lat="52.93095237" lon="18.7390314">
<ele>80</ele>
<time>2014-05-18T17:00:32Z</time>
</trkpt>
<trkpt lat="52.93099935" lon="18.73873908">
<ele>88</ele>
<time>2014-05-18T17:00:38Z</time>
</trkpt>
<trkpt lat="52.93102888" lon="18.73848095">
<ele>94</ele>
<time>2014-05-18T17:00:44Z</time>
</trkpt>
<trkpt lat="52.93104655" lon="18.73828446">
<ele>90</ele>
<time>2014-05-18T17:00:50Z</time>
</trkpt>
<trkpt lat="52.9310365" lon="18.73813656">
<ele>92</ele>
<time>2014-05-18T17:00:56Z</time>
</trkpt>
<trkpt lat="52.93106733" lon="18.73794414">
<ele>89</ele>
<time>2014-05-18T17:01:02Z</time>
</trkpt>
<trkpt lat="52.93109177" lon="18.73775337">
<ele>87</ele>
<time>2014-05-18T17:01:08Z</time>
</trkpt>
<trkpt lat="52.93109177" lon="18.73775337">
<ele>87</ele>
<time>2014-05-18T17:01:14Z</time>
</trkpt>
<trkpt lat="52.93110428" lon="18.73771201">
<ele>87</ele>
<time>2014-05-18T17:01:20Z</time>
</trkpt>
<trkpt lat="52.93110935" lon="18.73769951">
<ele>87</ele>
<time>2014-05-18T17:01:26Z</time>
</trkpt>
<trkpt lat="52.93110939" lon="18.73769926">
<ele>87</ele>
<time>2014-05-18T17:01:32Z</time>
</trkpt>
<trkpt lat="52.93110928" lon="18.73769948">
<ele>87</ele>
<time>2014-05-18T17:01:38Z</time>
</trkpt>
<trkpt lat="52.93110934" lon="18.7376999">
<ele>87</ele>
<time>2014-05-18T17:01:44Z</time>
</trkpt>
<trkpt lat="52.93110938" lon="18.7377002">
<ele>87</ele>
<time>2014-05-18T17:01:50Z</time>
</trkpt>
<trkpt lat="52.93110885" lon="18.73770036">
<ele>87</ele>
<time>2014-05-18T17:01:56Z</time>
</trkpt>
<trkpt lat="52.93109691" lon="18.73757452">
<ele>87</ele>
<time>2014-05-18T17:02:02Z</time>
</trkpt>
<trkpt lat="52.93103299" lon="18.73737022">
<ele>83</ele>
<time>2014-05-18T17:02:08Z</time>
</trkpt>
<trkpt lat="52.93089393" lon="18.73722556">
<ele>80</ele>
<time>2014-05-18T17:02:14Z</time>
</trkpt>
<trkpt lat="52.93084501" lon="18.7371776">
<ele>79</ele>
<time>2014-05-18T17:02:20Z</time>
</trkpt>
<trkpt lat="52.93062549" lon="18.73694077">
<ele>77</ele>
<time>2014-05-18T17:02:26Z</time>
</trkpt>
<trkpt lat="52.93049345" lon="18.7367932">
<ele>78</ele>
<time>2014-05-18T17:02:32Z</time>
</trkpt>
<trkpt lat="52.93037303" lon="18.73665951">
<ele>77</ele>
<time>2014-05-18T17:02:38Z</time>
</trkpt>
<trkpt lat="52.93024381" lon="18.73652927">
<ele>77</ele>
<time>2014-05-18T17:02:44Z</time>
</trkpt>
<trkpt lat="52.9301093" lon="18.73639758">
<ele>75</ele>
<time>2014-05-18T17:02:50Z</time>
</trkpt>
<trkpt lat="52.92998196" lon="18.73623158">
<ele>79</ele>
<time>2014-05-18T17:02:56Z</time>
</trkpt>
<trkpt lat="52.92991886" lon="18.73610733">
<ele>80</ele>
<time>2014-05-18T17:03:02Z</time>
</trkpt>
<trkpt lat="52.92987018" lon="18.73583967">
<ele>82</ele>
<time>2014-05-18T17:03:08Z</time>
</trkpt>
<trkpt lat="52.92988672" lon="18.73576727">
<ele>82</ele>
<time>2014-05-18T17:03:14Z</time>
</trkpt>
<trkpt lat="52.92994677" lon="18.73549884">
<ele>82</ele>
<time>2014-05-18T17:03:20Z</time>
</trkpt>
<trkpt lat="52.92986069" lon="18.73501158">
<ele>89</ele>
<time>2014-05-18T17:03:26Z</time>
</trkpt>
<trkpt lat="52.92974398" lon="18.73476415">
<ele>89</ele>
<time>2014-05-18T17:03:32Z</time>
</trkpt>
<trkpt lat="52.92971007" lon="18.73467157">
<ele>87</ele>
<time>2014-05-18T17:03:38Z</time>
</trkpt>
<trkpt lat="52.92964165" lon="18.73409476">
<ele>80</ele>
<time>2014-05-18T17:03:44Z</time>
</trkpt>
<trkpt lat="52.92958051" lon="18.73390719">
<ele>76</ele>
<time>2014-05-18T17:03:50Z</time>
</trkpt>
<trkpt lat="52.92946491" lon="18.73370075">
<ele>73</ele>
<time>2014-05-18T17:03:56Z</time>
</trkpt>
<trkpt lat="52.92945097" lon="18.73348506">
<ele>73</ele>
<time>2014-05-18T17:04:02Z</time>
</trkpt>
<trkpt lat="52.92955222" lon="18.7333876">
<ele>75</ele>
<time>2014-05-18T17:04:08Z</time>
</trkpt>
<trkpt lat="52.92968493" lon="18.73328">
<ele>76</ele>
<time>2014-05-18T17:04:14Z</time>
</trkpt>
<trkpt lat="52.92984316" lon="18.73314826">
<ele>76</ele>
<time>2014-05-18T17:04:20Z</time>
</trkpt>
<trkpt lat="52.93004058" lon="18.733012">
<ele>75</ele>
<time>2014-05-18T17:04:26Z</time>
</trkpt>
<trkpt lat="52.93023818" lon="18.73288545">
<ele>76</ele>
<time>2014-05-18T17:04:32Z</time>
</trkpt>
<trkpt lat="52.93041478" lon="18.73281487">
<ele>78</ele>
<time>2014-05-18T17:04:38Z</time>
</trkpt>
<trkpt lat="52.93059808" lon="18.73276071">
<ele>78</ele>
<time>2014-05-18T17:04:44Z</time>
</trkpt>
<trkpt lat="52.93076624" lon="18.73272393">
<ele>80</ele>
<time>2014-05-18T17:04:50Z</time>
</trkpt>
<trkpt lat="52.93094713" lon="18.73268985">
<ele>82</ele>
<time>2014-05-18T17:04:56Z</time>
</trkpt>
<trkpt lat="52.93112533" lon="18.73265662">
<ele>81</ele>
<time>2014-05-18T17:05:02Z</time>
</trkpt>
<trkpt lat="52.93118538" lon="18.73264959">
<ele>81</ele>
<time>2014-05-18T17:05:08Z</time>
</trkpt>
<trkpt lat="52.93150192" lon="18.73258714">
<ele>83</ele>
<time>2014-05-18T17:05:14Z</time>
</trkpt>
<trkpt lat="52.93165938" lon="18.73249464">
<ele>90</ele>
<time>2014-05-18T17:05:20Z</time>
</trkpt>
<trkpt lat="52.93180375" lon="18.73241037">
<ele>96</ele>
<time>2014-05-18T17:05:26Z</time>
</trkpt>
<trkpt lat="52.9318764" lon="18.73237813">
<ele>95</ele>
<time>2014-05-18T17:05:32Z</time>
</trkpt>
<trkpt lat="52.93207027" lon="18.73229232">
<ele>95</ele>
<time>2014-05-18T17:05:38Z</time>
</trkpt>
<trkpt lat="52.9324021" lon="18.73214977">
<ele>91</ele>
<time>2014-05-18T17:05:44Z</time>
</trkpt>
<trkpt lat="52.9325866" lon="18.73212662">
<ele>88</ele>
<time>2014-05-18T17:05:50Z</time>
</trkpt>
<trkpt lat="52.93274103" lon="18.73204497">
<ele>90</ele>
<time>2014-05-18T17:05:56Z</time>
</trkpt>
<trkpt lat="52.93288531" lon="18.73196291">
<ele>95</ele>
<time>2014-05-18T17:06:02Z</time>
</trkpt>
<trkpt lat="52.93309157" lon="18.73188326">
<ele>100</ele>
<time>2014-05-18T17:06:08Z</time>
</trkpt>
<trkpt lat="52.93329188" lon="18.73180583">
<ele>100</ele>
<time>2014-05-18T17:06:14Z</time>
</trkpt>
<trkpt lat="52.93350011" lon="18.73174379">
<ele>97</ele>
<time>2014-05-18T17:06:20Z</time>
</trkpt>
<trkpt lat="52.93372248" lon="18.73165856">
<ele>93</ele>
<time>2014-05-18T17:06:26Z</time>
</trkpt>
<trkpt lat="52.93394856" lon="18.73155328">
<ele>92</ele>
<time>2014-05-18T17:06:32Z</time>
</trkpt>
<trkpt lat="52.93417234" lon="18.7314502">
<ele>94</ele>
<time>2014-05-18T17:06:38Z</time>
</trkpt>
<trkpt lat="52.93438332" lon="18.73136006">
<ele>93</ele>
<time>2014-05-18T17:06:44Z</time>
</trkpt>
<trkpt lat="52.93459235" lon="18.73125418">
<ele>100</ele>
<time>2014-05-18T17:06:50Z</time>
</trkpt>
<trkpt lat="52.93468933" lon="18.73121559">
<ele>99</ele>
<time>2014-05-18T17:06:56Z</time>
</trkpt>
<trkpt lat="52.93509673" lon="18.73099179">
<ele>98</ele>
<time>2014-05-18T17:07:02Z</time>
</trkpt>
<trkpt lat="52.93539716" lon="18.73089251">
<ele>95</ele>
<time>2014-05-18T17:07:08Z</time>
</trkpt>
<trkpt lat="52.93567477" lon="18.73079023">
<ele>96</ele>
<time>2014-05-18T17:07:14Z</time>
</trkpt>
<trkpt lat="52.93596526" lon="18.73072899">
<ele>91</ele>
<time>2014-05-18T17:07:20Z</time>
</trkpt>
<trkpt lat="52.93603208" lon="18.73069273">
<ele>94</ele>
<time>2014-05-18T17:07:26Z</time>
</trkpt>
<trkpt lat="52.93643081" lon="18.73056408">
<ele>100</ele>
<time>2014-05-18T17:07:32Z</time>
</trkpt>
<trkpt lat="52.93648907" lon="18.73054829">
<ele>102</ele>
<time>2014-05-18T17:07:38Z</time>
</trkpt>
<trkpt lat="52.93688292" lon="18.73057619">
<ele>100</ele>
<time>2014-05-18T17:07:44Z</time>
</trkpt>
<trkpt lat="52.93715326" lon="18.7307302">
<ele>88</ele>
<time>2014-05-18T17:07:50Z</time>
</trkpt>
<trkpt lat="52.93731453" lon="18.73084192">
<ele>92</ele>
<time>2014-05-18T17:07:56Z</time>
</trkpt>
<trkpt lat="52.93750761" lon="18.73098846">
<ele>87</ele>
<time>2014-05-18T17:08:02Z</time>
</trkpt>
<trkpt lat="52.93761115" lon="18.73109985">
<ele>84</ele>
<time>2014-05-18T17:08:08Z</time>
</trkpt>
<trkpt lat="52.93791629" lon="18.73138603">
<ele>87</ele>
<time>2014-05-18T17:08:14Z</time>
</trkpt>
<trkpt lat="52.93808858" lon="18.73146776">
<ele>87</ele>
<time>2014-05-18T17:08:20Z</time>
</trkpt>
<trkpt lat="52.93826042" lon="18.73155851">
<ele>90</ele>
<time>2014-05-18T17:08:26Z</time>
</trkpt>
<trkpt lat="52.93843834" lon="18.73169663">
<ele>91</ele>
<time>2014-05-18T17:08:32Z</time>
</trkpt>
<trkpt lat="52.93860902" lon="18.73184342">
<ele>93</ele>
<time>2014-05-18T17:08:38Z</time>
</trkpt>
<trkpt lat="52.93866208" lon="18.73187866">
<ele>95</ele>
<time>2014-05-18T17:08:44Z</time>
</trkpt>
<trkpt lat="52.93903474" lon="18.73217158">
<ele>93</ele>
<time>2014-05-18T17:08:50Z</time>
</trkpt>
<trkpt lat="52.93924072" lon="18.73234361">
<ele>101</ele>
<time>2014-05-18T17:08:56Z</time>
</trkpt>
<trkpt lat="52.93942681" lon="18.73249525">
<ele>106</ele>
<time>2014-05-18T17:09:02Z</time>
</trkpt>
<trkpt lat="52.93974213" lon="18.73273177">
<ele>105</ele>
<time>2014-05-18T17:09:08Z</time>
</trkpt>
<trkpt lat="52.93984984" lon="18.73283913">
<ele>105</ele>
<time>2014-05-18T17:09:14Z</time>
</trkpt>
<trkpt lat="52.940177" lon="18.73306346">
<ele>107</ele>
<time>2014-05-18T17:09:20Z</time>
</trkpt>
<trkpt lat="52.94061927" lon="18.73326658">
<ele>94</ele>
<time>2014-05-18T17:09:26Z</time>
</trkpt>
<trkpt lat="52.9409667" lon="18.73336629">
<ele>90</ele>
<time>2014-05-18T17:09:32Z</time>
</trkpt>
<trkpt lat="52.94105843" lon="18.73337958">
<ele>90</ele>
<time>2014-05-18T17:09:38Z</time>
</trkpt>
<trkpt lat="52.94151383" lon="18.73302382">
<ele>89</ele>
<time>2014-05-18T17:09:44Z</time>
</trkpt>
<trkpt lat="52.94172986" lon="18.73286404">
<ele>89</ele>
<time>2014-05-18T17:09:50Z</time>
</trkpt>
<trkpt lat="52.94186291" lon="18.73283641">
<ele>93</ele>
<time>2014-05-18T17:09:56Z</time>
</trkpt>
<trkpt lat="52.94208241" lon="18.7326715">
<ele>99</ele>
<time>2014-05-18T17:10:02Z</time>
</trkpt>
<trkpt lat="52.9424345" lon="18.73244489">
<ele>92</ele>
<time>2014-05-18T17:10:08Z</time>
</trkpt>
<trkpt lat="52.94281069" lon="18.73242845">
<ele>88</ele>
<time>2014-05-18T17:10:14Z</time>
</trkpt>
<trkpt lat="52.94316998" lon="18.73225663">
<ele>83</ele>
<time>2014-05-18T17:10:20Z</time>
</trkpt>
<trkpt lat="52.94345611" lon="18.73211082">
<ele>78</ele>
<time>2014-05-18T17:10:26Z</time>
</trkpt>
<trkpt lat="52.9437703" lon="18.73193146">
<ele>77</ele>
<time>2014-05-18T17:10:32Z</time>
</trkpt>
<trkpt lat="52.94401353" lon="18.73176835">
<ele>77</ele>
<time>2014-05-18T17:10:38Z</time>
</trkpt>
<trkpt lat="52.94408771" lon="18.73171539">
<ele>78</ele>
<time>2014-05-18T17:10:44Z</time>
</trkpt>
<trkpt lat="52.94446893" lon="18.73139239">
<ele>80</ele>
<time>2014-05-18T17:10:50Z</time>
</trkpt>
<trkpt lat="52.94456705" lon="18.73115303">
<ele>83</ele>
<time>2014-05-18T17:10:56Z</time>
</trkpt>
<trkpt lat="52.94483902" lon="18.73086698">
<ele>85</ele>
<time>2014-05-18T17:11:02Z</time>
</trkpt>
<trkpt lat="52.94507755" lon="18.73072952">
<ele>83</ele>
<time>2014-05-18T17:11:08Z</time>
</trkpt>
<trkpt lat="52.94527852" lon="18.73056778">
<ele>80</ele>
<time>2014-05-18T17:11:14Z</time>
</trkpt>
<trkpt lat="52.94534639" lon="18.73053092">
<ele>80</ele>
<time>2014-05-18T17:11:20Z</time>
</trkpt>
<trkpt lat="52.94558482" lon="18.73031928">
<ele>79</ele>
<time>2014-05-18T17:11:26Z</time>
</trkpt>
<trkpt lat="52.94582341" lon="18.73013676">
<ele>83</ele>
<time>2014-05-18T17:11:32Z</time>
</trkpt>
<trkpt lat="52.94607859" lon="18.72974925">
<ele>105</ele>
<time>2014-05-18T17:11:38Z</time>
</trkpt>
<trkpt lat="52.94629737" lon="18.72955522">
<ele>108</ele>
<time>2014-05-18T17:11:44Z</time>
</trkpt>
<trkpt lat="52.94646462" lon="18.7294148">
<ele>105</ele>
<time>2014-05-18T17:11:50Z</time>
</trkpt>
<trkpt lat="52.94666134" lon="18.72919827">
<ele>100</ele>
<time>2014-05-18T17:11:56Z</time>
</trkpt>
<trkpt lat="52.94693183" lon="18.72889389">
<ele>92</ele>
<time>2014-05-18T17:12:02Z</time>
</trkpt>
<trkpt lat="52.94729623" lon="18.72851483">
<ele>91</ele>
<time>2014-05-18T17:12:08Z</time>
</trkpt>
<trkpt lat="52.94755055" lon="18.72827357">
<ele>93</ele>
<time>2014-05-18T17:12:14Z</time>
</trkpt>
<trkpt lat="52.94763784" lon="18.72818568">
<ele>93</ele>
<time>2014-05-18T17:12:20Z</time>
</trkpt>
<trkpt lat="52.94793418" lon="18.72794924">
<ele>92</ele>
<time>2014-05-18T17:12:26Z</time>
</trkpt>
<trkpt lat="52.94844295" lon="18.72770093">
<ele>87</ele>
<time>2014-05-18T17:12:32Z</time>
</trkpt>
<trkpt lat="52.94852392" lon="18.72764072">
<ele>86</ele>
<time>2014-05-18T17:12:38Z</time>
</trkpt>
<trkpt lat="52.94883097" lon="18.727529">
<ele>86</ele>
<time>2014-05-18T17:12:44Z</time>
</trkpt>
<trkpt lat="52.94916013" lon="18.72741027">
<ele>91</ele>
<time>2014-05-18T17:12:50Z</time>
</trkpt>
<trkpt lat="52.94937334" lon="18.72738607">
<ele>92</ele>
<time>2014-05-18T17:12:56Z</time>
</trkpt>
<trkpt lat="52.94946598" lon="18.72737479">
<ele>95</ele>
<time>2014-05-18T17:13:02Z</time>
</trkpt>
<trkpt lat="52.94973421" lon="18.7273714">
<ele>97</ele>
<time>2014-05-18T17:13:08Z</time>
</trkpt>
<trkpt lat="52.9499708" lon="18.72731337">
<ele>94</ele>
<time>2014-05-18T17:13:14Z</time>
</trkpt>
<trkpt lat="52.95055521" lon="18.7269551">
<ele>86</ele>
<time>2014-05-18T17:13:20Z</time>
</trkpt>
<trkpt lat="52.95066675" lon="18.72685917">
<ele>89</ele>
<time>2014-05-18T17:13:26Z</time>
</trkpt>
<trkpt lat="52.95089249" lon="18.72666372">
<ele>90</ele>
<time>2014-05-18T17:13:32Z</time>
</trkpt>
<trkpt lat="52.95127571" lon="18.72639485">
<ele>95</ele>
<time>2014-05-18T17:13:38Z</time>
</trkpt>
<trkpt lat="52.95137879" lon="18.72634019">
<ele>96</ele>
<time>2014-05-18T17:13:44Z</time>
</trkpt>
<trkpt lat="52.9518906" lon="18.72610793">
<ele>92</ele>
<time>2014-05-18T17:13:50Z</time>
</trkpt>
<trkpt lat="52.95200823" lon="18.72592696">
<ele>92</ele>
<time>2014-05-18T17:13:56Z</time>
</trkpt>
<trkpt lat="52.95207244" lon="18.72590514">
<ele>95</ele>
<time>2014-05-18T17:14:02Z</time>
</trkpt>
<trkpt lat="52.9524615" lon="18.72579593">
<ele>93</ele>
<time>2014-05-18T17:14:08Z</time>
</trkpt>
<trkpt lat="52.95251367" lon="18.72576135">
<ele>94</ele>
<time>2014-05-18T17:14:14Z</time>
</trkpt>
<trkpt lat="52.95290859" lon="18.72559033">
<ele>90</ele>
<time>2014-05-18T17:14:20Z</time>
</trkpt>
<trkpt lat="52.95299283" lon="18.72551528">
<ele>89</ele>
<time>2014-05-18T17:14:26Z</time>
</trkpt>
<trkpt lat="52.95343009" lon="18.72533574">
<ele>90</ele>
<time>2014-05-18T17:14:32Z</time>
</trkpt>
<trkpt lat="52.95374024" lon="18.72518563">
<ele>90</ele>
<time>2014-05-18T17:14:38Z</time>
</trkpt>
<trkpt lat="52.95389638" lon="18.72509195">
<ele>86</ele>
<time>2014-05-18T17:14:44Z</time>
</trkpt>
<trkpt lat="52.95414428" lon="18.72490061">
<ele>85</ele>
<time>2014-05-18T17:14:50Z</time>
</trkpt>
<trkpt lat="52.95419769" lon="18.72482272">
<ele>86</ele>
<time>2014-05-18T17:14:56Z</time>
</trkpt>
<trkpt lat="52.95462551" lon="18.72450419">
<ele>88</ele>
<time>2014-05-18T17:15:02Z</time>
</trkpt>
<trkpt lat="52.95489811" lon="18.72434481">
<ele>83</ele>
<time>2014-05-18T17:15:08Z</time>
</trkpt>
<trkpt lat="52.95516652" lon="18.72426354">
<ele>85</ele>
<time>2014-05-18T17:15:14Z</time>
</trkpt>
<trkpt lat="52.95538742" lon="18.7242746">
<ele>91</ele>
<time>2014-05-18T17:15:20Z</time>
</trkpt>
<trkpt lat="52.95566643" lon="18.72432757">
<ele>87</ele>
<time>2014-05-18T17:15:26Z</time>
</trkpt>
<trkpt lat="52.95596132" lon="18.72439305">
<ele>84</ele>
<time>2014-05-18T17:15:32Z</time>
</trkpt>
<trkpt lat="52.95624563" lon="18.72443979">
<ele>80</ele>
<time>2014-05-18T17:15:38Z</time>
</trkpt>
<trkpt lat="52.95633753" lon="18.72442308">
<ele>79</ele>
<time>2014-05-18T17:15:44Z</time>
</trkpt>
<trkpt lat="52.95656085" lon="18.72430894">
<ele>86</ele>
<time>2014-05-18T17:15:50Z</time>
</trkpt>
<trkpt lat="52.95706437" lon="18.72411015">
<ele>80</ele>
<time>2014-05-18T17:15:56Z</time>
</trkpt>
<trkpt lat="52.95711402" lon="18.72406007">
<ele>88</ele>
<time>2014-05-18T17:16:02Z</time>
</trkpt>
<trkpt lat="52.95751909" lon="18.72389412">
<ele>91</ele>
<time>2014-05-18T17:16:08Z</time>
</trkpt>
<trkpt lat="52.95757162" lon="18.72391569">
<ele>94</ele>
<time>2014-05-18T17:16:14Z</time>
</trkpt>
<trkpt lat="52.9578087" lon="18.72384511">
<ele>94</ele>
<time>2014-05-18T17:16:20Z</time>
</trkpt>
<trkpt lat="52.95800148" lon="18.72378378">
<ele>94</ele>
<time>2014-05-18T17:16:26Z</time>
</trkpt>
<trkpt lat="52.95848233" lon="18.72365085">
<ele>93</ele>
<time>2014-05-18T17:16:32Z</time>
</trkpt>
<trkpt lat="52.95854345" lon="18.72356019">
<ele>95</ele>
<time>2014-05-18T17:16:38Z</time>
</trkpt>
<trkpt lat="52.95876349" lon="18.72353266">
<ele>94</ele>
<time>2014-05-18T17:16:44Z</time>
</trkpt>
<trkpt lat="52.95917955" lon="18.72347358">
<ele>95</ele>
<time>2014-05-18T17:16:50Z</time>
</trkpt>
<trkpt lat="52.95937074" lon="18.72335972">
<ele>95</ele>
<time>2014-05-18T17:16:56Z</time>
</trkpt>
<trkpt lat="52.95976398" lon="18.72328532">
<ele>86</ele>
<time>2014-05-18T17:17:02Z</time>
</trkpt>
<trkpt lat="52.96001255" lon="18.7231546">
<ele>95</ele>
<time>2014-05-18T17:17:08Z</time>
</trkpt>
<trkpt lat="52.96008759" lon="18.72312403">
<ele>95</ele>
<time>2014-05-18T17:17:14Z</time>
</trkpt>
<trkpt lat="52.96059366" lon="18.72303613">
<ele>94</ele>
<time>2014-05-18T17:17:20Z</time>
</trkpt>
<trkpt lat="52.96079533" lon="18.72304955">
<ele>87</ele>
<time>2014-05-18T17:17:26Z</time>
</trkpt>
<trkpt lat="52.96113294" lon="18.72284082">
<ele>87</ele>
<time>2014-05-18T17:17:32Z</time>
</trkpt>
<trkpt lat="52.96124425" lon="18.7228375">
<ele>87</ele>
<time>2014-05-18T17:17:38Z</time>
</trkpt>
<trkpt lat="52.96144205" lon="18.72280374">
<ele>89</ele>
<time>2014-05-18T17:17:44Z</time>
</trkpt>
<trkpt lat="52.96182672" lon="18.722568">
<ele>94</ele>
<time>2014-05-18T17:17:50Z</time>
</trkpt>
<trkpt lat="52.96192228" lon="18.72255128">
<ele>90</ele>
<time>2014-05-18T17:17:56Z</time>
</trkpt>
<trkpt lat="52.96232212" lon="18.72250662">
<ele>88</ele>
<time>2014-05-18T17:18:02Z</time>
</trkpt>
<trkpt lat="52.96269283" lon="18.72244519">
<ele>79</ele>
<time>2014-05-18T17:18:08Z</time>
</trkpt>
<trkpt lat="52.962918" lon="18.72236927">
<ele>86</ele>
<time>2014-05-18T17:18:14Z</time>
</trkpt>
<trkpt lat="52.96315315" lon="18.72235153">
<ele>85</ele>
<time>2014-05-18T17:18:20Z</time>
</trkpt>
<trkpt lat="52.9634365" lon="18.72227535">
<ele>86</ele>
<time>2014-05-18T17:18:26Z</time>
</trkpt>
<trkpt lat="52.96371704" lon="18.72220293">
<ele>85</ele>
<time>2014-05-18T17:18:32Z</time>
</trkpt>
<trkpt lat="52.9639593" lon="18.72213455">
<ele>85</ele>
<time>2014-05-18T17:18:38Z</time>
</trkpt>
<trkpt lat="52.96416658" lon="18.72208147">
<ele>84</ele>
<time>2014-05-18T17:18:44Z</time>
</trkpt>
<trkpt lat="52.96439734" lon="18.72203903">
<ele>83</ele>
<time>2014-05-18T17:18:50Z</time>
</trkpt>
<trkpt lat="52.96469017" lon="18.72196884">
<ele>81</ele>
<time>2014-05-18T17:18:56Z</time>
</trkpt>
<trkpt lat="52.9649498" lon="18.72191104">
<ele>80</ele>
<time>2014-05-18T17:19:02Z</time>
</trkpt>
<trkpt lat="52.96517116" lon="18.72176512">
<ele>81</ele>
<time>2014-05-18T17:19:08Z</time>
</trkpt>
<trkpt lat="52.96544448" lon="18.72171336">
<ele>80</ele>
<time>2014-05-18T17:19:14Z</time>
</trkpt>
<trkpt lat="52.9657351" lon="18.72167839">
<ele>81</ele>
<time>2014-05-18T17:19:20Z</time>
</trkpt>
<trkpt lat="52.96602512" lon="18.72154072">
<ele>81</ele>
<time>2014-05-18T17:19:26Z</time>
</trkpt>
<trkpt lat="52.96628009" lon="18.72143332">
<ele>80</ele>
<time>2014-05-18T17:19:32Z</time>
</trkpt>
<trkpt lat="52.9666004" lon="18.72128509">
<ele>79</ele>
<time>2014-05-18T17:19:38Z</time>
</trkpt>
<trkpt lat="52.96692205" lon="18.72110748">
<ele>76</ele>
<time>2014-05-18T17:19:44Z</time>
</trkpt>
<trkpt lat="52.96721471" lon="18.72093608">
<ele>77</ele>
<time>2014-05-18T17:19:50Z</time>
</trkpt>
<trkpt lat="52.96751088" lon="18.72080853">
<ele>75</ele>
<time>2014-05-18T17:19:56Z</time>
</trkpt>
<trkpt lat="52.96780776" lon="18.72065806">
<ele>76</ele>
<time>2014-05-18T17:20:02Z</time>
</trkpt>
<trkpt lat="52.96809499" lon="18.72052125">
<ele>76</ele>
<time>2014-05-18T17:20:08Z</time>
</trkpt>
<trkpt lat="52.96840316" lon="18.72047155">
<ele>76</ele>
<time>2014-05-18T17:20:14Z</time>
</trkpt>
<trkpt lat="52.96868693" lon="18.72051384">
<ele>78</ele>
<time>2014-05-18T17:20:20Z</time>
</trkpt>
<trkpt lat="52.96897237" lon="18.72049746">
<ele>77</ele>
<time>2014-05-18T17:20:26Z</time>
</trkpt>
<trkpt lat="52.96924673" lon="18.72036821">
<ele>76</ele>
<time>2014-05-18T17:20:32Z</time>
</trkpt>
<trkpt lat="52.96945281" lon="18.72007344">
<ele>77</ele>
<time>2014-05-18T17:20:38Z</time>
</trkpt>
<trkpt lat="52.9696452" lon="18.71977287">
<ele>81</ele>
<time>2014-05-18T17:20:44Z</time>
</trkpt>
<trkpt lat="52.96986839" lon="18.71949498">
<ele>81</ele>
<time>2014-05-18T17:20:50Z</time>
</trkpt>
<trkpt lat="52.97007462" lon="18.71924693">
<ele>82</ele>
<time>2014-05-18T17:20:56Z</time>
</trkpt>
<trkpt lat="52.9702683" lon="18.71902853">
<ele>83</ele>
<time>2014-05-18T17:21:02Z</time>
</trkpt>
<trkpt lat="52.97045969" lon="18.71882287">
<ele>84</ele>
<time>2014-05-18T17:21:08Z</time>
</trkpt>
<trkpt lat="52.97069368" lon="18.718586">
<ele>83</ele>
<time>2014-05-18T17:21:14Z</time>
</trkpt>
<trkpt lat="52.97093747" lon="18.71829734">
<ele>81</ele>
<time>2014-05-18T17:21:20Z</time>
</trkpt>
<trkpt lat="52.97120512" lon="18.71798804">
<ele>80</ele>
<time>2014-05-18T17:21:26Z</time>
</trkpt>
<trkpt lat="52.97145691" lon="18.71770233">
<ele>80</ele>
<time>2014-05-18T17:21:32Z</time>
</trkpt>
<trkpt lat="52.97161222" lon="18.71753234">
<ele>76</ele>
<time>2014-05-18T17:21:38Z</time>
</trkpt>
<trkpt lat="52.97181465" lon="18.71731252">
<ele>75</ele>
<time>2014-05-18T17:21:44Z</time>
</trkpt>
<trkpt lat="52.97199817" lon="18.71707774">
<ele>77</ele>
<time>2014-05-18T17:21:50Z</time>
</trkpt>
<trkpt lat="52.97239752" lon="18.71668009">
<ele>78</ele>
<time>2014-05-18T17:21:56Z</time>
</trkpt>
<trkpt lat="52.97245446" lon="18.71661788">
<ele>75</ele>
<time>2014-05-18T17:22:02Z</time>
</trkpt>
<trkpt lat="52.97255415" lon="18.71639741">
<ele>77</ele>
<time>2014-05-18T17:22:08Z</time>
</trkpt>
<trkpt lat="52.97299699" lon="18.71591983">
<ele>79</ele>
<time>2014-05-18T17:22:14Z</time>
</trkpt>
<trkpt lat="52.97322473" lon="18.7156489">
<ele>84</ele>
<time>2014-05-18T17:22:20Z</time>
</trkpt>
<trkpt lat="52.97342518" lon="18.71540427">
<ele>84</ele>
<time>2014-05-18T17:22:26Z</time>
</trkpt>
<trkpt lat="52.9736146" lon="18.71515915">
<ele>84</ele>
<time>2014-05-18T17:22:32Z</time>
</trkpt>
<trkpt lat="52.97382763" lon="18.71483417">
<ele>83</ele>
<time>2014-05-18T17:22:38Z</time>
</trkpt>
<trkpt lat="52.97390385" lon="18.71470501">
<ele>80</ele>
<time>2014-05-18T17:22:44Z</time>
</trkpt>
<trkpt lat="52.97409663" lon="18.71442739">
<ele>80</ele>
<time>2014-05-18T17:22:50Z</time>
</trkpt>
<trkpt lat="52.97454562" lon="18.71381943">
<ele>81</ele>
<time>2014-05-18T17:22:56Z</time>
</trkpt>
<trkpt lat="52.97476465" lon="18.71352513">
<ele>80</ele>
<time>2014-05-18T17:23:02Z</time>
</trkpt>
<trkpt lat="52.97500637" lon="18.71325451">
<ele>77</ele>
<time>2014-05-18T17:23:08Z</time>
</trkpt>
<trkpt lat="52.97524842" lon="18.71300527">
<ele>79</ele>
<time>2014-05-18T17:23:14Z</time>
</trkpt>
<trkpt lat="52.97549635" lon="18.71276401">
<ele>80</ele>
<time>2014-05-18T17:23:20Z</time>
</trkpt>
<trkpt lat="52.97573898" lon="18.71254025">
<ele>81</ele>
<time>2014-05-18T17:23:26Z</time>
</trkpt>
<trkpt lat="52.97580135" lon="18.71245664">
<ele>83</ele>
<time>2014-05-18T17:23:32Z</time>
</trkpt>
<trkpt lat="52.97597507" lon="18.71222468">
<ele>82</ele>
<time>2014-05-18T17:23:38Z</time>
</trkpt>
<trkpt lat="52.97645656" lon="18.71179277">
<ele>80</ele>
<time>2014-05-18T17:23:44Z</time>
</trkpt>
<trkpt lat="52.97645656" lon="18.71179277">
<ele>80</ele>
<time>2014-05-18T17:23:50Z</time>
</trkpt>
<trkpt lat="52.97646864" lon="18.71172619">
<ele>76</ele>
<time>2014-05-18T17:23:56Z</time>
</trkpt>
<trkpt lat="52.97646046" lon="18.71171432">
<ele>75</ele>
<time>2014-05-18T17:24:02Z</time>
</trkpt>
<trkpt lat="52.97644832" lon="18.71173625">
<ele>74</ele>
<time>2014-05-18T17:24:08Z</time>
</trkpt>
<trkpt lat="52.97644641" lon="18.7117764">
<ele>73</ele>
<time>2014-05-18T17:24:14Z</time>
</trkpt>
<trkpt lat="52.97644234" lon="18.71178025">
<ele>73</ele>
<time>2014-05-18T17:24:20Z</time>
</trkpt>
<trkpt lat="52.97643285" lon="18.71180531">
<ele>72</ele>
<time>2014-05-18T17:24:26Z</time>
</trkpt>
<trkpt lat="52.97643584" lon="18.71174723">
<ele>77</ele>
<time>2014-05-18T17:24:32Z</time>
</trkpt>
<trkpt lat="52.97643975" lon="18.71174346">
<ele>78</ele>
<time>2014-05-18T17:24:38Z</time>
</trkpt>
<trkpt lat="52.97643049" lon="18.71174287">
<ele>81</ele>
<time>2014-05-18T17:24:44Z</time>
</trkpt>
<trkpt lat="52.97643027" lon="18.71174234">
<ele>81</ele>
<time>2014-05-18T17:24:50Z</time>
</trkpt>
<trkpt lat="52.97643024" lon="18.71174226">
<ele>81</ele>
<time>2014-05-18T17:24:56Z</time>
</trkpt>
<trkpt lat="52.97643012" lon="18.71174225">
<ele>81</ele>
<time>2014-05-18T17:25:02Z</time>
</trkpt>
<trkpt lat="52.97648808" lon="18.71170491">
<ele>79</ele>
<time>2014-05-18T17:25:08Z</time>
</trkpt>
<trkpt lat="52.97653417" lon="18.71165433">
<ele>81</ele>
<time>2014-05-18T17:25:14Z</time>
</trkpt>
<trkpt lat="52.97659171" lon="18.71160987">
<ele>80</ele>
<time>2014-05-18T17:25:20Z</time>
</trkpt>
<trkpt lat="52.97664027" lon="18.71156199">
<ele>80</ele>
<time>2014-05-18T17:25:26Z</time>
</trkpt>
<trkpt lat="52.97668526" lon="18.71151873">
<ele>80</ele>
<time>2014-05-18T17:25:32Z</time>
</trkpt>
<trkpt lat="52.97668526" lon="18.71151873">
<ele>80</ele>
<time>2014-05-18T17:25:38Z</time>
</trkpt>
<trkpt lat="52.97668926" lon="18.71151436">
<ele>80</ele>
<time>2014-05-18T17:25:44Z</time>
</trkpt>
<trkpt lat="52.97672214" lon="18.71147703">
<ele>80</ele>
<time>2014-05-18T17:25:50Z</time>
</trkpt>
<trkpt lat="52.97683366" lon="18.71137159">
<ele>78</ele>
<time>2014-05-18T17:25:56Z</time>
</trkpt>
<trkpt lat="52.97691385" lon="18.71128295">
<ele>77</ele>
<time>2014-05-18T17:26:02Z</time>
</trkpt>
<trkpt lat="52.97693146" lon="18.71121162">
<ele>76</ele>
<time>2014-05-18T17:26:08Z</time>
</trkpt>
<trkpt lat="52.97693146" lon="18.71121162">
<ele>76</ele>
<time>2014-05-18T17:26:14Z</time>
</trkpt>
<trkpt lat="52.97692581" lon="18.71121781">
<ele>78</ele>
<time>2014-05-18T17:26:20Z</time>
</trkpt>
<trkpt lat="52.9769334" lon="18.71123177">
<ele>79</ele>
<time>2014-05-18T17:26:26Z</time>
</trkpt>
<trkpt lat="52.97695208" lon="18.71124834">
<ele>78</ele>
<time>2014-05-18T17:26:32Z</time>
</trkpt>
<trkpt lat="52.9769471" lon="18.71123674">
<ele>79</ele>
<time>2014-05-18T17:26:38Z</time>
</trkpt>
<trkpt lat="52.97694904" lon="18.71123402">
<ele>80</ele>
<time>2014-05-18T17:26:44Z</time>
</trkpt>
<trkpt lat="52.97694413" lon="18.71123381">
<ele>82</ele>
<time>2014-05-18T17:26:50Z</time>
</trkpt>
<trkpt lat="52.97693174" lon="18.7112529">
<ele>79</ele>
<time>2014-05-18T17:26:56Z</time>
</trkpt>
<trkpt lat="52.97693152" lon="18.71127359">
<ele>82</ele>
<time>2014-05-18T17:27:02Z</time>
</trkpt>
<trkpt lat="52.97692629" lon="18.71126785">
<ele>82</ele>
<time>2014-05-18T17:27:08Z</time>
</trkpt>
<trkpt lat="52.97692742" lon="18.71128636">
<ele>80</ele>
<time>2014-05-18T17:27:14Z</time>
</trkpt>
<trkpt lat="52.97691901" lon="18.71128322">
<ele>83</ele>
<time>2014-05-18T17:27:20Z</time>
</trkpt>
<trkpt lat="52.976917" lon="18.71127941">
<ele>79</ele>
<time>2014-05-18T17:27:26Z</time>
</trkpt>
<trkpt lat="52.97691342" lon="18.71128359">
<ele>75</ele>
<time>2014-05-18T17:27:32Z</time>
</trkpt>
<trkpt lat="52.97691554" lon="18.71128294">
<ele>74</ele>
<time>2014-05-18T17:27:38Z</time>
</trkpt>
<trkpt lat="52.97690533" lon="18.71127317">
<ele>77</ele>
<time>2014-05-18T17:27:44Z</time>
</trkpt>
<trkpt lat="52.97691731" lon="18.7112658">
<ele>75</ele>
<time>2014-05-18T17:27:50Z</time>
</trkpt>
<trkpt lat="52.97691915" lon="18.71126634">
<ele>76</ele>
<time>2014-05-18T17:27:56Z</time>
</trkpt>
<trkpt lat="52.97692565" lon="18.71127466">
<ele>76</ele>
<time>2014-05-18T17:28:02Z</time>
</trkpt>
<trkpt lat="52.97694007" lon="18.71129422">
<ele>73</ele>
<time>2014-05-18T17:28:08Z</time>
</trkpt>
<trkpt lat="52.97693569" lon="18.71128132">
<ele>74</ele>
<time>2014-05-18T17:28:14Z</time>
</trkpt>
<trkpt lat="52.97693565" lon="18.71127669">
<ele>74</ele>
<time>2014-05-18T17:28:20Z</time>
</trkpt>
<trkpt lat="52.97692696" lon="18.71127356">
<ele>75</ele>
<time>2014-05-18T17:28:26Z</time>
</trkpt>
<trkpt lat="52.97693035" lon="18.71126708">
<ele>77</ele>
<time>2014-05-18T17:28:32Z</time>
</trkpt>
<trkpt lat="52.97693065" lon="18.71125776">
<ele>78</ele>
<time>2014-05-18T17:28:39Z</time>
</trkpt>
<trkpt lat="52.97692979" lon="18.71125673">
<ele>78</ele>
<time>2014-05-18T17:28:44Z</time>
</trkpt>
<trkpt lat="52.97693504" lon="18.71125453">
<ele>75</ele>
<time>2014-05-18T17:28:50Z</time>
</trkpt>
<trkpt lat="52.97694615" lon="18.71123427">
<ele>74</ele>
<time>2014-05-18T17:28:56Z</time>
</trkpt>
<trkpt lat="52.97694383" lon="18.71122508">
<ele>76</ele>
<time>2014-05-18T17:29:02Z</time>
</trkpt>
<trkpt lat="52.97694462" lon="18.71122678">
<ele>76</ele>
<time>2014-05-18T17:29:08Z</time>
</trkpt>
<trkpt lat="52.97694999" lon="18.71128156">
<ele>77</ele>
<time>2014-05-18T17:29:14Z</time>
</trkpt>
<trkpt lat="52.97708489" lon="18.7111884">
<ele>79</ele>
<time>2014-05-18T17:29:20Z</time>
</trkpt>
<trkpt lat="52.97719329" lon="18.71107376">
<ele>79</ele>
<time>2014-05-18T17:29:26Z</time>
</trkpt>
<trkpt lat="52.97732591" lon="18.71093232">
<ele>80</ele>
<time>2014-05-18T17:29:32Z</time>
</trkpt>
<trkpt lat="52.97752956" lon="18.71069037">
<ele>81</ele>
<time>2014-05-18T17:29:38Z</time>
</trkpt>
<trkpt lat="52.97791206" lon="18.71026515">
<ele>79</ele>
<time>2014-05-18T17:29:44Z</time>
</trkpt>
<trkpt lat="52.97817784" lon="18.71002184">
<ele>78</ele>
<time>2014-05-18T17:29:50Z</time>
</trkpt>
<trkpt lat="52.97825241" lon="18.70990986">
<ele>78</ele>
<time>2014-05-18T17:29:56Z</time>
</trkpt>
<trkpt lat="52.97869637" lon="18.70949913">
<ele>72</ele>
<time>2014-05-18T17:30:02Z</time>
</trkpt>
<trkpt lat="52.97896084" lon="18.70925912">
<ele>71</ele>
<time>2014-05-18T17:30:08Z</time>
</trkpt>
<trkpt lat="52.97904328" lon="18.70915867">
<ele>70</ele>
<time>2014-05-18T17:30:14Z</time>
</trkpt>
<trkpt lat="52.9795037" lon="18.70866922">
<ele>72</ele>
<time>2014-05-18T17:30:20Z</time>
</trkpt>
<trkpt lat="52.9797612" lon="18.70843927">
<ele>71</ele>
<time>2014-05-18T17:30:26Z</time>
</trkpt>
<trkpt lat="52.97997693" lon="18.70819216">
<ele>74</ele>
<time>2014-05-18T17:30:32Z</time>
</trkpt>
<trkpt lat="52.98023543" lon="18.70796257">
<ele>76</ele>
<time>2014-05-18T17:30:38Z</time>
</trkpt>
<trkpt lat="52.98033644" lon="18.70789676">
<ele>77</ele>
<time>2014-05-18T17:30:44Z</time>
</trkpt>
<trkpt lat="52.98082231" lon="18.70748745">
<ele>76</ele>
<time>2014-05-18T17:30:50Z</time>
</trkpt>
<trkpt lat="52.9810244" lon="18.70735116">
<ele>72</ele>
<time>2014-05-18T17:30:56Z</time>
</trkpt>
<trkpt lat="52.9813937" lon="18.70710755">
<ele>71</ele>
<time>2014-05-18T17:31:02Z</time>
</trkpt>
<trkpt lat="52.9816459" lon="18.7068726">
<ele>73</ele>
<time>2014-05-18T17:31:08Z</time>
</trkpt>
<trkpt lat="52.98186052" lon="18.70672358">
<ele>72</ele>
<time>2014-05-18T17:31:14Z</time>
</trkpt>
<trkpt lat="52.98224159" lon="18.70640032">
<ele>75</ele>
<time>2014-05-18T17:31:20Z</time>
</trkpt>
<trkpt lat="52.98252257" lon="18.706222">
<ele>76</ele>
<time>2014-05-18T17:31:26Z</time>
</trkpt>
<trkpt lat="52.98263031" lon="18.70613195">
<ele>78</ele>
<time>2014-05-18T17:31:32Z</time>
</trkpt>
<trkpt lat="52.98313325" lon="18.70577922">
<ele>78</ele>
<time>2014-05-18T17:31:38Z</time>
</trkpt>
<trkpt lat="52.9832097" lon="18.70571804">
<ele>77</ele>
<time>2014-05-18T17:31:44Z</time>
</trkpt>
<trkpt lat="52.98377326" lon="18.70529657">
<ele>74</ele>
<time>2014-05-18T17:31:50Z</time>
</trkpt>
<trkpt lat="52.98394409" lon="18.70517754">
<ele>77</ele>
<time>2014-05-18T17:31:56Z</time>
</trkpt>
<trkpt lat="52.98435687" lon="18.70491645">
<ele>78</ele>
<time>2014-05-18T17:32:02Z</time>
</trkpt>
<trkpt lat="52.9846487" lon="18.70478923">
<ele>74</ele>
<time>2014-05-18T17:32:08Z</time>
</trkpt>
<trkpt lat="52.98496079" lon="18.70463168">
<ele>72</ele>
<time>2014-05-18T17:32:14Z</time>
</trkpt>
<trkpt lat="52.98528312" lon="18.70452739">
<ele>71</ele>
<time>2014-05-18T17:32:20Z</time>
</trkpt>
<trkpt lat="52.985599" lon="18.70434174">
<ele>72</ele>
<time>2014-05-18T17:32:26Z</time>
</trkpt>
<trkpt lat="52.98572401" lon="18.70429538">
<ele>70</ele>
<time>2014-05-18T17:32:32Z</time>
</trkpt>
<trkpt lat="52.98625961" lon="18.70406476">
<ele>63</ele>
<time>2014-05-18T17:32:38Z</time>
</trkpt>
<trkpt lat="52.98647146" lon="18.70397625">
<ele>65</ele>
<time>2014-05-18T17:32:44Z</time>
</trkpt>
<trkpt lat="52.98684512" lon="18.70380396">
<ele>65</ele>
<time>2014-05-18T17:32:50Z</time>
</trkpt>
<trkpt lat="52.98714614" lon="18.70363814">
<ele>68</ele>
<time>2014-05-18T17:32:56Z</time>
</trkpt>
<trkpt lat="52.98724063" lon="18.70359851">
<ele>68</ele>
<time>2014-05-18T17:33:02Z</time>
</trkpt>
<trkpt lat="52.98755651" lon="18.70361871">
<ele>70</ele>
<time>2014-05-18T17:33:08Z</time>
</trkpt>
<trkpt lat="52.98769447" lon="18.7036126">
<ele>71</ele>
<time>2014-05-18T17:33:14Z</time>
</trkpt>
<trkpt lat="52.98798591" lon="18.70352676">
<ele>73</ele>
<time>2014-05-18T17:33:20Z</time>
</trkpt>
<trkpt lat="52.98815791" lon="18.70344026">
<ele>78</ele>
<time>2014-05-18T17:33:26Z</time>
</trkpt>
<trkpt lat="52.98841591" lon="18.70338221">
<ele>77</ele>
<time>2014-05-18T17:33:32Z</time>
</trkpt>
<trkpt lat="52.988658" lon="18.70331131">
<ele>77</ele>
<time>2014-05-18T17:33:38Z</time>
</trkpt>
<trkpt lat="52.9887377" lon="18.70329276">
<ele>78</ele>
<time>2014-05-18T17:33:44Z</time>
</trkpt>
<trkpt lat="52.9891525" lon="18.70321162">
<ele>74</ele>
<time>2014-05-18T17:33:50Z</time>
</trkpt>
<trkpt lat="52.98944806" lon="18.70321276">
<ele>68</ele>
<time>2014-05-18T17:33:56Z</time>
</trkpt>
<trkpt lat="52.9896104" lon="18.7032288">
<ele>67</ele>
<time>2014-05-18T17:34:02Z</time>
</trkpt>
<trkpt lat="52.98988793" lon="18.7032158">
<ele>67</ele>
<time>2014-05-18T17:34:08Z</time>
</trkpt>
<trkpt lat="52.98997017" lon="18.70323132">
<ele>68</ele>
<time>2014-05-18T17:34:14Z</time>
</trkpt>
<trkpt lat="52.99038441" lon="18.70327944">
<ele>71</ele>
<time>2014-05-18T17:34:20Z</time>
</trkpt>
<trkpt lat="52.99065529" lon="18.70322726">
<ele>75</ele>
<time>2014-05-18T17:34:26Z</time>
</trkpt>
<trkpt lat="52.99091922" lon="18.70315918">
<ele>77</ele>
<time>2014-05-18T17:34:32Z</time>
</trkpt>
<trkpt lat="52.99100829" lon="18.70313607">
<ele>76</ele>
<time>2014-05-18T17:34:38Z</time>
</trkpt>
<trkpt lat="52.99149322" lon="18.7030119">
<ele>76</ele>
<time>2014-05-18T17:34:44Z</time>
</trkpt>
<trkpt lat="52.99177879" lon="18.70293098">
<ele>76</ele>
<time>2014-05-18T17:34:50Z</time>
</trkpt>
<trkpt lat="52.99196013" lon="18.70288011">
<ele>76</ele>
<time>2014-05-18T17:34:56Z</time>
</trkpt>
<trkpt lat="52.9921428" lon="18.70280285">
<ele>77</ele>
<time>2014-05-18T17:35:02Z</time>
</trkpt>
<trkpt lat="52.992641" lon="18.70261824">
<ele>75</ele>
<time>2014-05-18T17:35:08Z</time>
</trkpt>
<trkpt lat="52.99284406" lon="18.70255564">
<ele>75</ele>
<time>2014-05-18T17:35:14Z</time>
</trkpt>
<trkpt lat="52.99307865" lon="18.70244039">
<ele>83</ele>
<time>2014-05-18T17:35:20Z</time>
</trkpt>
<trkpt lat="52.99319256" lon="18.70238529">
<ele>83</ele>
<time>2014-05-18T17:35:26Z</time>
</trkpt>
<trkpt lat="52.99371763" lon="18.70229888">
<ele>76</ele>
<time>2014-05-18T17:35:32Z</time>
</trkpt>
<trkpt lat="52.99380146" lon="18.70226307">
<ele>76</ele>
<time>2014-05-18T17:35:38Z</time>
</trkpt>
<trkpt lat="52.99414236" lon="18.70224862">
<ele>79</ele>
<time>2014-05-18T17:35:44Z</time>
</trkpt>
<trkpt lat="52.99441329" lon="18.70222704">
<ele>78</ele>
<time>2014-05-18T17:35:50Z</time>
</trkpt>
<trkpt lat="52.99495276" lon="18.70213978">
<ele>76</ele>
<time>2014-05-18T17:35:56Z</time>
</trkpt>
<trkpt lat="52.99505736" lon="18.70215876">
<ele>73</ele>
<time>2014-05-18T17:36:02Z</time>
</trkpt>
<trkpt lat="52.99542844" lon="18.70208408">
<ele>71</ele>
<time>2014-05-18T17:36:08Z</time>
</trkpt>
<trkpt lat="52.9956415" lon="18.70200209">
<ele>70</ele>
<time>2014-05-18T17:36:14Z</time>
</trkpt>
<trkpt lat="52.99625808" lon="18.70198634">
<ele>75</ele>
<time>2014-05-18T17:36:20Z</time>
</trkpt>
<trkpt lat="52.9963936" lon="18.7019886">
<ele>77</ele>
<time>2014-05-18T17:36:26Z</time>
</trkpt>
<trkpt lat="52.99706413" lon="18.70184799">
<ele>75</ele>
<time>2014-05-18T17:36:32Z</time>
</trkpt>
<trkpt lat="52.99716478" lon="18.70184258">
<ele>76</ele>
<time>2014-05-18T17:36:38Z</time>
</trkpt>
<trkpt lat="52.99746933" lon="18.70201752">
<ele>84</ele>
<time>2014-05-18T17:36:44Z</time>
</trkpt>
<trkpt lat="52.99762453" lon="18.7019375">
<ele>85</ele>
<time>2014-05-18T17:36:50Z</time>
</trkpt>
<trkpt lat="52.99771396" lon="18.70182659">
<ele>85</ele>
<time>2014-05-18T17:36:56Z</time>
</trkpt>
<trkpt lat="52.99815598" lon="18.70120595">
<ele>88</ele>
<time>2014-05-18T17:37:02Z</time>
</trkpt>
<trkpt lat="52.99848793" lon="18.70077548">
<ele>84</ele>
<time>2014-05-18T17:37:08Z</time>
</trkpt>
<trkpt lat="52.9986089" lon="18.70062121">
<ele>85</ele>
<time>2014-05-18T17:37:14Z</time>
</trkpt>
<trkpt lat="52.99910096" lon="18.70034644">
<ele>81</ele>
<time>2014-05-18T17:37:20Z</time>
</trkpt>
<trkpt lat="52.99956858" lon="18.70030631">
<ele>77</ele>
<time>2014-05-18T17:37:26Z</time>
</trkpt>
<trkpt lat="52.9998724" lon="18.70030286">
<ele>80</ele>
<time>2014-05-18T17:37:32Z</time>
</trkpt>
<trkpt lat="53.00014499" lon="18.70031852">
<ele>78</ele>
<time>2014-05-18T17:37:38Z</time>
</trkpt>
<trkpt lat="53.00025697" lon="18.70030525">
<ele>78</ele>
<time>2014-05-18T17:37:44Z</time>
</trkpt>
<trkpt lat="53.00047164" lon="18.70033077">
<ele>81</ele>
<time>2014-05-18T17:37:50Z</time>
</trkpt>
<trkpt lat="53.00095995" lon="18.70032721">
<ele>79</ele>
<time>2014-05-18T17:37:56Z</time>
</trkpt>
<trkpt lat="53.00119624" lon="18.70043302">
<ele>73</ele>
<time>2014-05-18T17:38:02Z</time>
</trkpt>
<trkpt lat="53.00128412" lon="18.70045003">
<ele>74</ele>
<time>2014-05-18T17:38:08Z</time>
</trkpt>
<trkpt lat="53.00174078" lon="18.70059665">
<ele>75</ele>
<time>2014-05-18T17:38:14Z</time>
</trkpt>
<trkpt lat="53.0018908" lon="18.70090282">
<ele>77</ele>
<time>2014-05-18T17:38:20Z</time>
</trkpt>
<trkpt lat="53.0018908" lon="18.70090282">
<ele>77</ele>
<time>2014-05-18T17:38:26Z</time>
</trkpt>
<trkpt lat="53.00191064" lon="18.70085217">
<ele>78</ele>
<time>2014-05-18T17:38:32Z</time>
</trkpt>
<trkpt lat="53.00188662" lon="18.70082685">
<ele>74</ele>
<time>2014-05-18T17:38:38Z</time>
</trkpt>
<trkpt lat="53.00191691" lon="18.7008334">
<ele>75</ele>
<time>2014-05-18T17:38:44Z</time>
</trkpt>
<trkpt lat="53.00190412" lon="18.70083572">
<ele>72</ele>
<time>2014-05-18T17:38:50Z</time>
</trkpt>
<trkpt lat="53.001901" lon="18.7008357">
<ele>72</ele>
<time>2014-05-18T17:38:56Z</time>
</trkpt>
<trkpt lat="53.00190777" lon="18.70084759">
<ele>77</ele>
<time>2014-05-18T17:39:02Z</time>
</trkpt>
<trkpt lat="53.00210545" lon="18.70074154">
<ele>75</ele>
<time>2014-05-18T17:39:08Z</time>
</trkpt>
<trkpt lat="53.00220379" lon="18.700935">
<ele>72</ele>
<time>2014-05-18T17:39:14Z</time>
</trkpt>
<trkpt lat="53.00233445" lon="18.70116636">
<ele>72</ele>
<time>2014-05-18T17:39:20Z</time>
</trkpt>
<trkpt lat="53.00288827" lon="18.70194319">
<ele>76</ele>
<time>2014-05-18T17:39:26Z</time>
</trkpt>
<trkpt lat="53.00314082" lon="18.70214582">
<ele>78</ele>
<time>2014-05-18T17:39:32Z</time>
</trkpt>
<trkpt lat="53.00340238" lon="18.70243864">
<ele>82</ele>
<time>2014-05-18T17:39:38Z</time>
</trkpt>
<trkpt lat="53.00352393" lon="18.70255658">
<ele>80</ele>
<time>2014-05-18T17:39:44Z</time>
</trkpt>
<trkpt lat="53.00399409" lon="18.70312022">
<ele>76</ele>
<time>2014-05-18T17:39:50Z</time>
</trkpt>
<trkpt lat="53.0043022" lon="18.70335425">
<ele>74</ele>
<time>2014-05-18T17:39:56Z</time>
</trkpt>
<trkpt lat="53.00434629" lon="18.70346971">
<ele>74</ele>
<time>2014-05-18T17:40:02Z</time>
</trkpt>
<trkpt lat="53.00475539" lon="18.70399932">
<ele>74</ele>
<time>2014-05-18T17:40:08Z</time>
</trkpt>
<trkpt lat="53.00484141" lon="18.70410765">
<ele>74</ele>
<time>2014-05-18T17:40:14Z</time>
</trkpt>
<trkpt lat="53.00523153" lon="18.7045868">
<ele>76</ele>
<time>2014-05-18T17:40:20Z</time>
</trkpt>
<trkpt lat="53.00530386" lon="18.70464982">
<ele>77</ele>
<time>2014-05-18T17:40:26Z</time>
</trkpt>
<trkpt lat="53.00557769" lon="18.70503179">
<ele>76</ele>
<time>2014-05-18T17:40:32Z</time>
</trkpt>
<trkpt lat="53.00562115" lon="18.70507074">
<ele>77</ele>
<time>2014-05-18T17:40:38Z</time>
</trkpt>
<trkpt lat="53.00592807" lon="18.70544959">
<ele>76</ele>
<time>2014-05-18T17:40:44Z</time>
</trkpt>
<trkpt lat="53.0060911" lon="18.70567983">
<ele>75</ele>
<time>2014-05-18T17:40:50Z</time>
</trkpt>
<trkpt lat="53.00624322" lon="18.70590928">
<ele>77</ele>
<time>2014-05-18T17:40:56Z</time>
</trkpt>
<trkpt lat="53.0062962" lon="18.70594985">
<ele>79</ele>
<time>2014-05-18T17:41:02Z</time>
</trkpt>
<trkpt lat="53.00658169" lon="18.70630017">
<ele>71</ele>
<time>2014-05-18T17:41:08Z</time>
</trkpt>
<trkpt lat="53.00664303" lon="18.70635527">
<ele>70</ele>
<time>2014-05-18T17:41:14Z</time>
</trkpt>
<trkpt lat="53.00686141" lon="18.70671821">
<ele>75</ele>
<time>2014-05-18T17:41:20Z</time>
</trkpt>
<trkpt lat="53.00691429" lon="18.7068162">
<ele>74</ele>
<time>2014-05-18T17:41:26Z</time>
</trkpt>
<trkpt lat="53.0072222" lon="18.70727529">
<ele>76</ele>
<time>2014-05-18T17:41:32Z</time>
</trkpt>
<trkpt lat="53.00725689" lon="18.70733884">
<ele>76</ele>
<time>2014-05-18T17:41:38Z</time>
</trkpt>
<trkpt lat="53.00744345" lon="18.70746549">
<ele>76</ele>
<time>2014-05-18T17:41:44Z</time>
</trkpt>
<trkpt lat="53.00768249" lon="18.7080205">
<ele>85</ele>
<time>2014-05-18T17:41:50Z</time>
</trkpt>
<trkpt lat="53.00775601" lon="18.70809718">
<ele>85</ele>
<time>2014-05-18T17:41:56Z</time>
</trkpt>
<trkpt lat="53.00795539" lon="18.70866634">
<ele>83</ele>
<time>2014-05-18T17:42:02Z</time>
</trkpt>
<trkpt lat="53.0081688" lon="18.70901333">
<ele>84</ele>
<time>2014-05-18T17:42:08Z</time>
</trkpt>
<trkpt lat="53.0081688" lon="18.70901333">
<ele>84</ele>
<time>2014-05-18T17:42:14Z</time>
</trkpt>
<trkpt lat="53.00848711" lon="18.70941822">
<ele>87</ele>
<time>2014-05-18T17:42:20Z</time>
</trkpt>
<trkpt lat="53.00853732" lon="18.70953955">
<ele>89</ele>
<time>2014-05-18T17:42:26Z</time>
</trkpt>
<trkpt lat="53.00871734" lon="18.70969216">
<ele>86</ele>
<time>2014-05-18T17:42:32Z</time>
</trkpt>
<trkpt lat="53.00882193" lon="18.7098713">
<ele>87</ele>
<time>2014-05-18T17:42:38Z</time>
</trkpt>
<trkpt lat="53.00899855" lon="18.71008216">
<ele>91</ele>
<time>2014-05-18T17:42:44Z</time>
</trkpt>
<trkpt lat="53.0092573" lon="18.71031858">
<ele>89</ele>
<time>2014-05-18T17:42:50Z</time>
</trkpt>
<trkpt lat="53.00945328" lon="18.71063634">
<ele>87</ele>
<time>2014-05-18T17:42:56Z</time>
</trkpt>
<trkpt lat="53.00963577" lon="18.71086251">
<ele>81</ele>
<time>2014-05-18T17:43:02Z</time>
</trkpt>
<trkpt lat="53.00970173" lon="18.71088784">
<ele>80</ele>
<time>2014-05-18T17:43:08Z</time>
</trkpt>
<trkpt lat="53.00997276" lon="18.71128891">
<ele>80</ele>
<time>2014-05-18T17:43:14Z</time>
</trkpt>
<trkpt lat="53.01011434" lon="18.71144244">
<ele>78</ele>
<time>2014-05-18T17:43:20Z</time>
</trkpt>
<trkpt lat="53.01016032" lon="18.71148937">
<ele>79</ele>
<time>2014-05-18T17:43:26Z</time>
</trkpt>
<trkpt lat="53.01031144" lon="18.71168023">
<ele>78</ele>
<time>2014-05-18T17:43:32Z</time>
</trkpt>
<trkpt lat="53.01042947" lon="18.71180822">
<ele>77</ele>
<time>2014-05-18T17:43:38Z</time>
</trkpt>
<trkpt lat="53.0105565" lon="18.71194603">
<ele>76</ele>
<time>2014-05-18T17:43:44Z</time>
</trkpt>
<trkpt lat="53.01074197" lon="18.71219667">
<ele>79</ele>
<time>2014-05-18T17:43:50Z</time>
</trkpt>
<trkpt lat="53.01086647" lon="18.71232816">
<ele>81</ele>
<time>2014-05-18T17:43:56Z</time>
</trkpt>
<trkpt lat="53.0109468" lon="18.71246463">
<ele>79</ele>
<time>2014-05-18T17:44:02Z</time>
</trkpt>
<trkpt lat="53.0109468" lon="18.71246463">
<ele>79</ele>
<time>2014-05-18T17:44:08Z</time>
</trkpt>
<trkpt lat="53.01097385" lon="18.71246837">
<ele>83</ele>
<time>2014-05-18T17:44:14Z</time>
</trkpt>
<trkpt lat="53.01097741" lon="18.71248485">
<ele>85</ele>
<time>2014-05-18T17:44:20Z</time>
</trkpt>
<trkpt lat="53.01095982" lon="18.71248237">
<ele>83</ele>
<time>2014-05-18T17:44:26Z</time>
</trkpt>
<trkpt lat="53.01103721" lon="18.7125308">
<ele>77</ele>
<time>2014-05-18T17:44:32Z</time>
</trkpt>
<trkpt lat="53.01103721" lon="18.7125308">
<ele>77</ele>
<time>2014-05-18T17:44:38Z</time>
</trkpt>
<trkpt lat="53.01111796" lon="18.71270705">
<ele>76</ele>
<time>2014-05-18T17:44:44Z</time>
</trkpt>
<trkpt lat="53.01111796" lon="18.71270705">
<ele>76</ele>
<time>2014-05-18T17:44:50Z</time>
</trkpt>
<trkpt lat="53.01115115" lon="18.71270885">
<ele>81</ele>
<time>2014-05-18T17:44:56Z</time>
</trkpt>
<trkpt lat="53.0111681" lon="18.71277381">
<ele>79</ele>
<time>2014-05-18T17:45:02Z</time>
</trkpt>
<trkpt lat="53.01121491" lon="18.71286897">
<ele>84</ele>
<time>2014-05-18T17:45:08Z</time>
</trkpt>
<trkpt lat="53.01121491" lon="18.71286897">
<ele>84</ele>
<time>2014-05-18T17:45:14Z</time>
</trkpt>
<trkpt lat="53.01122509" lon="18.71289097">
<ele>85</ele>
<time>2014-05-18T17:45:20Z</time>
</trkpt>
<trkpt lat="53.0113424" lon="18.71304297">
<ele>87</ele>
<time>2014-05-18T17:45:26Z</time>
</trkpt>
<trkpt lat="53.0113424" lon="18.71304297">
<ele>87</ele>
<time>2014-05-18T17:45:32Z</time>
</trkpt>
<trkpt lat="53.0113646" lon="18.71306229">
<ele>90</ele>
<time>2014-05-18T17:45:38Z</time>
</trkpt>
<trkpt lat="53.01139143" lon="18.71309094">
<ele>92</ele>
<time>2014-05-18T17:45:44Z</time>
</trkpt>
<trkpt lat="53.01145916" lon="18.7131294">
<ele>92</ele>
<time>2014-05-18T17:45:50Z</time>
</trkpt>
<trkpt lat="53.01149011" lon="18.71321397">
<ele>93</ele>
<time>2014-05-18T17:45:56Z</time>
</trkpt>
<trkpt lat="53.01149011" lon="18.71321397">
<ele>93</ele>
<time>2014-05-18T17:46:02Z</time>
</trkpt>
<trkpt lat="53.01154995" lon="18.71330609">
<ele>97</ele>
<time>2014-05-18T17:46:08Z</time>
</trkpt>
<trkpt lat="53.01158603" lon="18.71335425">
<ele>98</ele>
<time>2014-05-18T17:46:14Z</time>
</trkpt>
<trkpt lat="53.01162916" lon="18.71341444">
<ele>96</ele>
<time>2014-05-18T17:46:20Z</time>
</trkpt>
<trkpt lat="53.01166597" lon="18.71347346">
<ele>96</ele>
<time>2014-05-18T17:46:26Z</time>
</trkpt>
<trkpt lat="53.01166597" lon="18.71347346">
<ele>96</ele>
<time>2014-05-18T17:46:32Z</time>
</trkpt>
<trkpt lat="53.01173406" lon="18.71351121">
<ele>98</ele>
<time>2014-05-18T17:46:38Z</time>
</trkpt>
<trkpt lat="53.01180084" lon="18.71357976">
<ele>101</ele>
<time>2014-05-18T17:46:44Z</time>
</trkpt>
<trkpt lat="53.01180084" lon="18.71357976">
<ele>101</ele>
<time>2014-05-18T17:46:50Z</time>
</trkpt>
<trkpt lat="53.01182079" lon="18.71346801">
<ele>100</ele>
<time>2014-05-18T17:46:56Z</time>
</trkpt>
<trkpt lat="53.01182079" lon="18.71346801">
<ele>100</ele>
<time>2014-05-18T17:47:02Z</time>
</trkpt>
<trkpt lat="53.01183312" lon="18.71341839">
<ele>102</ele>
<time>2014-05-18T17:47:08Z</time>
</trkpt>
<trkpt lat="53.01184649" lon="18.71336149">
<ele>105</ele>
<time>2014-05-18T17:47:14Z</time>
</trkpt>
<trkpt lat="53.01184117" lon="18.71331768">
<ele>107</ele>
<time>2014-05-18T17:47:20Z</time>
</trkpt>
<trkpt lat="53.01189411" lon="18.7131791">
<ele>100</ele>
<time>2014-05-18T17:47:26Z</time>
</trkpt>
<trkpt lat="53.01189411" lon="18.7131791">
<ele>100</ele>
<time>2014-05-18T17:47:32Z</time>
</trkpt>
<trkpt lat="53.01195225" lon="18.71304546">
<ele>91</ele>
<time>2014-05-18T17:47:38Z</time>
</trkpt>
<trkpt lat="53.01195225" lon="18.71304546">
<ele>91</ele>
<time>2014-05-18T17:47:44Z</time>
</trkpt>
<trkpt lat="53.01196091" lon="18.71304656">
<ele>86</ele>
<time>2014-05-18T17:47:50Z</time>
</trkpt>
<trkpt lat="53.01195438" lon="18.7130675">
<ele>88</ele>
<time>2014-05-18T17:47:56Z</time>
</trkpt>
<trkpt lat="53.0119577" lon="18.71304062">
<ele>90</ele>
<time>2014-05-18T17:48:02Z</time>
</trkpt>
<trkpt lat="53.01197" lon="18.71303294">
<ele>92</ele>
<time>2014-05-18T17:48:08Z</time>
</trkpt>
<trkpt lat="53.01197194" lon="18.71303233">
<ele>92</ele>
<time>2014-05-18T17:48:14Z</time>
</trkpt>
<trkpt lat="53.01196563" lon="18.71301187">
<ele>91</ele>
<time>2014-05-18T17:48:20Z</time>
</trkpt>
<trkpt lat="53.01195382" lon="18.71300833">
<ele>92</ele>
<time>2014-05-18T17:48:26Z</time>
</trkpt>
<trkpt lat="53.01198009" lon="18.7129878">
<ele>92</ele>
<time>2014-05-18T17:48:32Z</time>
</trkpt>
<trkpt lat="53.01198071" lon="18.71298784">
<ele>92</ele>
<time>2014-05-18T17:48:38Z</time>
</trkpt>
<trkpt lat="53.0119814" lon="18.71298595">
<ele>92</ele>
<time>2014-05-18T17:48:44Z</time>
</trkpt>
<trkpt lat="53.01197955" lon="18.71298882">
<ele>92</ele>
<time>2014-05-18T17:48:50Z</time>
</trkpt>
<trkpt lat="53.01197454" lon="18.71305161">
<ele>95</ele>
<time>2014-05-18T17:48:56Z</time>
</trkpt>
<trkpt lat="53.01197697" lon="18.71305824">
<ele>95</ele>
<time>2014-05-18T17:49:02Z</time>
</trkpt>
<trkpt lat="53.01197644" lon="18.71307735">
<ele>97</ele>
<time>2014-05-18T17:49:08Z</time>
</trkpt>
<trkpt lat="53.01196804" lon="18.71305426">
<ele>105</ele>
<time>2014-05-18T17:49:14Z</time>
</trkpt>
<trkpt lat="53.01196522" lon="18.71307956">
<ele>109</ele>
<time>2014-05-18T17:49:20Z</time>
</trkpt>
<trkpt lat="53.01197212" lon="18.71311011">
<ele>111</ele>
<time>2014-05-18T17:49:26Z</time>
</trkpt>
<trkpt lat="53.01197096" lon="18.71310446">
<ele>112</ele>
<time>2014-05-18T17:49:32Z</time>
</trkpt>
<trkpt lat="53.01195578" lon="18.71310905">
<ele>108</ele>
<time>2014-05-18T17:49:38Z</time>
</trkpt>
<trkpt lat="53.01195631" lon="18.71310236">
<ele>108</ele>
<time>2014-05-18T17:49:44Z</time>
</trkpt>
<trkpt lat="53.0119726" lon="18.71309399">
<ele>109</ele>
<time>2014-05-18T17:49:50Z</time>
</trkpt>
<trkpt lat="53.01200204" lon="18.71309268">
<ele>114</ele>
<time>2014-05-18T17:49:56Z</time>
</trkpt>
<trkpt lat="53.01198026" lon="18.71307394">
<ele>112</ele>
<time>2014-05-18T17:50:04Z</time>
</trkpt>
<trkpt lat="53.01194554" lon="18.71304391">
<ele>108</ele>
<time>2014-05-18T17:50:10Z</time>
</trkpt>
<trkpt lat="53.01193914" lon="18.71305061">
<ele>107</ele>
<time>2014-05-18T17:50:16Z</time>
</trkpt>
<trkpt lat="53.01193722" lon="18.71305518">
<ele>107</ele>
<time>2014-05-18T17:50:22Z</time>
</trkpt>
<trkpt lat="53.01193731" lon="18.71305913">
<ele>108</ele>
<time>2014-05-18T17:50:28Z</time>
</trkpt>
<trkpt lat="53.01193806" lon="18.71306032">
<ele>107</ele>
<time>2014-05-18T17:50:34Z</time>
</trkpt>
<trkpt lat="53.01193662" lon="18.71306991">
<ele>105</ele>
<time>2014-05-18T17:50:40Z</time>
</trkpt>
<trkpt lat="53.01192908" lon="18.71313237">
<ele>99</ele>
<time>2014-05-18T17:50:46Z</time>
</trkpt>
<trkpt lat="53.01194794" lon="18.71306761">
<ele>95</ele>
<time>2014-05-18T17:50:52Z</time>
</trkpt>
<trkpt lat="53.01196113" lon="18.71305242">
<ele>95</ele>
<time>2014-05-18T17:50:58Z</time>
</trkpt>
<trkpt lat="53.01196704" lon="18.71306983">
<ele>96</ele>
<time>2014-05-18T17:51:04Z</time>
</trkpt>
<trkpt lat="53.0119774" lon="18.71308293">
<ele>97</ele>
<time>2014-05-18T17:51:10Z</time>
</trkpt>
<trkpt lat="53.01198769" lon="18.71308625">
<ele>100</ele>
<time>2014-05-18T17:51:16Z</time>
</trkpt>
<trkpt lat="53.01197648" lon="18.7131013">
<ele>102</ele>
<time>2014-05-18T17:51:22Z</time>
</trkpt>
<trkpt lat="53.01196587" lon="18.71310302">
<ele>104</ele>
<time>2014-05-18T17:51:28Z</time>
</trkpt>
<trkpt lat="53.01195799" lon="18.71309704">
<ele>104</ele>
<time>2014-05-18T17:51:34Z</time>
</trkpt>
<trkpt lat="53.01195336" lon="18.71309993">
<ele>104</ele>
<time>2014-05-18T17:51:40Z</time>
</trkpt>
<trkpt lat="53.01192316" lon="18.71311729">
<ele>104</ele>
<time>2014-05-18T17:51:46Z</time>
</trkpt>
<trkpt lat="53.01191108" lon="18.71312507">
<ele>105</ele>
<time>2014-05-18T17:51:52Z</time>
</trkpt>
<trkpt lat="53.01190586" lon="18.71313176">
<ele>106</ele>
<time>2014-05-18T17:51:58Z</time>
</trkpt>
<trkpt lat="53.01190073" lon="18.7131178">
<ele>104</ele>
<time>2014-05-18T17:52:04Z</time>
</trkpt>
<trkpt lat="53.01190051" lon="18.7131101">
<ele>103</ele>
<time>2014-05-18T17:52:10Z</time>
</trkpt>
<trkpt lat="53.01189908" lon="18.71309742">
<ele>103</ele>
<time>2014-05-18T17:52:16Z</time>
</trkpt>
<trkpt lat="53.01190224" lon="18.71314571">
<ele>104</ele>
<time>2014-05-18T17:52:22Z</time>
</trkpt>
<trkpt lat="53.01188124" lon="18.71317691">
<ele>101</ele>
<time>2014-05-18T17:52:28Z</time>
</trkpt>
<trkpt lat="53.01188054" lon="18.71317257">
<ele>101</ele>
<time>2014-05-18T17:52:34Z</time>
</trkpt>
<trkpt lat="53.011892" lon="18.71314466">
<ele>105</ele>
<time>2014-05-18T17:52:40Z</time>
</trkpt>
<trkpt lat="53.01189756" lon="18.71314285">
<ele>105</ele>
<time>2014-05-18T17:52:46Z</time>
</trkpt>
<trkpt lat="53.01191399" lon="18.7131297">
<ele>108</ele>
<time>2014-05-18T17:52:52Z</time>
</trkpt>
<trkpt lat="53.01190925" lon="18.71311815">
<ele>112</ele>
<time>2014-05-18T17:52:58Z</time>
</trkpt>
<trkpt lat="53.01190544" lon="18.71311711">
<ele>113</ele>
<time>2014-05-18T17:53:04Z</time>
</trkpt>
<trkpt lat="53.01190457" lon="18.71311718">
<ele>113</ele>
<time>2014-05-18T17:53:10Z</time>
</trkpt>
<trkpt lat="53.01190786" lon="18.71311642">
<ele>113</ele>
<time>2014-05-18T17:53:16Z</time>
</trkpt>
<trkpt lat="53.01192172" lon="18.71320726">
<ele>111</ele>
<time>2014-05-18T17:53:22Z</time>
</trkpt>
<trkpt lat="53.01192172" lon="18.71320726">
<ele>111</ele>
<time>2014-05-18T17:53:28Z</time>
</trkpt>
<trkpt lat="53.01190429" lon="18.71320667">
<ele>111</ele>
<time>2014-05-18T17:53:34Z</time>
</trkpt>
<trkpt lat="53.01189894" lon="18.71321053">
<ele>112</ele>
<time>2014-05-18T17:53:40Z</time>
</trkpt>
<trkpt lat="53.01189874" lon="18.71317342">
<ele>112</ele>
<time>2014-05-18T17:53:46Z</time>
</trkpt>
<trkpt lat="53.01188602" lon="18.7131607">
<ele>107</ele>
<time>2014-05-18T17:53:52Z</time>
</trkpt>
<trkpt lat="53.01188547" lon="18.71314226">
<ele>105</ele>
<time>2014-05-18T17:53:58Z</time>
</trkpt>
<trkpt lat="53.01188911" lon="18.71312712">
<ele>105</ele>
<time>2014-05-18T17:54:04Z</time>
</trkpt>
<trkpt lat="53.01188983" lon="18.71312239">
<ele>105</ele>
<time>2014-05-18T17:54:10Z</time>
</trkpt>
<trkpt lat="53.01189002" lon="18.71312156">
<ele>105</ele>
<time>2014-05-18T17:54:16Z</time>
</trkpt>
<trkpt lat="53.01189016" lon="18.71312115">
<ele>105</ele>
<time>2014-05-18T17:54:22Z</time>
</trkpt>
<trkpt lat="53.01188976" lon="18.71312089">
<ele>106</ele>
<time>2014-05-18T17:54:28Z</time>
</trkpt>
<trkpt lat="53.01188893" lon="18.71312083">
<ele>106</ele>
<time>2014-05-18T17:54:34Z</time>
</trkpt>
<trkpt lat="53.01188887" lon="18.71312069">
<ele>106</ele>
<time>2014-05-18T17:54:40Z</time>
</trkpt>
<trkpt lat="53.01188894" lon="18.71312061">
<ele>106</ele>
<time>2014-05-18T17:54:46Z</time>
</trkpt>
<trkpt lat="53.01188902" lon="18.71312031">
<ele>106</ele>
<time>2014-05-18T17:54:52Z</time>
</trkpt>
<trkpt lat="53.0118897" lon="18.71311972">
<ele>106</ele>
<time>2014-05-18T17:54:58Z</time>
</trkpt>
<trkpt lat="53.01189008" lon="18.71311895">
<ele>106</ele>
<time>2014-05-18T17:55:04Z</time>
</trkpt>
<trkpt lat="53.01189034" lon="18.71311782">
<ele>106</ele>
<time>2014-05-18T17:55:10Z</time>
</trkpt>
<trkpt lat="53.01187763" lon="18.7130562">
<ele>105</ele>
<time>2014-05-18T17:55:16Z</time>
</trkpt>
<trkpt lat="53.01187593" lon="18.71305646">
<ele>103</ele>
<time>2014-05-18T17:55:22Z</time>
</trkpt>
<trkpt lat="53.01186996" lon="18.71308389">
<ele>103</ele>
<time>2014-05-18T17:55:28Z</time>
</trkpt>
<trkpt lat="53.01186027" lon="18.71311154">
<ele>102</ele>
<time>2014-05-18T17:55:34Z</time>
</trkpt>
<trkpt lat="53.01187381" lon="18.71315643">
<ele>103</ele>
<time>2014-05-18T17:55:40Z</time>
</trkpt>
<trkpt lat="53.01187704" lon="18.71316565">
<ele>105</ele>
<time>2014-05-18T17:55:46Z</time>
</trkpt>
<trkpt lat="53.01186785" lon="18.7131761">
<ele>106</ele>
<time>2014-05-18T17:55:52Z</time>
</trkpt>
<trkpt lat="53.01186673" lon="18.71317709">
<ele>106</ele>
<time>2014-05-18T17:55:58Z</time>
</trkpt>
<trkpt lat="53.01186508" lon="18.7131776">
<ele>106</ele>
<time>2014-05-18T17:56:04Z</time>
</trkpt>
<trkpt lat="53.01186498" lon="18.71317723">
<ele>106</ele>
<time>2014-05-18T17:56:10Z</time>
</trkpt>
<trkpt lat="53.01186281" lon="18.71317386">
<ele>106</ele>
<time>2014-05-18T17:56:16Z</time>
</trkpt>
<trkpt lat="53.01186401" lon="18.71317498">
<ele>107</ele>
<time>2014-05-18T17:56:22Z</time>
</trkpt>
<trkpt lat="53.01187227" lon="18.71315199">
<ele>112</ele>
<time>2014-05-18T17:56:28Z</time>
</trkpt>
<trkpt lat="53.0118667" lon="18.71313403">
<ele>113</ele>
<time>2014-05-18T17:56:34Z</time>
</trkpt>
<trkpt lat="53.01188284" lon="18.71311685">
<ele>111</ele>
<time>2014-05-18T17:56:40Z</time>
</trkpt>
<trkpt lat="53.01188483" lon="18.71312644">
<ele>109</ele>
<time>2014-05-18T17:56:46Z</time>
</trkpt>
<trkpt lat="53.01188473" lon="18.71312731">
<ele>109</ele>
<time>2014-05-18T17:56:52Z</time>
</trkpt>
<trkpt lat="53.01188488" lon="18.71312743">
<ele>109</ele>
<time>2014-05-18T17:56:58Z</time>
</trkpt>
<trkpt lat="53.01191873" lon="18.71315523">
<ele>106</ele>
<time>2014-05-18T17:57:04Z</time>
</trkpt>
<trkpt lat="53.01194318" lon="18.71314941">
<ele>103</ele>
<time>2014-05-18T17:57:10Z</time>
</trkpt>
<trkpt lat="53.01193824" lon="18.71316584">
<ele>102</ele>
<time>2014-05-18T17:57:16Z</time>
</trkpt>
<trkpt lat="53.0119287" lon="18.71317342">
<ele>101</ele>
<time>2014-05-18T17:57:22Z</time>
</trkpt>
<trkpt lat="53.01193359" lon="18.71311677">
<ele>101</ele>
<time>2014-05-18T17:57:28Z</time>
</trkpt>
<trkpt lat="53.0119416" lon="18.71310315">
<ele>102</ele>
<time>2014-05-18T17:57:34Z</time>
</trkpt>
<trkpt lat="53.0119442" lon="18.71310307">
<ele>103</ele>
<time>2014-05-18T17:57:40Z</time>
</trkpt>
<trkpt lat="53.01194412" lon="18.71309525">
<ele>99</ele>
<time>2014-05-18T17:57:46Z</time>
</trkpt>
<trkpt lat="53.01194381" lon="18.7130771">
<ele>100</ele>
<time>2014-05-18T17:57:52Z</time>
</trkpt>
<trkpt lat="53.0119465" lon="18.71304566">
<ele>102</ele>
<time>2014-05-18T17:57:58Z</time>
</trkpt>
<trkpt lat="53.01196108" lon="18.71304127">
<ele>103</ele>
<time>2014-05-18T17:58:04Z</time>
</trkpt>
<trkpt lat="53.01197962" lon="18.71303649">
<ele>102</ele>
<time>2014-05-18T17:58:10Z</time>
</trkpt>
<trkpt lat="53.01200011" lon="18.71305274">
<ele>101</ele>
<time>2014-05-18T17:58:16Z</time>
</trkpt>
<trkpt lat="53.01201596" lon="18.71306504">
<ele>102</ele>
<time>2014-05-18T17:58:22Z</time>
</trkpt>
<trkpt lat="53.01202198" lon="18.71306082">
<ele>102</ele>
<time>2014-05-18T17:58:28Z</time>
</trkpt>
<trkpt lat="53.01199779" lon="18.71305152">
<ele>102</ele>
<time>2014-05-18T17:58:34Z</time>
</trkpt>
<trkpt lat="53.01193712" lon="18.71292843">
<ele>107</ele>
<time>2014-05-18T17:58:40Z</time>
</trkpt>
<trkpt lat="53.01196886" lon="18.71284319">
<ele>102</ele>
<time>2014-05-18T17:58:46Z</time>
</trkpt>
<trkpt lat="53.01202473" lon="18.71269326">
<ele>105</ele>
<time>2014-05-18T17:58:52Z</time>
</trkpt>
<trkpt lat="53.01204801" lon="18.71257049">
<ele>105</ele>
<time>2014-05-18T17:58:58Z</time>
</trkpt>
<trkpt lat="53.01206357" lon="18.71233443">
<ele>103</ele>
<time>2014-05-18T17:59:04Z</time>
</trkpt>
<trkpt lat="53.01214847" lon="18.71212842">
<ele>106</ele>
<time>2014-05-18T17:59:10Z</time>
</trkpt>
<trkpt lat="53.01225251" lon="18.71173526">
<ele>114</ele>
<time>2014-05-18T17:59:16Z</time>
</trkpt>
<trkpt lat="53.01225251" lon="18.71173526">
<ele>114</ele>
<time>2014-05-18T17:59:22Z</time>
</trkpt>
<trkpt lat="53.01225646" lon="18.71148777">
<ele>113</ele>
<time>2014-05-18T17:59:28Z</time>
</trkpt>
<trkpt lat="53.01233671" lon="18.71118967">
<ele>114</ele>
<time>2014-05-18T17:59:34Z</time>
</trkpt>
<trkpt lat="53.01257735" lon="18.7108725">
<ele>110</ele>
<time>2014-05-18T17:59:40Z</time>
</trkpt>
<trkpt lat="53.01263979" lon="18.71082668">
<ele>109</ele>
<time>2014-05-18T17:59:46Z</time>
</trkpt>
<trkpt lat="53.01298799" lon="18.71069382">
<ele>104</ele>
<time>2014-05-18T17:59:52Z</time>
</trkpt>
<trkpt lat="53.01304547" lon="18.71072333">
<ele>104</ele>
<time>2014-05-18T17:59:58Z</time>
</trkpt>
<trkpt lat="53.01326734" lon="18.71087104">
<ele>105</ele>
<time>2014-05-18T18:00:04Z</time>
</trkpt>
<trkpt lat="53.01336359" lon="18.71095645">
<ele>108</ele>
<time>2014-05-18T18:00:10Z</time>
</trkpt>
<trkpt lat="53.01348916" lon="18.71106428">
<ele>106</ele>
<time>2014-05-18T18:00:16Z</time>
</trkpt>
<trkpt lat="53.01358891" lon="18.71101639">
<ele>107</ele>
<time>2014-05-18T18:00:22Z</time>
</trkpt>
<trkpt lat="53.01359571" lon="18.71087367">
<ele>115</ele>
<time>2014-05-18T18:00:28Z</time>
</trkpt>
<trkpt lat="53.01368734" lon="18.71055489">
<ele>118</ele>
<time>2014-05-18T18:00:34Z</time>
</trkpt>
<trkpt lat="53.0137103" lon="18.71046624">
<ele>119</ele>
<time>2014-05-18T18:00:40Z</time>
</trkpt>
<trkpt lat="53.01375019" lon="18.71018743">
<ele>112</ele>
<time>2014-05-18T18:00:46Z</time>
</trkpt>
<trkpt lat="53.01384731" lon="18.71001807">
<ele>114</ele>
<time>2014-05-18T18:00:52Z</time>
</trkpt>
<trkpt lat="53.01414437" lon="18.70972319">
<ele>117</ele>
<time>2014-05-18T18:00:58Z</time>
</trkpt>
<trkpt lat="53.01417563" lon="18.70966045">
<ele>118</ele>
<time>2014-05-18T18:01:04Z</time>
</trkpt>
<trkpt lat="53.01430079" lon="18.70924241">
<ele>122</ele>
<time>2014-05-18T18:01:10Z</time>
</trkpt>
<trkpt lat="53.01432981" lon="18.70917478">
<ele>122</ele>
<time>2014-05-18T18:01:16Z</time>
</trkpt>
<trkpt lat="53.01441741" lon="18.70867011">
<ele>119</ele>
<time>2014-05-18T18:01:22Z</time>
</trkpt>
<trkpt lat="53.01442114" lon="18.70856702">
<ele>119</ele>
<time>2014-05-18T18:01:28Z</time>
</trkpt>
<trkpt lat="53.01432985" lon="18.70776736">
<ele>113</ele>
<time>2014-05-18T18:01:34Z</time>
</trkpt>
<trkpt lat="53.01434274" lon="18.70762494">
<ele>114</ele>
<time>2014-05-18T18:01:40Z</time>
</trkpt>
<trkpt lat="53.01438825" lon="18.70709284">
<ele>117</ele>
<time>2014-05-18T18:01:46Z</time>
</trkpt>
<trkpt lat="53.01437346" lon="18.70697309">
<ele>117</ele>
<time>2014-05-18T18:01:52Z</time>
</trkpt>
<trkpt lat="53.01434521" lon="18.70681621">
<ele>117</ele>
<time>2014-05-18T18:01:58Z</time>
</trkpt>
<trkpt lat="53.01436534" lon="18.70654287">
<ele>125</ele>
<time>2014-05-18T18:02:04Z</time>
</trkpt>
<trkpt lat="53.01451314" lon="18.70602992">
<ele>128</ele>
<time>2014-05-18T18:02:10Z</time>
</trkpt>
<trkpt lat="53.01448889" lon="18.70569572">
<ele>138</ele>
<time>2014-05-18T18:02:16Z</time>
</trkpt>
<trkpt lat="53.01448779" lon="18.70559586">
<ele>136</ele>
<time>2014-05-18T18:02:22Z</time>
</trkpt>
<trkpt lat="53.01465892" lon="18.704897">
<ele>129</ele>
<time>2014-05-18T18:02:28Z</time>
</trkpt>
<trkpt lat="53.0146964" lon="18.70477053">
<ele>135</ele>
<time>2014-05-18T18:02:34Z</time>
</trkpt>
<trkpt lat="53.01477764" lon="18.70426208">
<ele>134</ele>
<time>2014-05-18T18:02:40Z</time>
</trkpt>
<trkpt lat="53.014827" lon="18.70377349">
<ele>121</ele>
<time>2014-05-18T18:02:46Z</time>
</trkpt>
<trkpt lat="53.01486168" lon="18.70360575">
<ele>121</ele>
<time>2014-05-18T18:02:52Z</time>
</trkpt>
<trkpt lat="53.01493363" lon="18.70339336">
<ele>120</ele>
<time>2014-05-18T18:02:58Z</time>
</trkpt>
<trkpt lat="53.01505181" lon="18.70277317">
<ele>118</ele>
<time>2014-05-18T18:03:04Z</time>
</trkpt>
<trkpt lat="53.01507609" lon="18.70245689">
<ele>114</ele>
<time>2014-05-18T18:03:10Z</time>
</trkpt>
<trkpt lat="53.01509478" lon="18.70231897">
<ele>117</ele>
<time>2014-05-18T18:03:16Z</time>
</trkpt>
<trkpt lat="53.01517187" lon="18.70199268">
<ele>126</ele>
<time>2014-05-18T18:03:22Z</time>
</trkpt>
<trkpt lat="53.01522098" lon="18.70167051">
<ele>128</ele>
<time>2014-05-18T18:03:28Z</time>
</trkpt>
<trkpt lat="53.01536435" lon="18.70107142">
<ele>125</ele>
<time>2014-05-18T18:03:34Z</time>
</trkpt>
<trkpt lat="53.01536435" lon="18.70107142">
<ele>125</ele>
<time>2014-05-18T18:03:40Z</time>
</trkpt>
<trkpt lat="53.01544609" lon="18.70056156">
<ele>124</ele>
<time>2014-05-18T18:03:46Z</time>
</trkpt>
<trkpt lat="53.01546957" lon="18.70044636">
<ele>124</ele>
<time>2014-05-18T18:03:52Z</time>
</trkpt>
<trkpt lat="53.01551437" lon="18.69999206">
<ele>125</ele>
<time>2014-05-18T18:03:58Z</time>
</trkpt>
<trkpt lat="53.01554472" lon="18.69964206">
<ele>126</ele>
<time>2014-05-18T18:04:04Z</time>
</trkpt>
<trkpt lat="53.01575538" lon="18.69914134">
<ele>124</ele>
<time>2014-05-18T18:04:10Z</time>
</trkpt>
<trkpt lat="53.01582898" lon="18.69907858">
<ele>115</ele>
<time>2014-05-18T18:04:16Z</time>
</trkpt>
<trkpt lat="53.01597451" lon="18.69894874">
<ele>115</ele>
<time>2014-05-18T18:04:22Z</time>
</trkpt>
<trkpt lat="53.01620609" lon="18.69859714">
<ele>113</ele>
<time>2014-05-18T18:04:28Z</time>
</trkpt>
<trkpt lat="53.01633476" lon="18.69850081">
<ele>110</ele>
<time>2014-05-18T18:04:34Z</time>
</trkpt>
<trkpt lat="53.01660265" lon="18.69847677">
<ele>111</ele>
<time>2014-05-18T18:04:40Z</time>
</trkpt>
<trkpt lat="53.01698282" lon="18.69874212">
<ele>114</ele>
<time>2014-05-18T18:04:46Z</time>
</trkpt>
<trkpt lat="53.01702949" lon="18.69879589">
<ele>114</ele>
<time>2014-05-18T18:04:52Z</time>
</trkpt>
<trkpt lat="53.01718611" lon="18.69888326">
<ele>112</ele>
<time>2014-05-18T18:04:58Z</time>
</trkpt>
<trkpt lat="53.01732985" lon="18.69897859">
<ele>113</ele>
<time>2014-05-18T18:05:04Z</time>
</trkpt>
<trkpt lat="53.01750968" lon="18.69913586">
<ele>114</ele>
<time>2014-05-18T18:05:10Z</time>
</trkpt>
<trkpt lat="53.01766944" lon="18.69924819">
<ele>115</ele>
<time>2014-05-18T18:05:16Z</time>
</trkpt>
<trkpt lat="53.01780026" lon="18.69936118">
<ele>116</ele>
<time>2014-05-18T18:05:22Z</time>
</trkpt>
<trkpt lat="53.01803011" lon="18.69955571">
<ele>114</ele>
<time>2014-05-18T18:05:28Z</time>
</trkpt>
<trkpt lat="53.01868515" lon="18.70002203">
<ele>112</ele>
<time>2014-05-18T18:05:34Z</time>
</trkpt>
<trkpt lat="53.01889747" lon="18.70009093">
<ele>111</ele>
<time>2014-05-18T18:05:40Z</time>
</trkpt>
<trkpt lat="53.01934546" lon="18.70031977">
<ele>109</ele>
<time>2014-05-18T18:05:46Z</time>
</trkpt>
<trkpt lat="53.0193968" lon="18.7003233">
<ele>107</ele>
<time>2014-05-18T18:05:52Z</time>
</trkpt>
<trkpt lat="53.01962759" lon="18.70061027">
<ele>105</ele>
<time>2014-05-18T18:05:58Z</time>
</trkpt>
<trkpt lat="53.01979225" lon="18.70073515">
<ele>108</ele>
<time>2014-05-18T18:06:04Z</time>
</trkpt>
<trkpt lat="53.01987817" lon="18.70072289">
<ele>110</ele>
<time>2014-05-18T18:06:10Z</time>
</trkpt>
<trkpt lat="53.02003255" lon="18.70074893">
<ele>110</ele>
<time>2014-05-18T18:06:16Z</time>
</trkpt>
<trkpt lat="53.02030093" lon="18.70073444">
<ele>109</ele>
<time>2014-05-18T18:06:22Z</time>
</trkpt>
<trkpt lat="53.02067895" lon="18.70074182">
<ele>113</ele>
<time>2014-05-18T18:06:28Z</time>
</trkpt>
<trkpt lat="53.02080082" lon="18.70076318">
<ele>112</ele>
<time>2014-05-18T18:06:34Z</time>
</trkpt>
<trkpt lat="53.02097241" lon="18.70071331">
<ele>108</ele>
<time>2014-05-18T18:06:40Z</time>
</trkpt>
<trkpt lat="53.0211881" lon="18.70073481">
<ele>108</ele>
<time>2014-05-18T18:06:46Z</time>
</trkpt>
<trkpt lat="53.0215077" lon="18.70061528">
<ele>105</ele>
<time>2014-05-18T18:06:52Z</time>
</trkpt>
<trkpt lat="53.02146525" lon="18.70022903">
<ele>95</ele>
<time>2014-05-18T18:06:58Z</time>
</trkpt>
<trkpt lat="53.02142237" lon="18.70014026">
<ele>91</ele>
<time>2014-05-18T18:07:04Z</time>
</trkpt>
<trkpt lat="53.02163559" lon="18.69956712">
<ele>95</ele>
<time>2014-05-18T18:07:10Z</time>
</trkpt>
<trkpt lat="53.02174797" lon="18.69933288">
<ele>99</ele>
<time>2014-05-18T18:07:16Z</time>
</trkpt>
<trkpt lat="53.0218356" lon="18.69914293">
<ele>105</ele>
<time>2014-05-18T18:07:22Z</time>
</trkpt>
<trkpt lat="53.0220263" lon="18.69866651">
<ele>108</ele>
<time>2014-05-18T18:07:28Z</time>
</trkpt>
<trkpt lat="53.02220965" lon="18.69837696">
<ele>123</ele>
<time>2014-05-18T18:07:34Z</time>
</trkpt>
<trkpt lat="53.02227361" lon="18.69830947">
<ele>132</ele>
<time>2014-05-18T18:07:40Z</time>
</trkpt>
<trkpt lat="53.02230126" lon="18.69751172">
<ele>121</ele>
<time>2014-05-18T18:07:46Z</time>
</trkpt>
<trkpt lat="53.02234822" lon="18.69723032">
<ele>111</ele>
<time>2014-05-18T18:07:52Z</time>
</trkpt>
<trkpt lat="53.02234822" lon="18.69723032">
<ele>111</ele>
<time>2014-05-18T18:07:58Z</time>
</trkpt>
<trkpt lat="53.02238094" lon="18.69696403">
<ele>114</ele>
<time>2014-05-18T18:08:04Z</time>
</trkpt>
<trkpt lat="53.02237544" lon="18.69646359">
<ele>116</ele>
<time>2014-05-18T18:08:10Z</time>
</trkpt>
<trkpt lat="53.02239521" lon="18.69634608">
<ele>114</ele>
<time>2014-05-18T18:08:16Z</time>
</trkpt>
<trkpt lat="53.0225058" lon="18.69602986">
<ele>111</ele>
<time>2014-05-18T18:08:22Z</time>
</trkpt>
<trkpt lat="53.02271445" lon="18.69583983">
<ele>110</ele>
<time>2014-05-18T18:08:28Z</time>
</trkpt>
<trkpt lat="53.02284962" lon="18.69574727">
<ele>111</ele>
<time>2014-05-18T18:08:34Z</time>
</trkpt>
<trkpt lat="53.02330971" lon="18.69548841">
<ele>109</ele>
<time>2014-05-18T18:08:40Z</time>
</trkpt>
<trkpt lat="53.02344303" lon="18.69531268">
<ele>113</ele>
<time>2014-05-18T18:08:46Z</time>
</trkpt>
<trkpt lat="53.02354476" lon="18.69522">
<ele>112</ele>
<time>2014-05-18T18:08:52Z</time>
</trkpt>
<trkpt lat="53.02377038" lon="18.69494387">
<ele>100</ele>
<time>2014-05-18T18:08:58Z</time>
</trkpt>
<trkpt lat="53.02372866" lon="18.6946552">
<ele>100</ele>
<time>2014-05-18T18:09:04Z</time>
</trkpt>
<trkpt lat="53.02367312" lon="18.69439358">
<ele>99</ele>
<time>2014-05-18T18:09:10Z</time>
</trkpt>
<trkpt lat="53.02361263" lon="18.69408729">
<ele>99</ele>
<time>2014-05-18T18:09:16Z</time>
</trkpt>
<trkpt lat="53.0235491" lon="18.69378195">
<ele>100</ele>
<time>2014-05-18T18:09:22Z</time>
</trkpt>
<trkpt lat="53.02348563" lon="18.69349366">
<ele>99</ele>
<time>2014-05-18T18:09:28Z</time>
</trkpt>
<trkpt lat="53.02341128" lon="18.69317105">
<ele>100</ele>
<time>2014-05-18T18:09:34Z</time>
</trkpt>
<trkpt lat="53.02332468" lon="18.69280861">
<ele>101</ele>
<time>2014-05-18T18:09:40Z</time>
</trkpt>
<trkpt lat="53.02324054" lon="18.69247299">
<ele>102</ele>
<time>2014-05-18T18:09:46Z</time>
</trkpt>
<trkpt lat="53.02316774" lon="18.6921547">
<ele>103</ele>
<time>2014-05-18T18:09:52Z</time>
</trkpt>
<trkpt lat="53.02307454" lon="18.69177579">
<ele>102</ele>
<time>2014-05-18T18:09:58Z</time>
</trkpt>
<trkpt lat="53.0229662" lon="18.69140743">
<ele>102</ele>
<time>2014-05-18T18:10:04Z</time>
</trkpt>
<trkpt lat="53.02283315" lon="18.69107965">
<ele>101</ele>
<time>2014-05-18T18:10:10Z</time>
</trkpt>
<trkpt lat="53.02273509" lon="18.6907044">
<ele>100</ele>
<time>2014-05-18T18:10:16Z</time>
</trkpt>
<trkpt lat="53.02263138" lon="18.69031691">
<ele>101</ele>
<time>2014-05-18T18:10:22Z</time>
</trkpt>
<trkpt lat="53.02249361" lon="18.68994357">
<ele>99</ele>
<time>2014-05-18T18:10:28Z</time>
</trkpt>
<trkpt lat="53.02236149" lon="18.68967862">
<ele>100</ele>
<time>2014-05-18T18:10:34Z</time>
</trkpt>
<trkpt lat="53.02228414" lon="18.68930716">
<ele>101</ele>
<time>2014-05-18T18:10:40Z</time>
</trkpt>
<trkpt lat="53.0222783" lon="18.68894095">
<ele>101</ele>
<time>2014-05-18T18:10:46Z</time>
</trkpt>
<trkpt lat="53.02239337" lon="18.68864899">
<ele>102</ele>
<time>2014-05-18T18:10:52Z</time>
</trkpt>
<trkpt lat="53.02264056" lon="18.68857797">
<ele>101</ele>
<time>2014-05-18T18:10:58Z</time>
</trkpt>
<trkpt lat="53.02283578" lon="18.68833302">
<ele>100</ele>
<time>2014-05-18T18:11:04Z</time>
</trkpt>
<trkpt lat="53.02286808" lon="18.68796869">
<ele>100</ele>
<time>2014-05-18T18:11:10Z</time>
</trkpt>
<trkpt lat="53.02275277" lon="18.68766435">
<ele>100</ele>
<time>2014-05-18T18:11:16Z</time>
</trkpt>
<trkpt lat="53.02271644" lon="18.68729306">
<ele>101</ele>
<time>2014-05-18T18:11:22Z</time>
</trkpt>
<trkpt lat="53.02272493" lon="18.68690924">
<ele>102</ele>
<time>2014-05-18T18:11:28Z</time>
</trkpt>
<trkpt lat="53.02275326" lon="18.68648711">
<ele>104</ele>
<time>2014-05-18T18:11:34Z</time>
</trkpt>
<trkpt lat="53.02276475" lon="18.68635579">
<ele>105</ele>
<time>2014-05-18T18:11:40Z</time>
</trkpt>
<trkpt lat="53.02283194" lon="18.68567969">
<ele>111</ele>
<time>2014-05-18T18:11:46Z</time>
</trkpt>
<trkpt lat="53.02288028" lon="18.6852978">
<ele>115</ele>
<time>2014-05-18T18:11:52Z</time>
</trkpt>
<trkpt lat="53.02293437" lon="18.68496638">
<ele>117</ele>
<time>2014-05-18T18:11:58Z</time>
</trkpt>
<trkpt lat="53.02299166" lon="18.68461111">
<ele>118</ele>
<time>2014-05-18T18:12:04Z</time>
</trkpt>
<trkpt lat="53.02305743" lon="18.6842218">
<ele>118</ele>
<time>2014-05-18T18:12:10Z</time>
</trkpt>
<trkpt lat="53.02312764" lon="18.68362011">
<ele>115</ele>
<time>2014-05-18T18:12:16Z</time>
</trkpt>
<trkpt lat="53.02316985" lon="18.68341255">
<ele>113</ele>
<time>2014-05-18T18:12:22Z</time>
</trkpt>
<trkpt lat="53.02349533" lon="18.68295176">
<ele>109</ele>
<time>2014-05-18T18:12:28Z</time>
</trkpt>
<trkpt lat="53.02375547" lon="18.68283746">
<ele>108</ele>
<time>2014-05-18T18:12:34Z</time>
</trkpt>
<trkpt lat="53.02403389" lon="18.682664">
<ele>108</ele>
<time>2014-05-18T18:12:40Z</time>
</trkpt>
<trkpt lat="53.02413869" lon="18.68259387">
<ele>109</ele>
<time>2014-05-18T18:12:46Z</time>
</trkpt>
<trkpt lat="53.02443914" lon="18.68241274">
<ele>109</ele>
<time>2014-05-18T18:12:52Z</time>
</trkpt>
<trkpt lat="53.02492589" lon="18.68221112">
<ele>107</ele>
<time>2014-05-18T18:12:58Z</time>
</trkpt>
<trkpt lat="53.02503298" lon="18.68217065">
<ele>106</ele>
<time>2014-05-18T18:13:04Z</time>
</trkpt>
<trkpt lat="53.02534249" lon="18.68201948">
<ele>107</ele>
<time>2014-05-18T18:13:10Z</time>
</trkpt>
<trkpt lat="53.02554777" lon="18.68196995">
<ele>110</ele>
<time>2014-05-18T18:13:16Z</time>
</trkpt>
<trkpt lat="53.02585332" lon="18.68165438">
<ele>107</ele>
<time>2014-05-18T18:13:22Z</time>
</trkpt>
<trkpt lat="53.02579527" lon="18.68148537">
<ele>108</ele>
<time>2014-05-18T18:13:28Z</time>
</trkpt>
<trkpt lat="53.02577142" lon="18.68139072">
<ele>109</ele>
<time>2014-05-18T18:13:34Z</time>
</trkpt>
<trkpt lat="53.02572799" lon="18.68111874">
<ele>109</ele>
<time>2014-05-18T18:13:40Z</time>
</trkpt>
<trkpt lat="53.02569061" lon="18.68085686">
<ele>112</ele>
<time>2014-05-18T18:13:46Z</time>
</trkpt>
<trkpt lat="53.02565891" lon="18.68028494">
<ele>114</ele>
<time>2014-05-18T18:13:52Z</time>
</trkpt>
<trkpt lat="53.02560789" lon="18.6800886">
<ele>116</ele>
<time>2014-05-18T18:13:58Z</time>
</trkpt>
<trkpt lat="53.02560789" lon="18.6800886">
<ele>116</ele>
<time>2014-05-18T18:14:04Z</time>
</trkpt>
<trkpt lat="53.02572731" lon="18.67996399">
<ele>107</ele>
<time>2014-05-18T18:14:10Z</time>
</trkpt>
<trkpt lat="53.0256714" lon="18.67964957">
<ele>106</ele>
<time>2014-05-18T18:14:16Z</time>
</trkpt>
<trkpt lat="53.02575531" lon="18.67926105">
<ele>107</ele>
<time>2014-05-18T18:14:22Z</time>
</trkpt>
<trkpt lat="53.0257767" lon="18.6791731">
<ele>108</ele>
<time>2014-05-18T18:14:28Z</time>
</trkpt>
<trkpt lat="53.0258909" lon="18.67910067">
<ele>109</ele>
<time>2014-05-18T18:14:34Z</time>
</trkpt>
<trkpt lat="53.0258909" lon="18.67910067">
<ele>109</ele>
<time>2014-05-18T18:14:40Z</time>
</trkpt>
<trkpt lat="53.025904" lon="18.67909859">
<ele>111</ele>
<time>2014-05-18T18:14:46Z</time>
</trkpt>
<trkpt lat="53.02601854" lon="18.67909592">
<ele>116</ele>
<time>2014-05-18T18:14:52Z</time>
</trkpt>
<trkpt lat="53.02601854" lon="18.67909592">
<ele>116</ele>
<time>2014-05-18T18:14:58Z</time>
</trkpt>
<trkpt lat="53.02604901" lon="18.67907533">
<ele>118</ele>
<time>2014-05-18T18:15:04Z</time>
</trkpt>
<trkpt lat="53.02605599" lon="18.67906427">
<ele>120</ele>
<time>2014-05-18T18:15:10Z</time>
</trkpt>
<trkpt lat="53.02606098" lon="18.67906375">
<ele>121</ele>
<time>2014-05-18T18:15:16Z</time>
</trkpt>
<trkpt lat="53.02606308" lon="18.67906464">
<ele>121</ele>
<time>2014-05-18T18:15:22Z</time>
</trkpt>
<trkpt lat="53.02606303" lon="18.6790645">
<ele>121</ele>
<time>2014-05-18T18:15:28Z</time>
</trkpt>
<trkpt lat="53.02606297" lon="18.67906444">
<ele>121</ele>
<time>2014-05-18T18:15:34Z</time>
</trkpt>
<trkpt lat="53.02606375" lon="18.67906455">
<ele>121</ele>
<time>2014-05-18T18:15:40Z</time>
</trkpt>
<trkpt lat="53.0260638" lon="18.67906454">
<ele>121</ele>
<time>2014-05-18T18:15:46Z</time>
</trkpt>
<trkpt lat="53.02606406" lon="18.67906449">
<ele>121</ele>
<time>2014-05-18T18:15:52Z</time>
</trkpt>
<trkpt lat="53.02610303" lon="18.67907162">
<ele>121</ele>
<time>2014-05-18T18:15:58Z</time>
</trkpt>
<trkpt lat="53.02613603" lon="18.67908968">
<ele>121</ele>
<time>2014-05-18T18:16:04Z</time>
</trkpt>
<trkpt lat="53.0261182" lon="18.67908014">
<ele>122</ele>
<time>2014-05-18T18:16:10Z</time>
</trkpt>
<trkpt lat="53.02611815" lon="18.6790756">
<ele>123</ele>
<time>2014-05-18T18:16:16Z</time>
</trkpt>
<trkpt lat="53.02612477" lon="18.67907365">
<ele>123</ele>
<time>2014-05-18T18:16:22Z</time>
</trkpt>
<trkpt lat="53.02611373" lon="18.67907025">
<ele>123</ele>
<time>2014-05-18T18:16:28Z</time>
</trkpt>
<trkpt lat="53.02610172" lon="18.67906707">
<ele>123</ele>
<time>2014-05-18T18:16:34Z</time>
</trkpt>
<trkpt lat="53.02610101" lon="18.67906701">
<ele>123</ele>
<time>2014-05-18T18:16:40Z</time>
</trkpt>
<trkpt lat="53.026101" lon="18.67906701">
<ele>123</ele>
<time>2014-05-18T18:16:46Z</time>
</trkpt>
<trkpt lat="53.02610099" lon="18.67906701">
<ele>123</ele>
<time>2014-05-18T18:16:52Z</time>
</trkpt>
<trkpt lat="53.02610099" lon="18.67906701">
<ele>123</ele>
<time>2014-05-18T18:17:00Z</time>
</trkpt>
<trkpt lat="53.02610101" lon="18.67906701">
<ele>123</ele>
<time>2014-05-18T18:17:43Z</time>
</trkpt>
<trkpt lat="53.02615431" lon="18.67894506">
<ele>130</ele>
<time>2014-05-18T18:17:49Z</time>
</trkpt>
<trkpt lat="53.02610138" lon="18.6789272">
<ele>131</ele>
<time>2014-05-18T18:17:55Z</time>
</trkpt>
<trkpt lat="53.02610138" lon="18.6789272">
<ele>131</ele>
<time>2014-05-18T18:18:01Z</time>
</trkpt>
<trkpt lat="53.02599653" lon="18.67898587">
<ele>127</ele>
<time>2014-05-18T18:18:07Z</time>
</trkpt>
<trkpt lat="53.02590996" lon="18.6790236">
<ele>126</ele>
<time>2014-05-18T18:18:13Z</time>
</trkpt>
<trkpt lat="53.02590996" lon="18.6790236">
<ele>126</ele>
<time>2014-05-18T18:18:19Z</time>
</trkpt>
<trkpt lat="53.02589848" lon="18.67902744">
<ele>126</ele>
<time>2014-05-18T18:18:25Z</time>
</trkpt>
<trkpt lat="53.02589732" lon="18.6790268">
<ele>126</ele>
<time>2014-05-18T18:18:31Z</time>
</trkpt>
<trkpt lat="53.02589697" lon="18.6790261">
<ele>126</ele>
<time>2014-05-18T18:18:37Z</time>
</trkpt>
</trkseg>
</trk>
</gpx>